# Wetter Temperatur Luftdruck Luftfeuchtigkeit Sichtweite Windgeschwindigkeit Windrichtung Zeit
1 Clear -10 1025 92 10000 4 360 12:30 22.04.2021
2 Clear -12 1026 85 10000 4 360 11:50 22.04.2021
3 Clear -12 1026 85 10000 4 360 11:26 22.04.2021
4 Clear -12 1027 85 10000 3 360 10:47 22.04.2021
5 Clear -12 1027 85 10000 3 360 10:29 22.04.2021
6 Clear -8 1027 86 10000 2 310 09:59 22.04.2021
7 Clear -8 1027 86 10000 2 310 09:34 22.04.2021
8 Clear -7 1027 86 10000 2 330 08:48 22.04.2021
9 Clear -7 1027 86 10000 2 330 08:23 22.04.2021
10 Clear -7 1028 86 10000 2 340 07:49 22.04.2021
11 Clear -7 1028 86 10000 3 340 07:30 22.04.2021
12 Clear -6 1029 86 10000 3 350 06:43 22.04.2021
13 Clear -7 1029 86 10000 3 350 05:54 22.04.2021
14 Clear -7 1030 86 10000 2 350 05:20 22.04.2021
15 Clear -10 1032 85 10000 3 340 02:24 22.04.2021
16 Clear -11 1034 85 10000 1 0 23:55 21.04.2021
17 Clear -12 1034 85 10000 1 0 23:37 21.04.2021
18 Clear -11 1034 85 10000 3 350 22:59 21.04.2021
19 Fog -11 1034 85 10000 5 360 22:38 21.04.2021
20 Fog -11 1034 85 10000 5 360 22:18 21.04.2021
21 Fog -10 1034 92 10000 4 360 21:41 21.04.2021
22 Fog -10 1034 92 10000 4 360 21:19 21.04.2021
23 Fog -13 1035 85 10000 3 20 20:27 21.04.2021
24 Fog -15 1035 85 10000 2 10 19:46 21.04.2021
25 Fog -15 1035 85 10000 2 10 19:27 21.04.2021
26 Fog -15 1035 85 10000 1 0 18:52 21.04.2021
27 Fog -15 1035 85 10000 1 0 18:34 21.04.2021
28 Fog -14 1036 85 10000 1.3 359 17:59 21.04.2021
29 Fog -14 1036 85 10000 1.3 359 17:39 21.04.2021
30 Fog -14 1036 85 10000 1.01 7 17:20 21.04.2021
31 Clouds -13 1036 85 10000 1 0 16:38 21.04.2021
32 Fog -12 1037 85 650 1 0 15:47 21.04.2021
33 Fog -12 1037 85 650 1 0 15:21 21.04.2021
34 Clear -12 1037 85 10000 1 170 14:45 21.04.2021
35 Clear -12 1037 85 10000 1 170 14:25 21.04.2021
36 Clear -13 1037 85 10000 1 0 13:50 21.04.2021
37 Clear -13 1037 85 10000 1 0 13:22 21.04.2021
38 Clouds -12 1037 92 9000 3 360 12:46 21.04.2021
39 Clouds -12 1037 92 9000 3 360 12:20 21.04.2021
40 Fog -12 1038 85 10000 3 60 11:43 21.04.2021
41 Fog -13 1038 85 10000 3 60 11:23 21.04.2021
42 Clouds -14 1038 92 8000 0.77 87 10:39 21.04.2021
43 Fog -8 1038 93 10000 0.4 121 09:57 21.04.2021
44 Fog -8 1038 93 10000 0.93 147 09:26 21.04.2021
45 Fog -9 1038 92 10000 0.93 147 08:50 21.04.2021
46 Clouds -7 1038 93 7000 0.65 182 08:24 21.04.2021
47 Fog -7 1038 86 1100 1 260 07:54 21.04.2021
48 Fog -6 1039 93 10000 1 0 07:28 21.04.2021
49 Clouds -4 1039 86 10000 0.69 171 06:21 21.04.2021
50 Mist -8 1040 86 5000 1 0 02:28 21.04.2021
51 Fog -10 1041 85 300 2 210 00:20 21.04.2021
52 Fog -10 1041 85 500 2 200 23:40 20.04.2021
53 Fog -11 1041 85 250 1 0 22:49 20.04.2021
54 Fog -11 1041 85 600 1 230 22:24 20.04.2021
55 Fog -11 1041 85 10000 1 0 21:57 20.04.2021
56 Fog -10 1041 85 10000 1 0 21:39 20.04.2021
57 Fog -10 1041 85 10000 1 0 21:21 20.04.2021
58 Fog -10 1041 85 1200 2 130 20:39 20.04.2021
59 Fog -11 1041 85 1200 2 130 20:20 20.04.2021
60 Fog -12 1041 85 250 2 150 19:47 20.04.2021
61 Fog -12 1041 85 250 2 150 19:29 20.04.2021
62 Clouds -13 1041 92 10000 1.59 147 18:46 20.04.2021
63 Clouds -13 1041 92 10000 1.66 130 18:28 20.04.2021
64 Clear -11 1041 92 10000 2 240 17:41 20.04.2021
65 Clear -7 1041 79 10000 1 0 16:51 20.04.2021
66 Clear -7 1041 79 10000 1 0 16:28 20.04.2021
67 Clear -4 1042 74 10000 1 0 15:40 20.04.2021
68 Clear -4 1042 74 10000 1 0 15:19 20.04.2021
69 Clear -4 1042 80 10000 3 120 14:45 20.04.2021
70 Clear -4 1042 80 10000 3 120 14:22 20.04.2021
71 Clear -3 1043 74 10000 3 130 13:28 20.04.2021
72 Clear -2 1043 64 10000 4 120 12:55 20.04.2021
73 Clear -2 1043 64 10000 4 120 12:24 20.04.2021
74 Clear -1 1043 59 10000 5 110 11:46 20.04.2021
75 Clear -1 1043 59 10000 5 110 11:25 20.04.2021
76 Clear -6 1043 86 10000 1 0 10:48 20.04.2021
77 Clear -6 1043 86 10000 1 0 10:24 20.04.2021
78 Clear -5 1043 80 10000 2.26 144 09:47 20.04.2021
79 Clear -5 1043 80 10000 1.49 146 09:18 20.04.2021
80 Clear -4 1043 86 10000 2 180 08:42 20.04.2021
81 Clear -3 1042 74 10000 2 170 07:58 20.04.2021
82 Clear -6 1043 86 10000 1.6 163 07:31 20.04.2021
83 Clear -4 1042 80 10000 1 0 05:42 20.04.2021
84 Clear -6 1042 86 10000 2 350 04:57 20.04.2021
85 Clear -7 1043 86 10000 4 350 03:41 20.04.2021
86 Clear -8 1042 86 10000 3 360 00:51 20.04.2021
87 Clear -8 1041 86 10000 2 360 23:54 19.04.2021
88 Fog -10 1041 85 10000 3 340 23:31 19.04.2021
89 Fog -11 1041 85 10000 1 0 22:43 19.04.2021
90 Fog -13 1041 85 10000 3 320 22:22 19.04.2021
91 Fog -13 1040 85 700 1 0 21:42 19.04.2021
92 Fog -13 1040 85 700 1 0 21:20 19.04.2021
93 Fog -11 1039 92 1400 8 350 20:41 19.04.2021
94 Fog -11 1039 92 1400 8 350 20:20 19.04.2021
95 Fog -12 1038 92 1100 7 340 19:48 19.04.2021
96 Fog -12 1038 92 1100 7 340 19:26 19.04.2021
97 Fog -13 1037 85 10000 7 340 18:56 19.04.2021
98 Fog -13 1037 85 10000 7 340 18:37 19.04.2021
99 Fog -13 1037 85 10000 7 340 18:18 19.04.2021
100 Fog -12 1037 85 8000 5 320 17:40 19.04.2021
101 Fog -12 1037 85 8000 5 320 17:22 19.04.2021
102 Fog -10 1036 85 1000 6 340 16:41 19.04.2021
103 Fog -10 1036 85 1000 6 340 16:22 19.04.2021
104 Clouds -9 1035 86 10000 3 340 15:40 19.04.2021
105 Clouds -9 1035 86 10000 3 340 15:22 19.04.2021
106 Clouds -7 1035 93 10000 6 340 14:41 19.04.2021
107 Clouds -7 1035 93 10000 6 340 14:23 19.04.2021
108 Clouds -6 1034 93 10000 6 360 13:48 19.04.2021
109 Clouds -6 1034 93 10000 6 360 13:25 19.04.2021
110 Clouds -4 1033 86 10000 6 350 12:45 19.04.2021
111 Clouds -4 1033 86 10000 6 350 12:24 19.04.2021
112 Clouds -3 1033 80 10000 4 350 11:54 19.04.2021
113 Clouds -3 1033 80 10000 4 350 11:26 19.04.2021
114 Clouds -3 1033 80 10000 4 350 11:26 19.04.2021
115 Clouds -3 1032 80 10000 2 350 10:51 19.04.2021
116 Clouds -3 1032 80 10000 2 350 10:26 19.04.2021
117 Clouds -3 1031 80 10000 1 80 09:57 19.04.2021
118 Clouds -3 1031 80 10000 1 80 09:36 19.04.2021
119 Clouds -3 1031 80 10000 1 80 09:18 19.04.2021
120 Clouds -4 1030 80 10000 1 190 08:29 19.04.2021
121 Clouds -4 1029 80 10000 2 160 07:49 19.04.2021
122 Clouds -4 1029 80 10000 2 170 07:20 19.04.2021
123 Clear -4 1028 80 10000 3 170 06:37 19.04.2021
124 Clear -4 1026 68 10000 3 150 02:37 19.04.2021
125 Clouds -4 1026 74 10000 3 130 01:29 19.04.2021
126 Clouds -6 1026 86 10000 3 210 00:23 19.04.2021
127 Clouds -7 1026 79 10000 4 200 23:19 18.04.2021
128 Clouds -7 1025 79 10000 1 0 22:49 18.04.2021
129 Clouds -7 1025 79 10000 3 210 22:30 18.04.2021
130 Clouds -7 1025 79 10000 3 210 22:30 18.04.2021
131 Clouds -9 1025 86 10000 1 220 21:45 18.04.2021
132 Clouds -9 1025 86 10000 1 220 21:23 18.04.2021
133 Clouds -7 1024 86 10000 3 20 20:40 18.04.2021
134 Clouds -7 1024 86 10000 3 20 20:20 18.04.2021
135 Clouds -8 1024 86 10000 2 20 19:49 18.04.2021
136 Clouds -8 1024 86 10000 2 20 19:30 18.04.2021
137 Clouds -7 1023 86 10000 2 360 18:54 18.04.2021
138 Clouds -7 1023 86 10000 2 360 18:31 18.04.2021
139 Clouds -7 1023 86 10000 2 360 18:31 18.04.2021
140 Clouds -7 1023 86 10000 3 350 17:57 18.04.2021
141 Clouds -7 1023 86 10000 3 350 17:38 18.04.2021
142 Clouds -7 1023 86 10000 3 350 17:19 18.04.2021
143 Clouds -6 1022 86 10000 3 10 16:41 18.04.2021
144 Clouds -6 1022 86 10000 3 10 16:18 18.04.2021
145 Clouds -5 1022 86 10000 4 360 15:39 18.04.2021
146 Clouds -5 1022 86 10000 4 360 15:20 18.04.2021
147 Clouds -5 1022 93 10000 3 340 14:42 18.04.2021
148 Clouds -5 1022 93 10000 3 340 14:19 18.04.2021
149 Snow -5 1021 93 10000 5 340 13:53 18.04.2021
150 Snow -5 1021 93 10000 5 340 13:30 18.04.2021
151 Snow -5 1021 93 10000 4 360 12:43 18.04.2021
152 Snow -5 1021 93 10000 4 360 12:23 18.04.2021
153 Snow -5 1021 93 8000 4 340 11:41 18.04.2021
154 Snow -5 1021 93 8000 4 340 11:20 18.04.2021
155 Snow -4 1020 93 4500 5 330 10:46 18.04.2021
156 Snow -4 1020 93 4500 5 330 10:21 18.04.2021
157 Snow -4 1019 93 8000 4 350 09:44 18.04.2021
158 Snow -4 1019 93 8000 4 350 09:26 18.04.2021
159 Snow -4 1018 93 3700 5 330 08:48 18.04.2021
160 Snow -4 1018 93 3700 5 330 08:29 18.04.2021
161 Snow -3 1018 93 1500 5 330 07:53 18.04.2021
162 Snow -3 1018 93 1500 5 330 07:35 18.04.2021
163 Snow -3 1017 93 1100 5 330 05:39 18.04.2021
164 Snow -3 1017 93 1100 5 330 05:21 18.04.2021
165 Snow -3 1015 93 1300 5 330 02:24 18.04.2021
166 Snow -2 1015 93 900 4 330 01:31 18.04.2021
167 Snow 0 1014 100 800 5 140 00:28 18.04.2021
168 Snow 0 1013 100 1600 5 140 23:30 17.04.2021
169 Snow 0 1013 100 2000 7 140 22:49 17.04.2021
170 Snow 0 1013 100 2000 7 140 22:30 17.04.2021
171 Snow 0 1012 100 2500 11 130 21:45 17.04.2021
172 Snow 0 1012 100 2500 11 130 21:25 17.04.2021
173 Snow 0 1011 100 5000 11 130 20:43 17.04.2021
174 Snow 0 1011 100 5000 11 130 20:23 17.04.2021
175 Snow 0 1011 93 9000 9 130 19:43 17.04.2021
176 Clouds 0 1011 93 9000 9 130 19:20 17.04.2021
177 Clouds 0 1010 93 10000 11 130 18:51 17.04.2021
178 Clouds 0 1010 93 10000 11 130 18:25 17.04.2021
179 Clouds 0 1010 93 10000 11 120 17:43 17.04.2021
180 Clouds 0 1010 93 10000 11 120 17:21 17.04.2021
181 Snow 0 1009 93 10000 11 130 16:40 17.04.2021
182 Snow 0 1009 93 10000 11 130 16:22 17.04.2021
183 Snow 0 1009 86 10000 13 130 15:22 17.04.2021
184 Clouds 0 1008 86 10000 14 130 14:44 17.04.2021
185 Clouds 0 1008 86 10000 14 130 14:20 17.04.2021
186 Clouds 0 1009 86 10000 12 130 13:43 17.04.2021
187 Clouds 1 1009 86 10000 14 130 12:55 17.04.2021
188 Clouds 1 1009 86 10000 14 130 12:33 17.04.2021
189 Clouds 1 1008 80 10000 17 120 11:51 17.04.2021
190 Clouds 1 1008 80 10000 17 120 11:33 17.04.2021
191 Clouds 2 1007 69 10000 15 120 10:56 17.04.2021
192 Clouds 2 1007 69 10000 15 120 10:38 17.04.2021
193 Clear 1 1008 80 10000 16 120 09:47 17.04.2021
194 Clear 2 1008 69 10000 16 120 08:54 17.04.2021
195 Clear 2 1008 69 10000 16 120 08:29 17.04.2021
196 Clear 2 1010 69 10000 16 120 07:46 17.04.2021
197 Clear 3 1011 75 10000 12 120 05:43 17.04.2021
198 Clear 3 1014 81 10000 7 150 03:46 17.04.2021
199 Clouds 2 1014 80 10000 9 170 00:56 17.04.2021
200 Clouds 2 1014 80 10000 9 170 00:30 17.04.2021
201 Clouds 2 1014 80 10000 9 170 00:30 17.04.2021
202 Clouds 1 1013 86 10000 9 160 23:59 16.04.2021
203 Clouds 1 1013 86 10000 9 160 23:34 16.04.2021
204 Clear 1 1013 86 10000 9 160 22:51 16.04.2021
205 Clear 1 1013 86 10000 9 160 22:24 16.04.2021
206 Clear 1 1014 80 10000 7 150 21:57 16.04.2021
207 Clear 1 1014 80 10000 7 150 21:39 16.04.2021
208 Clear 1 1014 80 10000 7 150 21:39 16.04.2021
209 Clear 1 1014 80 10000 9 170 20:56 16.04.2021
210 Clear 1 1014 80 10000 9 170 20:37 16.04.2021
211 Clear 1 1014 80 10000 9 170 20:18 16.04.2021
212 Clear 1 1013 80 10000 9 160 19:43 16.04.2021
213 Clear 1 1013 80 10000 9 160 19:19 16.04.2021
214 Clear 2 1012 75 10000 10 150 18:27 16.04.2021
215 Clear 3 1012 70 10000 8 140 17:49 16.04.2021
216 Clear 3 1012 70 10000 8 140 17:20 16.04.2021
217 Clear 2 1012 80 10000 9 130 16:45 16.04.2021
218 Clear 2 1012 80 10000 9 130 16:26 16.04.2021
219 Clear 2 1012 80 10000 9 130 16:26 16.04.2021
220 Clear 2 1012 80 10000 7 140 15:56 16.04.2021
221 Clear 2 1012 80 10000 7 140 15:36 16.04.2021
222 Clear 3 1012 70 10000 7 140 14:46 16.04.2021
223 Clear 3 1012 70 10000 7 140 14:28 16.04.2021
224 Clear 2 1013 75 10000 6 130 13:56 16.04.2021
225 Clear 2 1013 75 10000 6 130 13:23 16.04.2021
226 Clear 2 1014 75 10000 7 140 12:55 16.04.2021
227 Clear 2 1014 75 10000 7 140 12:36 16.04.2021
228 Clear 3 1014 70 10000 6 140 11:59 16.04.2021
229 Clear 3 1014 70 10000 6 140 11:41 16.04.2021
230 Clear 3 1014 70 10000 6 140 11:20 16.04.2021
231 Clouds 2 1014 75 10000 7 130 10:41 16.04.2021
232 Clouds 2 1014 75 10000 7 130 10:21 16.04.2021
233 Clear 2 1014 75 10000 5 140 09:44 16.04.2021
234 Clear 2 1014 75 10000 5 140 09:22 16.04.2021
235 Clouds 2 1014 75 10000 8 120 08:45 16.04.2021
236 Clouds 2 1014 75 10000 8 120 08:19 16.04.2021
237 Snow 2 1014 75 10000 7 130 07:43 16.04.2021
238 Snow 2 1014 80 10000 5 110 07:25 16.04.2021
239 Snow 1 1015 80 10000 8 110 06:41 16.04.2021
240 Snow 0 1016 80 10000 12 100 05:32 16.04.2021
241 Snow -4 1019 80 7000 13 100 01:47 16.04.2021
242 Snow -4 1019 80 9000 13 110 00:45 16.04.2021
243 Snow -5 1020 86 10000 11 110 00:21 16.04.2021
244 Snow -5 1020 80 10000 11 110 23:56 15.04.2021
245 Snow -5 1020 80 8000 12 110 23:32 15.04.2021
246 Snow -5 1020 80 10000 9 100 22:50 15.04.2021
247 Snow -6 1021 79 10000 9 120 22:23 15.04.2021
248 Snow -7 1021 73 10000 8 120 21:44 15.04.2021
249 Snow -7 1021 73 10000 8 120 21:26 15.04.2021
250 Snow -8 1022 73 10000 4 80 20:49 15.04.2021
251 Snow -8 1022 73 10000 4 80 20:25 15.04.2021
252 Snow -9 1022 79 4900 4 90 19:57 15.04.2021
253 Snow -9 1022 79 4900 4 90 19:39 15.04.2021
254 Snow -9 1022 79 4900 4 90 19:20 15.04.2021
255 Snow -9 1023 73 9000 8 120 18:39 15.04.2021
256 Snow -9 1023 73 9000 8 120 18:18 15.04.2021
257 Snow -10 1024 73 9000 5 100 17:53 15.04.2021
258 Snow -10 1024 73 9000 5 100 17:30 15.04.2021
259 Clear -11 1024 73 10000 6 110 16:44 15.04.2021
260 Clear -11 1024 73 10000 6 110 16:24 15.04.2021
261 Clear -11 1025 73 10000 4 120 15:50 15.04.2021
262 Clear -11 1025 73 10000 4 120 15:28 15.04.2021
263 Clear -11 1026 67 10000 5 130 14:44 15.04.2021
264 Clear -11 1026 67 10000 5 130 14:44 15.04.2021
265 Clear -11 1026 67 10000 5 130 14:26 15.04.2021
266 Clear -11 1026 67 10000 4 140 13:51 15.04.2021
267 Clear -11 1026 67 10000 4 140 13:25 15.04.2021
268 Clear -11 1026 62 10000 4 140 12:53 15.04.2021
269 Clear -11 1026 62 10000 4 140 12:27 15.04.2021
270 Clear -13 1025 66 10000 2 140 11:48 15.04.2021
271 Clear -13 1025 66 10000 2 140 11:30 15.04.2021
272 Clear -13 1025 66 10000 2 140 11:30 15.04.2021
273 Clear -13 1025 78 10000 2 150 10:59 15.04.2021
274 Clear -13 1025 78 10000 2 150 10:40 15.04.2021
275 Clear -13 1025 78 10000 2 150 10:22 15.04.2021
276 Clear -13 1025 85 10000 2 150 09:31 15.04.2021
277 Clear -12 1025 72 10000 1 0 08:53 15.04.2021
278 Clear -12 1025 72 10000 1 0 08:35 15.04.2021
279 Clear -12 1025 72 10000 1 200 07:47 15.04.2021
280 Clear -10 1025 57 10000 1 210 07:18 15.04.2021
281 Clear -9 1025 53 10000 0.23 347 06:36 15.04.2021
282 Clear -11 1025 62 10000 1.33 264 05:47 15.04.2021
283 Clear -12 1024 67 10000 2 360 03:59 15.04.2021
284 Clouds -13 1024 66 10000 4 10 00:23 15.04.2021
285 Snow -15 1024 78 10000 3 10 23:36 14.04.2021
286 Snow -14 1024 72 10000 4 10 22:59 14.04.2021
287 Snow -15 1023 78 10000 4 30 22:39 14.04.2021
288 Snow -15 1023 78 10000 4 30 22:20 14.04.2021
289 Snow -16 1023 85 10000 3 30 21:42 14.04.2021
290 Snow -16 1023 85 10000 3 30 21:22 14.04.2021
291 Clouds -17 1023 78 10000 4 40 20:48 14.04.2021
292 Clouds -17 1023 78 10000 4 40 20:29 14.04.2021
293 Clouds -18 1022 78 10000 4 30 19:48 14.04.2021
294 Clouds -18 1022 78 10000 4 30 19:19 14.04.2021
295 Clouds -18 1022 78 10000 4 30 19:19 14.04.2021
296 Clouds -16 1022 78 10000 3 310 18:55 14.04.2021
297 Clouds -16 1022 78 10000 3 310 18:21 14.04.2021
298 Clouds -15 1022 78 10000 3 300 17:57 14.04.2021
299 Clouds -15 1022 78 10000 3 300 17:24 14.04.2021
300 Clouds -15 1021 85 10000 3 330 16:52 14.04.2021
301 Clouds -15 1021 85 10000 3 330 16:24 14.04.2021
302 Snow -14 1021 78 10000 2 340 15:42 14.04.2021
303 Snow -14 1021 78 10000 2 340 15:22 14.04.2021
304 Snow -14 1021 78 10000 3 330 14:46 14.04.2021
305 Snow -14 1021 78 10000 3 330 14:24 14.04.2021
306 Snow -13 1020 78 10000 5 330 13:54 14.04.2021
307 Snow -13 1020 78 10000 5 330 13:19 14.04.2021
308 Snow -13 1020 85 10000 4 330 12:37 14.04.2021
309 Clear -13 1019 85 10000 3 360 11:43 14.04.2021
310 Clear -13 1019 85 10000 3 360 11:25 14.04.2021
311 Snow -13 1019 85 10000 5 300 10:48 14.04.2021
312 Snow -13 1019 85 10000 5 300 10:30 14.04.2021
313 Snow -12 1018 85 10000 6 300 09:42 14.04.2021
314 Snow -12 1018 85 10000 6 300 09:21 14.04.2021
315 Snow -12 1017 85 10000 6 300 08:43 14.04.2021
316 Snow -12 1017 85 10000 6 300 08:20 14.04.2021
317 Snow -11 1016 85 10000 7 300 06:55 14.04.2021
318 Snow -11 1016 85 10000 6 290 06:24 14.04.2021
319 Snow -11 1015 85 6000 7 300 04:34 14.04.2021
320 Snow -11 1014 79 10000 5 330 01:49 14.04.2021
321 Clouds -11 1014 79 10000 5 320 00:39 14.04.2021
322 Clouds -12 1013 85 10000 4 340 23:47 13.04.2021
323 Clear -12 1013 85 10000 5 340 23:27 13.04.2021
324 Snow -12 1012 79 10000 4 360 22:42 13.04.2021
325 Snow -12 1012 79 10000 4 360 22:19 13.04.2021
326 Snow -12 1012 79 10000 2 360 21:45 13.04.2021
327 Snow -12 1012 79 10000 2 360 21:27 13.04.2021
328 Snow -12 1012 79 10000 5 340 20:42 13.04.2021
329 Snow -12 1012 79 10000 5 340 20:21 13.04.2021
330 Snow -13 1011 85 10000 6 350 19:48 13.04.2021
331 Snow -13 1011 85 10000 6 350 19:24 13.04.2021
332 Snow -13 1010 85 10000 7 360 18:40 13.04.2021
333 Snow -13 1010 85 7000 6 360 17:56 13.04.2021
334 Snow -13 1010 85 7000 6 360 17:36 13.04.2021
335 Snow -13 1010 85 7000 6 360 17:18 13.04.2021
336 Snow -13 1009 85 3500 5 360 16:43 13.04.2021
337 Snow -13 1009 85 3500 5 360 16:20 13.04.2021
338 Snow -13 1009 92 3500 8 350 15:44 13.04.2021
339 Snow -13 1009 92 3500 8 350 15:44 13.04.2021
340 Snow -13 1009 92 3500 8 350 15:22 13.04.2021
341 Snow -13 1009 92 4400 8 360 14:46 13.04.2021
342 Snow -13 1009 92 4400 8 360 14:19 13.04.2021
343 Snow -12 1009 85 1800 8 360 13:45 13.04.2021
344 Snow -12 1009 85 1800 8 360 13:24 13.04.2021
345 Snow -12 1008 85 800 8 340 12:56 13.04.2021
346 Snow -12 1008 85 800 8 340 12:27 13.04.2021
347 Snow -12 1008 85 3800 6 340 11:55 13.04.2021
348 Snow -12 1008 85 3800 6 340 11:29 13.04.2021
349 Snow -12 1008 85 7000 6 350 10:47 13.04.2021
350 Snow -12 1008 85 7000 6 350 10:21 13.04.2021
351 Snow -12 1008 85 3400 4 340 09:56 13.04.2021
352 Snow -12 1008 85 3400 4 340 09:36 13.04.2021
353 Snow -12 1007 85 9000 8 330 08:56 13.04.2021
354 Snow -12 1007 85 9000 8 330 08:38 13.04.2021
355 Snow -12 1007 85 9000 8 330 08:20 13.04.2021
356 Snow -12 1007 85 6000 10 320 07:36 13.04.2021
357 Snow -11 1007 85 4100 7 330 06:31 13.04.2021
358 Snow -11 1007 85 5000 8 340 04:47 13.04.2021
359 Snow -14 1008 85 10000 8 340 01:39 13.04.2021
360 Clouds -14 1009 72 10000 6 350 00:19 13.04.2021
361 Clouds -15 1009 78 10000 5 330 23:44 12.04.2021
362 Snow -15 1009 78 10000 5 340 23:24 12.04.2021
363 Snow -15 1009 78 3900 8 340 22:38 12.04.2021
364 Snow -15 1009 85 2600 8 330 21:57 12.04.2021
365 Snow -15 1009 85 2600 8 330 21:38 12.04.2021
366 Snow -15 1009 85 2600 8 330 21:19 12.04.2021
367 Snow -14 1009 78 6000 8 360 20:38 12.04.2021
368 Snow -14 1009 78 6000 8 360 20:20 12.04.2021
369 Snow -14 1009 72 9000 6 340 19:43 12.04.2021
370 Snow -14 1009 72 9000 6 340 19:23 12.04.2021
371 Snow -15 1010 78 5000 5 330 18:56 12.04.2021
372 Snow -15 1010 78 5000 5 330 18:38 12.04.2021
373 Snow -15 1010 78 5000 5 330 18:18 12.04.2021
374 Snow -15 1010 78 6000 4 270 17:42 12.04.2021
375 Snow -15 1010 78 6000 4 270 17:21 12.04.2021
376 Snow -15 1010 78 5000 3 260 16:44 12.04.2021
377 Snow -15 1010 78 5000 3 260 16:26 12.04.2021
378 Snow -15 1011 78 4500 4 360 15:48 12.04.2021
379 Snow -15 1011 78 4500 4 360 15:21 12.04.2021
380 Snow -15 1010 78 2500 12 360 14:49 12.04.2021
381 Snow -15 1010 78 2500 12 360 14:29 12.04.2021
382 Snow -15 1010 78 2400 13 10 13:45 12.04.2021
383 Snow -15 1010 78 2400 13 10 13:22 12.04.2021
384 Snow -15 1012 72 10000 3 330 12:44 12.04.2021
385 Snow -15 1012 72 10000 3 330 12:24 12.04.2021
386 Snow -15 1011 72 10000 6 10 11:53 12.04.2021
387 Snow -16 1012 78 10000 8 10 10:56 12.04.2021
388 Snow -16 1012 78 10000 8 10 10:38 12.04.2021
389 Snow -16 1012 78 10000 8 10 10:20 12.04.2021
390 Snow -16 1011 78 10000 12 20 09:40 12.04.2021
391 Snow -16 1011 78 10000 12 20 09:18 12.04.2021
392 Snow -16 1012 85 10000 11 20 08:35 12.04.2021
393 Snow -15 1012 78 10000 10 10 07:38 12.04.2021
394 Snow -15 1012 78 10000 10 10 07:19 12.04.2021
395 Snow -15 1013 78 8000 11 10 05:51 12.04.2021
396 Snow -15 1014 78 10000 8 20 04:28 12.04.2021
397 Snow -18 1016 78 10000 5 10 00:52 12.04.2021
398 Snow -18 1015 78 8000 8 10 00:24 12.04.2021
399 Snow -18 1015 78 8000 8 360 23:46 11.04.2021
400 Snow -19 1016 78 1500 7 10 23:27 11.04.2021
401 Snow -19 1014 78 600 13 10 22:46 11.04.2021
402 Snow -20 1014 77 1100 13 10 22:23 11.04.2021
403 Snow -21 1014 77 800 14 10 21:46 11.04.2021
404 Snow -21 1014 77 800 14 10 21:27 11.04.2021
405 Snow -21 1015 77 2300 12 10 20:55 11.04.2021
406 Snow -21 1015 77 2300 12 10 20:29 11.04.2021
407 Snow -21 1015 77 7000 7 20 19:54 11.04.2021
408 Snow -21 1015 77 7000 7 20 19:36 11.04.2021
409 Snow -21 1015 77 7000 7 20 19:18 11.04.2021
410 Snow -20 1016 77 10000 4 340 18:42 11.04.2021
411 Snow -20 1016 77 10000 4 340 18:24 11.04.2021
412 Snow -20 1016 77 10000 7 330 17:46 11.04.2021
413 Snow -20 1016 77 10000 7 330 17:27 11.04.2021
414 Snow -19 1016 78 10000 8 330 16:51 11.04.2021
415 Snow -19 1016 78 10000 8 330 16:23 11.04.2021
416 Snow -17 1016 71 10000 10 340 15:54 11.04.2021
417 Snow -17 1016 71 10000 10 340 15:27 11.04.2021
418 Snow -17 1016 71 10000 10 340 15:27 11.04.2021
419 Snow -15 1015 72 1100 12 30 14:59 11.04.2021
420 Snow -15 1015 72 1100 12 30 14:41 11.04.2021
421 Snow -15 1015 72 3000 16 40 13:52 11.04.2021
422 Snow -15 1015 72 3000 16 40 13:31 11.04.2021
423 Snow -16 1015 85 400 19 30 12:54 11.04.2021
424 Snow -16 1015 85 400 19 30 12:22 11.04.2021
425 Snow -16 1014 85 400 18 30 11:52 11.04.2021
426 Snow -16 1014 85 400 18 30 11:27 11.04.2021
427 Snow -15 1015 78 400 13 40 10:50 11.04.2021
428 Snow -15 1015 78 400 13 40 10:31 11.04.2021
429 Snow -15 1015 72 6000 11 20 09:59 11.04.2021
430 Snow -15 1015 72 6000 11 20 09:35 11.04.2021
431 Snow -15 1015 72 2200 12 20 08:59 11.04.2021
432 Snow -15 1015 72 2200 12 20 08:26 11.04.2021
433 Snow -15 1015 72 1600 12 20 07:24 11.04.2021
434 Snow -14 1015 66 8000 8 10 06:56 11.04.2021
435 Snow -14 1014 72 5000 10 20 05:44 11.04.2021
436 Snow -13 1014 61 9000 8 20 05:21 11.04.2021
437 Clouds -11 1015 52 10000 5 50 04:35 11.04.2021
438 Snow -12 1015 52 10000 7 80 02:45 11.04.2021
439 Clear -12 1016 52 10000 2 170 00:40 11.04.2021
440 Clear -14 1016 66 10000 4 310 23:49 10.04.2021
441 Clear -14 1016 61 10000 4 160 23:26 10.04.2021
442 Clear -14 1016 61 10000 1 0 22:45 10.04.2021
443 Clear -14 1016 61 10000 1 0 22:23 10.04.2021
444 Clear -15 1016 66 10000 1 0 21:50 10.04.2021
445 Clear -15 1016 66 10000 1 0 21:50 10.04.2021
446 Clear -15 1016 66 10000 1 0 21:23 10.04.2021
447 Clear -16 1015 72 10000 4 260 20:47 10.04.2021
448 Clear -16 1015 72 10000 4 260 20:24 10.04.2021
449 Clear -16 1015 72 10000 2 10 19:45 10.04.2021
450 Clear -16 1015 72 10000 2 10 19:27 10.04.2021
451 Clear -15 1016 66 10000 4 20 18:53 10.04.2021
452 Clear -15 1016 66 10000 4 20 18:33 10.04.2021
453 Clear -12 1016 52 10000 3 70 17:41 10.04.2021
454 Clear -12 1016 52 10000 3 70 17:21 10.04.2021
455 Clear -12 1016 52 10000 5 80 16:31 10.04.2021
456 Clear -12 1016 52 10000 4 60 15:55 10.04.2021
457 Clear -12 1016 52 10000 4 60 15:32 10.04.2021
458 Clear -12 1016 48 10000 6 40 14:47 10.04.2021
459 Clear -12 1016 48 10000 6 40 14:21 10.04.2021
460 Clear -12 1017 52 10000 4 30 13:43 10.04.2021
461 Clear -12 1017 52 10000 4 30 13:25 10.04.2021
462 Clear -14 1017 66 10000 6 20 12:35 10.04.2021
463 Snow -14 1017 72 10000 7 20 11:52 10.04.2021
464 Snow -14 1017 72 10000 7 20 11:26 10.04.2021
465 Snow -13 1018 66 10000 6 30 10:54 10.04.2021
466 Snow -13 1018 66 10000 6 30 10:32 10.04.2021
467 Snow -12 1018 56 10000 8 60 09:59 10.04.2021
468 Snow -12 1018 56 10000 8 60 09:29 10.04.2021
469 Snow -13 1019 66 10000 9 40 08:54 10.04.2021
470 Snow -13 1019 66 10000 9 40 08:30 10.04.2021
471 Snow -13 1019 66 10000 9 40 08:30 10.04.2021
472 Snow -13 1019 66 10000 9 40 07:52 10.04.2021
473 Snow -13 1019 66 10000 9 40 07:21 10.04.2021
474 Snow -13 1020 72 10000 10 50 06:27 10.04.2021
475 Snow -13 1021 72 4000 11 70 04:49 10.04.2021
476 Snow -14 1022 78 4600 12 80 02:57 10.04.2021
477 Snow -14 1022 78 4600 12 80 02:35 10.04.2021
478 Snow -15 1023 78 1200 13 80 00:53 10.04.2021
479 Snow -15 1023 78 1200 13 80 00:29 10.04.2021
480 Snow -15 1024 72 2300 12 90 23:45 09.04.2021
481 Snow -15 1024 72 2300 12 90 23:20 09.04.2021
482 Snow -16 1025 78 10000 9 70 22:44 09.04.2021
483 Snow -16 1025 78 10000 9 70 22:25 09.04.2021
484 Snow -16 1025 78 10000 7 50 21:39 09.04.2021
485 Snow -16 1025 78 10000 7 50 21:19 09.04.2021
486 Snow -16 1026 72 6000 12 90 20:45 09.04.2021
487 Snow -16 1026 72 6000 12 90 20:23 09.04.2021
488 Snow -16 1026 66 7000 11 90 19:57 09.04.2021
489 Snow -16 1026 66 7000 11 90 19:39 09.04.2021
490 Snow -16 1026 66 7000 11 90 19:20 09.04.2021
491 Snow -16 1027 66 10000 10 90 18:41 09.04.2021
492 Snow -16 1027 66 10000 10 90 18:21 09.04.2021
493 Snow -17 1028 71 9000 11 90 17:43 09.04.2021
494 Snow -17 1028 71 9000 11 90 17:21 09.04.2021
495 Snow -16 1029 66 10000 10 100 16:39 09.04.2021
496 Snow -16 1029 66 10000 10 100 16:19 09.04.2021
497 Snow -17 1029 78 7000 10 100 15:40 09.04.2021
498 Snow -17 1029 78 7000 10 100 15:20 09.04.2021
499 Snow -17 1031 78 2500 7 100 14:46 09.04.2021
500 Snow -17 1031 78 10000 8 90 13:57 09.04.2021
501 Snow -17 1031 78 10000 8 90 13:39 09.04.2021
502 Snow -17 1031 78 10000 8 90 13:21 09.04.2021
503 Snow -17 1032 78 9000 8 90 12:46 09.04.2021
504 Snow -17 1033 78 10000 6 90 11:52 09.04.2021
505 Snow -17 1033 78 10000 6 90 11:27 09.04.2021
506 Snow -17 1033 78 8000 6 100 10:50 09.04.2021
507 Snow -17 1033 78 8000 6 100 10:30 09.04.2021
508 Clouds -19 1034 78 10000 2 90 09:55 09.04.2021
509 Clouds -19 1034 78 10000 2 90 09:27 09.04.2021
510 Clear -20 1034 77 10000 3 320 08:54 09.04.2021
511 Clear -20 1034 77 10000 3 320 08:23 09.04.2021
512 Clear -19 1034 71 10000 3 340 07:21 09.04.2021
513 Clear -18 1035 71 10000 2 360 06:21 09.04.2021
514 Clear -18 1037 71 10000 2 320 03:54 09.04.2021
515 Clear -18 1037 71 10000 2 280 03:30 09.04.2021
516 Clear -21 1038 71 10000 0.54 71 00:38 09.04.2021
517 Clear -21 1038 71 10000 0.11 76 00:20 09.04.2021
518 Clear -24 1038 77 10000 1 360 23:30 08.04.2021
519 Clear -24 1039 77 10000 1 0 22:47 08.04.2021
520 Clear -24 1039 77 10000 1 0 22:27 08.04.2021
521 Clear -25 1039 77 10000 2 230 21:58 08.04.2021
522 Clear -25 1039 77 10000 2 230 21:38 08.04.2021
523 Clear -25 1039 77 10000 2 230 21:20 08.04.2021
524 Clear -23 1038 70 10000 0.22 322 20:53 08.04.2021
525 Clear -23 1038 70 10000 0.22 322 20:34 08.04.2021
526 Clear -21 1038 71 10000 4 60 19:57 08.04.2021
527 Clear -21 1038 71 10000 4 60 19:24 08.04.2021
528 Clear -25 1039 70 10000 3 40 18:56 08.04.2021
529 Clear -25 1039 70 10000 3 40 18:24 08.04.2021
530 Clear -24 1038 70 10000 4 50 17:55 08.04.2021
531 Clear -24 1038 70 10000 4 50 17:27 08.04.2021
532 Clear -25 1038 70 10000 3 10 16:57 08.04.2021
533 Clear -25 1038 70 10000 3 10 16:36 08.04.2021
534 Clear -26 1038 76 10000 6 20 15:56 08.04.2021
535 Clear -26 1038 76 10000 6 20 15:37 08.04.2021
536 Clear -26 1038 76 10000 6 20 15:19 08.04.2021
537 Clear -25 1038 77 10000 5 40 14:40 08.04.2021
538 Clear -25 1038 77 10000 5 40 14:20 08.04.2021
539 Clear -25 1038 70 10000 3 30 13:43 08.04.2021
540 Clear -25 1038 70 10000 3 30 13:23 08.04.2021
541 Clear -24 1038 70 10000 3 20 12:49 08.04.2021
542 Clear -24 1038 70 10000 3 20 12:30 08.04.2021
543 Clear -22 1038 71 10000 4 20 11:56 08.04.2021
544 Clear -22 1038 71 10000 4 20 11:21 08.04.2021
545 Clear -23 1037 77 10000 3 20 10:43 08.04.2021
546 Clear -23 1037 77 10000 3 20 10:24 08.04.2021
547 Clear -22 1037 71 10000 4 30 09:43 08.04.2021
548 Clear -20 1036 71 10000 4 10 08:53 08.04.2021
549 Clear -20 1036 71 10000 4 10 08:35 08.04.2021
550 Clear -20 1036 71 10000 4 10 07:59 08.04.2021
551 Clear -19 1036 71 10000 4 10 07:40 08.04.2021
552 Clear -20 1036 77 10000 4 20 04:56 08.04.2021
553 Clear -23 1035 77 10000 3 360 01:25 08.04.2021
554 Clear -24 1034 77 10000 3 360 00:30 08.04.2021
555 Clear -25 1034 77 10000 3 350 23:47 07.04.2021
556 Clear -26 1034 76 10000 3 20 23:24 07.04.2021
557 Clear -26 1033 76 10000 3 360 22:55 07.04.2021
558 Clear -27 1033 76 10000 2 350 22:35 07.04.2021
559 Clear -28 1033 76 10000 3 350 21:58 07.04.2021
560 Clear -28 1033 76 10000 3 350 21:34 07.04.2021
561 Clear -28 1032 76 10000 3 340 20:51 07.04.2021
562 Clear -28 1032 76 10000 3 340 20:28 07.04.2021
563 Clear -28 1032 76 10000 3 340 19:50 07.04.2021
564 Clear -28 1032 76 10000 3 340 19:31 07.04.2021
565 Clear -27 1031 76 10000 3 360 18:56 07.04.2021
566 Clear -27 1031 76 10000 3 360 18:23 07.04.2021
567 Clear -27 1031 83 10000 4 350 17:59 07.04.2021
568 Clear -27 1031 83 10000 4 350 17:41 07.04.2021
569 Clear -28 1031 83 10000 4 360 16:59 07.04.2021
570 Clear -28 1031 83 10000 4 360 16:40 07.04.2021
571 Clear -28 1031 83 10000 4 360 16:21 07.04.2021
572 Clear -26 1031 84 10000 3 360 15:53 07.04.2021
573 Clear -26 1031 84 10000 3 360 15:25 07.04.2021
574 Clear -26 1031 84 10000 3 350 14:42 07.04.2021
575 Clear -26 1031 84 10000 3 350 14:19 07.04.2021
576 Clear -26 1031 84 10000 3 360 13:38 07.04.2021
577 Clear -26 1031 84 10000 3 360 13:20 07.04.2021
578 Clear -26 1031 76 10000 4 10 12:42 07.04.2021
579 Clear -26 1031 76 10000 4 10 12:18 07.04.2021
580 Clear -25 1031 77 10000 4 350 11:41 07.04.2021
581 Clear -25 1031 77 10000 4 350 11:21 07.04.2021
582 Clear -24 1031 77 10000 3 350 10:46 07.04.2021
583 Clear -24 1031 77 10000 4 10 09:47 07.04.2021
584 Clear -24 1031 77 10000 4 10 09:28 07.04.2021
585 Clear -23 1031 77 10000 2 360 08:52 07.04.2021
586 Clear -23 1031 77 10000 2 360 08:30 07.04.2021
587 Clear -22 1031 77 10000 3 360 07:52 07.04.2021
588 Clear -21 1031 77 10000 4 360 07:28 07.04.2021
589 Clear -20 1032 71 10000 2 360 06:42 07.04.2021
590 Clear -21 1031 71 10000 5 360 05:22 07.04.2021
591 Clear -21 1032 71 10000 2 360 01:23 07.04.2021
592 Clear -23 1032 77 10000 3 340 23:47 06.04.2021
593 Clear -23 1032 77 10000 3 340 23:22 06.04.2021
594 Clear -23 1031 70 10000 3 340 22:55 06.04.2021
595 Clear -23 1031 70 10000 3 340 22:21 06.04.2021
596 Clear -24 1031 70 10000 4 350 21:44 06.04.2021
597 Clear -24 1031 70 10000 4 350 21:25 06.04.2021
598 Clear -24 1030 77 10000 5 360 20:58 06.04.2021
599 Clear -24 1030 77 10000 5 360 20:39 06.04.2021
600 Clear -24 1030 77 10000 5 360 20:19 06.04.2021
601 Clear -28 1030 76 10000 5 360 19:42 06.04.2021
602 Clear -28 1030 76 10000 5 360 19:24 06.04.2021
603 Clear -25 1030 77 10000 3 340 18:43 06.04.2021
604 Clear -25 1030 77 10000 3 340 18:20 06.04.2021
605 Clear -26 1030 76 10000 4 20 17:45 06.04.2021
606 Clear -26 1030 76 10000 4 20 17:20 06.04.2021
607 Clear -25 1029 77 10000 5 10 16:49 06.04.2021
608 Clear -25 1029 77 10000 5 10 16:30 06.04.2021
609 Clear -25 1029 77 10000 5 30 15:28 06.04.2021
610 Clear -25 1028 77 10000 5 20 14:51 06.04.2021
611 Clear -25 1028 77 10000 5 20 14:32 06.04.2021
612 Clear -26 1028 76 10000 5 40 13:59 06.04.2021
613 Clear -26 1028 76 10000 5 40 13:39 06.04.2021
614 Clear -25 1028 76 10000 5 40 13:20 06.04.2021
615 Clear -25 1028 77 10000 5 360 12:38 06.04.2021
616 Clear -25 1028 77 10000 5 360 12:19 06.04.2021
617 Clear -23 1027 77 10000 3 360 11:48 06.04.2021
618 Clear -23 1027 77 10000 3 360 11:20 06.04.2021
619 Clear -22 1026 77 10000 6 340 10:46 06.04.2021
620 Clear -22 1026 77 10000 6 340 10:24 06.04.2021
621 Clear -21 1025 77 10000 5 340 09:47 06.04.2021
622 Clear -21 1025 77 10000 5 340 09:26 06.04.2021
623 Clear -19 1025 78 10000 6 330 08:38 06.04.2021
624 Snow -18 1025 71 10000 7 340 07:47 06.04.2021
625 Clear -18 1024 78 10000 7 330 06:55 06.04.2021
626 Clear -18 1024 78 10000 7 330 06:55 06.04.2021
627 Snow -18 1024 78 10000 6 340 05:22 06.04.2021
628 Clear -19 1024 78 10000 5 360 01:57 06.04.2021
629 Clear -20 1024 77 10000 5 360 00:44 06.04.2021
630 Clear -20 1024 77 10000 5 350 00:20 06.04.2021
631 Clear -21 1024 77 10000 4 350 23:42 05.04.2021
632 Clear -21 1024 77 10000 4 350 23:19 05.04.2021
633 Clear -22 1024 77 10000 4 350 22:45 05.04.2021
634 Clear -21 1024 71 10000 3 360 22:24 05.04.2021
635 Clear -21 1023 71 10000 3 350 21:40 05.04.2021
636 Clear -21 1023 71 10000 3 350 21:20 05.04.2021
637 Clear -21 1023 71 10000 3 360 20:42 05.04.2021
638 Clear -21 1023 71 10000 3 360 20:23 05.04.2021
639 Clear -21 1023 77 10000 3 360 19:40 05.04.2021
640 Clear -21 1023 77 10000 3 360 19:20 05.04.2021
641 Clear -21 1023 71 10000 3 350 18:48 05.04.2021
642 Clear -21 1023 71 10000 3 350 18:30 05.04.2021
643 Clear -17 1023 66 10000 2 60 17:55 05.04.2021
644 Clear -17 1023 66 10000 2 60 17:36 05.04.2021
645 Clear -17 1023 66 10000 2 60 17:18 05.04.2021
646 Clear -19 1023 71 10000 2 350 16:39 05.04.2021
647 Clear -19 1023 71 10000 2 350 16:19 05.04.2021
648 Clear -21 1024 77 10000 2 350 15:48 05.04.2021
649 Clear -21 1024 77 10000 2 350 15:27 05.04.2021
650 Clear -20 1024 71 10000 1 0 14:36 05.04.2021
651 Clear -20 1024 71 10000 4 20 13:59 05.04.2021
652 Clear -20 1024 71 10000 4 20 13:31 05.04.2021
653 Clear -17 1024 66 10000 4 30 12:48 05.04.2021
654 Clear -17 1024 66 10000 4 30 12:26 05.04.2021
655 Clear -17 1024 66 10000 4 30 12:26 05.04.2021
656 Clear -17 1025 60 10000 3 100 11:53 05.04.2021
657 Clear -17 1025 60 10000 3 100 11:32 05.04.2021
658 Clear -17 1024 66 10000 3 80 10:57 05.04.2021
659 Clear -17 1024 66 10000 3 80 10:37 05.04.2021
660 Clear -18 1024 71 10000 2 60 09:56 05.04.2021
661 Clear -18 1024 71 10000 2 60 09:37 05.04.2021
662 Clear -18 1024 71 10000 2 60 09:19 05.04.2021
663 Clear -19 1024 78 10000 5 70 08:40 05.04.2021
664 Clear -19 1024 78 10000 5 70 08:19 05.04.2021
665 Clear -18 1025 71 10000 1 250 07:34 05.04.2021
666 Clear -19 1025 71 10000 3 10 04:23 05.04.2021
667 Clear -18 1025 65 10000 3 360 01:34 05.04.2021
668 Clear -20 1025 77 10000 2 360 00:24 05.04.2021
669 Clear -22 1024 84 10000 4 20 23:38 04.04.2021
670 Clear -22 1024 84 10000 4 20 23:18 04.04.2021
671 Clear -23 1024 77 10000 4 40 22:49 04.04.2021
672 Clear -24 1023 84 10000 6 30 22:26 04.04.2021
673 Clear -26 1023 76 10000 4 40 21:23 04.04.2021
674 Clear -25 1023 77 10000 2 40 20:51 04.04.2021
675 Clear -25 1023 77 10000 2 40 20:23 04.04.2021
676 Clear -24 1022 84 10000 1 360 19:42 04.04.2021
677 Clear -24 1022 84 10000 1 360 19:21 04.04.2021
678 Clear -23 1021 77 10000 3 350 18:56 04.04.2021
679 Clear -23 1021 77 10000 3 350 18:37 04.04.2021
680 Clear -23 1021 77 10000 3 350 18:19 04.04.2021
681 Clouds -25 1021 77 10000 2 20 17:27 04.04.2021
682 Clouds -25 1020 84 10000 3 10 16:58 04.04.2021
683 Clouds -25 1020 84 10000 3 10 16:40 04.04.2021
684 Clouds -24 1020 84 10000 4 20 15:58 04.04.2021
685 Clouds -24 1020 84 10000 4 20 15:33 04.04.2021
686 Clouds -24 1019 84 10000 4 30 14:42 04.04.2021
687 Clouds -24 1019 84 10000 4 30 14:24 04.04.2021
688 Clouds -20 1019 77 10000 3 340 13:28 04.04.2021
689 Clouds -21 1018 84 10000 3 350 12:53 04.04.2021
690 Clouds -21 1018 84 10000 3 350 12:32 04.04.2021
691 Mist -19 1018 84 5000 3 320 11:52 04.04.2021
692 Mist -19 1018 84 5000 3 320 11:31 04.04.2021
693 Snow -18 1017 78 9000 3 320 10:56 04.04.2021
694 Snow -18 1017 78 9000 3 320 10:32 04.04.2021
695 Snow -17 1016 85 2200 2 10 09:52 04.04.2021
696 Snow -17 1016 85 2200 2 10 09:24 04.04.2021
697 Snow -16 1015 78 8000 4 10 08:50 04.04.2021
698 Snow -16 1015 78 8000 4 10 08:32 04.04.2021
699 Snow -16 1015 78 8000 4 10 08:32 04.04.2021
700 Snow -16 1015 85 2700 5 340 07:22 04.04.2021
701 Snow -15 1014 72 9000 6 360 06:34 04.04.2021
702 Snow -16 1013 85 4900 6 20 04:56 04.04.2021
703 Snow -17 1012 78 7000 3 10 01:28 04.04.2021
704 Snow -18 1011 78 9000 6 360 00:19 04.04.2021
705 Snow -18 1011 78 4400 8 10 23:47 03.04.2021
706 Snow -18 1011 78 6000 10 20 23:23 03.04.2021
707 Snow -17 1010 78 1300 14 30 22:50 03.04.2021
708 Snow -18 1010 78 3500 12 20 22:20 03.04.2021
709 Snow -18 1010 78 3500 12 20 22:20 03.04.2021
710 Snow -19 1009 84 1500 11 20 21:47 03.04.2021
711 Snow -19 1009 84 1500 11 20 21:23 03.04.2021
712 Mist -18 1009 78 3500 10 20 20:49 03.04.2021
713 Snow -18 1009 78 3500 10 20 20:27 03.04.2021
714 Snow -17 1009 85 3400 2 270 19:50 03.04.2021
715 Snow -17 1009 85 3400 2 270 19:24 03.04.2021
716 Snow -16 1008 78 10000 2 100 18:48 03.04.2021
717 Snow -16 1008 78 10000 2 100 18:30 03.04.2021
718 Mist -17 1007 85 3100 1 0 17:53 03.04.2021
719 Snow -17 1007 85 3100 1 0 17:25 03.04.2021
720 Snow -16 1007 85 10000 3 150 16:51 03.04.2021
721 Snow -16 1007 85 10000 3 150 16:22 03.04.2021
722 Snow -16 1007 85 9000 5.89 26 15:50 03.04.2021
723 Snow -16 1007 85 9000 6.21 31 15:23 03.04.2021
724 Snow -15 1007 78 3300 2 140 14:44 03.04.2021
725 Snow -16 1007 78 3300 2 140 14:24 03.04.2021
726 Snow -16 1006 78 7000 6.05 31 13:53 03.04.2021
727 Snow -16 1006 78 7000 6.49 31 13:25 03.04.2021
728 Snow -15 1006 78 10000 2 150 12:57 03.04.2021
729 Snow -15 1006 78 10000 2 150 12:32 03.04.2021
730 Snow -16 1006 85 6000 1 0 11:40 03.04.2021
731 Snow -16 1006 85 6000 1 0 11:19 03.04.2021
732 Snow -15 1005 78 3700 5 10 10:43 03.04.2021
733 Snow -15 1005 78 3700 5 10 10:25 03.04.2021
734 Snow -15 1005 78 1400 7 10 09:29 03.04.2021
735 Snow -14 1004 78 5000 5 20 08:59 03.04.2021
736 Snow -14 1004 78 5000 5 20 08:32 03.04.2021
737 Snow -14 1004 78 5000 6 30 07:30 03.04.2021
738 Snow -14 1004 78 5000 8 20 06:53 03.04.2021
739 Snow -13 1003 78 1900 11 20 03:54 03.04.2021
740 Snow -14 1003 85 800 12 20 02:54 03.04.2021
741 Snow -14 1003 85 800 12 20 02:27 03.04.2021
742 Snow -14 1003 78 900 11 40 00:31 03.04.2021
743 Snow -14 1002 85 1100 12 30 23:59 02.04.2021
744 Snow -14 1002 85 1100 12 30 23:29 02.04.2021
745 Snow -14 1002 85 450 15 30 22:56 02.04.2021
746 Snow -15 1002 85 450 15 30 22:37 02.04.2021
747 Snow -15 1001 85 450 12 10 21:56 02.04.2021
748 Snow -15 1001 85 450 12 10 21:38 02.04.2021
749 Snow -15 1001 85 450 12 10 21:18 02.04.2021
750 Snow -15 1001 85 650 11 10 20:38 02.04.2021
751 Snow -15 1001 85 650 11 10 20:38 02.04.2021
752 Snow -15 1001 85 650 11 10 20:18 02.04.2021
753 Snow -14 1000 85 650 10 10 19:40 02.04.2021
754 Snow -14 1000 85 650 10 10 19:22 02.04.2021
755 Snow -13 999 85 450 15 40 18:43 02.04.2021
756 Snow -13 999 85 450 15 40 18:23 02.04.2021
757 Snow -13 998 85 600 15 30 17:54 02.04.2021
758 Snow -13 998 85 600 15 30 17:24 02.04.2021
759 Snow -12 997 85 600 11 30 16:24 02.04.2021
760 Snow -9 996 86 1300 4 330 15:43 02.04.2021
761 Snow -9 996 86 1300 4 330 15:19 02.04.2021
762 Snow -9 995 86 1000 5 270 14:33 02.04.2021
763 Snow -9 994 79 1500 6 360 13:50 02.04.2021
764 Snow -9 994 86 1100 10 60 13:27 02.04.2021
765 Snow -9 993 86 600 12 70 12:53 02.04.2021
766 Snow -8 992 86 250 15 80 12:21 02.04.2021
767 Snow -10 990 92 150 28 80 11:59 02.04.2021
768 Snow -10 990 85 100 30 80 11:38 02.04.2021
769 Snow -10 990 85 100 30 80 11:18 02.04.2021
770 Snow -10 991 92 50 31 80 10:42 02.04.2021
771 Snow -10 991 92 50 31 80 10:20 02.04.2021
772 Snow -10 993 92 50 28 80 09:39 02.04.2021
773 Snow -10 993 92 50 28 80 09:20 02.04.2021
774 Snow -10 993 92 50 29 80 08:44 02.04.2021
775 Snow -10 993 92 50 29 80 08:22 02.04.2021
776 Snow -9 994 92 50 28 90 07:20 02.04.2021
777 Snow -9 996 92 50 20 90 06:31 02.04.2021
778 Snow -8 1004 86 450 12 90 03:24 02.04.2021
779 Snow -8 1009 86 1700 7 100 00:56 02.04.2021
780 Snow -8 1010 86 3400 7 100 00:36 02.04.2021
781 Snow -9 1011 86 2300 5 70 23:43 01.04.2021
782 Snow -9 1012 86 2100 6 80 23:25 01.04.2021
783 Snow -10 1012 85 2000 7 90 22:22 01.04.2021
784 Snow -10 1014 85 3600 4 320 21:56 01.04.2021
785 Snow -10 1014 85 3600 4 320 21:38 01.04.2021
786 Snow -10 1014 85 3600 4 320 21:18 01.04.2021
787 Snow -10 1014 85 3700 5 40 20:33 01.04.2021
788 Snow -9 1015 79 7000 4 80 19:58 01.04.2021
789 Snow -9 1015 79 7000 4 80 19:39 01.04.2021
790 Snow -10 1016 79 5000 6 50 18:54 01.04.2021
791 Snow -10 1016 79 5000 6 50 18:36 01.04.2021
792 Snow -10 1016 79 5000 6 50 18:18 01.04.2021
793 Snow -11 1017 79 2200 4 280 17:39 01.04.2021
794 Snow -11 1017 79 2200 4 280 17:20 01.04.2021
795 Snow -10 1018 79 1500 4 100 16:41 01.04.2021
796 Snow -12 1019 79 1700 3 310 15:57 01.04.2021
797 Snow -12 1019 79 1700 3 310 15:24 01.04.2021
798 Snow -13 1020 85 1900 2 100 14:55 01.04.2021
799 Snow -13 1020 85 1900 2 100 14:37 01.04.2021
800 Snow -13 1020 85 1900 2 100 14:19 01.04.2021
801 Snow -13 1021 78 2500 7 110 13:32 01.04.2021
802 Snow -13 1021 78 2000 8 110 12:58 01.04.2021
803 Snow -13 1021 78 2000 8 110 12:39 01.04.2021
804 Snow -13 1021 78 2000 8 110 12:20 01.04.2021
805 Snow -14 1022 85 3200 3 60 11:43 01.04.2021
806 Snow -14 1022 85 3200 3 60 11:18 01.04.2021
807 Snow -14 1022 85 2300 7 100 10:46 01.04.2021
808 Snow -14 1022 85 2300 7 100 10:27 01.04.2021
809 Snow -14 1022 78 2400 10 110 09:32 01.04.2021
810 Snow -13 1022 72 4700 9 110 08:58 01.04.2021
811 Snow -14 1023 78 9000 4 110 08:32 01.04.2021
812 Snow -13 1023 72 10000 6 90 07:22 01.04.2021
813 Clouds -13 1023 72 10000 4 90 06:57 01.04.2021
814 Clouds -13 1023 72 10000 4 100 06:20 01.04.2021
815 Clouds -13 1024 72 10000 6 110 03:20 01.04.2021
816 Clear -14 1024 72 10000 7 110 00:23 01.04.2021
817 Clear -14 1024 66 10000 8 100 23:44 31.03.2021
818 Clear -15 1023 66 10000 1 0 22:56 31.03.2021
819 Clear -19 1023 78 10000 2 330 22:37 31.03.2021
820 Clear -19 1023 78 10000 2 330 22:18 31.03.2021
821 Clear -20 1023 77 10000 1 0 21:40 31.03.2021
822 Clear -20 1023 77 10000 1 0 21:19 31.03.2021
823 Clear -20 1023 77 10000 1 0 21:19 31.03.2021
824 Clear -21 1023 84 10000 2 270 20:41 31.03.2021
825 Clear -21 1023 84 10000 2 270 20:22 31.03.2021
826 Clear -24 1022 77 10000 1 10 19:43 31.03.2021
827 Clear -24 1022 77 10000 1 10 19:21 31.03.2021
828 Clear -24 1022 84 10000 2 360 18:57 31.03.2021
829 Clear -24 1022 84 10000 2 360 18:38 31.03.2021
830 Clear -23 1022 77 10000 2 340 17:44 31.03.2021
831 Clear -23 1022 77 10000 2 340 17:44 31.03.2021
832 Clear -23 1022 77 10000 2 340 17:25 31.03.2021
833 Clear -21 1021 77 10000 2 330 16:55 31.03.2021
834 Clear -21 1021 77 10000 2 330 16:36 31.03.2021
835 Clear -21 1021 77 10000 1 300 15:58 31.03.2021
836 Clear -21 1021 77 10000 1 300 15:40 31.03.2021
837 Clear -21 1021 77 10000 1 300 15:18 31.03.2021
838 Clear -21 1021 77 10000 2 310 14:41 31.03.2021
839 Clear -21 1021 77 10000 2 310 14:18 31.03.2021
840 Clear -22 1022 77 10000 1.12 81 13:24 31.03.2021
841 Clear -21 1022 77 10000 2 330 12:41 31.03.2021
842 Clear -21 1022 77 10000 2 330 12:19 31.03.2021
843 Clear -18 1022 71 10000 1 0 11:39 31.03.2021
844 Clear -18 1022 71 10000 1 0 11:19 31.03.2021
845 Clear -20 1021 77 10000 3 360 10:44 31.03.2021
846 Clear -20 1021 77 10000 3 360 10:22 31.03.2021
847 Clear -20 1021 77 10000 3 20 09:33 31.03.2021
848 Clear -19 1021 71 10000 3 20 08:48 31.03.2021
849 Clear -19 1021 71 10000 3 20 08:30 31.03.2021
850 Clear -17 1022 78 10000 2 360 07:42 31.03.2021
851 Clear -16 1022 72 10000 2 330 05:55 31.03.2021
852 Clear -17 1023 71 10000 3 20 02:44 31.03.2021
853 Clear -18 1023 71 10000 5 310 00:54 31.03.2021
854 Snow -18 1023 71 10000 5 310 00:26 31.03.2021
855 Snow -19 1023 78 10000 6 300 23:58 30.03.2021
856 Snow -19 1023 71 10000 4 290 23:28 30.03.2021
857 Clear -19 1023 71 10000 1 0 22:56 30.03.2021
858 Clear -19 1023 71 10000 2 30 22:38 30.03.2021
859 Clear -19 1023 71 10000 2 30 22:19 30.03.2021
860 Clear -20 1023 77 10000 2 50 21:42 30.03.2021
861 Clear -20 1023 77 10000 2 50 21:19 30.03.2021
862 Clear -20 1022 77 10000 2 360 20:48 30.03.2021
863 Clear -20 1022 77 10000 2 360 20:27 30.03.2021
864 Snow -20 1022 84 10000 8 300 19:48 30.03.2021
865 Snow -20 1022 84 10000 8 300 19:22 30.03.2021
866 Snow -20 1022 84 10000 8 300 18:34 30.03.2021
867 Snow -19 1021 78 10000 8 300 17:51 30.03.2021
868 Snow -19 1021 78 10000 8 300 17:32 30.03.2021
869 Clear -19 1021 78 10000 2 350 16:48 30.03.2021
870 Clear -19 1021 78 10000 2 350 16:28 30.03.2021
871 Clear -19 1021 78 10000 4 330 15:43 30.03.2021
872 Clear -19 1021 78 10000 4 330 15:20 30.03.2021
873 Clear -19 1020 84 10000 3 350 14:48 30.03.2021
874 Clear -19 1020 84 10000 3 350 14:21 30.03.2021
875 Clear -19 1020 84 10000 3 350 14:21 30.03.2021
876 Snow -20 1020 84 10000 3 20 13:54 30.03.2021
877 Snow -19 1019 84 10000 7 300 13:36 30.03.2021
878 Snow -19 1019 84 10000 7 300 12:44 30.03.2021
879 Clear -19 1019 84 10000 3 350 12:26 30.03.2021
880 Snow -18 1018 78 10000 8 290 11:50 30.03.2021
881 Snow -18 1018 85 7000 9 300 11:21 30.03.2021
882 Snow -18 1017 85 4900 10 300 10:43 30.03.2021
883 Snow -17 1017 85 2600 10 290 10:20 30.03.2021
884 Snow -17 1016 85 1900 11 290 09:43 30.03.2021
885 Snow -16 1015 78 2200 11 290 09:24 30.03.2021
886 Snow -16 1015 85 2600 9 290 08:51 30.03.2021
887 Snow -16 1015 85 1300 10 290 08:32 30.03.2021
888 Snow -16 1014 85 1000 12 290 07:50 30.03.2021
889 Snow -16 1014 85 800 12 290 07:21 30.03.2021
890 Snow -15 1012 85 800 11 290 05:25 30.03.2021
891 Snow -15 1011 85 1200 10 290 03:23 30.03.2021
892 Snow -14 1009 85 7000 5 340 00:22 30.03.2021
893 Snow -14 1008 85 6000 7 350 23:29 29.03.2021
894 Snow -15 1007 85 7000 6 340 22:43 29.03.2021
895 Snow -15 1006 85 6000 5 340 21:59 29.03.2021
896 Snow -15 1006 85 6000 5 340 21:37 29.03.2021
897 Snow -14 1005 78 10000 6 350 20:59 29.03.2021
898 Snow -14 1005 78 10000 6 350 20:38 29.03.2021
899 Snow -14 1005 78 10000 6 350 20:20 29.03.2021
900 Snow -14 1004 85 10000 4 350 19:45 29.03.2021
901 Snow -14 1004 85 10000 4 350 19:18 29.03.2021
902 Snow -14 1004 85 8000 5 360 18:40 29.03.2021
903 Snow -14 1004 85 8000 5 360 18:20 29.03.2021
904 Mist -13 1003 85 5000 5 350 17:39 29.03.2021
905 Snow -13 1002 85 2900 7 360 16:59 29.03.2021
906 Snow -13 1002 85 2900 7 360 16:35 29.03.2021
907 Snow -13 1001 85 4100 7 360 15:52 29.03.2021
908 Snow -13 1001 85 4100 7 360 15:34 29.03.2021
909 Snow -13 1000 92 3600 5 350 14:55 29.03.2021
910 Mist -13 1000 92 3600 5 350 14:33 29.03.2021
911 Snow -12 1000 85 2000 6 340 13:52 29.03.2021
912 Snow -12 1000 85 2000 6 340 13:26 29.03.2021
913 Snow -13 999 85 10000 7 340 12:50 29.03.2021
914 Snow -12 998 79 10000 7 350 11:53 29.03.2021
915 Snow -12 998 79 10000 7 350 11:35 29.03.2021
916 Snow -12 998 85 10000 4 20 10:59 29.03.2021
917 Snow -12 998 85 10000 4 20 10:36 29.03.2021
918 Snow -11 997 85 1800 7 350 09:44 29.03.2021
919 Snow -11 996 92 6000 8 10 08:58 29.03.2021
920 Snow -10 996 92 6000 8 10 08:28 29.03.2021
921 Snow -10 995 92 900 10 360 07:41 29.03.2021
922 Snow -10 995 79 1700 7 20 06:27 29.03.2021
923 Snow -10 994 79 5000 8 20 03:59 29.03.2021
924 Snow -11 994 85 2000 13 20 01:54 29.03.2021
925 Snow -9 994 79 10000 4 10 00:23 29.03.2021
926 Snow -9 994 79 9000 6 10 23:44 28.03.2021
927 Snow -9 994 73 10000 7 30 23:19 28.03.2021
928 Snow -10 995 79 7000 10 30 22:41 28.03.2021
929 Snow -10 995 79 7000 10 30 22:21 28.03.2021
930 Snow -10 995 79 5000 8 30 21:41 28.03.2021
931 Snow -10 995 79 5000 8 30 21:22 28.03.2021
932 Snow -9 996 73 5000 9 50 20:49 28.03.2021
933 Snow -9 996 73 5000 9 50 20:31 28.03.2021
934 Snow -8 996 73 3600 9 50 19:45 28.03.2021
935 Snow -8 996 73 3600 9 50 19:23 28.03.2021
936 Snow -10 998 79 1500 8 30 18:58 28.03.2021
937 Snow -10 998 79 1500 8 30 18:27 28.03.2021
938 Snow -10 999 85 1100 8 40 17:50 28.03.2021
939 Snow -10 999 85 1100 8 40 17:27 28.03.2021
940 Snow -11 998 92 250 12 80 16:46 28.03.2021
941 Snow -11 998 92 250 12 80 16:23 28.03.2021
942 Snow -11 1000 92 600 10 60 15:42 28.03.2021
943 Snow -11 1000 92 600 10 60 15:18 28.03.2021
944 Snow -13 1003 85 3600 7 10 14:31 28.03.2021
945 Snow -13 1005 85 7000 5 10 13:48 28.03.2021
946 Snow -13 1005 85 7000 5 10 13:22 28.03.2021
947 Snow -12 1007 79 4900 6 20 12:50 28.03.2021
948 Snow -12 1007 79 4900 6 20 12:32 28.03.2021
949 Snow -14 1009 78 4700 7 20 11:45 28.03.2021
950 Snow -14 1009 78 4700 7 20 11:25 28.03.2021
951 Snow -14 1011 78 4700 7 30 10:44 28.03.2021
952 Snow -14 1011 78 4700 7 30 10:25 28.03.2021
953 Clouds -15 1012 66 10000 6 50 09:47 28.03.2021
954 Clouds -15 1012 66 10000 6 50 09:24 28.03.2021
955 Snow -15 1014 61 10000 13 70 08:46 28.03.2021
956 Snow -16 1014 72 9000 11 80 07:50 28.03.2021
957 Snow -16 1014 72 9000 11 80 07:19 28.03.2021
958 Snow -16 1019 72 10000 5 70 04:18 28.03.2021
959 Snow -16 1019 72 10000 5 70 04:18 28.03.2021
960 Clear -17 1021 66 10000 3 70 01:22 28.03.2021
961 Clear -17 1021 71 10000 6 70 00:21 28.03.2021
962 Clear -17 1022 66 10000 3 240 23:43 27.03.2021
963 Clear -19 1022 71 10000 3 40 22:58 27.03.2021
964 Clear -19 1022 71 10000 3 40 22:36 27.03.2021
965 Clear -21 1022 77 10000 2 280 21:59 27.03.2021
966 Clear -21 1022 77 10000 2 280 21:38 27.03.2021
967 Clear -21 1022 77 10000 2 280 21:19 27.03.2021
968 Clear -23 1023 84 10000 1 0 20:38 27.03.2021
969 Clear -23 1023 84 10000 1 0 20:20 27.03.2021
970 Clear -24 1023 77 10000 2 300 19:42 27.03.2021
971 Clear -24 1023 77 10000 2 300 19:23 27.03.2021
972 Clear -25 1023 84 10000 1 0 18:49 27.03.2021
973 Clear -25 1023 84 10000 1 0 18:28 27.03.2021
974 Clear -24 1023 77 10000 1 0 17:54 27.03.2021
975 Clear -24 1023 77 10000 1 0 17:24 27.03.2021
976 Clear -21 1024 84 10000 2 150 16:51 27.03.2021
977 Clear -21 1024 84 10000 2 150 16:29 27.03.2021
978 Clear -22 1024 77 10000 3 50 15:50 27.03.2021
979 Clear -22 1024 77 10000 3 50 15:27 27.03.2021
980 Clear -20 1024 77 10000 4 50 14:50 27.03.2021
981 Clear -22 1024 84 10000 3 50 13:56 27.03.2021
982 Clear -23 1024 84 10000 3 50 13:26 27.03.2021
983 Clear -24 1024 77 10000 2 30 12:56 27.03.2021
984 Clear -24 1024 77 10000 2 30 12:27 27.03.2021
985 Clear -25 1024 77 10000 2 30 11:46 27.03.2021
986 Clear -25 1024 77 10000 2 30 11:25 27.03.2021
987 Clear -24 1023 77 10000 2 30 10:45 27.03.2021
988 Clear -24 1023 77 10000 2 30 10:23 27.03.2021
989 Clear -22 1023 84 10000 3 10 09:29 27.03.2021
990 Clear -23 1022 84 10000 5 20 08:48 27.03.2021
991 Clear -23 1022 84 10000 5 20 08:30 27.03.2021
992 Clouds -19 1022 77 10000 2 340 07:35 27.03.2021
993 Clouds -19 1022 78 10000 3 330 06:47 27.03.2021
994 Clouds -19 1022 78 10000 3 330 06:28 27.03.2021
995 Clouds -18 1021 78 10000 4 310 04:40 27.03.2021
996 Clear -18 1019 78 10000 4 350 00:54 27.03.2021
997 Clear -18 1019 78 10000 4 350 00:30 27.03.2021
998 Clear -19 1019 78 10000 5 340 23:54 26.03.2021
999 Clear -19 1019 78 10000 5 340 23:54 26.03.2021
1000 Clear -19 1019 78 10000 5 340 23:21 26.03.2021
1001 Clouds -20 1018 84 10000 5 320 22:35 26.03.2021
1002 Clouds -20 1017 77 10000 6 330 21:37 26.03.2021
1003 Clouds -20 1017 77 10000 6 330 21:18 26.03.2021
1004 Clear -19 1016 78 10000 7 340 20:38 26.03.2021
1005 Clear -19 1016 78 10000 7 340 20:19 26.03.2021
1006 Snow -18 1015 78 6000 6 330 19:47 26.03.2021
1007 Snow -18 1015 78 6000 6 330 19:28 26.03.2021
1008 Snow -16 1015 78 7000 6 350 18:42 26.03.2021
1009 Snow -16 1015 78 7000 6 350 18:20 26.03.2021
1010 Snow -16 1014 85 8000 3.01 357 17:47 26.03.2021
1011 Snow -16 1014 85 4200 1 150 16:57 26.03.2021
1012 Snow -16 1014 85 4200 1 150 16:33 26.03.2021
1013 Snow -16 1013 85 5000 1 200 15:57 26.03.2021
1014 Snow -16 1013 85 5000 1 200 15:23 26.03.2021
1015 Snow -16 1012 85 7000 1 120 14:31 26.03.2021
1016 Snow -16 1012 85 4100 3.69 28 13:41 26.03.2021
1017 Snow -15 1012 85 2700 1 280 12:56 26.03.2021
1018 Snow -15 1012 85 2700 1 280 12:32 26.03.2021
1019 Snow -14 1012 78 3100 1 0 11:35 26.03.2021
1020 Snow -15 1012 85 9000 3 350 10:58 26.03.2021
1021 Snow -15 1012 85 9000 3 350 10:39 26.03.2021
1022 Snow -14 1012 85 2900 2 340 09:54 26.03.2021
1023 Snow -14 1012 85 2900 2 340 09:35 26.03.2021
1024 Snow -14 1012 85 2200 1 40 08:42 26.03.2021
1025 Snow -14 1012 85 2200 1 40 08:22 26.03.2021
1026 Snow -14 1012 78 3100 1 0 07:39 26.03.2021
1027 Snow -14 1012 78 3100 1 0 07:18 26.03.2021
1028 Snow -14 1012 78 1900 1 20 06:53 26.03.2021
1029 Snow -13 1011 78 8000 9 80 05:31 26.03.2021
1030 Snow -13 1012 66 10000 8 20 02:22 26.03.2021
1031 Snow -15 1013 78 10000 9 80 00:32 26.03.2021
1032 Snow -15 1012 72 8000 8 90 23:45 25.03.2021
1033 Snow -15 1013 72 10000 4 100 23:20 25.03.2021
1034 Snow -15 1013 72 10000 4 100 23:20 25.03.2021
1035 Clouds -13 1013 61 10000 4 40 22:37 25.03.2021
1036 Snow -13 1013 61 10000 4 60 21:53 25.03.2021
1037 Snow -14 1013 66 10000 5 70 21:34 25.03.2021
1038 Snow -14 1013 66 10000 5 60 20:45 25.03.2021
1039 Snow -14 1013 66 10000 5 60 20:26 25.03.2021
1040 Clouds -14 1013 66 10000 1 0 19:49 25.03.2021
1041 Clouds -14 1013 66 10000 1 0 19:49 25.03.2021
1042 Clouds -14 1013 66 10000 1 0 19:49 25.03.2021
1043 Clouds -14 1013 66 10000 1 0 19:49 25.03.2021
1044 Clouds -14 1013 66 10000 1 0 19:31 25.03.2021
1045 Clouds -14 1013 66 10000 3 80 18:51 25.03.2021
1046 Clouds -14 1013 66 10000 3 80 18:28 25.03.2021
1047 Clouds -18 1013 85 10000 1 0 17:57 25.03.2021
1048 Clouds -18 1013 85 10000 1 0 17:37 25.03.2021
1049 Clouds -18 1013 85 10000 2 340 16:56 25.03.2021
1050 Clouds -18 1013 85 10000 2 340 16:32 25.03.2021
1051 Snow -17 1012 85 10000 1 360 15:46 25.03.2021
1052 Snow -17 1012 85 10000 1 360 15:24 25.03.2021
1053 Snow -17 1012 85 10000 2 10 14:48 25.03.2021
1054 Snow -17 1012 85 10000 2 10 14:29 25.03.2021
1055 Snow -17 1012 78 10000 2 90 13:25 25.03.2021
1056 Snow -19 1012 78 10000 3 50 12:46 25.03.2021
1057 Snow -19 1012 78 10000 3 50 12:22 25.03.2021
1058 Clouds -20 1012 84 10000 2 10 11:53 25.03.2021
1059 Clouds -20 1012 84 10000 2 10 11:33 25.03.2021
1060 Clouds -18 1011 85 10000 2 340 10:58 25.03.2021
1061 Clouds -18 1011 85 10000 2 340 10:39 25.03.2021
1062 Clouds -18 1011 85 10000 2 340 10:19 25.03.2021
1063 Clouds -18 1011 78 10000 2 340 09:43 25.03.2021
1064 Clouds -18 1011 78 10000 2 340 09:21 25.03.2021
1065 Clouds -20 1010 77 10000 2 20 08:31 25.03.2021
1066 Clouds -16 1009 78 10000 3 340 07:29 25.03.2021
1067 Snow -15 1009 78 7000 4 330 06:43 25.03.2021
1068 Snow -15 1009 78 7000 4 330 06:22 25.03.2021
1069 Snow -13 1008 78 10000 6 290 04:50 25.03.2021
1070 Snow -13 1006 78 10000 7 290 01:20 25.03.2021
1071 Snow -13 1005 78 10000 8 290 00:19 25.03.2021
1072 Snow -14 1004 85 10000 8 290 23:40 24.03.2021
1073 Snow -14 1004 85 10000 8 290 23:18 24.03.2021
1074 Snow -13 1004 78 10000 4 280 22:39 24.03.2021
1075 Snow -13 1004 85 10000 6 290 21:51 24.03.2021
1076 Snow -13 1004 85 10000 6 290 21:51 24.03.2021
1077 Snow -13 1004 78 10000 8 280 21:32 24.03.2021
1078 Clouds -14 1003 85 10000 5 290 20:56 24.03.2021
1079 Clouds -14 1003 85 10000 5 290 20:38 24.03.2021
1080 Clouds -14 1003 85 10000 5 290 20:18 24.03.2021
1081 Clear -14 1001 85 10000 5 300 19:33 24.03.2021
1082 Clear -14 1001 85 10000 5 300 19:33 24.03.2021
1083 Clear -13 1001 85 10000 4 320 18:53 24.03.2021
1084 Clear -13 1001 85 10000 4 320 18:24 24.03.2021
1085 Clear -13 1001 85 10000 4 320 18:24 24.03.2021
1086 Clouds -13 999 85 10000 8 290 17:53 24.03.2021
1087 Clouds -13 999 85 10000 8 290 17:32 24.03.2021
1088 Snow -12 999 85 10000 7 290 16:56 24.03.2021
1089 Snow -12 999 85 10000 7 290 16:38 24.03.2021
1090 Snow -12 999 85 10000 7 290 16:18 24.03.2021
1091 Snow -11 998 85 10000 4 310 15:33 24.03.2021
1092 Snow -11 997 85 10000 4 310 14:59 24.03.2021
1093 Snow -11 997 85 10000 4 310 14:29 24.03.2021
1094 Clouds -11 996 85 10000 7 300 13:58 24.03.2021
1095 Clouds -11 996 85 10000 7 300 13:28 24.03.2021
1096 Snow -11 996 85 10000 2 100 12:50 24.03.2021
1097 Snow -11 996 85 10000 2 100 12:29 24.03.2021
1098 Snow -11 995 92 7000 6 300 11:54 24.03.2021
1099 Snow -11 995 92 7000 6 300 11:35 24.03.2021
1100 Snow -11 995 92 7000 6 300 11:35 24.03.2021
1101 Snow -11 994 79 10000 3 320 10:48 24.03.2021
1102 Snow -11 994 79 10000 3 320 10:28 24.03.2021
1103 Snow -11 993 79 10000 6 290 09:54 24.03.2021
1104 Snow -11 993 79 10000 6 290 09:25 24.03.2021
1105 Snow -11 992 92 10000 6 290 08:57 24.03.2021
1106 Snow -11 992 92 10000 6 290 08:32 24.03.2021
1107 Snow -10 992 85 8000 7 300 07:44 24.03.2021
1108 Snow -10 992 85 8000 7 300 07:18 24.03.2021
1109 Snow -9 991 92 7000 8 310 06:41 24.03.2021
1110 Snow -4 984 93 5000 3 340 01:24 24.03.2021
1111 Snow -3 983 93 1900 4 290 00:33 24.03.2021
1112 Snow -3 983 93 1700 2 210 23:43 23.03.2021
1113 Snow -3 983 93 1700 2 210 23:18 23.03.2021
1114 Snow -2 982 86 8000 1 180 22:44 23.03.2021
1115 Snow -2 982 86 9000 3 180 22:23 23.03.2021
1116 Snow -2 982 93 10000 4 140 21:41 23.03.2021
1117 Snow -2 982 93 10000 4 140 21:22 23.03.2021
1118 Snow -2 981 86 10000 7 140 20:43 23.03.2021
1119 Snow -2 981 86 10000 7 140 20:25 23.03.2021
1120 Snow -4 982 93 1900 7 110 19:45 23.03.2021
1121 Snow -4 982 93 1900 7 110 19:25 23.03.2021
1122 Snow -4 983 93 1100 9 100 18:43 23.03.2021
1123 Snow -4 983 93 1100 9 100 18:22 23.03.2021
1124 Snow -5 985 93 450 11 90 17:45 23.03.2021
1125 Snow -5 985 93 450 11 90 17:21 23.03.2021
1126 Snow -5 987 93 300 12 100 16:39 23.03.2021
1127 Snow -5 987 93 300 12 100 16:19 23.03.2021
1128 Snow -6 989 93 200 13 100 15:38 23.03.2021
1129 Snow -7 992 93 100 13 100 14:52 23.03.2021
1130 Snow -7 992 93 100 13 100 14:52 23.03.2021
1131 Snow -7 992 93 100 13 100 14:21 23.03.2021
1132 Snow -8 994 93 50 15 100 13:50 23.03.2021
1133 Snow -8 994 93 50 15 100 13:26 23.03.2021
1134 Snow -9 998 92 50 15 90 12:59 23.03.2021
1135 Snow -9 998 92 50 15 90 12:39 23.03.2021
1136 Snow -9 998 92 50 15 90 12:19 23.03.2021
1137 Snow -10 1001 92 100 15 90 11:42 23.03.2021
1138 Snow -10 1003 92 100 15 110 10:44 23.03.2021
1139 Snow -10 1003 92 100 15 110 10:23 23.03.2021
1140 Snow -11 1005 85 100 14 100 09:58 23.03.2021
1141 Snow -11 1005 85 100 14 100 09:36 23.03.2021
1142 Snow -11 1005 85 100 14 100 09:18 23.03.2021
1143 Snow -12 1007 85 50 16 110 08:39 23.03.2021
1144 Snow -12 1007 85 50 16 110 08:20 23.03.2021
1145 Snow -13 1009 78 100 15 100 07:28 23.03.2021
1146 Snow -13 1011 78 250 14 110 06:59 23.03.2021
1147 Snow -14 1012 85 550 13 110 06:24 23.03.2021
1148 Clear -15 1019 61 10000 5 100 03:21 23.03.2021
1149 Clear -16 1021 55 10000 6 110 01:34 23.03.2021
1150 Clear -21 1023 65 10000 4 160 23:33 22.03.2021
1151 Clear -22 1023 64 10000 2 170 22:46 22.03.2021
1152 Clear -23 1024 70 10000 1 110 22:24 22.03.2021
1153 Clear -24 1024 70 10000 1 230 21:57 22.03.2021
1154 Clear -25 1024 58 10000 1 0 21:36 22.03.2021
1155 Clear -25 1024 58 10000 1 0 21:18 22.03.2021
1156 Clear -27 1024 69 10000 2 40 20:38 22.03.2021
1157 Clear -27 1024 69 10000 2 40 20:19 22.03.2021
1158 Clear -27 1024 69 10000 3 30 19:48 22.03.2021
1159 Clear -27 1024 69 10000 3 30 19:29 22.03.2021
1160 Clear -26 1024 64 10000 2 10 18:46 22.03.2021
1161 Clear -26 1024 64 10000 2 10 18:27 22.03.2021
1162 Clear -26 1025 64 10000 3 10 17:51 22.03.2021
1163 Clear -26 1025 64 10000 3 10 17:24 22.03.2021
1164 Clear -24 1025 70 10000 4 40 16:59 22.03.2021
1165 Clear -24 1025 70 10000 4 40 16:41 22.03.2021
1166 Clear -26 1025 70 10000 5 10 15:59 22.03.2021
1167 Clear -26 1025 70 10000 5 10 15:37 22.03.2021
1168 Clear -26 1025 70 10000 5 10 15:18 22.03.2021
1169 Clear -23 1025 70 10000 4 350 14:50 22.03.2021
1170 Clear -23 1025 70 10000 4 350 14:29 22.03.2021
1171 Clear -24 1024 70 10000 5 350 13:43 22.03.2021
1172 Clear -24 1024 70 10000 5 350 13:22 22.03.2021
1173 Clear -23 1024 64 10000 5 350 12:47 22.03.2021
1174 Clear -23 1024 64 10000 5 350 12:23 22.03.2021
1175 Clear -23 1024 64 10000 8 320 11:47 22.03.2021
1176 Clear -23 1024 64 10000 8 320 11:25 22.03.2021
1177 Clear -23 1024 70 10000 6 330 10:44 22.03.2021
1178 Clear -23 1024 70 10000 6 330 10:24 22.03.2021
1179 Clear -24 1024 77 10000 5 330 09:43 22.03.2021
1180 Clear -24 1024 77 10000 5 330 09:22 22.03.2021
1181 Snow -23 1023 70 10000 7 300 08:44 22.03.2021
1182 Snow -23 1023 70 10000 7 300 08:24 22.03.2021
1183 Snow -22 1022 71 10000 9 300 07:45 22.03.2021
1184 Snow -21 1022 71 10000 10 300 06:57 22.03.2021
1185 Snow -21 1021 71 10000 10 300 06:35 22.03.2021
1186 Snow -21 1020 71 10000 8 320 02:38 22.03.2021
1187 Snow -22 1020 71 10000 7 320 00:33 22.03.2021
1188 Snow -22 1020 71 10000 6 330 23:54 21.03.2021
1189 Snow -22 1020 71 10000 6 330 23:20 21.03.2021
1190 Snow -23 1020 77 10000 6 330 22:56 21.03.2021
1191 Snow -23 1020 77 10000 5 350 22:20 21.03.2021
1192 Snow -23 1019 70 10000 4 340 21:41 21.03.2021
1193 Snow -23 1019 70 10000 4 340 21:22 21.03.2021
1194 Snow -24 1019 77 10000 4 360 20:44 21.03.2021
1195 Snow -24 1019 77 10000 4 360 20:26 21.03.2021
1196 Snow -24 1019 77 10000 4 350 19:54 21.03.2021
1197 Snow -24 1019 77 10000 4 350 19:23 21.03.2021
1198 Snow -23 1018 77 10000 3 350 18:53 21.03.2021
1199 Snow -23 1018 77 10000 3 350 18:27 21.03.2021
1200 Snow -22 1018 77 6000 4 330 17:48 21.03.2021
1201 Snow -22 1018 77 6000 4 330 17:21 21.03.2021
1202 Snow -22 1018 77 6000 4 340 16:59 21.03.2021
1203 Snow -22 1018 77 6000 4 340 16:41 21.03.2021
1204 Snow -22 1018 77 6000 4 340 16:22 21.03.2021
1205 Snow -22 1017 77 10000 5 330 15:41 21.03.2021
1206 Snow -22 1017 77 10000 5 330 15:20 21.03.2021
1207 Snow -22 1017 77 10000 4 330 14:46 21.03.2021
1208 Snow -22 1017 77 10000 4 330 14:27 21.03.2021
1209 Snow -22 1017 77 10000 4 330 13:54 21.03.2021
1210 Snow -22 1017 77 10000 4 330 13:25 21.03.2021
1211 Snow -22 1017 84 10000 3 360 12:42 21.03.2021
1212 Snow -22 1017 84 10000 3 360 12:24 21.03.2021
1213 Snow -22 1017 77 10000 3 10 11:41 21.03.2021
1214 Snow -22 1017 77 10000 3 10 11:20 21.03.2021
1215 Snow -22 1017 77 10000 3 10 11:20 21.03.2021
1216 Snow -21 1016 77 7000 3 340 10:43 21.03.2021
1217 Snow -21 1016 77 7000 3 340 10:23 21.03.2021
1218 Snow -21 1016 77 7000 3 340 09:46 21.03.2021
1219 Snow -21 1016 77 7000 3 340 09:28 21.03.2021
1220 Snow -21 1016 84 9000 4 330 08:47 21.03.2021
1221 Snow -21 1016 84 9000 4 330 08:26 21.03.2021
1222 Snow -20 1015 77 9000 4 320 07:39 21.03.2021
1223 Snow -20 1015 77 9000 4 320 07:19 21.03.2021
1224 Snow -20 1015 71 9000 5 340 05:55 21.03.2021
1225 Clear -20 1014 71 10000 5 340 02:34 21.03.2021
1226 Clear -21 1014 71 10000 5 330 00:55 21.03.2021
1227 Clear -21 1014 71 10000 6 340 00:36 21.03.2021
1228 Clear -21 1014 71 10000 6 340 00:18 21.03.2021
1229 Clear -22 1014 71 10000 5 350 23:37 20.03.2021
1230 Clear -22 1014 71 10000 5 350 22:57 20.03.2021
1231 Clear -22 1014 71 10000 2 360 22:24 20.03.2021
1232 Clear -22 1014 71 10000 4 330 21:47 20.03.2021
1233 Clear -22 1014 71 10000 4 330 21:25 20.03.2021
1234 Clear -21 1014 71 10000 4 350 20:48 20.03.2021
1235 Clear -21 1014 71 10000 4 350 20:23 20.03.2021
1236 Clear -21 1013 71 10000 2 20 19:51 20.03.2021
1237 Clear -21 1013 71 10000 2 20 19:29 20.03.2021
1238 Clear -21 1013 71 10000 6 350 18:51 20.03.2021
1239 Clear -21 1013 71 10000 6 350 18:28 20.03.2021
1240 Clear -21 1013 77 10000 6 340 17:58 20.03.2021
1241 Clear -21 1013 77 10000 6 340 17:40 20.03.2021
1242 Clear -21 1013 77 10000 6 340 17:19 20.03.2021
1243 Clear -21 1013 77 10000 7 360 16:38 20.03.2021
1244 Clear -21 1013 77 10000 7 360 16:18 20.03.2021
1245 Clouds -20 1013 71 10000 5 350 15:40 20.03.2021
1246 Clouds -20 1013 71 10000 5 350 15:22 20.03.2021
1247 Clouds -20 1013 71 10000 6 360 14:32 20.03.2021
1248 Clouds -19 1013 71 10000 2 80 13:59 20.03.2021
1249 Clouds -19 1013 71 10000 2 80 13:30 20.03.2021
1250 Clouds -19 1013 71 10000 2 80 13:30 20.03.2021
1251 Clouds -19 1013 71 10000 2 80 13:30 20.03.2021
1252 Clouds -19 1013 71 10000 1 0 12:37 20.03.2021
1253 Clouds -19 1013 71 10000 1 0 12:18 20.03.2021
1254 Clear -19 1013 71 10000 2 10 11:41 20.03.2021
1255 Clear -19 1013 71 10000 2 10 11:21 20.03.2021
1256 Clear -20 1013 71 10000 2 60 10:44 20.03.2021
1257 Clear -20 1013 71 10000 2 60 10:23 20.03.2021
1258 Clear -21 1013 71 10000 5 360 09:44 20.03.2021
1259 Clear -21 1013 71 10000 5 360 09:22 20.03.2021
1260 Clear -21 1013 71 10000 4 350 08:51 20.03.2021
1261 Clear -21 1013 71 10000 4 350 08:19 20.03.2021
1262 Clear -21 1013 71 10000 6 360 07:47 20.03.2021
1263 Clear -21 1013 71 10000 6 360 07:29 20.03.2021
1264 Clear -20 1013 71 10000 5 350 06:40 20.03.2021
1265 Clear -21 1014 71 10000 5 350 05:28 20.03.2021
1266 Clear -23 1014 70 10000 4 350 03:44 20.03.2021
1267 Clear -25 1015 70 10000 4 340 01:42 20.03.2021
1268 Clear -26 1016 70 10000 3 350 23:48 19.03.2021
1269 Clear -27 1016 69 10000 3 350 23:20 19.03.2021
1270 Clear -28 1017 76 10000 4 350 22:43 19.03.2021
1271 Clear -28 1017 69 10000 3 350 22:24 19.03.2021
1272 Clear -29 1017 69 10000 3 350 21:51 19.03.2021
1273 Clear -29 1017 69 10000 3 350 21:20 19.03.2021
1274 Clear -29 1017 69 10000 5 350 20:46 19.03.2021
1275 Clear -29 1017 69 10000 5 350 20:26 19.03.2021
1276 Clear -30 1017 76 10000 4 350 19:50 19.03.2021
1277 Clear -30 1017 76 10000 4 350 19:23 19.03.2021
1278 Clear -30 1018 76 10000 3 360 18:49 19.03.2021
1279 Clear -30 1018 76 10000 3 360 18:30 19.03.2021
1280 Clear -29 1018 69 10000 4 10 17:58 19.03.2021
1281 Clear -29 1018 69 10000 4 10 17:38 19.03.2021
1282 Clear -29 1018 69 10000 4 10 17:18 19.03.2021
1283 Clear -28 1018 76 10000 3 340 16:44 19.03.2021
1284 Clear -27 1018 76 10000 3 340 16:25 19.03.2021
1285 Clear -27 1019 69 10000 3 360 15:34 19.03.2021
1286 Clear -19 1019 50 10000 5 70 14:53 19.03.2021
1287 Clear -19 1019 50 10000 5 70 14:34 19.03.2021
1288 Clear -20 1019 54 10000 5 70 13:53 19.03.2021
1289 Clear -20 1019 54 10000 5 70 13:19 19.03.2021
1290 Clear -27 1020 69 10000 4 360 12:47 19.03.2021
1291 Clear -27 1020 69 10000 4 360 12:18 19.03.2021
1292 Clear -27 1020 69 10000 2 60 11:33 19.03.2021
1293 Clear -27 1021 76 10000 3 350 10:52 19.03.2021
1294 Clear -27 1021 76 10000 3 350 10:23 19.03.2021
1295 Clear -27 1020 76 10000 4 360 09:44 19.03.2021
1296 Clear -27 1020 76 10000 4 360 09:26 19.03.2021
1297 Clear -28 1020 76 10000 2 10 08:52 19.03.2021
1298 Clear -27 1020 76 10000 2 10 08:29 19.03.2021
1299 Clear -26 1021 70 10000 4 360 07:50 19.03.2021
1300 Clear -26 1021 70 10000 4 360 07:32 19.03.2021
1301 Clear -25 1021 70 10000 4 360 05:54 19.03.2021
1302 Clear -25 1022 70 10000 3 360 02:36 19.03.2021
1303 Clear -26 1022 70 10000 3 350 23:57 18.03.2021
1304 Clear -27 1022 76 10000 3 350 23:29 18.03.2021
1305 Clear -27 1022 76 10000 4 350 22:54 18.03.2021
1306 Clear -27 1022 76 10000 4 360 22:27 18.03.2021
1307 Clear -28 1023 76 10000 3 360 21:55 18.03.2021
1308 Clear -29 1022 76 10000 4 350 21:36 18.03.2021
1309 Clouds -29 1022 76 10000 4 350 20:43 18.03.2021
1310 Clouds -29 1022 76 10000 4 350 20:43 18.03.2021
1311 Clouds -29 1022 76 10000 4 350 20:23 18.03.2021
1312 Clouds -29 1022 76 10000 4 360 19:43 18.03.2021
1313 Clouds -29 1022 76 10000 4 360 19:24 18.03.2021
1314 Clouds -29 1022 76 10000 4 350 18:53 18.03.2021
1315 Clouds -29 1022 76 10000 4 350 18:53 18.03.2021
1316 Clouds -29 1022 76 10000 4 350 18:26 18.03.2021
1317 Clouds -29 1022 76 10000 4 350 18:26 18.03.2021
1318 Clouds -29 1022 76 10000 3 10 17:44 18.03.2021
1319 Clouds -29 1022 76 10000 3 10 17:20 18.03.2021
1320 Clear -29 1022 76 10000 2 350 16:42 18.03.2021
1321 Clear -29 1022 76 10000 2 350 16:23 18.03.2021
1322 Clear -27 1022 69 10000 5 10 15:43 18.03.2021
1323 Clear -27 1022 69 10000 5 10 15:23 18.03.2021
1324 Clear -27 1022 69 10000 5 10 15:23 18.03.2021
1325 Clouds -29 1023 76 10000 3 360 14:52 18.03.2021
1326 Clouds -28 1023 76 10000 3 360 14:29 18.03.2021
1327 Clear -28 1022 69 10000 3 360 13:49 18.03.2021
1328 Clear -28 1022 69 10000 3 360 13:25 18.03.2021
1329 Clear -28 1022 76 10000 3 10 12:42 18.03.2021
1330 Clear -28 1022 76 10000 3 10 12:24 18.03.2021
1331 Clear -28 1022 76 10000 2 360 11:51 18.03.2021
1332 Clear -28 1022 76 10000 2 360 11:31 18.03.2021
1333 Clear -27 1022 69 10000 3 350 10:44 18.03.2021
1334 Clear -27 1022 69 10000 3 350 10:25 18.03.2021
1335 Clear -26 1022 70 10000 4 360 09:54 18.03.2021
1336 Clear -26 1022 70 10000 4 360 09:28 18.03.2021
1337 Clear -25 1021 70 10000 5 360 08:47 18.03.2021
1338 Clear -25 1021 70 10000 5 360 08:29 18.03.2021
1339 Clear -25 1022 70 10000 4 350 07:51 18.03.2021
1340 Clear -25 1022 70 10000 4 350 07:24 18.03.2021
1341 Clear -24 1021 70 10000 4 350 06:27 18.03.2021
1342 Clear -24 1021 70 10000 4 340 05:53 18.03.2021
1343 Clear -25 1021 70 10000 6 360 01:24 18.03.2021
1344 Clear -25 1021 70 10000 5 10 23:59 17.03.2021
1345 Clear -25 1021 70 10000 4 10 22:47 17.03.2021
1346 Clear -26 1021 70 10000 5 10 22:26 17.03.2021
1347 Clear -27 1021 76 10000 3 10 21:56 17.03.2021
1348 Clear -27 1021 69 10000 2 360 21:34 17.03.2021
1349 Clear -27 1021 69 10000 4 360 20:59 17.03.2021
1350 Clear -27 1021 69 10000 4 360 20:40 17.03.2021
1351 Clear -27 1021 69 10000 4 360 20:40 17.03.2021
1352 Clear -27 1021 69 10000 4 360 20:40 17.03.2021
1353 Clear -27 1021 69 10000 4 360 20:22 17.03.2021
1354 Clear -28 1020 69 10000 4 320 19:44 17.03.2021
1355 Clear -27 1020 69 10000 4 320 19:21 17.03.2021
1356 Clear -27 1020 69 10000 3 360 18:54 17.03.2021
1357 Clear -27 1020 69 10000 3 360 18:36 17.03.2021
1358 Clear -27 1020 76 10000 3 340 17:48 17.03.2021
1359 Clear -27 1020 76 10000 3 340 17:25 17.03.2021
1360 Clear -25 1020 70 10000 1 0 16:46 17.03.2021
1361 Clear -26 1020 70 10000 1 0 16:25 17.03.2021
1362 Clear -27 1019 69 10000 2 360 15:53 17.03.2021
1363 Clear -27 1019 69 10000 2 360 15:35 17.03.2021
1364 Clear -25 1019 70 10000 5 320 14:45 17.03.2021
1365 Clear -25 1019 70 10000 5 320 14:27 17.03.2021
1366 Clear -28 1021 88 10000 3.63 322 13:55 17.03.2021
1367 Clear -22 1019 71 10000 3 310 13:30 17.03.2021
1368 Clear -22 1019 71 10000 3 310 12:51 17.03.2021
1369 Clear -22 1019 71 10000 3 310 12:33 17.03.2021
1370 Clear -23 1019 70 10000 3 340 11:51 17.03.2021
1371 Clear -23 1019 70 10000 3 340 11:23 17.03.2021
1372 Clear -22 1019 71 10000 2 360 10:55 17.03.2021
1373 Clear -22 1019 71 10000 2 360 10:28 17.03.2021
1374 Clear -22 1018 77 10000 3 340 09:49 17.03.2021
1375 Clear -22 1018 77 10000 3 340 09:26 17.03.2021
1376 Snow -20 1016 71 7000 12 320 08:58 17.03.2021
1377 Snow -20 1016 71 7000 12 320 08:38 17.03.2021
1378 Snow -19 1016 65 9000 10 320 07:49 17.03.2021
1379 Snow -19 1016 65 9000 10 320 07:30 17.03.2021
1380 Snow -19 1015 71 10000 10 320 06:46 17.03.2021
1381 Snow -18 1014 78 10000 9 310 04:26 17.03.2021
1382 Snow -18 1014 78 10000 9 290 03:25 17.03.2021
1383 Snow -20 1013 77 10000 9 290 00:40 17.03.2021
1384 Snow -20 1013 77 10000 8 290 23:33 16.03.2021
1385 Snow -20 1013 77 10000 6 310 22:59 16.03.2021
1386 Clouds -20 1012 77 10000 5 310 22:35 16.03.2021
1387 Snow -20 1012 84 9000 7 300 21:54 16.03.2021
1388 Snow -20 1012 84 5000 8 300 21:35 16.03.2021
1389 Mist -18 1011 85 4800 1 270 20:59 16.03.2021
1390 Mist -18 1011 85 4800 1 270 20:59 16.03.2021
1391 Mist -18 1011 85 4800 1 270 20:41 16.03.2021
1392 Mist -18 1011 85 4800 1 270 20:18 16.03.2021
1393 Clouds -16 1010 78 10000 2 200 19:42 16.03.2021
1394 Clouds -15 1010 78 10000 2 200 19:23 16.03.2021
1395 Snow -15 1010 78 10000 3 170 18:45 16.03.2021
1396 Snow -15 1010 78 10000 3 170 18:27 16.03.2021
1397 Snow -15 1011 78 7000 5 140 17:50 16.03.2021
1398 Snow -15 1011 78 7000 5 140 17:31 16.03.2021
1399 Snow -16 1011 78 3800 5 150 16:53 16.03.2021
1400 Snow -16 1011 78 3800 5 150 16:30 16.03.2021
1401 Snow -15 1011 78 7000 5 150 15:47 16.03.2021
1402 Snow -15 1011 78 7000 5 150 15:22 16.03.2021
1403 Snow -16 1011 66 6000 5 150 14:59 16.03.2021
1404 Snow -16 1011 66 6000 5 150 14:40 16.03.2021
1405 Snow -16 1011 66 6000 5 150 14:21 16.03.2021
1406 Snow -16 1012 60 10000 5 150 13:54 16.03.2021
1407 Snow -16 1012 60 10000 5 150 13:27 16.03.2021
1408 Snow -16 1012 60 10000 2 130 12:54 16.03.2021
1409 Clear -16 1012 60 10000 2 130 12:35 16.03.2021
1410 Clear -16 1012 55 10000 2 130 11:55 16.03.2021
1411 Clear -16 1012 55 10000 2 130 11:29 16.03.2021
1412 Clear -17 1013 55 10000 2 100 10:46 16.03.2021
1413 Clear -17 1013 55 10000 2 100 10:20 16.03.2021
1414 Clear -18 1014 65 10000 2 10 09:40 16.03.2021
1415 Clear -18 1014 65 10000 2 10 09:19 16.03.2021
1416 Clear -19 1014 71 10000 2 360 08:52 16.03.2021
1417 Clear -19 1014 71 10000 2 360 08:33 16.03.2021
1418 Clear -19 1014 71 10000 3 350 07:50 16.03.2021
1419 Clear -18 1015 65 10000 2 20 07:24 16.03.2021
1420 Clear -19 1015 71 10000 2 360 06:37 16.03.2021
1421 Clear -19 1014 71 10000 4 340 05:36 16.03.2021
1422 Clear -19 1015 71 10000 6 330 02:46 16.03.2021
1423 Snow -20 1015 71 10000 6 310 02:25 16.03.2021
1424 Snow -20 1013 71 10000 11 290 00:38 16.03.2021
1425 Snow -21 1012 77 10000 10 290 23:53 15.03.2021
1426 Snow -21 1012 77 10000 11 300 23:19 15.03.2021
1427 Snow -21 1011 71 10000 13 290 22:42 15.03.2021
1428 Snow -21 1011 71 10000 13 290 22:24 15.03.2021
1429 Snow -22 1011 77 10000 9 290 21:48 15.03.2021
1430 Clouds -22 1011 71 10000 7 290 21:27 15.03.2021
1431 Snow -23 1009 84 10000 9 300 20:47 15.03.2021
1432 Snow -23 1009 84 10000 9 300 20:28 15.03.2021
1433 Snow -22 1009 77 10000 10 310 19:58 15.03.2021
1434 Snow -22 1009 77 10000 10 310 19:39 15.03.2021
1435 Snow -22 1009 77 10000 10 310 19:21 15.03.2021
1436 Clear -22 1008 77 10000 9 300 18:42 15.03.2021
1437 Clear -22 1008 77 10000 9 300 18:22 15.03.2021
1438 Clear -22 1007 77 10000 10 300 17:52 15.03.2021
1439 Clear -22 1007 77 10000 10 300 17:22 15.03.2021
1440 Clear -22 1007 77 10000 8 300 16:44 15.03.2021
1441 Clear -22 1007 77 10000 8 300 16:18 15.03.2021
1442 Clouds -22 1006 77 10000 8 310 15:39 15.03.2021
1443 Clouds -22 1006 77 10000 8 310 15:20 15.03.2021
1444 Snow -21 1004 77 10000 9 290 14:41 15.03.2021
1445 Snow -21 1004 77 10000 9 290 14:20 15.03.2021
1446 Snow -21 1003 77 10000 9 290 13:45 15.03.2021
1447 Snow -21 1003 77 10000 9 290 13:24 15.03.2021
1448 Snow -20 1002 77 3700 10 290 12:46 15.03.2021
1449 Snow -20 1002 77 3700 10 290 12:18 15.03.2021
1450 Snow -19 1002 78 6000 11 290 11:46 15.03.2021
1451 Snow -19 1002 78 6000 11 290 11:27 15.03.2021
1452 Snow -19 1001 78 10000 10 290 10:45 15.03.2021
1453 Snow -19 1001 78 10000 10 290 10:45 15.03.2021
1454 Snow -19 1001 78 10000 10 290 10:26 15.03.2021
1455 Snow -19 1001 78 10000 10 290 10:26 15.03.2021
1456 Snow -18 1000 78 10000 9 290 09:48 15.03.2021
1457 Snow -18 1000 78 10000 9 290 09:30 15.03.2021
1458 Clouds -18 999 78 10000 9 290 08:47 15.03.2021
1459 Clouds -18 999 78 10000 9 290 08:27 15.03.2021
1460 Clouds -18 998 78 10000 7 290 07:43 15.03.2021
1461 Clouds -18 998 78 10000 7 290 07:24 15.03.2021
1462 Snow -18 997 85 10000 7 290 06:21 15.03.2021
1463 Snow -16 995 78 2100 11 280 03:59 15.03.2021
1464 Mist -15 994 78 2200 4 20 01:20 15.03.2021
1465 Mist -15 992 85 3300 5 280 23:45 14.03.2021
1466 Fog -15 992 85 1100 7 280 23:19 14.03.2021
1467 Fog -15 991 85 1300 9 270 22:39 14.03.2021
1468 Mist -15 991 85 1300 9 270 22:18 14.03.2021
1469 Snow -14 991 85 5000 5 290 21:41 14.03.2021
1470 Snow -14 991 85 5000 5 290 21:18 14.03.2021
1471 Snow -14 989 85 10000 9 290 20:42 14.03.2021
1472 Snow -14 989 85 10000 9 290 20:24 14.03.2021
1473 Snow -13 988 85 9000 10 300 19:42 14.03.2021
1474 Snow -13 988 85 9000 10 300 19:20 14.03.2021
1475 Snow -13 987 85 5000 11 290 18:41 14.03.2021
1476 Snow -13 987 85 5000 11 290 18:18 14.03.2021
1477 Snow -13 987 92 1700 7 300 17:39 14.03.2021
1478 Snow -13 987 92 1700 7 300 17:20 14.03.2021
1479 Snow -12 987 85 4100 5 330 16:42 14.03.2021
1480 Snow -12 987 85 4100 5 330 16:23 14.03.2021
1481 Snow -12 986 92 3400 9 300 15:52 14.03.2021
1482 Snow -12 986 92 3400 9 300 15:25 14.03.2021
1483 Snow -11 986 92 6000 9 290 14:41 14.03.2021
1484 Snow -11 986 92 6000 9 290 14:20 14.03.2021
1485 Snow -9 986 86 10000 6 320 13:48 14.03.2021
1486 Snow -9 986 86 10000 6 320 13:27 14.03.2021
1487 Snow -8 985 93 10000 5 310 12:44 14.03.2021
1488 Clouds -8 985 93 10000 5 310 12:26 14.03.2021
1489 Fog -7 985 93 450 3 360 11:42 14.03.2021
1490 Fog -7 985 93 450 3 360 11:23 14.03.2021
1491 Fog -7 985 93 300 3 340 10:38 14.03.2021
1492 Fog -7 985 93 300 3 340 10:20 14.03.2021
1493 Fog -7 984 93 500 2 350 09:59 14.03.2021
1494 Fog -7 984 93 500 2 350 09:41 14.03.2021
1495 Fog -7 984 93 500 2 350 09:20 14.03.2021
1496 Fog -7 984 100 900 2 350 08:40 14.03.2021
1497 Fog -6 984 93 10000 2 330 07:59 14.03.2021
1498 Fog -6 984 93 10000 2 330 07:33 14.03.2021
1499 Fog -6 984 93 10000 4 10 05:38 14.03.2021
1500 Fog -6 984 93 10000 4 10 05:38 14.03.2021
1501 Clouds -2 985 74 10000 2 120 01:34 14.03.2021
1502 Clouds -3 985 74 10000 2 110 00:49 14.03.2021
1503 Clouds -3 986 80 10000 6 110 00:18 14.03.2021
1504 Snow -4 987 93 10000 5 110 23:42 13.03.2021
1505 Snow -4 987 93 10000 5 110 23:19 13.03.2021
1506 Snow -4 987 93 10000 5 110 23:19 13.03.2021
1507 Snow -3 987 80 10000 7 110 22:47 13.03.2021
1508 Snow -3 987 80 10000 7 110 22:47 13.03.2021
1509 Snow -4 987 86 10000 8 110 22:23 13.03.2021
1510 Clouds -5 988 86 10000 7 120 21:36 13.03.2021
1511 Clouds -5 988 86 10000 7 120 21:18 13.03.2021
1512 Clouds -5 988 86 10000 7 120 21:18 13.03.2021
1513 Fog -5 988 86 3300 8 110 20:46 13.03.2021
1514 Fog -5 988 86 3300 8 110 20:25 13.03.2021
1515 Mist -5 989 86 2300 9 110 19:44 13.03.2021
1516 Fog -5 989 86 2300 9 110 19:24 13.03.2021
1517 Mist -5 989 93 4300 10 110 18:43 13.03.2021
1518 Mist -5 989 93 4300 10 110 18:20 13.03.2021
1519 Clear -4 990 86 10000 8 120 17:51 13.03.2021
1520 Clear -4 990 86 10000 8 120 17:32 13.03.2021
1521 Snow -4 990 86 10000 9 110 16:55 13.03.2021
1522 Snow -4 990 86 10000 9 110 16:37 13.03.2021
1523 Snow -3 990 80 8000 10 120 15:56 13.03.2021
1524 Snow -3 990 80 8000 10 120 15:21 13.03.2021
1525 Snow -2 991 80 9000 11 130 14:42 13.03.2021
1526 Snow -2 991 80 9000 11 130 14:23 13.03.2021
1527 Snow -3 991 86 10000 9 130 13:30 13.03.2021
1528 Snow -2 990 86 8000 11 120 12:54 13.03.2021
1529 Snow -2 990 86 8000 11 120 12:36 13.03.2021
1530 Snow -2 990 86 3200 12 130 11:58 13.03.2021
1531 Snow -2 990 86 3200 12 130 11:39 13.03.2021
1532 Snow -2 990 86 3200 12 130 11:20 13.03.2021
1533 Snow -2 989 86 3000 13 130 10:36 13.03.2021
1534 Snow -2 989 86 3000 13 130 10:18 13.03.2021
1535 Snow -1 989 86 2700 15 130 09:33 13.03.2021
1536 Snow -1 988 86 1800 13 140 08:54 13.03.2021
1537 Snow 0 988 86 1800 13 140 08:26 13.03.2021
1538 Snow 0 987 86 2000 13 140 07:58 13.03.2021
1539 Snow 0 987 86 2000 13 140 07:38 13.03.2021
1540 Snow 1 987 86 1600 15 120 05:30 13.03.2021
1541 Snow -1 991 93 300 16 110 02:42 13.03.2021
1542 Snow -1 995 93 650 16 110 00:36 13.03.2021
1543 Snow -1 997 93 1100 14 120 23:46 12.03.2021
1544 Snow -1 997 93 1100 14 120 23:28 12.03.2021
1545 Snow -1 999 93 1900 14 120 22:41 12.03.2021
1546 Snow -1 999 93 1900 14 120 22:20 12.03.2021
1547 Snow -1 1000 93 3400 13 120 21:38 12.03.2021
1548 Snow -1 1000 93 3400 13 120 21:38 12.03.2021
1549 Snow -1 1000 93 3400 13 120 21:20 12.03.2021
1550 Snow -1 1001 86 2300 12 120 20:54 12.03.2021
1551 Snow -1 1001 86 2300 12 120 20:31 12.03.2021
1552 Snow -2 1001 93 2000 13 120 19:48 12.03.2021
1553 Snow -2 1001 93 2000 13 120 19:30 12.03.2021
1554 Snow -2 1002 93 2400 12 130 18:54 12.03.2021
1555 Snow -2 1002 93 2400 12 130 18:32 12.03.2021
1556 Snow -2 1003 93 1400 12 130 17:46 12.03.2021
1557 Snow -2 1003 93 1400 12 130 17:27 12.03.2021
1558 Snow -2 1003 93 900 14 130 16:51 12.03.2021
1559 Snow -2 1003 93 900 14 130 16:29 12.03.2021
1560 Snow -2 1004 93 1100 12 120 15:45 12.03.2021
1561 Snow -2 1004 93 1100 12 120 15:21 12.03.2021
1562 Snow -4 1005 100 650 14 110 14:46 12.03.2021
1563 Snow -4 1005 100 650 14 110 14:19 12.03.2021
1564 Snow -5 1007 86 300 14 110 13:41 12.03.2021
1565 Snow -5 1007 86 300 14 110 13:20 12.03.2021
1566 Snow -6 1008 93 300 15 110 12:50 12.03.2021
1567 Snow -6 1008 93 300 15 110 12:30 12.03.2021
1568 Snow -6 1008 93 300 15 110 12:30 12.03.2021
1569 Snow -6 1009 93 450 13 110 11:58 12.03.2021
1570 Snow -6 1009 93 450 13 110 11:38 12.03.2021
1571 Snow -6 1009 93 450 13 110 11:18 12.03.2021
1572 Snow -7 1011 86 500 13 100 10:44 12.03.2021
1573 Snow -7 1011 86 500 13 100 10:22 12.03.2021
1574 Snow -8 1012 86 600 11 100 09:29 12.03.2021
1575 Snow -8 1013 86 800 13 110 08:57 12.03.2021
1576 Snow -8 1013 86 800 13 110 08:39 12.03.2021
1577 Snow -7 1014 93 2600 12 120 07:41 12.03.2021
1578 Snow -7 1014 93 2600 12 120 07:19 12.03.2021
1579 Snow -9 1015 79 10000 8 110 06:41 12.03.2021
1580 Snow -8 1016 73 10000 7 130 05:45 12.03.2021
1581 Clear -27 1020 69 10000 5 340 00:52 12.03.2021
1582 Fog -25 1020 77 10000 2 360 23:56 11.03.2021
1583 Fog -29 1021 76 10000 2 50 22:58 11.03.2021
1584 Fog -29 1021 76 10000 3 350 22:38 11.03.2021
1585 Fog -29 1021 76 10000 3 350 22:18 11.03.2021
1586 Fog -29 1021 76 10000 2 330 21:46 11.03.2021
1587 Fog -32 1021 75 10000 3 10 21:22 11.03.2021
1588 Clear -33 1020 75 10000 3 350 20:49 11.03.2021
1589 Clear -33 1020 75 10000 3 350 20:22 11.03.2021
1590 Clear -31 1020 76 10000 3 340 19:49 11.03.2021
1591 Clear -31 1020 76 10000 3 340 19:30 11.03.2021
1592 Clouds -33 1021 75 10000 3 350 18:52 11.03.2021
1593 Clouds -33 1021 75 10000 3 350 18:34 11.03.2021
1594 Clear -33 1021 75 10000 1 330 17:52 11.03.2021
1595 Clear -33 1021 75 10000 1 330 17:30 11.03.2021
1596 Clear -34 1021 75 10000 2 360 16:32 11.03.2021
1597 Clear -31 1021 76 10000 1 0 15:55 11.03.2021
1598 Clear -31 1021 76 10000 1 0 15:37 11.03.2021
1599 Clear -31 1021 76 10000 1 0 15:19 11.03.2021
1600 Clear -32 1021 68 10000 2.59 140 14:39 11.03.2021
1601 Clear -32 1021 68 10000 2.57 142 14:18 11.03.2021
1602 Clear -32 1021 75 10000 1 50 13:43 11.03.2021
1603 Clear -32 1021 75 10000 1 50 13:21 11.03.2021
1604 Clear -33 1021 68 10000 2 40 12:49 11.03.2021
1605 Clear -33 1021 68 10000 2 40 12:27 11.03.2021
1606 Clear -31 1020 69 10000 2 340 11:46 11.03.2021
1607 Clear -31 1020 69 10000 2 340 11:27 11.03.2021
1608 Clear -29 1020 69 10000 2 320 10:50 11.03.2021
1609 Clear -29 1020 69 10000 2 320 10:22 11.03.2021
1610 Clear -29 1020 76 10000 1 330 09:48 11.03.2021
1611 Clear -29 1020 76 10000 1 330 09:29 11.03.2021
1612 Clear -30 1020 76 10000 1 350 08:48 11.03.2021
1613 Clear -30 1020 76 10000 1 350 08:24 11.03.2021
1614 Clear -28 1020 69 10000 2 330 07:44 11.03.2021
1615 Clear -26 1020 64 10000 1.95 144 06:52 11.03.2021
1616 Clear -30 1020 69 10000 1 40 06:32 11.03.2021
1617 Clear -29 1020 69 10000 1 30 05:47 11.03.2021
1618 Clear -25 1020 64 10000 1 0 02:20 11.03.2021
1619 Clear -29 1020 57 10000 2 130 23:56 10.03.2021
1620 Clear -30 1020 57 10000 1 0 23:22 10.03.2021
1621 Clear -27 1020 63 10000 1 0 22:39 10.03.2021
1622 Clear -26 1020 58 10000 3 150 21:57 10.03.2021
1623 Clear -25 1019 58 10000 5 150 21:38 10.03.2021
1624 Clear -25 1019 58 10000 5 150 21:20 10.03.2021
1625 Clear -26 1019 58 10000 5 160 20:42 10.03.2021
1626 Clear -26 1019 58 10000 5 160 20:21 10.03.2021
1627 Clear -27 1019 58 10000 5 160 19:40 10.03.2021
1628 Clear -27 1019 58 10000 5 160 19:40 10.03.2021
1629 Clear -27 1019 58 10000 5 160 19:21 10.03.2021
1630 Clear -25 1019 58 10000 5 150 18:42 10.03.2021
1631 Clear -25 1019 58 10000 5 150 18:23 10.03.2021
1632 Clear -27 1019 63 10000 5 150 17:42 10.03.2021
1633 Clear -27 1019 63 10000 5 150 17:21 10.03.2021
1634 Clear -27 1019 63 10000 3 140 16:55 10.03.2021
1635 Clear -27 1019 63 10000 3 140 16:37 10.03.2021
1636 Clear -27 1019 63 10000 3 140 16:18 10.03.2021
1637 Clear -27 1019 58 10000 4 170 15:39 10.03.2021
1638 Clear -27 1019 58 10000 4 170 15:21 10.03.2021
1639 Clear -27 1019 58 10000 4 170 15:21 10.03.2021
1640 Clear -28 1019 63 10000 4 160 14:40 10.03.2021
1641 Clear -28 1019 63 10000 4 160 14:19 10.03.2021
1642 Clear -29 1019 69 10000 5 160 13:43 10.03.2021
1643 Clear -28 1019 69 10000 5 160 13:18 10.03.2021
1644 Clear -28 1019 69 10000 4 150 12:41 10.03.2021
1645 Clear -28 1019 69 10000 4 150 12:18 10.03.2021
1646 Clear -27 1019 69 10000 3 140 11:32 10.03.2021
1647 Clear -28 1019 69 10000 3 150 10:57 10.03.2021
1648 Clear -28 1019 69 10000 3 150 10:34 10.03.2021
1649 Clear -30 1019 69 10000 2 170 09:59 10.03.2021
1650 Clear -30 1019 69 10000 2 170 09:41 10.03.2021
1651 Clear -30 1019 69 10000 2 170 09:21 10.03.2021
1652 Clear -32 1018 68 10000 1 150 08:46 10.03.2021
1653 Clear -31 1018 68 10000 1 150 08:28 10.03.2021
1654 Clear -30 1018 69 10000 2 150 07:55 10.03.2021
1655 Clear -30 1018 69 10000 2 140 07:30 10.03.2021
1656 Clear -29 1017 57 10000 1 110 06:54 10.03.2021
1657 Clear -25 1017 53 10000 1 130 05:59 10.03.2021
1658 Clear -29 1015 69 10000 3 30 00:48 10.03.2021
1659 Clear -31 1014 69 10000 1 0 23:49 09.03.2021
1660 Clear -31 1014 69 10000 2 250 22:59 09.03.2021
1661 Clear -31 1013 69 10000 2.81 236 22:38 09.03.2021
1662 Clear -31 1013 69 10000 3.36 236 22:18 09.03.2021
1663 Clear -31 1013 76 10000 1 0 21:45 09.03.2021
1664 Clear -32 1012 75 10000 2 240 21:24 09.03.2021
1665 Clouds -32 1012 75 10000 1 230 20:58 09.03.2021
1666 Clouds -32 1012 75 10000 1 230 20:39 09.03.2021
1667 Clouds -32 1012 75 10000 1 230 20:19 09.03.2021
1668 Clouds -32 1011 68 10000 1 240 19:46 09.03.2021
1669 Clouds -32 1011 68 10000 1 240 19:25 09.03.2021
1670 Clouds -32 1010 68 10000 4.14 234 18:43 09.03.2021
1671 Clouds -31 1010 68 10000 4.08 232 18:25 09.03.2021
1672 Clouds -31 1009 69 10000 1 220 17:50 09.03.2021
1673 Clouds -31 1009 69 10000 1 220 17:28 09.03.2021
1674 Clouds -31 1008 76 10000 3.96 230 16:44 09.03.2021
1675 Clouds -31 1008 76 10000 3.62 227 16:26 09.03.2021
1676 Clouds -33 1008 75 10000 3.62 227 15:59 09.03.2021
1677 Clouds -33 1008 75 10000 3.62 227 15:30 09.03.2021
1678 Clouds -32 1007 75 10000 1 0 14:55 09.03.2021
1679 Clouds -32 1007 75 10000 1 0 14:28 09.03.2021
1680 Clouds -34 1007 68 10000 2 350 13:43 09.03.2021
1681 Clouds -32 1007 68 10000 2 350 13:22 09.03.2021
1682 Clouds -30 1006 69 10000 2 330 12:56 09.03.2021
1683 Clouds -29 1006 69 10000 2 330 12:38 09.03.2021
1684 Clouds -29 1006 63 10000 3 320 11:58 09.03.2021
1685 Clouds -29 1006 63 10000 3 320 11:39 09.03.2021
1686 Clouds -29 1006 63 10000 3 320 11:19 09.03.2021
1687 Snow -30 1005 69 10000 2 350 10:41 09.03.2021
1688 Snow -31 1005 69 10000 2 350 10:22 09.03.2021
1689 Snow -32 1004 75 9000 3 10 09:58 09.03.2021
1690 Snow -32 1004 75 9000 3 10 09:37 09.03.2021
1691 Snow -32 1004 75 9000 3 10 09:18 09.03.2021
1692 Snow -33 1003 68 9000 3 360 08:35 09.03.2021
1693 Clouds -33 1002 68 10000 3 10 07:48 09.03.2021
1694 Clouds -33 1002 68 10000 3 10 07:28 09.03.2021
1695 Clouds -30 1002 69 10000 3 350 06:59 09.03.2021
1696 Clouds -28 1001 69 10000 3 340 05:54 09.03.2021
1697 Clear -28 998 76 10000 2 340 02:27 09.03.2021
1698 Clear -28 997 76 10000 3 360 00:18 09.03.2021
1699 Clear -29 996 69 10000 2 10 23:39 08.03.2021
1700 Clear -28 996 69 10000 2 10 23:21 08.03.2021
1701 Clouds -28 995 76 10000 2 350 22:43 08.03.2021
1702 Clouds -31 995 76 10000 2 10 22:25 08.03.2021
1703 Clear -29 995 69 10000 2 350 21:50 08.03.2021
1704 Clouds -30 994 76 10000 3 340 21:30 08.03.2021
1705 Clouds -32 993 75 10000 3 360 20:45 08.03.2021
1706 Clouds -32 993 75 10000 3 360 20:24 08.03.2021
1707 Clouds -33 992 75 10000 4 20 19:54 08.03.2021
1708 Clouds -33 992 75 10000 4 20 19:28 08.03.2021
1709 Clear -30 991 83 10000 2 10 18:39 08.03.2021
1710 Clear -30 991 83 10000 2 10 18:20 08.03.2021
1711 Clear -31 991 76 10000 3 20 17:50 08.03.2021
1712 Clear -31 991 76 10000 3 20 17:25 08.03.2021
1713 Clear -28 990 76 10000 3 360 16:46 08.03.2021
1714 Clear -28 990 76 10000 3 360 16:27 08.03.2021
1715 Snow -29 990 76 10000 3 10 15:48 08.03.2021
1716 Snow -29 990 76 10000 3 10 15:25 08.03.2021
1717 Clouds -29 990 76 10000 2 20 14:43 08.03.2021
1718 Clouds -27 990 76 10000 2 20 14:20 08.03.2021
1719 Clouds -26 989 70 10000 3 340 13:37 08.03.2021
1720 Clouds -26 989 70 10000 3 340 13:18 08.03.2021
1721 Clouds -26 988 70 10000 4 350 12:42 08.03.2021
1722 Clouds -26 988 70 10000 4 350 12:22 08.03.2021
1723 Snow -25 987 70 10000 5 360 11:38 08.03.2021
1724 Snow -25 987 70 10000 5 360 11:18 08.03.2021
1725 Clear -25 987 70 10000 4 350 10:41 08.03.2021
1726 Clear -25 987 70 10000 4 350 10:19 08.03.2021
1727 Clouds -25 986 77 10000 4 350 09:41 08.03.2021
1728 Clouds -25 986 77 10000 4 350 09:22 08.03.2021
1729 Snow -24 985 77 10000 4 350 08:27 08.03.2021
1730 Snow -24 984 77 10000 5 360 07:23 08.03.2021
1731 Snow -22 983 77 10000 6 330 06:42 08.03.2021
1732 Snow -21 980 77 10000 2 290 03:38 08.03.2021
1733 Clouds -21 978 71 10000 1 110 00:44 08.03.2021
1734 Clouds -21 978 71 10000 4.63 243 23:54 07.03.2021
1735 Clouds -24 977 77 10000 2 200 23:28 07.03.2021
1736 Clouds -23 977 77 10000 3.92 239 22:59 07.03.2021
1737 Clouds -24 976 77 10000 3 240 22:41 07.03.2021
1738 Clouds -23 976 77 10000 3 240 22:20 07.03.2021
1739 Clouds -23 975 77 10000 4 220 21:42 07.03.2021
1740 Clouds -23 975 77 10000 4 220 21:24 07.03.2021
1741 Snow -20 974 84 8000 4 220 20:46 07.03.2021
1742 Snow -20 974 84 8000 4 220 20:46 07.03.2021
1743 Snow -20 974 84 8000 4 220 20:28 07.03.2021
1744 Mist -18 973 85 4100 4 230 19:56 07.03.2021
1745 Snow -18 973 85 4100 4 230 19:38 07.03.2021
1746 Snow -18 973 85 4100 4 230 19:19 07.03.2021
1747 Snow -15 974 72 1300 3 250 18:40 07.03.2021
1748 Snow -15 974 72 1300 3 250 18:19 07.03.2021
1749 Snow -8 975 93 1500 4 150 17:39 07.03.2021
1750 Snow -8 975 93 1500 4 150 17:20 07.03.2021
1751 Snow -15 977 78 2200 2 260 16:56 07.03.2021
1752 Snow -15 977 78 2200 2 260 16:37 07.03.2021
1753 Snow -17 977 78 2200 2 260 16:18 07.03.2021
1754 Snow -18 980 85 1200 3 310 15:42 07.03.2021
1755 Snow -19 980 85 1200 3 310 15:21 07.03.2021
1756 Snow -20 982 77 3800 3 310 14:30 07.03.2021
1757 Snow -23 985 77 900 6 20 13:59 07.03.2021
1758 Snow -23 985 77 900 6 20 13:39 07.03.2021
1759 Snow -23 985 77 900 6 20 13:18 07.03.2021
1760 Snow -24 988 77 1700 5 340 12:43 07.03.2021
1761 Snow -24 988 77 1700 5 340 12:24 07.03.2021
1762 Snow -25 991 77 3500 2 10 11:25 07.03.2021
1763 Snow -26 994 76 1600 1 20 10:59 07.03.2021
1764 Snow -26 994 76 1600 1 20 10:38 07.03.2021
1765 Snow -26 995 76 1900 2 330 09:59 07.03.2021
1766 Snow -26 995 76 1900 2 330 09:39 07.03.2021
1767 Snow -26 995 76 1900 2 330 09:20 07.03.2021
1768 Mist -27 996 76 2000 2 330 08:45 07.03.2021
1769 Mist -27 996 76 2000 2 330 08:22 07.03.2021
1770 Clouds -27 997 69 10000 2 360 07:23 07.03.2021
1771 Clear -29 1000 69 10000 1 0 02:40 07.03.2021
1772 Clear -31 1000 69 10000 1.7 116 00:38 07.03.2021
1773 Mist -32 999 68 5000 1.98 136 23:41 06.03.2021
1774 Mist -32 999 68 5000 2.42 143 23:22 06.03.2021
1775 Clear -32 999 75 10000 2 170 22:47 06.03.2021
1776 Clear -32 999 75 10000 2 170 22:25 06.03.2021
1777 Clear -33 998 68 10000 1 0 21:54 06.03.2021
1778 Clear -33 998 68 10000 1 0 21:21 06.03.2021
1779 Fog -32 997 75 10000 3 140 20:48 06.03.2021
1780 Fog -32 997 75 10000 3 140 20:26 06.03.2021
1781 Clear -33 997 68 10000 2 330 19:41 06.03.2021
1782 Clear -33 997 68 10000 2 330 19:19 06.03.2021
1783 Clear -33 996 75 10000 2 130 18:45 06.03.2021
1784 Clear -33 996 75 10000 2 130 18:23 06.03.2021
1785 Clear -33 996 75 10000 1 0 17:56 06.03.2021
1786 Clear -33 996 75 10000 1 0 17:37 06.03.2021
1787 Clear -32 996 75 10000 1 0 17:18 06.03.2021
1788 Clear -32 996 68 10000 1 120 16:41 06.03.2021
1789 Clear -32 996 68 10000 1 120 16:21 06.03.2021
1790 Clear -33 996 75 10000 3 20 15:47 06.03.2021
1791 Clear -33 996 75 10000 3 20 15:29 06.03.2021
1792 Clear -31 995 76 10000 3 170 14:49 06.03.2021
1793 Clear -31 995 76 10000 3 170 14:25 06.03.2021
1794 Clear -29 995 76 10000 2 60 13:39 06.03.2021
1795 Clear -29 995 76 10000 2 60 13:20 06.03.2021
1796 Clear -29 995 76 10000 1 70 12:44 06.03.2021
1797 Clear -29 994 76 10000 1 180 12:19 06.03.2021
1798 Clear -29 994 69 10000 1 0 11:54 06.03.2021
1799 Clear -28 994 69 10000 1 0 11:21 06.03.2021
1800 Clear -29 994 69 10000 1 0 10:48 06.03.2021
1801 Clear -28 994 76 10000 1 140 10:19 06.03.2021
1802 Clear -28 994 76 10000 2 70 09:46 06.03.2021
1803 Clear -28 994 76 10000 2 70 09:19 06.03.2021
1804 Clear -28 993 76 10000 1 0 08:40 06.03.2021
1805 Clear -26 993 70 10000 2.83 211 07:57 06.03.2021
1806 Clear -26 993 70 10000 2.57 209 07:24 06.03.2021
1807 Clear -25 992 70 10000 2 300 06:58 06.03.2021
1808 Clear -24 992 70 10000 4 280 05:37 06.03.2021
1809 Snow -24 990 77 5000 7 270 02:38 06.03.2021
1810 Snow -24 989 77 900 10 270 00:56 06.03.2021
1811 Snow -24 988 77 750 9 280 23:54 05.03.2021
1812 Snow -24 988 77 800 9 270 23:29 05.03.2021
1813 Snow -24 987 77 1000 9 280 22:49 05.03.2021
1814 Snow -24 987 77 800 8 270 22:25 05.03.2021
1815 Snow -24 986 77 700 8 270 21:54 05.03.2021
1816 Snow -24 986 77 600 9 270 21:36 05.03.2021
1817 Snow -24 985 84 750 9 270 20:58 05.03.2021
1818 Snow -24 985 84 750 9 270 20:40 05.03.2021
1819 Snow -24 985 84 750 9 270 20:22 05.03.2021
1820 Snow -23 984 77 750 9 260 19:43 05.03.2021
1821 Snow -23 984 77 750 9 260 19:21 05.03.2021
1822 Snow -23 984 77 1300 7 250 18:43 05.03.2021
1823 Snow -23 984 77 1300 7 250 18:25 05.03.2021
1824 Snow -23 983 77 2100 5 240 17:39 05.03.2021
1825 Snow -23 983 77 2100 5 240 17:20 05.03.2021
1826 Snow -24 983 77 8000 3 230 16:41 05.03.2021
1827 Snow -24 983 77 8000 3 230 16:22 05.03.2021
1828 Snow -24 981 84 8000 1 0 15:53 05.03.2021
1829 Snow -23 981 84 8000 1 0 15:26 05.03.2021
1830 Mist -23 981 77 3600 1 270 14:39 05.03.2021
1831 Snow -23 981 77 3600 1 270 14:19 05.03.2021
1832 Snow -23 980 77 10000 1 0 13:42 05.03.2021
1833 Snow -23 980 77 10000 1 0 13:20 05.03.2021
1834 Snow -23 979 77 4000 2 20 12:40 05.03.2021
1835 Snow -23 978 77 9000 4 10 11:39 05.03.2021
1836 Snow -23 978 77 9000 4 10 11:19 05.03.2021
1837 Snow -23 978 77 6000 4 10 10:43 05.03.2021
1838 Mist -22 977 71 3800 5 360 10:24 05.03.2021
1839 Snow -22 977 77 4600 5 340 09:53 05.03.2021
1840 Mist -22 977 77 4300 4 340 09:29 05.03.2021
1841 Snow -22 976 77 2700 4 10 08:57 05.03.2021
1842 Snow -22 976 77 6000 2 340 08:38 05.03.2021
1843 Snow -22 976 77 6000 2 340 08:20 05.03.2021
1844 Snow -21 974 77 3700 7 300 07:30 05.03.2021
1845 Mist -20 973 77 3400 7 300 06:34 05.03.2021
1846 Mist -19 972 78 3000 5 310 05:39 05.03.2021
1847 Snow -17 969 78 10000 3 180 00:59 05.03.2021
1848 Snow -17 969 78 10000 3 180 23:53 04.03.2021
1849 Snow -17 968 78 10000 1 200 23:24 04.03.2021
1850 Snow -17 968 85 8000 2 220 22:29 04.03.2021
1851 Snow -17 967 85 8000 2 200 21:53 04.03.2021
1852 Snow -17 967 85 10000 2 210 21:31 04.03.2021
1853 Snow -17 966 85 6000 2 230 20:57 04.03.2021
1854 Mist -16 966 78 5000 3 240 20:38 04.03.2021
1855 Snow -16 966 78 5000 3 240 20:18 04.03.2021
1856 Snow -16 966 85 3100 4 230 19:43 04.03.2021
1857 Snow -15 965 85 4000 4 250 19:23 04.03.2021
1858 Snow -15 964 85 4000 6 290 18:47 04.03.2021
1859 Snow -15 964 85 2100 8 290 18:26 04.03.2021
1860 Snow -15 963 85 1700 8 290 17:47 04.03.2021
1861 Snow -14 963 85 1300 9 290 17:29 04.03.2021
1862 Snow -12 961 85 200 8 240 16:48 04.03.2021
1863 Snow -12 961 85 200 8 240 16:29 04.03.2021
1864 Snow -8 960 93 100 15 100 15:52 04.03.2021
1865 Snow -8 960 93 100 15 100 15:33 04.03.2021
1866 Snow -8 961 93 50 17 100 14:53 04.03.2021
1867 Snow -8 961 93 50 17 100 14:31 04.03.2021
1868 Snow -8 962 86 50 18 100 13:50 04.03.2021
1869 Snow -8 962 86 50 18 100 13:32 04.03.2021
1870 Snow -9 964 92 50 19 100 12:58 04.03.2021
1871 Snow -9 964 92 50 19 100 12:39 04.03.2021
1872 Snow -10 966 92 242 21 100 11:48 04.03.2021
1873 Snow -10 966 92 211 21 100 11:27 04.03.2021
1874 Snow -11 968 85 211 21 100 10:55 04.03.2021
1875 Snow -11 968 85 211 21 100 10:31 04.03.2021
1876 Snow -12 970 85 219 27 90 09:47 04.03.2021
1877 Snow -12 970 85 229 27 90 09:25 04.03.2021
1878 Snow -13 973 85 229 30 90 08:37 04.03.2021
1879 Snow -13 976 85 50 29 90 07:54 04.03.2021
1880 Snow -13 976 85 50 29 90 07:33 04.03.2021
1881 Snow -14 979 85 218 29 90 06:25 04.03.2021
1882 Snow -14 981 85 218 26 100 05:40 04.03.2021
1883 Snow -17 992 85 158 32 90 01:44 04.03.2021
1884 Snow -18 1003 85 189 21 100 23:19 03.03.2021
1885 Snow -18 1006 78 754 20 100 22:29 03.03.2021
1886 Snow -18 1008 78 50 18 100 21:55 03.03.2021
1887 Snow -18 1009 78 100 18 100 21:37 03.03.2021
1888 Snow -18 1009 78 100 18 100 21:18 03.03.2021
1889 Snow -20 1013 89 3007 13.89 112 20:42 03.03.2021
1890 Snow -19 1014 84 150 15 110 20:23 03.03.2021
1891 Snow -19 1014 84 150 15 110 19:45 03.03.2021
1892 Snow -19 1014 84 150 15 110 19:26 03.03.2021
1893 Snow -19 1018 78 1700 6 100 18:48 03.03.2021
1894 Snow -19 1018 78 1700 6 100 18:29 03.03.2021
1895 Snow -19 1020 65 10000 5 80 17:54 03.03.2021
1896 Snow -19 1020 65 10000 5 80 17:20 03.03.2021
1897 Clear -19 1021 60 10000 7 100 16:50 03.03.2021
1898 Clear -19 1021 60 10000 7 100 16:27 03.03.2021
1899 Snow -19 1022 55 10000 8 80 15:49 03.03.2021
1900 Snow -19 1022 55 10000 8 80 15:28 03.03.2021
1901 Clear -20 1024 54 10000 6 100 14:35 03.03.2021
1902 Clear -27 1025 63 10000 1 0 13:59 03.03.2021
1903 Clear -27 1025 63 10000 1 0 13:38 03.03.2021
1904 Clear -27 1025 63 10000 1 0 13:18 03.03.2021
1905 Clear -30 1025 76 10000 2 20 12:41 03.03.2021
1906 Clear -30 1025 76 10000 2 20 12:22 03.03.2021
1907 Clear -30 1026 76 10000 1 300 11:44 03.03.2021
1908 Clear -30 1026 76 10000 1 300 11:22 03.03.2021
1909 Clear -30 1027 69 10000 2 30 10:44 03.03.2021
1910 Clear -30 1027 69 10000 2 30 10:21 03.03.2021
1911 Clear -30 1027 69 10000 4 10 09:41 03.03.2021
1912 Clear -31 1027 69 10000 3 10 08:51 03.03.2021
1913 Clear -30 1027 69 10000 3 10 08:23 03.03.2021
1914 Clear -29 1028 69 10000 2 20 07:53 03.03.2021
1915 Clear -29 1027 69 10000 3 340 07:20 03.03.2021
1916 Clear -28 1027 69 10000 1 0 06:19 03.03.2021
1917 Clear -28 1027 69 10000 3 310 05:31 03.03.2021
1918 Clear -26 1026 64 10000 3 330 04:36 03.03.2021
1919 Clear -27 1026 69 10000 4 40 03:52 03.03.2021
1920 Clear -28 1027 69 10000 5 20 00:18 03.03.2021
1921 Clear -28 1026 63 10000 5 20 23:32 02.03.2021
1922 Clear -28 1026 63 10000 5 350 22:48 02.03.2021
1923 Clear -28 1025 63 10000 5 10 22:21 02.03.2021
1924 Clear -28 1025 63 10000 3 20 21:46 02.03.2021
1925 Clear -28 1024 63 10000 5 60 21:28 02.03.2021
1926 Clear -29 1023 69 10000 10 360 20:55 02.03.2021
1927 Clear -29 1023 69 10000 10 360 20:36 02.03.2021
1928 Clear -29 1023 69 10000 10 360 20:18 02.03.2021
1929 Clear -29 1023 76 10000 9 360 19:43 02.03.2021
1930 Clear -29 1023 76 10000 9 360 19:24 02.03.2021
1931 Clear -30 1022 76 10000 3 20 18:41 02.03.2021
1932 Clear -30 1022 76 10000 3 20 18:21 02.03.2021
1933 Clear -30 1020 76 10000 6 350 17:54 02.03.2021
1934 Clear -30 1020 76 10000 6 350 17:36 02.03.2021
1935 Clear -30 1020 76 10000 6 350 17:36 02.03.2021
1936 Clear -30 1020 76 10000 6 350 17:18 02.03.2021
1937 Clear -30 1019 76 10000 5 330 16:38 02.03.2021
1938 Clear -30 1019 76 10000 6 340 15:52 02.03.2021
1939 Clear -29 1019 76 10000 6 340 15:25 02.03.2021
1940 Clear -29 1018 76 10000 5 340 14:29 02.03.2021
1941 Clear -29 1017 76 10000 4 20 13:59 02.03.2021
1942 Clear -29 1017 76 10000 4 20 13:39 02.03.2021
1943 Clear -29 1017 76 10000 4 20 13:21 02.03.2021
1944 Clear -29 1017 76 10000 6 10 12:43 02.03.2021
1945 Clear -28 1017 76 10000 6 10 12:24 02.03.2021
1946 Clear -28 1016 76 10000 4 10 11:41 02.03.2021
1947 Clear -27 1016 76 10000 4 10 11:20 02.03.2021
1948 Clear -27 1015 69 10000 6 360 10:42 02.03.2021
1949 Clear -26 1015 69 10000 6 360 10:23 02.03.2021
1950 Clear -26 1014 70 10000 5 350 09:40 02.03.2021
1951 Clear -26 1014 70 10000 5 350 09:20 02.03.2021
1952 Clear -25 1013 70 10000 6 10 08:38 02.03.2021
1953 Clear -25 1013 70 10000 5 360 07:59 02.03.2021
1954 Clear -25 1013 70 10000 3 350 07:38 02.03.2021
1955 Clear -25 1013 70 10000 3 350 07:38 02.03.2021
1956 Clear -24 1012 77 10000 4 330 06:36 02.03.2021
1957 Snow -22 1011 70 10000 5 360 05:46 02.03.2021
1958 Snow -22 1011 70 10000 5 360 05:46 02.03.2021
1959 Snow -22 1011 71 10000 9 360 05:28 02.03.2021
1960 Snow -22 1009 71 10000 5 330 01:46 02.03.2021
1961 Snow -22 1008 71 10000 8 340 01:28 02.03.2021
1962 Snow -23 1008 77 10000 8 330 00:51 02.03.2021
1963 Clear -23 1006 64 10000 4 320 23:28 01.03.2021
1964 Snow -21 1005 65 10000 8 10 22:42 01.03.2021
1965 Snow -21 1005 65 10000 8 10 22:22 01.03.2021
1966 Snow -25 1005 70 10000 6 20 21:46 01.03.2021
1967 Snow -22 1005 64 10000 9 360 21:24 01.03.2021
1968 Snow -24 1005 77 10000 6 40 20:48 01.03.2021
1969 Snow -24 1005 77 10000 6 40 20:27 01.03.2021
1970 Snow -24 1005 77 9000 5 340 19:54 01.03.2021
1971 Snow -24 1005 77 9000 5 340 19:33 01.03.2021
1972 Snow -21 1003 77 1900 12 20 18:46 01.03.2021
1973 Snow -21 1003 77 1900 12 20 18:25 01.03.2021
1974 Snow -20 1001 77 300 18 40 17:58 01.03.2021
1975 Snow -20 1001 77 300 18 40 17:39 01.03.2021
1976 Snow -20 1001 77 300 18 40 17:19 01.03.2021
1977 Snow -20 1001 77 300 18 40 17:19 01.03.2021
1978 Snow -20 1001 77 300 19 20 16:43 01.03.2021
1979 Snow -20 1001 77 300 19 20 16:24 01.03.2021
1980 Snow -20 1001 77 100 19 20 15:41 01.03.2021
1981 Snow -20 1001 77 100 19 20 15:20 01.03.2021
1982 Snow -20 1002 84 200 11 360 14:44 01.03.2021
1983 Snow -20 1002 84 200 11 360 14:26 01.03.2021
1984 Snow -20 1002 77 500 9 360 13:40 01.03.2021
1985 Snow -20 1002 77 500 9 360 13:21 01.03.2021
1986 Snow -20 1002 77 500 9 360 13:21 01.03.2021
1987 Snow -18 1001 78 2000 10 70 12:51 01.03.2021
1988 Snow -18 1001 78 2000 10 70 12:30 01.03.2021
1989 Snow -16 1001 72 400 8 20 11:58 01.03.2021
1990 Snow -16 1001 72 400 8 20 11:34 01.03.2021
1991 Snow -17 1002 66 8000 11 50 10:44 01.03.2021
1992 Snow -17 1002 66 8000 11 50 10:23 01.03.2021
1993 Snow -18 1003 71 7000 7 10 09:56 01.03.2021
1994 Snow -18 1003 71 7000 7 10 09:56 01.03.2021
1995 Snow -18 1003 71 7000 7 10 09:38 01.03.2021
1996 Snow -18 1003 71 7000 7 10 09:20 01.03.2021
1997 Snow -18 1004 65 6000 5 30 08:44 01.03.2021
1998 Snow -19 1005 78 6000 6 30 07:44 01.03.2021
1999 Snow -20 1005 71 4500 5 30 06:51 01.03.2021
2000 Snow -20 1012 65 10000 5 50 02:49 01.03.2021
2001 Snow -19 1016 65 10000 7 60 00:37 01.03.2021
2002 Clouds -20 1018 65 10000 4 50 23:26 28.02.2021
2003 Fog -21 1018 65 10000 5 40 22:45 28.02.2021
2004 Fog -21 1019 65 10000 6 50 22:21 28.02.2021
2005 Fog -21 1019 65 10000 6 50 22:21 28.02.2021
2006 Fog -20 1020 59 10000 5 70 21:48 28.02.2021
2007 Fog -21 1021 65 10000 5 40 21:25 28.02.2021
2008 Clouds -22 1022 64 10000 5 70 20:55 28.02.2021
2009 Clouds -22 1022 64 10000 5 70 20:35 28.02.2021
2010 Clear -21 1023 65 10000 3 70 19:47 28.02.2021
2011 Clear -21 1023 65 10000 3 70 19:28 28.02.2021
2012 Clear -23 1024 64 10000 5 80 18:49 28.02.2021
2013 Clear -23 1024 64 10000 5 80 18:28 28.02.2021
2014 Clear -22 1026 64 10000 5 80 17:59 28.02.2021
2015 Clear -22 1026 64 10000 5 80 17:40 28.02.2021
2016 Clear -22 1026 64 10000 5 80 17:21 28.02.2021
2017 Clear -25 1026 70 10000 3 20 16:48 28.02.2021
2018 Clear -25 1026 70 10000 3 20 16:30 28.02.2021
2019 Clear -23 1027 64 10000 5 70 15:52 28.02.2021
2020 Clear -23 1027 64 10000 5 70 15:28 28.02.2021
2021 Clear -31 1029 62 10000 3 350 14:58 28.02.2021
2022 Clear -31 1029 62 10000 3 350 14:39 28.02.2021
2023 Clear -32 1029 62 10000 3 350 14:19 28.02.2021
2024 Clear -33 1029 68 10000 6 350 13:39 28.02.2021
2025 Clear -33 1029 68 10000 6 350 13:19 28.02.2021
2026 Clear -34 1030 68 10000 3 340 12:54 28.02.2021
2027 Clear -33 1030 68 10000 3 340 12:35 28.02.2021
2028 Clear -33 1030 68 10000 4 360 11:59 28.02.2021
2029 Clear -33 1030 68 10000 4 360 11:41 28.02.2021
2030 Clear -33 1030 68 10000 4 360 11:22 28.02.2021
2031 Clear -34 1030 68 10000 5 360 10:43 28.02.2021
2032 Clear -34 1030 68 10000 5 360 10:25 28.02.2021
2033 Clear -34 1030 75 10000 4 360 09:40 28.02.2021
2034 Clear -34 1030 75 10000 4 360 09:21 28.02.2021
2035 Clear -34 1030 75 10000 7 350 08:45 28.02.2021
2036 Clear -34 1030 75 10000 7 350 08:26 28.02.2021
2037 Snow -34 1030 68 10000 7 350 07:46 28.02.2021
2038 Snow -34 1030 68 10000 7 350 07:28 28.02.2021
2039 Clear -33 1029 68 10000 5 350 06:24 28.02.2021
2040 Clear -32 1029 68 10000 6 360 05:23 28.02.2021
2041 Clear -31 1030 69 10000 5 30 02:40 28.02.2021
2042 Clear -31 1030 62 10000 5 20 01:36 28.02.2021
2043 Clear -32 1030 68 10000 4 360 00:43 28.02.2021
2044 Clear -33 1030 68 10000 5 360 00:21 28.02.2021
2045 Clear -33 1029 68 10000 5 360 23:44 27.02.2021
2046 Clear -33 1029 68 10000 5 360 23:18 27.02.2021
2047 Clear -35 1029 75 10000 5 10 22:42 27.02.2021
2048 Clear -35 1029 75 10000 5 10 22:18 27.02.2021
2049 Clear -35 1028 75 10000 5 360 21:38 27.02.2021
2050 Clear -35 1028 75 10000 5 360 21:38 27.02.2021
2051 Clear -35 1028 75 10000 5 360 21:20 27.02.2021
2052 Clear -34 1028 68 10000 6 360 20:46 27.02.2021
2053 Clear -35 1028 68 10000 6 360 20:26 27.02.2021
2054 Clear -35 1028 68 10000 6 10 19:45 27.02.2021
2055 Clear -35 1028 68 10000 6 10 19:25 27.02.2021
2056 Clear -35 1028 68 10000 3 350 18:43 27.02.2021
2057 Clear -35 1028 68 10000 3 350 18:21 27.02.2021
2058 Clear -35 1027 75 10000 3 360 17:54 27.02.2021
2059 Clear -35 1027 75 10000 3 360 17:36 27.02.2021
2060 Clear -35 1027 75 10000 3 360 17:18 27.02.2021
2061 Clear -35 1027 75 10000 4 340 16:44 27.02.2021
2062 Clear -35 1027 75 10000 4 340 16:25 27.02.2021
2063 Clear -34 1027 68 10000 6 350 15:41 27.02.2021
2064 Clear -34 1027 68 10000 4 360 14:57 27.02.2021
2065 Clear -34 1027 68 10000 4 360 14:39 27.02.2021
2066 Clear -34 1027 68 10000 4 360 14:19 27.02.2021
2067 Clear -33 1027 68 10000 5 340 13:37 27.02.2021
2068 Clear -33 1027 68 10000 5 340 13:18 27.02.2021
2069 Clear -32 1026 68 10000 4 340 12:40 27.02.2021
2070 Clear -32 1026 68 10000 4 340 12:22 27.02.2021
2071 Clear -33 1026 75 10000 3 360 11:43 27.02.2021
2072 Clear -33 1026 75 10000 3 360 11:24 27.02.2021
2073 Clear -32 1026 68 10000 2 350 10:47 27.02.2021
2074 Clear -32 1026 68 10000 2 350 10:28 27.02.2021
2075 Clear -31 1026 69 10000 1 340 09:52 27.02.2021
2076 Clear -31 1026 69 10000 1 340 09:31 27.02.2021
2077 Clear -31 1026 69 10000 4 350 08:43 27.02.2021
2078 Clear -30 1026 69 10000 4 350 08:22 27.02.2021
2079 Clear -30 1026 69 10000 5 340 07:42 27.02.2021
2080 Clear -29 1026 63 10000 5 360 06:21 27.02.2021
2081 Clear -25 1026 58 10000 5 20 01:18 27.02.2021
2082 Clear -27 1026 58 10000 7 20 23:58 26.02.2021
2083 Clear -26 1026 58 10000 4 10 23:40 26.02.2021
2084 Clear -28 1026 58 10000 4 10 23:18 26.02.2021
2085 Clear -30 1026 63 10000 5 10 22:30 26.02.2021
2086 Clear -31 1026 57 10000 4 20 21:49 26.02.2021
2087 Clear -31 1026 57 10000 4 20 21:30 26.02.2021
2088 Clear -29 1026 63 10000 7 360 20:45 26.02.2021
2089 Clear -29 1026 63 10000 7 360 20:24 26.02.2021
2090 Clear -28 1026 63 10000 6 360 19:52 26.02.2021
2091 Clear -28 1026 63 10000 6 360 19:25 26.02.2021
2092 Clear -30 1026 69 10000 6 350 18:48 26.02.2021
2093 Clear -30 1026 69 10000 6 350 18:24 26.02.2021
2094 Clear -30 1026 63 10000 7 360 17:48 26.02.2021
2095 Clear -30 1026 63 10000 7 360 17:30 26.02.2021
2096 Clear -31 1027 69 10000 4 10 16:57 26.02.2021
2097 Clear -31 1027 69 10000 4 10 16:38 26.02.2021
2098 Clear -31 1027 69 10000 4 10 16:20 26.02.2021
2099 Clear -32 1027 68 10000 5 350 15:43 26.02.2021
2100 Clear -32 1027 68 10000 5 350 15:23 26.02.2021
2101 Clear -27 1027 63 10000 6 360 14:51 26.02.2021
2102 Clear -27 1027 63 10000 6 360 14:32 26.02.2021
2103 Clear -27 1027 63 10000 8 20 13:47 26.02.2021
2104 Clear -27 1027 63 10000 8 20 13:28 26.02.2021
2105 Clear -28 1027 63 10000 6 20 12:48 26.02.2021
2106 Clear -29 1027 63 10000 6 20 12:26 26.02.2021
2107 Clear -29 1027 69 10000 6 350 11:39 26.02.2021
2108 Clear -29 1027 69 10000 5 20 10:54 26.02.2021
2109 Clear -29 1027 69 10000 5 20 10:24 26.02.2021
2110 Clear -26 1027 70 10000 4 40 09:47 26.02.2021
2111 Clear -28 1027 70 10000 4 40 09:27 26.02.2021
2112 Clear -30 1026 69 10000 4 360 08:33 26.02.2021
2113 Clear -27 1026 76 10000 5 360 07:55 26.02.2021
2114 Clear -28 1026 76 10000 5 360 07:20 26.02.2021
2115 Clear -27 1026 69 10000 4 360 06:28 26.02.2021
2116 Clear -27 1025 76 10000 6 360 04:52 26.02.2021
2117 Clouds -30 1025 76 10000 3 340 02:36 26.02.2021
2118 Clouds -30 1025 76 9000 4 350 00:24 26.02.2021
2119 Clouds -32 1024 68 10000 4 340 23:31 25.02.2021
2120 Clouds -32 1024 75 10000 5 340 22:51 25.02.2021
2121 Fog -31 1024 69 10000 3 10 22:33 25.02.2021
2122 Clear -30 1023 69 10000 3 340 21:50 25.02.2021
2123 Clear -31 1023 76 10000 4 350 21:31 25.02.2021
2124 Clear -32 1022 75 10000 5 360 20:44 25.02.2021
2125 Clear -32 1022 75 10000 5 360 20:25 25.02.2021
2126 Clear -32 1022 75 10000 4 350 19:58 25.02.2021
2127 Clear -32 1022 75 10000 4 350 19:39 25.02.2021
2128 Clear -32 1022 75 10000 4 350 19:19 25.02.2021
2129 Clear -33 1022 75 10000 4 350 18:39 25.02.2021
2130 Clear -33 1021 75 10000 5 340 17:57 25.02.2021
2131 Clear -33 1021 75 10000 5 340 17:30 25.02.2021
2132 Clear -32 1021 75 10000 3 40 16:54 25.02.2021
2133 Clear -32 1021 75 10000 3 40 16:31 25.02.2021
2134 Clear -33 1021 75 10000 5 10 15:39 25.02.2021
2135 Clear -33 1021 75 10000 5 10 15:19 25.02.2021
2136 Clear -30 1020 76 10000 3 350 14:32 25.02.2021
2137 Clear -30 1020 69 10000 3 10 13:57 25.02.2021
2138 Clear -30 1020 69 10000 3 10 13:39 25.02.2021
2139 Clear -30 1020 69 10000 3 10 13:18 25.02.2021
2140 Clear -31 1019 69 10000 1 0 12:23 25.02.2021
2141 Clear -28 1019 76 10000 1 320 11:51 25.02.2021
2142 Clear -28 1019 76 10000 1 320 11:31 25.02.2021
2143 Clear -29 1018 76 10000 3 10 10:47 25.02.2021
2144 Clear -29 1018 76 10000 3 10 10:29 25.02.2021
2145 Clear -29 1017 76 10000 2 330 09:45 25.02.2021
2146 Clear -28 1017 76 10000 2 330 09:22 25.02.2021
2147 Clear -27 1017 76 10000 1 310 08:30 25.02.2021
2148 Clear -27 1016 69 10000 3 360 07:58 25.02.2021
2149 Clear -27 1016 69 10000 3 360 07:38 25.02.2021
2150 Clear -28 1016 76 10000 3 340 06:57 25.02.2021
2151 Clear -28 1016 76 10000 3 340 06:57 25.02.2021
2152 Clear -25 1015 77 10000 2 330 04:22 25.02.2021
2153 Clear -24 1014 70 10000 4 320 01:42 25.02.2021
2154 Clear -24 1014 77 10000 4 340 00:46 25.02.2021
2155 Snow -26 1013 76 10000 6 350 23:56 24.02.2021
2156 Snow -25 1013 77 10000 6 360 23:32 24.02.2021
2157 Clear -25 1013 77 10000 4 360 22:47 24.02.2021
2158 Clear -25 1013 77 10000 4 360 22:29 24.02.2021
2159 Clear -25 1013 77 10000 6 360 21:48 24.02.2021
2160 Clear -25 1012 77 10000 4 20 21:24 24.02.2021
2161 Clear -25 1012 70 10000 5 20 20:48 24.02.2021
2162 Clear -23 1012 70 10000 5 20 20:25 24.02.2021
2163 Clear -22 1011 71 10000 5 10 19:40 24.02.2021
2164 Clear -22 1011 71 10000 5 10 19:20 24.02.2021
2165 Clear -21 1011 77 10000 7 20 18:50 24.02.2021
2166 Clear -21 1011 77 10000 7 20 18:50 24.02.2021
2167 Clear -21 1011 77 10000 7 20 18:29 24.02.2021
2168 Clear -23 1011 77 10000 7 10 17:39 24.02.2021
2169 Clouds -24 1010 77 9000 9 350 17:21 24.02.2021
2170 Clouds -24 1010 77 9000 9 350 16:46 24.02.2021
2171 Clouds -24 1010 77 9000 9 350 16:21 24.02.2021
2172 Mist -27 1010 76 2400 9 350 15:50 24.02.2021
2173 Mist -27 1010 76 2400 9 350 15:28 24.02.2021
2174 Mist -30 1010 69 1600 8 340 14:44 24.02.2021
2175 Mist -30 1010 69 1600 8 340 14:26 24.02.2021
2176 Mist -29 1010 76 1800 9 350 13:41 24.02.2021
2177 Mist -29 1010 76 1800 9 350 13:23 24.02.2021
2178 Mist -29 1010 69 1400 8 360 12:53 24.02.2021
2179 Mist -29 1010 69 1400 8 360 12:33 24.02.2021
2180 Mist -30 1011 76 4100 9 350 11:52 24.02.2021
2181 Mist -30 1011 76 4100 9 350 11:29 24.02.2021
2182 Mist -30 1011 69 4300 7 350 10:38 24.02.2021
2183 Mist -30 1011 69 4300 7 350 10:20 24.02.2021
2184 Clouds -31 1011 76 6000 5 320 09:24 24.02.2021
2185 Mist -31 1011 76 3700 8 340 08:45 24.02.2021
2186 Mist -31 1011 76 3700 8 340 08:24 24.02.2021
2187 Mist -31 1011 76 3100 2 240 07:21 24.02.2021
2188 Mist -30 1011 76 2800 5 350 06:56 24.02.2021
2189 Mist -30 1011 69 2100 10 340 04:40 24.02.2021
2190 Fog -31 1013 69 900 7 350 00:47 24.02.2021
2191 Mist -33 1013 75 2000 3 340 23:38 23.02.2021
2192 Mist -34 1014 75 2000 5 340 22:43 23.02.2021
2193 Mist -33 1014 75 1300 6 340 22:21 23.02.2021
2194 Mist -33 1013 75 1900 7 340 21:47 23.02.2021
2195 Mist -33 1013 68 6000 6 350 21:24 23.02.2021
2196 Clouds -33 1014 75 9000 6 350 20:50 23.02.2021
2197 Clouds -33 1014 75 9000 6 350 20:30 23.02.2021
2198 Clouds -33 1014 75 9000 6 340 19:57 23.02.2021
2199 Clouds -33 1014 75 9000 6 340 19:38 23.02.2021
2200 Clouds -33 1014 75 9000 6 340 19:19 23.02.2021
2201 Clear -33 1014 75 10000 7 340 18:43 23.02.2021
2202 Clear -33 1014 75 10000 7 340 18:21 23.02.2021
2203 Clear -30 1015 76 10000 6 350 17:48 23.02.2021
2204 Clear -30 1015 76 10000 6 350 17:26 23.02.2021
2205 Clear -30 1015 76 10000 5 360 16:44 23.02.2021
2206 Clear -30 1015 76 10000 5 360 16:21 23.02.2021
2207 Clear -29 1015 69 10000 4 10 15:45 23.02.2021
2208 Clear -29 1015 69 10000 4 10 15:27 23.02.2021
2209 Clear -29 1016 76 10000 5 340 14:46 23.02.2021
2210 Clear -29 1016 76 10000 5 340 14:28 23.02.2021
2211 Clear -28 1016 76 10000 5 330 13:59 23.02.2021
2212 Clear -28 1016 76 10000 5 330 13:34 23.02.2021
2213 Clouds -28 1016 76 10000 6 330 12:57 23.02.2021
2214 Clouds -28 1016 76 10000 6 330 12:23 23.02.2021
2215 Snow -24 1016 70 10000 7 360 11:52 23.02.2021
2216 Snow -24 1016 70 10000 7 360 11:26 23.02.2021
2217 Clouds -25 1016 77 10000 7 360 10:54 23.02.2021
2218 Clouds -25 1016 77 10000 7 360 10:36 23.02.2021
2219 Snow -24 1017 77 10000 6 360 09:55 23.02.2021
2220 Snow -24 1017 77 10000 6 360 09:36 23.02.2021
2221 Snow -24 1017 77 10000 6 360 09:18 23.02.2021
2222 Snow -24 1017 77 10000 6 360 08:40 23.02.2021
2223 Snow -24 1017 77 10000 6 360 08:20 23.02.2021
2224 Snow -23 1016 77 10000 6 350 06:50 23.02.2021
2225 Snow -23 1017 77 10000 6 360 05:22 23.02.2021
2226 Snow -22 1017 77 10000 2 20 02:36 23.02.2021
2227 Snow -22 1018 77 10000 3 350 01:42 23.02.2021
2228 Snow -22 1018 77 10000 3 360 00:18 23.02.2021
2229 Snow -22 1018 77 10000 3 360 23:24 22.02.2021
2230 Snow -22 1017 77 10000 2 20 22:41 22.02.2021
2231 Snow -22 1017 77 10000 2 20 22:21 22.02.2021
2232 Snow -22 1017 77 10000 2 30 21:46 22.02.2021
2233 Snow -22 1017 77 10000 2 30 21:24 22.02.2021
2234 Clouds -22 1017 77 10000 3 20 20:55 22.02.2021
2235 Clouds -22 1017 77 10000 3 20 20:31 22.02.2021
2236 Clouds -22 1017 77 10000 3 350 19:58 22.02.2021
2237 Clouds -22 1017 77 10000 3 350 19:38 22.02.2021
2238 Clouds -22 1017 77 10000 3 350 19:18 22.02.2021
2239 Clouds -22 1016 77 10000 2 310 18:44 22.02.2021
2240 Clouds -22 1016 77 10000 2 310 18:21 22.02.2021
2241 Snow -22 1016 77 10000 1 230 17:36 22.02.2021
2242 Snow -22 1016 77 10000 1 230 17:18 22.02.2021
2243 Snow -21 1016 77 10000 3 40 16:42 22.02.2021
2244 Snow -21 1016 77 10000 1 50 15:56 22.02.2021
2245 Snow -21 1016 77 10000 1 50 15:29 22.02.2021
2246 Snow -22 1016 77 10000 3 350 14:48 22.02.2021
2247 Snow -22 1016 77 10000 3 350 14:30 22.02.2021
2248 Clouds -22 1016 77 10000 4 340 13:48 22.02.2021
2249 Clouds -22 1016 77 10000 4 340 13:23 22.02.2021
2250 Clouds -21 1015 71 10000 5 10 12:42 22.02.2021
2251 Clouds -21 1015 71 10000 5 10 12:20 22.02.2021
2252 Clouds -25 1015 77 10000 5 30 11:45 22.02.2021
2253 Clouds -25 1015 77 10000 5 30 11:25 22.02.2021
2254 Clear -25 1015 70 10000 5 10 10:50 22.02.2021
2255 Clear -25 1015 70 10000 5 10 10:28 22.02.2021
2256 Clear -24 1014 77 10000 6 10 09:49 22.02.2021
2257 Clear -24 1014 77 10000 6 10 09:30 22.02.2021
2258 Clear -25 1014 77 10000 5 360 08:57 22.02.2021
2259 Clear -25 1014 77 10000 5 360 08:38 22.02.2021
2260 Clear -23 1014 77 10000 5 360 07:58 22.02.2021
2261 Clear -23 1014 77 10000 5 360 07:27 22.02.2021
2262 Clear -24 1013 77 10000 5 10 06:46 22.02.2021
2263 Clear -23 1013 77 10000 5 10 05:46 22.02.2021
2264 Clear -24 1013 77 10000 4 30 03:44 22.02.2021
2265 Clear -23 1012 84 10000 4 20 02:51 22.02.2021
2266 Clear -25 1012 77 10000 3 30 00:46 22.02.2021
2267 Clear -25 1012 77 10000 3 30 00:23 22.02.2021
2268 Clear -26 1012 76 10000 3 40 23:33 21.02.2021
2269 Clear -28 1012 69 10000 3 30 22:54 21.02.2021
2270 Clear -28 1012 69 10000 3 30 22:24 21.02.2021
2271 Clear -30 1012 76 10000 3 30 21:48 21.02.2021
2272 Clear -30 1012 76 10000 3 30 21:30 21.02.2021
2273 Clouds -30 1011 76 10000 3 20 20:47 21.02.2021
2274 Clouds -30 1011 76 10000 3 20 20:20 21.02.2021
2275 Clouds -30 1011 76 10000 3 20 19:54 21.02.2021
2276 Clouds -30 1011 76 10000 3 20 19:34 21.02.2021
2277 Snow -29 1011 76 10000 3 30 18:59 21.02.2021
2278 Snow -29 1011 76 10000 3 30 18:26 21.02.2021
2279 Snow -26 1011 76 10000 3 30 17:39 21.02.2021
2280 Snow -26 1011 76 10000 3 30 17:18 21.02.2021
2281 Snow -25 1011 77 10000 2 20 16:43 21.02.2021
2282 Snow -25 1011 77 10000 2 20 16:24 21.02.2021
2283 Snow -26 1011 76 10000 2 20 15:25 21.02.2021
2284 Snow -26 1011 76 10000 2 10 14:56 21.02.2021
2285 Snow -26 1011 76 10000 2 10 14:37 21.02.2021
2286 Snow -26 1011 76 10000 3 360 13:54 21.02.2021
2287 Snow -26 1011 76 10000 3 360 13:29 21.02.2021
2288 Snow -27 1011 76 10000 2 350 12:33 21.02.2021
2289 Snow -27 1011 76 10000 2 10 11:59 21.02.2021
2290 Snow -27 1011 76 10000 2 10 11:41 21.02.2021
2291 Snow -27 1010 69 10000 2 10 10:46 21.02.2021
2292 Snow -27 1010 69 10000 2 10 10:21 21.02.2021
2293 Snow -28 1010 76 10000 2 10 09:43 21.02.2021
2294 Snow -28 1010 76 10000 2 10 09:24 21.02.2021
2295 Snow -29 1010 76 10000 3 20 08:36 21.02.2021
2296 Clouds -29 1010 69 10000 2 360 07:57 21.02.2021
2297 Clouds -30 1010 69 10000 2 360 07:22 21.02.2021
2298 Clouds -30 1009 76 10000 3 350 06:24 21.02.2021
2299 Clouds -30 1009 76 10000 3 350 06:24 21.02.2021
2300 Clouds -33 1009 75 7000 4 350 02:42 21.02.2021
2301 Mist -35 1009 75 8000 2 350 01:22 21.02.2021
2302 Mist -35 1009 68 5000 4 350 00:22 21.02.2021
2303 Clear -34 1009 68 7000 3 350 23:48 20.02.2021
2304 Clear -36 1009 68 10000 3 340 22:58 20.02.2021
2305 Clear -36 1009 68 10000 2 340 22:33 20.02.2021
2306 Clear -36 1009 68 8000 3 350 21:57 20.02.2021
2307 Clear -36 1009 68 8000 3 350 21:39 20.02.2021
2308 Clear -36 1009 68 8000 3 350 21:18 20.02.2021
2309 Clear -35 1008 68 10000 3 360 20:40 20.02.2021
2310 Clear -35 1008 68 10000 3 360 20:19 20.02.2021
2311 Clouds -36 1008 68 10000 2 360 19:42 20.02.2021
2312 Clear -36 1008 68 10000 2 360 18:58 20.02.2021
2313 Clear -36 1008 68 10000 2 360 18:33 20.02.2021
2314 Clear -37 1008 67 10000 2 360 17:59 20.02.2021
2315 Clear -37 1008 67 10000 2 360 17:33 20.02.2021
2316 Clear -37 1008 67 10000 2 10 16:49 20.02.2021
2317 Clear -37 1008 67 10000 2 10 16:26 20.02.2021
2318 Clear -36 1008 68 10000 2 360 15:42 20.02.2021
2319 Clear -35 1008 68 10000 3 360 14:53 20.02.2021
2320 Clear -35 1008 68 10000 3 360 14:27 20.02.2021
2321 Clouds -36 1008 68 10000 3 360 13:58 20.02.2021
2322 Clouds -36 1008 68 10000 3 360 13:39 20.02.2021
2323 Clouds -36 1008 68 10000 3 360 13:21 20.02.2021
2324 Clouds -35 1008 75 10000 3 350 12:44 20.02.2021
2325 Clouds -34 1008 68 10000 2 360 11:54 20.02.2021
2326 Clouds -34 1008 68 10000 2 360 11:35 20.02.2021
2327 Mist -34 1008 75 6000 3 360 10:52 20.02.2021
2328 Mist -34 1008 75 6000 3 360 10:27 20.02.2021
2329 Mist -34 1008 75 8000 3 360 09:47 20.02.2021
2330 Mist -34 1008 75 3300 2 350 08:56 20.02.2021
2331 Mist -34 1008 75 3300 2 350 08:25 20.02.2021
2332 Mist -33 1008 75 2500 4 350 07:19 20.02.2021
2333 Fog -32 1009 75 10000 3 350 02:32 20.02.2021
2334 Fog -33 1010 68 10000 2 350 01:58 20.02.2021
2335 Clouds -33 1010 68 10000 2 340 01:18 20.02.2021
2336 Fog -33 1010 75 10000 2 350 00:39 20.02.2021
2337 Fog -34 1011 68 10000 2 340 23:41 19.02.2021
2338 Mist -34 1011 75 3100 2 340 22:48 19.02.2021
2339 Clear -33 1011 68 10000 3 350 22:25 19.02.2021
2340 Clear -34 1011 68 10000 2 350 21:47 19.02.2021
2341 Clear -34 1011 68 10000 3 350 21:25 19.02.2021
2342 Clear -33 1011 68 10000 3 360 20:44 19.02.2021
2343 Clear -33 1011 68 10000 3 360 20:26 19.02.2021
2344 Clouds -33 1012 75 10000 3 360 19:49 19.02.2021
2345 Clouds -33 1012 75 10000 3 360 19:20 19.02.2021
2346 Clouds -33 1012 75 10000 3 360 18:51 19.02.2021
2347 Clouds -33 1012 75 10000 3 360 18:28 19.02.2021
2348 Clouds -34 1012 75 10000 2 10 17:43 19.02.2021
2349 Clouds -31 1013 76 10000 2 360 16:44 19.02.2021
2350 Clouds -30 1013 76 10000 2 360 16:22 19.02.2021
2351 Snow -30 1013 76 10000 3 10 15:55 19.02.2021
2352 Snow -30 1013 76 10000 3 10 15:30 19.02.2021
2353 Snow -30 1013 76 10000 3 10 15:30 19.02.2021
2354 Snow -30 1014 69 10000 3 360 14:55 19.02.2021
2355 Snow -30 1014 69 10000 3 360 14:34 19.02.2021
2356 Snow -31 1014 69 10000 3 350 13:56 19.02.2021
2357 Snow -31 1014 69 10000 3 350 13:36 19.02.2021
2358 Clouds -32 1014 75 10000 3 360 12:55 19.02.2021
2359 Clouds -32 1014 75 10000 3 360 12:36 19.02.2021
2360 Clouds -32 1014 75 10000 3 360 12:18 19.02.2021
2361 Clouds -33 1015 75 10000 3 10 11:35 19.02.2021
2362 Clouds -34 1015 75 10000 3 360 10:55 19.02.2021
2363 Clouds -34 1015 75 10000 3 360 10:34 19.02.2021
2364 Clear -33 1015 75 10000 2 360 09:58 19.02.2021
2365 Clear -33 1015 75 10000 2 360 09:28 19.02.2021
2366 Clear -33 1016 75 10000 1 350 08:55 19.02.2021
2367 Clear -33 1016 75 10000 1 350 08:29 19.02.2021
2368 Clear -33 1016 75 10000 2 360 07:57 19.02.2021
2369 Clear -33 1016 68 10000 2 360 07:37 19.02.2021
2370 Clear -33 1016 68 10000 2 360 07:19 19.02.2021
2371 Fog -33 1016 68 10000 3 10 06:36 19.02.2021
2372 Clouds -32 1017 75 10000 2 340 04:42 19.02.2021
2373 Mist -31 1017 69 3300 3 350 02:47 19.02.2021
2374 Mist -31 1018 68 8000 3 340 01:28 19.02.2021
2375 Clouds -30 1018 69 8000 3 10 00:35 19.02.2021
2376 Clouds -30 1019 76 10000 3 20 23:45 18.02.2021
2377 Clouds -30 1019 69 10000 3 10 23:27 18.02.2021
2378 Clouds -32 1019 75 10000 2 360 22:37 18.02.2021
2379 Clouds -32 1019 75 10000 2 360 22:18 18.02.2021
2380 Clouds -32 1019 75 10000 4 360 21:40 18.02.2021
2381 Clouds -32 1019 75 10000 4 360 21:21 18.02.2021
2382 Fog -32 1019 75 400 4 350 20:39 18.02.2021
2383 Fog -31 1019 75 400 4 350 20:21 18.02.2021
2384 Fog -30 1019 76 9000 3 340 19:43 18.02.2021
2385 Fog -30 1019 76 9000 3 340 19:20 18.02.2021
2386 Clouds -30 1019 76 10000 2 350 18:50 18.02.2021
2387 Clouds -30 1019 76 10000 2 350 18:26 18.02.2021
2388 Snow -30 1020 76 10000 2 340 17:49 18.02.2021
2389 Snow -30 1020 76 10000 2 340 17:24 18.02.2021
2390 Snow -30 1020 76 10000 2 340 16:46 18.02.2021
2391 Snow -30 1020 76 10000 2 340 16:28 18.02.2021
2392 Clouds -29 1020 69 10000 1 350 15:43 18.02.2021
2393 Clouds -29 1020 69 10000 1 350 15:23 18.02.2021
2394 Snow -30 1020 69 10000 3 350 14:53 18.02.2021
2395 Snow -30 1020 69 10000 3 350 14:33 18.02.2021
2396 Snow -31 1020 69 10000 3 340 13:50 18.02.2021
2397 Snow -31 1020 69 10000 3 340 13:22 18.02.2021
2398 Clear -32 1020 74 10000 1.79 340 12:55 18.02.2021
2399 Clear -32 1020 74 10000 1.79 340 12:31 18.02.2021
2400 Clear -32 1020 74 10000 2.07 315 11:47 18.02.2021
2401 Clouds -32 1020 75 10000 2 340 11:28 18.02.2021
2402 Clouds -32 1020 75 10000 2 340 10:58 18.02.2021
2403 Clouds -32 1020 75 10000 2 340 10:37 18.02.2021
2404 Clouds -32 1020 75 10000 2 340 10:18 18.02.2021
2405 Clouds -30 1020 69 10000 5 340 09:31 18.02.2021
2406 Clouds -31 1020 76 10000 5 350 08:50 18.02.2021
2407 Clouds -30 1020 69 10000 4 340 08:31 18.02.2021
2408 Clouds -30 1020 69 10000 4 350 07:48 18.02.2021
2409 Clouds -31 1020 76 10000 3 340 07:24 18.02.2021
2410 Clouds -30 1020 76 9000 3 350 06:18 18.02.2021
2411 Clouds -30 1021 76 10000 4 350 00:40 18.02.2021
2412 Clouds -30 1021 76 10000 4 360 23:45 17.02.2021
2413 Clouds -31 1021 76 10000 5 360 23:18 17.02.2021
2414 Clear -31 1021 76 10000 5 350 22:40 17.02.2021
2415 Clear -30 1021 76 10000 5 350 22:22 17.02.2021
2416 Clear -30 1021 76 10000 5 350 22:22 17.02.2021
2417 Clouds -30 1021 69 10000 5 350 21:45 17.02.2021
2418 Clouds -30 1021 76 10000 5 360 21:20 17.02.2021
2419 Clouds -30 1021 76 10000 4 350 20:42 17.02.2021
2420 Clouds -30 1021 76 10000 4 350 20:23 17.02.2021
2421 Clouds -31 1022 69 10000 4 340 19:38 17.02.2021
2422 Clouds -30 1022 69 10000 4 350 18:59 17.02.2021
2423 Clouds -30 1022 69 10000 4 350 18:40 17.02.2021
2424 Clear -31 1022 76 10000 5 350 17:59 17.02.2021
2425 Clear -31 1022 76 10000 5 350 17:36 17.02.2021
2426 Clear -31 1022 76 10000 5 350 17:18 17.02.2021
2427 Clear -31 1022 76 10000 4 350 16:42 17.02.2021
2428 Clear -31 1022 76 10000 4 350 16:22 17.02.2021
2429 Clear -30 1022 69 10000 5 350 15:43 17.02.2021
2430 Clear -29 1022 69 10000 5 350 15:22 17.02.2021
2431 Clear -28 1022 76 10000 6 30 14:45 17.02.2021
2432 Clear -28 1022 76 10000 6 30 14:26 17.02.2021
2433 Clear -28 1023 76 10000 3 40 13:45 17.02.2021
2434 Clear -28 1023 76 10000 3 40 13:24 17.02.2021
2435 Clear -26 1023 76 10000 6 10 12:39 17.02.2021
2436 Clear -26 1023 76 10000 6 10 12:20 17.02.2021
2437 Clear -29 1023 76 10000 4 360 11:36 17.02.2021
2438 Clear -29 1023 76 10000 4 360 11:18 17.02.2021
2439 Clear -29 1023 76 10000 4 20 10:44 17.02.2021
2440 Clear -29 1023 76 9000 4 340 10:23 17.02.2021
2441 Clear -30 1023 69 9000 2 340 09:44 17.02.2021
2442 Clear -30 1024 76 9000 3 350 09:25 17.02.2021
2443 Clear -30 1024 76 10000 3 340 08:43 17.02.2021
2444 Clear -30 1024 76 10000 3 340 08:22 17.02.2021
2445 Clear -30 1024 76 10000 2 360 07:33 17.02.2021
2446 Clear -29 1024 69 10000 2 330 06:19 17.02.2021
2447 Clear -27 1025 76 7000 3 350 02:34 17.02.2021
2448 Clear -28 1025 69 10000 3 350 01:55 17.02.2021
2449 Clear -29 1025 76 10000 5 350 00:33 17.02.2021
2450 Clear -29 1026 76 10000 3 340 23:55 16.02.2021
2451 Clear -29 1026 76 10000 4 360 23:36 16.02.2021
2452 Clear -29 1026 69 10000 4 350 22:43 16.02.2021
2453 Clear -30 1026 76 10000 1 0 22:25 16.02.2021
2454 Clear -30 1026 76 10000 2 340 21:54 16.02.2021
2455 Clear -31 1026 76 10000 2 360 21:36 16.02.2021
2456 Clear -31 1026 76 10000 2 360 21:18 16.02.2021
2457 Clear -30 1026 76 10000 1 330 20:41 16.02.2021
2458 Clear -30 1026 76 10000 1 330 20:20 16.02.2021
2459 Clear -30 1025 69 10000 3 350 19:42 16.02.2021
2460 Clear -30 1025 69 10000 3 350 19:23 16.02.2021
2461 Clear -30 1026 76 10000 2.76 345 18:41 16.02.2021
2462 Clear -30 1026 76 10000 2.96 349 18:22 16.02.2021
2463 Clear -28 1025 83 10000 4 350 17:52 16.02.2021
2464 Clear -28 1025 83 10000 4 350 17:27 16.02.2021
2465 Clear -29 1025 76 10000 1 0 16:51 16.02.2021
2466 Clear -29 1025 76 10000 1 0 16:29 16.02.2021
2467 Clouds -28 1025 76 7000 2 340 15:47 16.02.2021
2468 Clouds -28 1025 76 7000 2 340 15:29 16.02.2021
2469 Clouds -27 1025 76 10000 2 330 14:55 16.02.2021
2470 Clouds -27 1025 76 10000 2 330 14:36 16.02.2021
2471 Clouds -26 1025 76 10000 2 330 14:18 16.02.2021
2472 Clear -26 1025 83 10000 2 320 13:37 16.02.2021
2473 Clear -26 1026 84 10000 3 20 12:47 16.02.2021
2474 Clear -26 1026 84 10000 3 20 12:26 16.02.2021
2475 Clear -25 1026 77 10000 3 360 11:55 16.02.2021
2476 Clear -25 1026 77 10000 3 360 11:55 16.02.2021
2477 Clear -25 1026 77 10000 3 360 11:37 16.02.2021
2478 Clear -25 1026 77 10000 3 360 11:18 16.02.2021
2479 Clear -25 1025 70 10000 5 360 10:45 16.02.2021
2480 Clear -25 1025 70 10000 5 360 10:25 16.02.2021
2481 Clear -25 1025 77 10000 6 350 09:48 16.02.2021
2482 Clear -25 1025 77 10000 6 350 09:26 16.02.2021
2483 Clear -24 1025 70 10000 3 350 08:48 16.02.2021
2484 Clear -24 1025 70 10000 3 350 08:26 16.02.2021
2485 Clear -22 1025 64 10000 5 330 07:32 16.02.2021
2486 Clear -20 1024 65 10000 2 290 06:25 16.02.2021
2487 Clear -20 1023 59 10000 3.48 333 02:19 16.02.2021
2488 Clear -21 1023 65 10000 1 0 23:47 15.02.2021
2489 Clear -23 1023 64 10000 2 60 23:26 15.02.2021
2490 Clear -23 1022 70 10000 3 10 22:47 15.02.2021
2491 Clear -23 1022 70 10000 2 10 22:26 15.02.2021
2492 Clear -19 1022 65 10000 2 130 21:43 15.02.2021
2493 Clear -19 1022 65 10000 1 0 21:24 15.02.2021
2494 Clear -17 1021 55 10000 4 60 20:53 15.02.2021
2495 Clear -17 1021 55 10000 4 60 20:35 15.02.2021
2496 Snow -19 1020 60 10000 7 10 19:50 15.02.2021
2497 Snow -19 1020 60 10000 7 10 19:50 15.02.2021
2498 Snow -19 1020 60 10000 7 10 19:25 15.02.2021
2499 Snow -19 1020 65 10000 8 20 18:54 15.02.2021
2500 Snow -19 1020 65 10000 8 20 18:27 15.02.2021
2501 Snow -17 1019 60 10000 8 20 17:57 15.02.2021
2502 Snow -17 1019 60 10000 8 20 17:39 15.02.2021
2503 Snow -17 1019 60 10000 8 20 17:20 15.02.2021
2504 Snow -19 1019 65 10000 8 20 16:37 15.02.2021
2505 Snow -19 1019 65 10000 8 20 16:18 15.02.2021
2506 Snow -20 1019 71 10000 9 360 15:42 15.02.2021
2507 Snow -20 1019 71 10000 9 360 15:19 15.02.2021
2508 Snow -19 1019 65 10000 8 10 14:43 15.02.2021
2509 Snow -19 1019 65 10000 8 10 14:20 15.02.2021
2510 Snow -20 1019 71 10000 9 10 13:49 15.02.2021
2511 Snow -20 1019 71 10000 9 10 13:20 15.02.2021
2512 Snow -20 1019 71 10000 7 20 12:45 15.02.2021
2513 Snow -20 1019 71 10000 7 20 12:25 15.02.2021
2514 Snow -19 1019 71 10000 9 10 11:51 15.02.2021
2515 Snow -19 1019 71 10000 9 10 11:23 15.02.2021
2516 Snow -19 1019 71 10000 9 360 10:50 15.02.2021
2517 Snow -19 1019 71 10000 9 360 10:28 15.02.2021
2518 Snow -19 1019 71 10000 8 20 09:57 15.02.2021
2519 Snow -19 1019 71 10000 8 20 09:39 15.02.2021
2520 Snow -19 1019 71 10000 8 20 09:21 15.02.2021
2521 Snow -19 1018 71 10000 10 20 08:20 15.02.2021
2522 Snow -20 1018 78 10000 12 20 06:59 15.02.2021
2523 Snow -20 1018 77 10000 10 20 06:40 15.02.2021
2524 Snow -19 1017 78 9000 9 10 02:47 15.02.2021
2525 Snow -18 1017 65 9000 11 360 01:55 15.02.2021
2526 Snow -18 1017 71 8000 12 20 23:59 14.02.2021
2527 Snow -18 1017 71 10000 11 10 23:23 14.02.2021
2528 Snow -19 1017 78 10000 7 360 22:41 14.02.2021
2529 Snow -19 1017 78 10000 7 360 22:22 14.02.2021
2530 Snow -18 1017 71 10000 9 360 21:51 14.02.2021
2531 Snow -18 1017 71 10000 9 20 21:29 14.02.2021
2532 Snow -18 1017 71 10000 9 20 21:29 14.02.2021
2533 Snow -16 1017 72 10000 8 360 20:52 14.02.2021
2534 Snow -16 1017 72 10000 8 360 20:29 14.02.2021
2535 Snow -13 1017 66 10000 8 360 19:49 14.02.2021
2536 Clear -12 1018 61 10000 3 60 18:59 14.02.2021
2537 Clear -12 1018 61 10000 3 60 18:39 14.02.2021
2538 Clear -12 1018 61 10000 3 60 18:20 14.02.2021
2539 Snow -13 1017 72 10000 9 20 17:39 14.02.2021
2540 Snow -14 1017 78 10000 9 360 16:57 14.02.2021
2541 Snow -14 1017 78 10000 9 360 16:38 14.02.2021
2542 Snow -14 1017 78 10000 9 360 16:18 14.02.2021
2543 Snow -12 1018 72 10000 4 20 15:40 14.02.2021
2544 Snow -12 1018 79 10000 9 20 14:51 14.02.2021
2545 Snow -12 1018 79 10000 9 20 14:27 14.02.2021
2546 Snow -14 1018 78 10000 4 50 13:54 14.02.2021
2547 Clouds -14 1018 78 10000 4 50 13:30 14.02.2021
2548 Snow -14 1018 85 5000 2 290 12:45 14.02.2021
2549 Snow -14 1018 85 5000 2 290 12:21 14.02.2021
2550 Snow -13 1018 85 10000 4 290 11:50 14.02.2021
2551 Snow -13 1018 85 10000 4 290 11:22 14.02.2021
2552 Snow -12 1018 85 9000 5 250 10:45 14.02.2021
2553 Snow -12 1018 79 10000 6 220 09:57 14.02.2021
2554 Snow -12 1018 79 10000 6 220 09:38 14.02.2021
2555 Snow -12 1018 79 10000 6 220 09:20 14.02.2021
2556 Snow -12 1017 85 4400 6 230 08:39 14.02.2021
2557 Snow -11 1017 85 5000 4 270 07:56 14.02.2021
2558 Clouds -11 1016 85 10000 3 240 06:49 14.02.2021
2559 Snow -10 1016 85 10000 2 230 05:42 14.02.2021
2560 Snow -6 1015 79 3800 4 330 03:31 14.02.2021
2561 Snow -7 1014 79 3800 2 290 01:57 14.02.2021
2562 Snow -9 1014 86 1600 3 310 00:47 14.02.2021
2563 Snow -9 1014 86 1600 3 310 00:26 14.02.2021
2564 Snow -7 1014 68 8000 4 360 23:40 13.02.2021
2565 Snow -7 1014 68 8000 4 360 23:20 13.02.2021
2566 Snow -8 1013 79 900 5 80 22:41 13.02.2021
2567 Snow -8 1013 79 900 5 80 22:18 13.02.2021
2568 Snow -13 1013 85 3800 3 310 21:42 13.02.2021
2569 Snow -14 1013 85 500 2 290 20:53 13.02.2021
2570 Snow -14 1013 85 500 2 290 20:29 13.02.2021
2571 Snow -16 1012 85 1000 5.24 27 19:51 13.02.2021
2572 Snow -16 1012 85 1000 5.22 22 19:25 13.02.2021
2573 Snow -16 1012 85 1700 1 130 18:54 13.02.2021
2574 Snow -16 1012 85 1700 1 130 18:34 13.02.2021
2575 Snow -17 1012 85 1200 5.08 19 17:55 13.02.2021
2576 Snow -17 1012 85 1200 5.08 19 17:36 13.02.2021
2577 Snow -17 1012 85 1200 4.66 21 17:18 13.02.2021
2578 Snow -17 1012 85 5000 2 160 16:42 13.02.2021
2579 Snow -17 1013 78 1600 1 0 15:58 13.02.2021
2580 Snow -17 1013 78 1600 1 0 15:27 13.02.2021
2581 Snow -17 1013 78 2300 2 150 14:42 13.02.2021
2582 Snow -17 1013 78 2300 2 150 14:24 13.02.2021
2583 Snow -18 1013 85 150 16 40 13:44 13.02.2021
2584 Snow -18 1013 85 150 16 40 13:23 13.02.2021
2585 Snow -18 1013 78 100 15 30 12:38 13.02.2021
2586 Snow -18 1013 78 100 15 30 12:18 13.02.2021
2587 Snow -20 1014 84 750 14 20 11:40 13.02.2021
2588 Snow -20 1014 84 750 14 20 11:18 13.02.2021
2589 Snow -21 1015 77 750 10 10 10:44 13.02.2021
2590 Snow -21 1015 77 750 10 10 10:23 13.02.2021
2591 Snow -22 1015 84 1600 11 10 09:50 13.02.2021
2592 Snow -22 1015 84 1600 11 10 09:29 13.02.2021
2593 Snow -22 1015 77 1600 10 10 08:52 13.02.2021
2594 Snow -22 1015 77 1600 10 10 08:26 13.02.2021
2595 Snow -23 1016 77 2800 9 20 07:45 13.02.2021
2596 Snow -24 1016 77 2400 9 20 06:35 13.02.2021
2597 Snow -24 1016 70 4700 10 10 05:18 13.02.2021
2598 Snow -26 1017 70 10000 9 20 03:44 13.02.2021
2599 Clear -30 1019 69 10000 6 10 01:25 13.02.2021
2600 Clouds -30 1019 69 9000 5 330 00:19 13.02.2021
2601 Clear -31 1019 69 10000 7 350 23:46 12.02.2021
2602 Clear -31 1019 69 10000 7 350 23:20 12.02.2021
2603 Clear -31 1020 69 10000 7 340 22:37 12.02.2021
2604 Clear -31 1020 69 10000 7 340 22:18 12.02.2021
2605 Clear -33 1020 75 10000 10 340 21:42 12.02.2021
2606 Clear -33 1020 75 10000 10 340 21:22 12.02.2021
2607 Clouds -34 1020 68 6000 9 350 20:45 12.02.2021
2608 Clouds -34 1020 68 6000 9 350 20:26 12.02.2021
2609 Clouds -34 1020 68 6000 9 350 20:26 12.02.2021
2610 Mist -34 1020 68 2100 7 330 19:55 12.02.2021
2611 Mist -34 1020 68 2100 7 330 19:29 12.02.2021
2612 Snow -34 1021 68 9000 9 350 18:38 12.02.2021
2613 Snow -34 1021 68 9000 9 350 18:18 12.02.2021
2614 Snow -34 1021 68 9000 10 350 17:41 12.02.2021
2615 Clear -33 1021 68 10000 10 350 16:54 12.02.2021
2616 Clear -33 1021 68 10000 10 350 16:18 12.02.2021
2617 Clear -33 1023 68 10000 4 350 15:43 12.02.2021
2618 Clear -33 1023 68 10000 4 350 15:20 12.02.2021
2619 Clear -34 1023 68 10000 8 350 14:37 12.02.2021
2620 Clear -34 1023 68 10000 10 350 13:56 12.02.2021
2621 Clear -34 1023 68 10000 10 350 13:37 12.02.2021
2622 Clear -34 1024 68 10000 5 360 12:55 12.02.2021
2623 Clear -34 1024 68 10000 5 360 12:36 12.02.2021
2624 Clear -34 1025 68 10000 2 340 11:48 12.02.2021
2625 Clear -34 1025 68 10000 2 340 11:22 12.02.2021
2626 Clear -34 1025 68 10000 7 350 10:51 12.02.2021
2627 Clear -34 1025 68 10000 7 350 10:33 12.02.2021
2628 Clear -34 1026 68 10000 8 350 09:43 12.02.2021
2629 Clear -34 1026 68 10000 8 350 09:24 12.02.2021
2630 Clear -34 1026 68 10000 9 350 08:47 12.02.2021
2631 Clear -34 1026 68 10000 9 350 08:27 12.02.2021
2632 Clear -33 1027 68 10000 6 330 07:53 12.02.2021
2633 Clear -33 1027 68 10000 6 330 07:28 12.02.2021
2634 Clear -33 1027 68 10000 7 330 06:54 12.02.2021
2635 Clear -32 1027 68 10000 4 350 05:39 12.02.2021
2636 Clear -32 1028 68 10000 7 350 03:48 12.02.2021
2637 Clear -32 1030 68 10000 5 340 00:47 12.02.2021
2638 Snow -32 1030 68 10000 6 330 23:39 11.02.2021
2639 Snow -32 1030 68 10000 6 330 23:20 11.02.2021
2640 Snow -32 1030 68 10000 7 350 22:44 11.02.2021
2641 Clear -33 1030 75 10000 8 340 22:23 11.02.2021
2642 Clear -33 1031 68 10000 4 340 21:46 11.02.2021
2643 Clear -32 1031 62 10000 1 0 21:26 11.02.2021
2644 Clear -31 1031 69 10000 6 340 20:59 11.02.2021
2645 Clear -31 1031 69 10000 6 340 20:40 11.02.2021
2646 Clear -31 1031 69 10000 6 340 20:21 11.02.2021
2647 Clear -32 1031 68 10000 5 350 19:47 11.02.2021
2648 Clear -32 1031 68 10000 5 350 19:26 11.02.2021
2649 Clear -30 1031 63 10000 4 360 18:45 11.02.2021
2650 Clear -30 1031 63 10000 4 360 18:24 11.02.2021
2651 Clear -30 1032 63 10000 5 350 17:49 11.02.2021
2652 Clear -30 1032 63 10000 5 350 17:21 11.02.2021
2653 Clear -30 1032 69 10000 4 30 16:47 11.02.2021
2654 Clear -30 1032 69 10000 4 30 16:29 11.02.2021
2655 Clear -32 1033 68 10000 3 30 15:48 11.02.2021
2656 Clear -32 1033 68 10000 3 30 15:29 11.02.2021
2657 Clear -32 1033 68 10000 3 40 14:58 11.02.2021
2658 Clear -32 1033 68 10000 3 40 14:32 11.02.2021
2659 Clear -33 1034 75 10000 2.86 349 13:45 11.02.2021
2660 Clear -33 1034 75 10000 2.46 356 13:21 11.02.2021
2661 Clear -28 1034 76 10000 2 130 12:58 11.02.2021
2662 Clear -28 1034 76 10000 2 130 12:36 11.02.2021
2663 Clear -30 1034 69 10000 2 310 11:57 11.02.2021
2664 Clear -30 1034 69 10000 2 310 11:39 11.02.2021
2665 Clear -30 1034 69 10000 2 310 11:18 11.02.2021
2666 Clear -27 1035 69 10000 1 0 10:39 11.02.2021
2667 Clear -27 1035 69 10000 1 0 10:21 11.02.2021
2668 Clear -30 1035 69 10000 1 80 09:41 11.02.2021
2669 Clear -30 1035 69 10000 1 80 09:19 11.02.2021
2670 Clear -29 1036 69 10000 1.97 358 08:49 11.02.2021
2671 Clear -28 1036 69 10000 2 330 07:53 11.02.2021
2672 Clear -28 1036 69 10000 2 150 06:46 11.02.2021
2673 Clear -26 1036 70 10000 3 190 06:23 11.02.2021
2674 Clear -24 1036 64 10000 1 0 03:47 11.02.2021
2675 Clear -24 1037 64 10000 1 0 02:26 11.02.2021
2676 Clear -25 1037 70 10000 1 0 00:24 11.02.2021
2677 Clear -24 1038 64 10000 1 0 23:59 10.02.2021
2678 Clear -25 1037 70 10000 2 210 23:28 10.02.2021
2679 Clear -25 1038 70 10000 1 0 22:48 10.02.2021
2680 Clear -26 1037 76 10000 0.68 34 22:24 10.02.2021
2681 Clear -26 1038 76 10000 3 350 21:40 10.02.2021
2682 Clear -26 1038 76 10000 3 350 21:21 10.02.2021
2683 Clear -28 1037 69 10000 1 0 20:52 10.02.2021
2684 Clear -28 1037 69 10000 1 0 20:30 10.02.2021
2685 Clear -24 1037 70 10000 1 0 19:59 10.02.2021
2686 Clear -24 1037 70 10000 1 0 19:40 10.02.2021
2687 Clear -24 1037 70 10000 1 0 19:19 10.02.2021
2688 Clear -22 1037 71 10000 1 300 18:39 10.02.2021
2689 Clear -22 1037 71 10000 1 300 18:18 10.02.2021
2690 Clear -25 1037 70 10000 2 280 17:45 10.02.2021
2691 Clear -25 1037 70 10000 2 280 17:21 10.02.2021
2692 Clear -23 1038 70 10000 2 10 16:49 10.02.2021
2693 Clear -23 1038 70 10000 2 10 16:28 10.02.2021
2694 Clear -22 1038 71 10000 2 360 15:43 10.02.2021
2695 Clear -22 1038 71 10000 2 360 15:21 10.02.2021
2696 Clear -18 1038 55 10000 1 0 14:40 10.02.2021
2697 Clear -20 1038 77 10000 1 0 13:55 10.02.2021
2698 Clear -20 1038 77 10000 1 0 13:37 10.02.2021
2699 Clear -20 1038 77 10000 1 0 13:18 10.02.2021
2700 Clear -19 1038 71 10000 1 0 12:40 10.02.2021
2701 Clear -19 1038 71 10000 1 0 12:21 10.02.2021
2702 Clear -16 1038 55 10000 3 30 11:41 10.02.2021
2703 Clear -16 1038 55 10000 3 30 11:23 10.02.2021
2704 Snow -16 1037 60 10000 7 70 10:40 10.02.2021
2705 Snow -16 1037 60 10000 7 70 10:19 10.02.2021
2706 Clear -16 1037 55 10000 5 40 09:40 10.02.2021
2707 Clear -16 1037 55 10000 5 40 09:21 10.02.2021
2708 Clear -16 1037 60 10000 4 10 08:43 10.02.2021
2709 Snow -15 1037 61 10000 9 80 07:53 10.02.2021
2710 Snow -16 1037 66 10000 9 80 06:59 10.02.2021
2711 Clear -16 1036 60 10000 2 10 03:43 10.02.2021
2712 Snow -14 1037 51 10000 7 80 00:31 10.02.2021
2713 Clear -14 1037 56 10000 3 80 23:36 09.02.2021
2714 Clear -15 1037 72 10000 1.04 15 22:55 09.02.2021
2715 Clear -16 1037 78 10000 1 0 22:25 09.02.2021
2716 Clear -15 1037 72 10000 2 310 21:53 09.02.2021
2717 Clear -16 1037 78 10000 1 0 21:34 09.02.2021
2718 Clear -15 1037 78 10000 2 330 20:50 09.02.2021
2719 Clear -15 1037 78 10000 2 330 20:27 09.02.2021
2720 Snow -15 1037 78 10000 1 0 19:59 09.02.2021
2721 Snow -15 1037 78 10000 1 0 19:39 09.02.2021
2722 Snow -15 1037 72 10000 1 0 19:00 09.02.2021
2723 Snow -15 1037 72 10000 1 0 18:39 09.02.2021
2724 Snow -15 1037 78 10000 1.39 20 17:58 09.02.2021
2725 Snow -15 1037 78 10000 1.39 20 17:40 09.02.2021
2726 Snow -15 1037 78 10000 1.44 15 17:22 09.02.2021
2727 Snow -15 1038 78 10000 1 310 16:47 09.02.2021
2728 Snow -15 1038 78 10000 1 310 16:19 09.02.2021
2729 Snow -14 1038 78 10000 2 340 15:50 09.02.2021
2730 Snow -14 1038 78 10000 2 340 15:27 09.02.2021
2731 Snow -14 1038 78 10000 1 340 14:56 09.02.2021
2732 Snow -14 1038 78 10000 1 340 14:28 09.02.2021
2733 Snow -15 1038 78 10000 2 300 13:53 09.02.2021
2734 Snow -15 1038 78 10000 2 300 13:28 09.02.2021
2735 Snow -14 1038 78 10000 2 320 12:54 09.02.2021
2736 Snow -14 1038 78 10000 2 320 12:36 09.02.2021
2737 Snow -14 1038 78 10000 2 280 11:59 09.02.2021
2738 Snow -14 1038 78 10000 2 280 11:59 09.02.2021
2739 Snow -14 1038 78 10000 2 280 11:40 09.02.2021
2740 Snow -14 1038 78 10000 2 280 11:20 09.02.2021
2741 Snow -14 1038 78 10000 2 360 10:50 09.02.2021
2742 Snow -14 1038 78 10000 2 360 10:19 09.02.2021
2743 Snow -12 1038 67 10000 3 70 09:43 09.02.2021
2744 Snow -12 1038 67 10000 3 70 09:25 09.02.2021
2745 Snow -14 1038 78 9000 1 0 08:47 09.02.2021
2746 Snow -14 1038 78 9000 1 0 08:26 09.02.2021
2747 Snow -12 1038 67 10000 6 90 06:55 09.02.2021
2748 Snow -13 1037 72 10000 6 90 04:55 09.02.2021
2749 Snow -12 1037 72 10000 7 80 03:42 09.02.2021
2750 Snow -12 1036 72 10000 7 80 00:44 09.02.2021
2751 Snow -12 1036 72 9000 7 70 23:57 08.02.2021
2752 Snow -12 1036 72 10000 7 60 23:22 08.02.2021
2753 Snow -12 1036 72 10000 9 70 22:45 08.02.2021
2754 Snow -12 1035 72 9000 9 70 22:26 08.02.2021
2755 Snow -12 1035 72 9000 10 80 21:58 08.02.2021
2756 Snow -12 1035 72 8000 9 80 21:36 08.02.2021
2757 Snow -12 1035 72 8000 9 80 21:18 08.02.2021
2758 Snow -12 1034 72 9000 9 80 20:42 08.02.2021
2759 Snow -12 1034 72 9000 9 80 20:21 08.02.2021
2760 Snow -11 1034 73 9000 7 80 19:45 08.02.2021
2761 Snow -11 1034 73 9000 7 80 19:26 08.02.2021
2762 Snow -11 1033 73 10000 9 80 18:49 08.02.2021
2763 Snow -11 1033 73 10000 9 80 18:24 08.02.2021
2764 Snow -12 1033 79 5000 6 40 17:47 08.02.2021
2765 Snow -12 1033 79 5000 6 40 17:26 08.02.2021
2766 Snow -12 1033 79 5000 5 50 16:47 08.02.2021
2767 Snow -12 1033 79 5000 5 50 16:23 08.02.2021
2768 Snow -13 1032 78 2200 6 20 15:56 08.02.2021
2769 Snow -13 1032 78 2200 6 20 15:37 08.02.2021
2770 Snow -13 1032 78 2200 6 20 15:18 08.02.2021
2771 Snow -13 1032 85 1700 6 20 14:42 08.02.2021
2772 Snow -13 1032 85 1700 6 20 14:23 08.02.2021
2773 Snow -13 1033 85 800 2 310 13:45 08.02.2021
2774 Snow -13 1033 85 800 2 310 13:25 08.02.2021
2775 Snow -11 1032 85 1200 6 40 12:39 08.02.2021
2776 Snow -11 1031 85 300 11 80 11:58 08.02.2021
2777 Snow -14 1031 85 300 11 80 11:32 08.02.2021
2778 Snow -14 1031 92 700 7 360 10:46 08.02.2021
2779 Snow -14 1031 92 700 7 360 10:26 08.02.2021
2780 Snow -16 1032 72 2600 7 360 09:55 08.02.2021
2781 Snow -16 1032 72 2600 7 360 09:36 08.02.2021
2782 Snow -13 1032 66 8000 6 20 08:54 08.02.2021
2783 Snow -13 1032 66 8000 6 20 08:24 08.02.2021
2784 Clouds -14 1033 61 10000 3 40 07:38 08.02.2021
2785 Snow -14 1032 66 10000 6 20 06:33 08.02.2021
2786 Snow -13 1032 56 10000 10 50 04:54 08.02.2021
2787 Snow -13 1034 61 10000 4 90 02:26 08.02.2021
2788 Snow -13 1035 56 10000 12 110 00:24 08.02.2021
2789 Snow -12 1034 52 10000 9 100 23:53 07.02.2021
2790 Fog -12 1033 52 10000 7 70 23:28 07.02.2021
2791 Snow -12 1034 56 10000 4 50 22:56 07.02.2021
2792 Snow -12 1034 52 10000 3 60 22:37 07.02.2021
2793 Snow -12 1034 52 10000 3 60 22:19 07.02.2021
2794 Snow -10 1034 48 10000 8 90 21:49 07.02.2021
2795 Snow -12 1034 56 10000 4 30 21:22 07.02.2021
2796 Clear -12 1035 52 10000 7 60 20:49 07.02.2021
2797 Clear -12 1035 52 10000 7 60 20:27 07.02.2021
2798 Clear -12 1036 40 10000 5 50 19:47 07.02.2021
2799 Clear -12 1036 40 10000 5 50 19:28 07.02.2021
2800 Snow -10 1036 31 10000 9 80 18:45 07.02.2021
2801 Snow -10 1036 31 10000 9 80 18:27 07.02.2021
2802 Clear -12 1037 40 10000 3 60 17:57 07.02.2021
2803 Clear -12 1037 40 10000 3 60 17:38 07.02.2021
2804 Clear -12 1037 40 10000 3 60 17:18 07.02.2021
2805 Clear -15 1038 56 10000 1 0 16:41 07.02.2021
2806 Clear -15 1038 56 10000 1 0 16:20 07.02.2021
2807 Clear -20 1038 71 10000 4 350 15:44 07.02.2021
2808 Clear -20 1038 71 10000 4 350 15:21 07.02.2021
2809 Clear -21 1038 65 10000 3 10 14:44 07.02.2021
2810 Clear -21 1038 65 10000 3 10 14:26 07.02.2021
2811 Clear -22 1039 64 10000 3 20 13:45 07.02.2021
2812 Clear -22 1039 64 10000 3 20 13:27 07.02.2021
2813 Clear -22 1040 64 10000 4 10 12:42 07.02.2021
2814 Clear -22 1040 64 10000 4 10 12:21 07.02.2021
2815 Clear -22 1040 71 10000 2 20 11:43 07.02.2021
2816 Clear -22 1040 71 10000 2 20 11:24 07.02.2021
2817 Clear -22 1040 71 10000 2 360 10:31 07.02.2021
2818 Clear -21 1041 65 10000 2 20 09:57 07.02.2021
2819 Clear -21 1041 65 10000 2 20 09:39 07.02.2021
2820 Clear -21 1041 65 10000 2 20 09:20 07.02.2021
2821 Clear -22 1041 71 10000 2 350 08:19 07.02.2021
2822 Clear -25 1040 84 10000 3 40 06:33 07.02.2021
2823 Clear -26 1041 76 10000 3 340 05:56 07.02.2021
2824 Clear -23 1040 84 10000 4 10 02:53 07.02.2021
2825 Clear -23 1042 77 10000 3 340 00:58 07.02.2021
2826 Clear -21 1042 77 10000 2.31 353 00:28 07.02.2021
2827 Fog -22 1041 84 10000 3 360 23:32 06.02.2021
2828 Mist -22 1041 77 2600 5 360 22:31 06.02.2021
2829 Clear -22 1040 77 10000 5 360 21:39 06.02.2021
2830 Clear -22 1040 77 10000 5 360 21:20 06.02.2021
2831 Clear -23 1040 84 10000 4 350 20:45 06.02.2021
2832 Clear -23 1040 84 10000 4 350 20:23 06.02.2021
2833 Clear -23 1040 77 10000 4 20 19:55 06.02.2021
2834 Clear -23 1040 77 10000 4 20 19:28 06.02.2021
2835 Clear -23 1039 77 10000 5 30 18:46 06.02.2021
2836 Clear -23 1039 77 10000 5 30 18:27 06.02.2021
2837 Clear -22 1040 77 10000 4 330 17:44 06.02.2021
2838 Clear -22 1040 77 10000 4 330 17:22 06.02.2021
2839 Clear -22 1039 77 10000 4 340 16:58 06.02.2021
2840 Clear -22 1039 77 10000 4 340 16:37 06.02.2021
2841 Clear -22 1039 77 10000 4 340 16:19 06.02.2021
2842 Clear -21 1038 77 10000 5 350 15:40 06.02.2021
2843 Clear -21 1038 77 10000 5 350 15:19 06.02.2021
2844 Clouds -21 1037 77 10000 3 320 14:44 06.02.2021
2845 Clouds -21 1037 77 10000 3 320 14:23 06.02.2021
2846 Clouds -21 1037 84 10000 3 10 13:47 06.02.2021
2847 Clouds -22 1037 77 10000 3 10 12:56 06.02.2021
2848 Clouds -22 1037 77 10000 3 10 12:21 06.02.2021
2849 Clear -20 1036 77 10000 4 350 11:47 06.02.2021
2850 Clear -20 1036 77 10000 4 350 11:22 06.02.2021
2851 Clear -20 1035 77 10000 4 320 10:56 06.02.2021
2852 Clear -20 1035 77 10000 4 320 10:28 06.02.2021
2853 Clear -19 1033 84 10000 4 340 09:58 06.02.2021
2854 Clear -19 1033 84 10000 4 340 09:37 06.02.2021
2855 Clear -19 1033 84 10000 4 340 09:18 06.02.2021
2856 Clouds -18 1032 78 10000 3 340 08:33 06.02.2021
2857 Snow -18 1031 85 10000 5 360 07:59 06.02.2021
2858 Snow -17 1030 85 7000 5 340 05:43 06.02.2021
2859 Snow -17 1027 85 10000 5 320 03:56 06.02.2021
2860 Snow -17 1025 85 3200 7 360 01:42 06.02.2021
2861 Snow -18 1025 85 2500 7 360 00:47 06.02.2021
2862 Snow -18 1024 85 8000 8 350 00:19 06.02.2021
2863 Snow -18 1023 78 10000 6 350 23:42 05.02.2021
2864 Clear -18 1023 78 10000 6 350 23:24 05.02.2021
2865 Clear -16 1022 72 10000 6 360 22:47 05.02.2021
2866 Clear -16 1022 72 10000 6 360 22:20 05.02.2021
2867 Clear -18 1021 78 10000 8 20 21:45 05.02.2021
2868 Clear -18 1021 78 10000 8 20 21:26 05.02.2021
2869 Clear -18 1021 71 10000 8 10 20:45 05.02.2021
2870 Clear -19 1021 78 10000 9 10 19:52 05.02.2021
2871 Clear -19 1021 78 10000 9 10 19:20 05.02.2021
2872 Clouds -17 1021 71 10000 3 20 18:53 05.02.2021
2873 Clouds -17 1021 71 10000 3 20 18:27 05.02.2021
2874 Snow -17 1020 78 10000 9 20 17:44 05.02.2021
2875 Snow -17 1020 78 10000 9 20 17:24 05.02.2021
2876 Clouds -15 1019 78 10000 2 230 16:49 05.02.2021
2877 Clouds -15 1019 78 10000 2 230 16:24 05.02.2021
2878 Clouds -15 1019 78 10000 2 190 15:57 05.02.2021
2879 Clouds -15 1019 78 10000 2 190 15:27 05.02.2021
2880 Snow -15 1019 78 10000 1 0 14:55 05.02.2021
2881 Snow -15 1019 78 10000 1 0 14:36 05.02.2021
2882 Snow -15 1019 78 10000 1 0 14:18 05.02.2021
2883 Clouds -14 1019 72 10000 2 350 13:37 05.02.2021
2884 Clouds -15 1019 78 10000 3 340 12:57 05.02.2021
2885 Clouds -15 1018 72 10000 3 320 12:38 05.02.2021
2886 Clouds -13 1018 72 10000 7 80 11:42 05.02.2021
2887 Clouds -13 1018 72 10000 7 80 11:22 05.02.2021
2888 Snow -13 1018 66 10000 9 80 10:59 05.02.2021
2889 Snow -13 1017 72 10000 8 80 10:28 05.02.2021
2890 Snow -14 1017 72 10000 9 80 09:57 05.02.2021
2891 Snow -14 1016 72 10000 8 80 09:39 05.02.2021
2892 Snow -14 1016 72 10000 8 80 09:20 05.02.2021
2893 Snow -14 1016 72 10000 10 80 08:29 05.02.2021
2894 Snow -14 1015 72 4400 11 80 07:39 05.02.2021
2895 Snow -14 1015 72 4000 11 80 06:57 05.02.2021
2896 Snow -15 1014 72 7000 13 80 05:39 05.02.2021
2897 Snow -15 1013 78 1200 14 80 04:49 05.02.2021
2898 Snow -15 1012 78 450 15 80 02:25 05.02.2021
2899 Snow -17 1011 85 100 16 80 00:41 05.02.2021
2900 Snow -17 1011 85 100 16 80 00:21 05.02.2021
2901 Snow -17 1012 78 300 16 70 23:59 04.02.2021
2902 Snow -17 1012 78 800 14 70 23:40 04.02.2021
2903 Snow -17 1012 78 800 14 70 23:21 04.02.2021
2904 Snow -18 1013 78 2000 9 40 22:51 04.02.2021
2905 Snow -18 1013 78 3600 8 30 22:28 04.02.2021
2906 Snow -18 1013 71 1200 8 20 21:42 04.02.2021
2907 Snow -18 1013 71 1200 8 20 21:22 04.02.2021
2908 Snow -20 1013 77 2600 4 20 20:53 04.02.2021
2909 Snow -20 1013 77 2600 4 20 20:34 04.02.2021
2910 Snow -20 1012 71 1100 3 360 19:47 04.02.2021
2911 Snow -20 1012 71 1100 3 360 19:19 04.02.2021
2912 Snow -18 1012 65 7000 5 70 18:37 04.02.2021
2913 Snow -18 1012 65 7000 5 70 18:18 04.02.2021
2914 Snow -17 1012 55 10000 11 60 17:42 04.02.2021
2915 Snow -17 1012 55 10000 11 60 17:20 04.02.2021
2916 Snow -19 1012 60 9000 16 80 16:46 04.02.2021
2917 Snow -19 1012 60 9000 16 80 16:19 04.02.2021
2918 Snow -19 1013 60 2300 17 90 15:40 04.02.2021
2919 Snow -19 1013 60 2300 17 90 15:21 04.02.2021
2920 Snow -20 1013 71 1100 16 90 14:49 04.02.2021
2921 Snow -20 1013 71 1100 16 90 14:21 04.02.2021
2922 Snow -21 1014 77 750 15 80 13:56 04.02.2021
2923 Snow -21 1014 77 750 15 80 13:36 04.02.2021
2924 Snow -20 1015 71 3900 9 50 12:57 04.02.2021
2925 Snow -20 1015 71 3900 9 50 12:20 04.02.2021
2926 Snow -20 1015 71 9000 11 70 11:38 04.02.2021
2927 Snow -20 1015 71 9000 11 70 11:20 04.02.2021
2928 Snow -20 1015 65 6000 14 70 10:43 04.02.2021
2929 Snow -20 1016 65 8000 12 80 09:56 04.02.2021
2930 Snow -20 1016 65 8000 12 80 09:37 04.02.2021
2931 Snow -20 1016 65 8000 12 80 09:18 04.02.2021
2932 Snow -20 1015 65 6000 15 80 08:37 04.02.2021
2933 Snow -20 1015 65 6000 15 80 08:18 04.02.2021
2934 Snow -20 1016 65 7000 14 70 07:38 04.02.2021
2935 Snow -20 1016 65 9000 14 80 06:54 04.02.2021
2936 Snow -19 1016 60 9000 14 80 06:35 04.02.2021
2937 Snow -19 1015 71 3800 16 80 03:53 04.02.2021
2938 Snow -18 1015 71 1600 15 80 02:25 04.02.2021
2939 Snow -18 1014 78 300 18 80 00:35 04.02.2021
2940 Snow -18 1014 78 300 16 80 23:39 03.02.2021
2941 Snow -17 1014 78 400 16 80 22:43 03.02.2021
2942 Snow -16 1014 72 1100 16 80 22:22 03.02.2021
2943 Snow -17 1014 78 800 15 80 21:57 03.02.2021
2944 Snow -17 1013 85 350 16 80 21:37 03.02.2021
2945 Snow -17 1013 85 350 16 80 21:18 03.02.2021
2946 Snow -16 1012 78 550 16 80 20:43 03.02.2021
2947 Snow -16 1012 78 550 16 80 20:24 03.02.2021
2948 Snow -15 1012 72 1000 15 80 19:43 03.02.2021
2949 Snow -15 1012 72 1000 15 80 19:21 03.02.2021
2950 Snow -15 1011 78 250 17 80 18:48 03.02.2021
2951 Snow -15 1011 78 250 17 80 18:20 03.02.2021
2952 Snow -14 1011 78 250 15 80 17:51 03.02.2021
2953 Snow -14 1011 78 250 15 80 17:31 03.02.2021
2954 Snow -13 1011 78 900 14 80 16:56 03.02.2021
2955 Snow -13 1011 78 900 14 80 16:30 03.02.2021
2956 Snow -13 1011 85 800 13 80 15:46 03.02.2021
2957 Snow -13 1011 85 800 13 80 15:25 03.02.2021
2958 Snow -12 1011 79 1000 14 80 14:53 03.02.2021
2959 Snow -12 1011 79 1000 14 80 14:26 03.02.2021
2960 Snow -12 1011 79 1700 12 70 13:54 03.02.2021
2961 Snow -12 1011 79 1700 12 70 13:28 03.02.2021
2962 Snow -12 1010 85 550 12 80 12:49 03.02.2021
2963 Snow -12 1010 85 550 12 80 12:27 03.02.2021
2964 Snow -11 1010 79 2200 11 70 11:59 03.02.2021
2965 Snow -11 1010 79 2200 11 70 11:37 03.02.2021
2966 Snow -11 1010 73 10000 10 70 10:58 03.02.2021
2967 Snow -11 1010 73 10000 10 70 10:23 03.02.2021
2968 Snow -11 1010 73 6000 9 80 09:48 03.02.2021
2969 Snow -11 1010 73 6000 9 80 09:29 03.02.2021
2970 Snow -12 1010 79 3400 8 80 08:54 03.02.2021
2971 Snow -12 1010 79 3400 8 80 08:54 03.02.2021
2972 Snow -12 1010 79 3400 8 80 08:35 03.02.2021
2973 Snow -11 1010 73 7000 6 60 07:42 03.02.2021
2974 Snow -11 1010 73 10000 7 70 06:41 03.02.2021
2975 Snow -11 1010 79 4900 11 80 04:55 03.02.2021
2976 Snow -11 1010 79 6000 10 70 04:32 03.02.2021
2977 Snow -11 1010 79 9000 9 70 03:39 03.02.2021
2978 Snow -11 1010 79 1700 8 70 02:37 03.02.2021
2979 Snow -11 1010 73 4700 9 80 00:56 03.02.2021
2980 Snow -11 1010 79 4500 8 80 23:59 02.02.2021
2981 Snow -11 1010 79 6000 9 80 23:40 02.02.2021
2982 Snow -11 1010 79 6000 9 80 23:22 02.02.2021
2983 Snow -11 1010 79 10000 8 80 22:37 02.02.2021
2984 Snow -11 1010 79 10000 8 80 22:18 02.02.2021
2985 Snow -10 1011 73 10000 7 70 21:39 02.02.2021
2986 Snow -10 1011 73 10000 7 70 21:19 02.02.2021
2987 Snow -10 1010 79 10000 5 70 20:44 02.02.2021
2988 Snow -10 1010 79 10000 5 70 20:20 02.02.2021
2989 Snow -10 1010 79 10000 3 60 19:48 02.02.2021
2990 Snow -10 1010 79 10000 3 60 19:30 02.02.2021
2991 Snow -10 1010 79 10000 3 60 19:30 02.02.2021
2992 Snow -10 1009 79 6000 8 100 18:46 02.02.2021
2993 Snow -10 1009 79 6000 8 100 18:26 02.02.2021
2994 Snow -10 1009 85 5000 6 100 17:51 02.02.2021
2995 Snow -10 1009 85 5000 6 100 17:24 02.02.2021
2996 Snow -10 1008 85 1300 10 100 16:58 02.02.2021
2997 Snow -10 1008 85 1300 10 100 16:38 02.02.2021
2998 Snow -10 1008 85 1300 10 100 16:18 02.02.2021
2999 Snow -10 1007 85 550 11 100 15:42 02.02.2021
3000 Snow -10 1007 85 550 11 100 15:42 02.02.2021
3001 Snow -10 1007 85 550 11 100 15:21 02.02.2021
3002 Snow -10 1006 85 450 13 100 14:41 02.02.2021
3003 Snow -10 1006 85 450 13 100 14:19 02.02.2021
3004 Snow -10 1005 85 150 15 100 13:54 02.02.2021
3005 Snow -10 1005 85 150 15 100 13:36 02.02.2021
3006 Snow -10 1005 85 150 15 100 13:18 02.02.2021
3007 Snow -10 1004 85 150 17 100 12:31 02.02.2021
3008 Snow -10 1003 92 100 19 100 11:44 02.02.2021
3009 Snow -10 1003 92 100 19 100 11:22 02.02.2021
3010 Snow -10 1004 92 150 18 90 10:55 02.02.2021
3011 Snow -10 1004 92 150 18 90 10:27 02.02.2021
3012 Snow -10 1003 92 150 18 90 09:46 02.02.2021
3013 Snow -10 1003 92 150 18 90 09:25 02.02.2021
3014 Snow -9 1003 86 400 15 80 08:54 02.02.2021
3015 Snow -9 1003 86 400 15 80 08:25 02.02.2021
3016 Snow -9 1001 86 200 17 90 07:29 02.02.2021
3017 Snow -9 1000 92 150 18 90 06:43 02.02.2021
3018 Snow -9 998 92 100 21 90 05:53 02.02.2021
3019 Snow -9 996 92 100 21 90 04:57 02.02.2021
3020 Snow -8 994 86 50 24 100 02:26 02.02.2021
3021 Snow -8 993 86 50 26 100 01:55 02.02.2021
3022 Snow -8 993 93 1011 26 100 00:35 02.02.2021
3023 Snow -8 992 93 561 26 100 23:20 01.02.2021
3024 Snow -8 992 93 561 27 100 22:50 01.02.2021
3025 Snow -8 992 93 561 29 90 22:32 01.02.2021
3026 Snow -8 991 93 451 27 90 21:53 01.02.2021
3027 Snow -7 992 86 451 29 100 21:34 01.02.2021
3028 Snow -7 991 86 309 29 90 20:57 01.02.2021
3029 Snow -7 991 93 309 33 100 20:37 01.02.2021
3030 Snow -7 991 93 283 33 100 20:19 01.02.2021
3031 Snow -7 991 93 283 28 90 19:38 01.02.2021
3032 Snow -7 991 93 258 28 90 19:19 01.02.2021
3033 Snow -7 992 93 258 26 90 18:47 01.02.2021
3034 Snow -7 992 93 356 26 90 18:27 01.02.2021
3035 Snow -7 993 86 50 20 90 17:47 01.02.2021
3036 Snow -7 993 86 50 20 90 17:23 01.02.2021
3037 Snow -8 994 93 50 22 80 16:47 01.02.2021
3038 Snow -8 994 93 50 22 80 16:28 01.02.2021
3039 Snow -9 994 92 50 29 80 15:43 01.02.2021
3040 Snow -9 994 92 50 29 80 15:43 01.02.2021
3041 Snow -9 994 92 50 29 80 15:19 01.02.2021
3042 Snow -9 995 86 50 31 80 14:52 01.02.2021
3043 Snow -9 995 86 50 31 80 14:27 01.02.2021
3044 Snow -10 995 85 50 30 80 13:47 01.02.2021
3045 Snow -10 995 85 50 30 80 13:26 01.02.2021
3046 Snow -10 995 85 50 30 80 13:26 01.02.2021
3047 Snow -11 996 85 573 31 80 12:45 01.02.2021
3048 Snow -11 996 85 773 31 80 12:25 01.02.2021
3049 Snow -12 997 85 773 32 80 11:51 01.02.2021
3050 Snow -12 997 85 578 32 80 11:22 01.02.2021
3051 Snow -12 998 85 578 31 80 10:55 01.02.2021
3052 Snow -12 998 85 578 31 80 10:36 01.02.2021
3053 Snow -12 998 85 479 31 80 10:18 01.02.2021
3054 Snow -13 999 85 479 24 80 09:42 01.02.2021
3055 Snow -12 1000 85 341 25 80 08:56 01.02.2021
3056 Snow -12 1000 85 341 25 80 08:56 01.02.2021
3057 Snow -12 1000 85 384 25 80 08:27 01.02.2021
3058 Snow -13 1002 92 50 22 70 07:34 01.02.2021
3059 Snow -12 1004 85 50 24 70 05:27 01.02.2021
3060 Snow -13 1005 85 646 25 70 02:41 01.02.2021
3061 Snow -13 1008 85 350 24 80 00:27 01.02.2021
3062 Snow -14 1009 85 388 23 80 23:29 31.01.2021
3063 Snow -15 1009 85 388 23 80 22:41 31.01.2021
3064 Snow -15 1009 85 437 23 80 22:23 31.01.2021
3065 Snow -15 1010 85 437 23 80 21:49 31.01.2021
3066 Snow -15 1010 85 284 23 90 21:22 31.01.2021
3067 Snow -15 1014 85 100 10 40 20:46 31.01.2021
3068 Snow -15 1014 85 100 10 40 20:21 31.01.2021
3069 Snow -18 1016 85 300 13 20 19:43 31.01.2021
3070 Snow -18 1016 85 300 13 20 19:24 31.01.2021
3071 Snow -18 1016 85 300 13 20 19:24 31.01.2021
3072 Snow -15 1017 85 200 12 40 18:58 31.01.2021
3073 Snow -15 1017 85 200 12 40 18:40 31.01.2021
3074 Snow -15 1017 85 200 12 40 18:20 31.01.2021
3075 Snow -15 1018 85 150 15 60 17:45 31.01.2021
3076 Snow -15 1018 85 150 15 60 17:23 31.01.2021
3077 Snow -14 1018 78 100 12 50 16:47 31.01.2021
3078 Snow -14 1018 78 100 12 50 16:28 31.01.2021
3079 Snow -15 1018 85 100 14 60 15:51 31.01.2021
3080 Snow -15 1018 85 100 14 60 15:32 31.01.2021
3081 Snow -15 1020 85 350 15 70 14:42 31.01.2021
3082 Snow -15 1020 85 350 15 70 14:22 31.01.2021
3083 Snow -16 1019 85 400 17 70 13:52 31.01.2021
3084 Snow -16 1019 85 400 17 70 13:52 31.01.2021
3085 Snow -16 1019 85 400 17 70 13:34 31.01.2021
3086 Snow -16 1019 78 350 17 70 12:48 31.01.2021
3087 Snow -16 1019 78 350 17 70 12:22 31.01.2021
3088 Snow -16 1019 78 50 17 90 11:44 31.01.2021
3089 Snow -16 1019 78 50 17 90 11:24 31.01.2021
3090 Snow -17 1019 78 100 13 80 10:54 31.01.2021
3091 Snow -17 1019 78 100 13 80 10:34 31.01.2021
3092 Snow -19 1022 78 400 9 10 09:50 31.01.2021
3093 Snow -19 1022 78 400 9 10 09:23 31.01.2021
3094 Snow -20 1022 84 450 9 10 08:33 31.01.2021
3095 Snow -18 1023 78 1000 13 60 06:56 31.01.2021
3096 Snow -18 1023 78 350 13 70 05:35 31.01.2021
3097 Snow -21 1025 71 1200 13 80 00:47 31.01.2021
3098 Snow -21 1025 71 1200 13 80 00:22 31.01.2021
3099 Snow -21 1026 65 1900 11 80 23:33 30.01.2021
3100 Snow -21 1026 59 7000 11 80 22:56 30.01.2021
3101 Snow -21 1026 59 7000 11 80 22:30 30.01.2021
3102 Snow -21 1026 65 10000 7 40 21:40 30.01.2021
3103 Snow -21 1026 65 10000 7 40 21:21 30.01.2021
3104 Snow -21 1026 65 10000 7 50 20:47 30.01.2021
3105 Snow -21 1026 65 10000 7 50 20:28 30.01.2021
3106 Snow -21 1027 65 5000 11 80 19:46 30.01.2021
3107 Snow -21 1027 65 5000 11 80 19:26 30.01.2021
3108 Snow -21 1028 59 10000 9 70 18:42 30.01.2021
3109 Snow -21 1028 59 10000 9 70 18:22 30.01.2021
3110 Clear -22 1028 59 10000 4 60 17:59 30.01.2021
3111 Clear -22 1028 59 10000 4 60 17:20 30.01.2021
3112 Clouds -23 1028 64 10000 2 40 16:47 30.01.2021
3113 Clouds -23 1028 64 10000 2 40 16:25 30.01.2021
3114 Clouds -21 1028 59 10000 5 30 15:59 30.01.2021
3115 Clouds -21 1028 59 10000 5 30 15:40 30.01.2021
3116 Clouds -21 1028 59 10000 5 30 15:20 30.01.2021
3117 Snow -20 1029 59 10000 9 80 14:50 30.01.2021
3118 Snow -20 1029 59 10000 9 80 14:22 30.01.2021
3119 Snow -20 1029 59 10000 9 80 13:33 30.01.2021
3120 Snow -20 1028 71 10000 7 80 12:49 30.01.2021
3121 Snow -20 1028 71 10000 7 80 12:30 30.01.2021
3122 Snow -20 1028 71 10000 7 80 12:30 30.01.2021
3123 Snow -20 1029 65 10000 4 80 11:59 30.01.2021
3124 Snow -20 1029 65 10000 4 80 11:31 30.01.2021
3125 Snow -21 1028 65 10000 4 80 10:49 30.01.2021
3126 Clear -27 1028 69 10000 2 20 09:52 30.01.2021
3127 Clear -28 1027 69 10000 4 360 09:31 30.01.2021
3128 Clear -29 1027 63 10000 3 20 08:47 30.01.2021
3129 Clear -26 1028 70 10000 1.5 325 08:25 30.01.2021
3130 Clear -23 1028 70 10000 1 0 06:58 30.01.2021
3131 Clear -28 1027 76 10000 3 50 06:19 30.01.2021
3132 Clear -29 1027 76 10000 4 10 03:35 30.01.2021
3133 Clear -30 1027 76 10000 4 330 02:25 30.01.2021
3134 Clear -29 1027 76 10000 2 350 01:31 30.01.2021
3135 Clear -30 1027 76 10000 3 360 00:44 30.01.2021
3136 Clear -30 1027 76 10000 3 360 00:20 30.01.2021
3137 Clear -33 1026 75 10000 2 50 23:46 29.01.2021
3138 Clear -33 1026 75 10000 2 50 23:22 29.01.2021
3139 Clear -29 1026 76 10000 2.72 348 22:44 29.01.2021
3140 Clear -29 1026 76 10000 2.9 354 22:20 29.01.2021
3141 Clear -29 1025 76 10000 4 320 21:29 29.01.2021
3142 Clear -29 1025 76 10000 4 320 21:29 29.01.2021
3143 Clear -29 1024 76 10000 3 340 20:59 29.01.2021
3144 Clear -29 1024 76 10000 3 340 20:40 29.01.2021
3145 Clear -29 1024 76 10000 3 340 20:18 29.01.2021
3146 Clear -29 1024 83 10000 4 10 19:38 29.01.2021
3147 Clear -29 1024 83 10000 4 10 19:18 29.01.2021
3148 Clear -28 1024 83 10000 1 310 18:30 29.01.2021
3149 Clear -26 1024 84 10000 3.82 340 17:40 29.01.2021
3150 Clear -26 1024 84 10000 3.69 345 17:22 29.01.2021
3151 Clear -27 1023 76 10000 1 20 16:46 29.01.2021
3152 Clear -27 1023 76 10000 1 20 16:24 29.01.2021
3153 Clear -25 1023 77 10000 1 0 15:51 29.01.2021
3154 Clear -25 1023 77 10000 1 0 15:31 29.01.2021
3155 Clear -25 1022 77 10000 1 100 14:47 29.01.2021
3156 Clear -25 1022 77 10000 1 100 14:18 29.01.2021
3157 Clear -26 1021 76 10000 1 10 13:41 29.01.2021
3158 Clear -26 1021 76 10000 1 10 13:22 29.01.2021
3159 Clear -24 1021 77 10000 2 360 12:28 29.01.2021
3160 Clear -24 1020 77 10000 2 60 11:50 29.01.2021
3161 Clear -26 1020 76 10000 3 360 11:20 29.01.2021
3162 Clouds -25 1019 77 10000 4 350 10:52 29.01.2021
3163 Clouds -24 1018 77 10000 3 350 10:33 29.01.2021
3164 Clouds -23 1018 77 10000 3 30 09:49 29.01.2021
3165 Clouds -23 1018 77 10000 3 30 09:28 29.01.2021
3166 Clear -22 1017 77 10000 4 350 08:46 29.01.2021
3167 Clear -21 1017 77 10000 3 350 08:22 29.01.2021
3168 Clear -18 1016 78 10000 1 0 07:42 29.01.2021
3169 Clear -18 1016 78 10000 1 0 07:22 29.01.2021
3170 Snow -19 1014 78 7000 6 360 05:38 29.01.2021
3171 Snow -18 1013 71 10000 5 350 03:50 29.01.2021
3172 Snow -17 1011 66 10000 5 10 00:45 29.01.2021
3173 Snow -17 1011 71 8000 9 30 00:22 29.01.2021
3174 Snow -17 1011 71 8000 9 30 00:22 29.01.2021
3175 Snow -16 1011 72 8000 9 40 23:45 28.01.2021
3176 Snow -16 1010 72 2200 9 30 23:26 28.01.2021
3177 Snow -15 1010 78 1800 5 20 22:50 28.01.2021
3178 Snow -15 1009 78 4800 7 30 22:28 28.01.2021
3179 Snow -16 1009 78 450 6 350 21:59 28.01.2021
3180 Snow -16 1009 85 1300 6 20 21:40 28.01.2021
3181 Snow -16 1009 85 1300 6 20 21:20 28.01.2021
3182 Snow -15 1008 78 1400 5 20 20:40 28.01.2021
3183 Snow -15 1008 78 1400 5 20 20:19 28.01.2021
3184 Snow -15 1007 85 2600 4 20 19:47 28.01.2021
3185 Snow -15 1007 85 2600 4 20 19:24 28.01.2021
3186 Snow -15 1007 78 5000 4 330 18:48 28.01.2021
3187 Snow -15 1007 78 5000 4 330 18:28 28.01.2021
3188 Snow -15 1007 78 5000 3 300 17:47 28.01.2021
3189 Snow -15 1007 78 5000 3 300 17:29 28.01.2021
3190 Snow -14 1007 72 10000 2 360 16:46 28.01.2021
3191 Snow -14 1007 72 10000 2 360 16:25 28.01.2021
3192 Snow -14 1006 78 3100 6 20 15:56 28.01.2021
3193 Snow -14 1006 78 3100 6 20 15:24 28.01.2021
3194 Snow -14 1006 78 4300 3 360 14:44 28.01.2021
3195 Snow -14 1006 78 4300 3 360 14:44 28.01.2021
3196 Snow -14 1006 78 4300 3 360 14:23 28.01.2021
3197 Snow -15 1006 78 800 6 360 13:54 28.01.2021
3198 Snow -15 1006 78 800 6 360 13:23 28.01.2021
3199 Snow -13 1006 72 10000 2 50 12:48 28.01.2021
3200 Snow -13 1006 72 10000 2 50 12:23 28.01.2021
3201 Snow -14 1007 78 5000 7 40 11:44 28.01.2021
3202 Snow -14 1007 78 5000 7 40 11:22 28.01.2021
3203 Snow -12 1006 67 9000 7 20 10:57 28.01.2021
3204 Snow -12 1006 67 9000 7 20 10:39 28.01.2021
3205 Snow -12 1006 67 9000 7 20 10:20 28.01.2021
3206 Snow -15 1006 78 500 11 350 09:36 28.01.2021
3207 Snow -15 1006 78 500 11 350 09:18 28.01.2021
3208 Snow -12 1005 79 2200 7 10 08:40 28.01.2021
3209 Snow -14 1005 85 2000 10 30 07:49 28.01.2021
3210 Snow -14 1005 85 2000 10 30 07:18 28.01.2021
3211 Snow -14 1006 78 1100 8 20 06:44 28.01.2021
3212 Snow -11 1004 85 800 9 50 04:30 28.01.2021
3213 Snow -11 1004 85 1100 10 50 02:33 28.01.2021
3214 Snow -11 1005 85 150 12 40 00:29 28.01.2021
3215 Snow -11 1005 79 1100 14 50 23:25 27.01.2021
3216 Snow -11 1005 85 800 14 50 22:44 27.01.2021
3217 Snow -11 1006 79 550 14 60 22:26 27.01.2021
3218 Snow -11 1006 79 550 14 60 22:26 27.01.2021
3219 Snow -11 1006 85 1000 13 60 21:59 27.01.2021
3220 Snow -11 1006 85 350 18 70 21:40 27.01.2021
3221 Snow -11 1006 85 350 18 70 21:40 27.01.2021
3222 Snow -11 1006 85 350 18 70 21:22 27.01.2021
3223 Snow -12 1006 85 250 20 80 20:41 27.01.2021
3224 Snow -12 1006 85 250 20 80 19:58 27.01.2021
3225 Snow -12 1006 85 250 20 80 19:39 27.01.2021
3226 Snow -12 1006 85 250 20 80 19:20 27.01.2021
3227 Snow -12 1006 85 250 20 80 19:20 27.01.2021
3228 Snow -12 1008 85 500 17 70 18:43 27.01.2021
3229 Snow -12 1008 85 500 17 70 18:23 27.01.2021
3230 Snow -11 1009 79 450 18 70 17:46 27.01.2021
3231 Snow -11 1009 79 450 18 70 17:26 27.01.2021
3232 Snow -11 1010 85 250 15 70 16:48 27.01.2021
3233 Snow -11 1010 85 250 15 70 16:28 27.01.2021
3234 Snow -10 1011 85 550 13 70 15:51 27.01.2021
3235 Snow -10 1011 85 550 13 70 15:32 27.01.2021
3236 Snow -10 1012 85 750 14 70 14:45 27.01.2021
3237 Snow -10 1012 85 750 14 70 14:22 27.01.2021
3238 Snow -11 1013 85 700 15 70 13:48 27.01.2021
3239 Snow -11 1013 85 700 15 70 13:19 27.01.2021
3240 Snow -10 1014 79 900 16 70 12:40 27.01.2021
3241 Snow -10 1014 79 900 16 70 12:21 27.01.2021
3242 Snow -11 1015 85 700 14 80 11:44 27.01.2021
3243 Snow -11 1015 85 700 14 80 11:22 27.01.2021
3244 Snow -11 1015 85 700 14 80 11:22 27.01.2021
3245 Snow -14 1018 85 1700 12 350 10:40 27.01.2021
3246 Snow -14 1018 85 1700 12 350 10:21 27.01.2021
3247 Snow -15 1020 78 8000 7 10 09:49 27.01.2021
3248 Clouds -13 1021 72 10000 4 350 08:59 27.01.2021
3249 Clouds -13 1021 72 10000 4 350 08:32 27.01.2021
3250 Snow -14 1021 78 5000 10 80 07:43 27.01.2021
3251 Snow -14 1021 78 5000 10 80 07:19 27.01.2021
3252 Snow -16 1023 78 9000 5 360 06:19 27.01.2021
3253 Snow -15 1024 72 10000 3 50 05:44 27.01.2021
3254 Snow -15 1026 72 10000 7 70 03:37 27.01.2021
3255 Clouds -18 1028 71 10000 1 0 02:23 27.01.2021
3256 Snow -17 1029 71 10000 6 70 01:51 27.01.2021
3257 Clouds -22 1030 84 10000 3 30 00:43 27.01.2021
3258 Clear -24 1029 77 10000 4 20 23:50 26.01.2021
3259 Clear -22 1030 77 10000 5 20 23:32 26.01.2021
3260 Clear -24 1030 77 10000 3 30 22:51 26.01.2021
3261 Clear -21 1030 84 10000 1 0 22:33 26.01.2021
3262 Clear -26 1031 76 10000 3 40 21:55 26.01.2021
3263 Clear -23 1031 77 10000 2 240 21:35 26.01.2021
3264 Clear -21 1031 77 10000 2 150 20:59 26.01.2021
3265 Clear -21 1031 77 10000 2 150 20:40 26.01.2021
3266 Clear -21 1031 77 10000 2 150 20:21 26.01.2021
3267 Clear -21 1031 84 10000 1 0 19:46 26.01.2021
3268 Clear -21 1031 84 10000 1 0 19:24 26.01.2021
3269 Clouds -22 1031 77 10000 1 0 18:49 26.01.2021
3270 Clouds -22 1031 77 10000 1 0 18:28 26.01.2021
3271 Clouds -21 1031 84 10000 1 0 17:55 26.01.2021
3272 Clouds -21 1031 84 10000 1 0 17:37 26.01.2021
3273 Clouds -21 1032 84 10000 1 0 16:56 26.01.2021
3274 Clouds -21 1032 84 10000 1 0 16:37 26.01.2021
3275 Clouds -21 1032 84 10000 1 0 16:19 26.01.2021
3276 Clear -21 1031 77 10000 2 250 15:46 26.01.2021
3277 Clear -21 1031 77 10000 2 250 15:24 26.01.2021
3278 Clear -20 1030 77 10000 2 80 14:46 26.01.2021
3279 Clear -20 1030 77 10000 2 80 14:28 26.01.2021
3280 Clouds -21 1030 84 10000 4 350 13:37 26.01.2021
3281 Clouds -21 1030 84 10000 4 350 13:18 26.01.2021
3282 Clouds -21 1030 84 10000 4 350 13:18 26.01.2021
3283 Snow -19 1030 78 10000 6 10 12:42 26.01.2021
3284 Snow -19 1030 78 10000 6 10 12:22 26.01.2021
3285 Snow -19 1029 78 10000 5 350 11:51 26.01.2021
3286 Snow -19 1029 78 10000 5 350 11:30 26.01.2021
3287 Snow -19 1029 84 7000 5 360 10:44 26.01.2021
3288 Snow -19 1029 84 7000 5 360 10:25 26.01.2021
3289 Snow -19 1028 78 10000 5 350 09:40 26.01.2021
3290 Snow -19 1028 78 10000 5 350 09:22 26.01.2021
3291 Snow -19 1028 78 5000 4 350 08:50 26.01.2021
3292 Snow -19 1028 78 5000 4 350 08:21 26.01.2021
3293 Snow -19 1027 78 7000 5 360 07:27 26.01.2021
3294 Snow -19 1026 84 6000 5 10 05:58 26.01.2021
3295 Snow -19 1026 84 10000 6 20 05:40 26.01.2021
3296 Snow -19 1025 78 7000 2 10 03:51 26.01.2021
3297 Snow -24 1024 84 10000 4 330 02:19 26.01.2021
3298 Clouds -25 1023 84 10000 3 340 00:49 26.01.2021
3299 Clouds -25 1023 77 10000 5 350 23:36 25.01.2021
3300 Clouds -26 1023 76 10000 2 310 22:56 25.01.2021
3301 Fog -26 1022 76 10000 4 10 22:35 25.01.2021
3302 Mist -26 1022 76 5000 5 330 21:49 25.01.2021
3303 Clouds -26 1022 76 10000 3 360 21:26 25.01.2021
3304 Clear -31 1021 76 10000 4 360 20:51 25.01.2021
3305 Clear -31 1021 76 10000 4 360 20:33 25.01.2021
3306 Clear -28 1022 76 10000 1 0 19:51 25.01.2021
3307 Clear -28 1022 76 10000 1 0 19:31 25.01.2021
3308 Clear -25 1021 77 10000 4 340 18:48 25.01.2021
3309 Clear -25 1021 77 10000 4 340 18:28 25.01.2021
3310 Clear -27 1021 76 10000 3 40 17:58 25.01.2021
3311 Clear -27 1021 76 10000 3 40 17:39 25.01.2021
3312 Clear -27 1021 76 10000 3 40 17:20 25.01.2021
3313 Clear -26 1021 76 10000 3 360 16:41 25.01.2021
3314 Clear -26 1021 76 10000 3 360 16:21 25.01.2021
3315 Clear -23 1020 77 10000 5 300 15:48 25.01.2021
3316 Clear -23 1020 77 10000 5 300 15:29 25.01.2021
3317 Clear -25 1020 84 10000 3 330 14:46 25.01.2021
3318 Clear -25 1020 84 10000 3 330 14:19 25.01.2021
3319 Clear -21 1020 77 10000 4 320 13:52 25.01.2021
3320 Clear -21 1020 77 10000 4 320 13:28 25.01.2021
3321 Clear -21 1020 77 10000 2 200 12:46 25.01.2021
3322 Clear -21 1020 77 10000 2 200 12:20 25.01.2021
3323 Clear -21 1020 84 10000 2 190 11:48 25.01.2021
3324 Clear -21 1020 84 10000 2 190 11:19 25.01.2021
3325 Clear -21 1020 84 10000 2 30 10:41 25.01.2021
3326 Clear -21 1020 84 10000 2 30 10:19 25.01.2021
3327 Clear -22 1020 77 10000 2 30 09:45 25.01.2021
3328 Clear -22 1020 77 10000 2 30 09:27 25.01.2021
3329 Clear -24 1020 77 10000 3 360 08:29 25.01.2021
3330 Clear -24 1020 77 10000 3 350 07:32 25.01.2021
3331 Clear -25 1020 77 10000 4 350 06:55 25.01.2021
3332 Clear -25 1020 77 10000 5 350 04:58 25.01.2021
3333 Clear -26 1022 76 10000 3 340 01:33 25.01.2021
3334 Clear -27 1022 76 10000 2 20 23:51 24.01.2021
3335 Clear -28 1022 76 10000 2 20 23:19 24.01.2021
3336 Clear -29 1022 76 10000 1 360 22:43 24.01.2021
3337 Clear -28 1022 76 10000 1 0 22:21 24.01.2021
3338 Clear -27 1022 76 10000 3 350 21:49 24.01.2021
3339 Clear -23 1022 84 10000 3 350 21:24 24.01.2021
3340 Clear -23 1022 84 10000 3 350 21:24 24.01.2021
3341 Clear -27 1022 76 10000 3 10 20:46 24.01.2021
3342 Clear -27 1022 76 10000 3 10 20:22 24.01.2021
3343 Clear -28 1022 76 10000 3 350 19:53 24.01.2021
3344 Clear -28 1022 76 10000 3 350 19:28 24.01.2021
3345 Clear -27 1022 76 10000 2 350 18:59 24.01.2021
3346 Clear -27 1022 76 10000 2 350 18:40 24.01.2021
3347 Clear -27 1022 76 10000 2 350 18:21 24.01.2021
3348 Clear -26 1022 76 10000 2 10 17:51 24.01.2021
3349 Clear -26 1022 76 10000 2 10 17:30 24.01.2021
3350 Clear -26 1022 76 10000 3 10 16:59 24.01.2021
3351 Clear -26 1022 76 10000 3 10 16:39 24.01.2021
3352 Clear -26 1022 76 10000 3 10 16:19 24.01.2021
3353 Clear -27 1022 76 10000 2 10 15:44 24.01.2021
3354 Clear -27 1022 76 10000 2 10 15:19 24.01.2021
3355 Clear -27 1022 76 10000 3 20 14:45 24.01.2021
3356 Clear -26 1021 76 10000 3 360 13:52 24.01.2021
3357 Clear -26 1021 76 10000 3 360 13:34 24.01.2021
3358 Clear -27 1021 76 10000 4 350 12:51 24.01.2021
3359 Clear -27 1021 76 10000 4 350 12:22 24.01.2021
3360 Clear -26 1021 76 10000 3 350 11:54 24.01.2021
3361 Clear -26 1021 76 10000 3 350 11:25 24.01.2021
3362 Clear -25 1020 77 10000 2 340 10:54 24.01.2021
3363 Clear -25 1020 77 10000 2 340 10:30 24.01.2021
3364 Clear -24 1020 77 10000 1 0 09:46 24.01.2021
3365 Clear -24 1020 77 10000 1 0 09:19 24.01.2021
3366 Clear -26 1020 76 10000 1 0 08:31 24.01.2021
3367 Clear -29 1018 69 10000 4 340 03:50 24.01.2021
3368 Clear -28 1017 69 10000 3 360 02:19 24.01.2021
3369 Clear -28 1017 69 10000 4 350 00:39 24.01.2021
3370 Clear -28 1017 69 10000 4 350 00:19 24.01.2021
3371 Clear -28 1017 76 10000 4 10 23:34 23.01.2021
3372 Clear -27 1016 69 10000 5 360 22:59 23.01.2021
3373 Clear -27 1016 69 10000 5 360 22:40 23.01.2021
3374 Clear -26 1015 76 10000 5 350 21:59 23.01.2021
3375 Clear -26 1015 76 10000 5 350 21:23 23.01.2021
3376 Clear -25 1015 77 10000 6 10 20:55 23.01.2021
3377 Clear -25 1015 77 10000 6 10 20:37 23.01.2021
3378 Clear -25 1015 77 10000 6 10 20:19 23.01.2021
3379 Clear -28 1015 76 10000 6 20 19:43 23.01.2021
3380 Clear -28 1015 76 10000 6 20 19:20 23.01.2021
3381 Clear -28 1014 76 10000 5 20 18:42 23.01.2021
3382 Clear -28 1014 76 10000 5 20 18:21 23.01.2021
3383 Clear -26 1014 76 10000 4 20 17:36 23.01.2021
3384 Clear -26 1014 76 10000 4 20 17:18 23.01.2021
3385 Clear -27 1013 76 10000 5 20 16:42 23.01.2021
3386 Clear -24 1013 77 10000 4 360 15:56 23.01.2021
3387 Clear -24 1013 77 10000 4 360 15:29 23.01.2021
3388 Clear -24 1012 77 10000 5 10 14:45 23.01.2021
3389 Clear -24 1012 77 10000 5 10 14:24 23.01.2021
3390 Clear -29 1012 76 10000 4 30 13:49 23.01.2021
3391 Clear -29 1012 76 10000 4 30 13:24 23.01.2021
3392 Clear -26 1011 76 10000 3 360 12:45 23.01.2021
3393 Clear -26 1011 76 10000 3 360 12:25 23.01.2021
3394 Clear -28 1011 76 10000 3 10 11:42 23.01.2021
3395 Clear -23 1010 77 10000 3 340 10:59 23.01.2021
3396 Clear -23 1010 77 10000 3 340 10:26 23.01.2021
3397 Clear -24 1010 84 10000 3 360 09:53 23.01.2021
3398 Clear -24 1010 84 10000 3 360 09:28 23.01.2021
3399 Clear -22 1009 84 10000 3 10 08:44 23.01.2021
3400 Clear -23 1009 77 10000 3 360 07:49 23.01.2021
3401 Clear -27 1009 76 10000 3 50 06:55 23.01.2021
3402 Snow -22 1007 71 10000 5 360 03:24 23.01.2021
3403 Clouds -21 1006 77 10000 4 350 00:34 23.01.2021
3404 Clouds -23 1006 77 10000 3 10 23:36 22.01.2021
3405 Clouds -22 1006 77 10000 3 30 22:45 22.01.2021
3406 Clouds -22 1006 77 10000 3 30 22:21 22.01.2021
3407 Snow -21 1005 84 10000 4 20 21:45 22.01.2021
3408 Snow -21 1005 84 10000 4 20 21:24 22.01.2021
3409 Snow -20 1005 77 9000 4 10 20:51 22.01.2021
3410 Snow -20 1005 77 9000 4 10 20:30 22.01.2021
3411 Snow -20 1004 84 10000 4 20 19:48 22.01.2021
3412 Snow -20 1004 84 10000 4 20 19:20 22.01.2021
3413 Snow -19 1003 78 5000 4 30 18:47 22.01.2021
3414 Snow -19 1003 78 5000 4 30 18:26 22.01.2021
3415 Snow -20 1003 77 10000 3 290 17:50 22.01.2021
3416 Snow -20 1003 77 10000 3 290 17:32 22.01.2021
3417 Snow -19 1003 84 10000 1 290 16:54 22.01.2021
3418 Snow -19 1003 84 10000 1 290 16:30 22.01.2021
3419 Snow -18 1002 85 10000 1 220 15:48 22.01.2021
3420 Snow -18 1002 85 10000 1 220 15:25 22.01.2021
3421 Snow -16 1002 78 10000 2 140 14:37 22.01.2021
3422 Snow -16 1002 78 10000 2 140 14:18 22.01.2021
3423 Snow -16 1002 78 10000 2 150 13:36 22.01.2021
3424 Snow -16 1001 78 10000 2 130 12:59 22.01.2021
3425 Snow -16 1001 78 10000 2 130 12:28 22.01.2021
3426 Snow -16 1001 85 10000 2 140 11:51 22.01.2021
3427 Snow -16 1001 85 10000 2 140 11:32 22.01.2021
3428 Snow -16 1000 85 10000 2 180 10:48 22.01.2021
3429 Snow -16 1000 85 10000 2 180 10:48 22.01.2021
3430 Snow -16 1000 85 10000 2 180 10:24 22.01.2021
3431 Snow -16 1000 85 10000 2 150 09:44 22.01.2021
3432 Snow -16 999 78 7000 2 180 08:57 22.01.2021
3433 Snow -16 999 78 7000 2 180 08:32 22.01.2021
3434 Snow -16 999 78 10000 3 150 07:48 22.01.2021
3435 Snow -16 998 85 4800 4 160 05:22 22.01.2021
3436 Snow -16 997 78 2800 3 10 01:54 22.01.2021
3437 Snow -17 997 85 1200 4 360 00:30 22.01.2021
3438 Snow -17 997 85 1900 4 360 23:49 21.01.2021
3439 Snow -17 997 85 2600 5 350 23:20 21.01.2021
3440 Snow -17 997 85 4900 6 350 22:48 21.01.2021
3441 Snow -17 998 85 1100 4 350 21:59 21.01.2021
3442 Snow -17 997 85 1200 8 10 21:39 21.01.2021
3443 Snow -17 997 85 1200 8 10 21:18 21.01.2021
3444 Snow -17 997 85 2200 9 10 20:44 21.01.2021
3445 Snow -17 997 85 2200 9 10 20:21 21.01.2021
3446 Snow -17 998 85 1900 7 340 19:49 21.01.2021
3447 Snow -17 998 85 1900 7 340 19:26 21.01.2021
3448 Snow -17 998 78 2600 8 350 18:47 21.01.2021
3449 Snow -17 998 78 2600 8 350 18:22 21.01.2021
3450 Snow -17 999 78 1600 7 340 17:57 21.01.2021
3451 Snow -17 999 78 1600 7 340 17:22 21.01.2021
3452 Snow -17 1000 78 800 8 350 16:59 21.01.2021
3453 Snow -17 1000 78 800 8 350 16:40 21.01.2021
3454 Snow -17 1000 78 800 8 350 16:22 21.01.2021
3455 Snow -18 1001 85 700 9 350 15:47 21.01.2021
3456 Snow -18 1001 85 700 9 350 15:26 21.01.2021
3457 Snow -16 1002 85 300 9 360 14:46 21.01.2021
3458 Snow -16 1002 85 300 9 360 14:24 21.01.2021
3459 Snow -16 1002 78 200 18 40 13:43 21.01.2021
3460 Snow -16 1002 78 200 18 40 13:43 21.01.2021
3461 Snow -16 1002 78 200 18 40 13:23 21.01.2021
3462 Snow -17 1003 78 650 13 40 12:44 21.01.2021
3463 Snow -17 1003 78 650 13 40 12:24 21.01.2021
3464 Snow -17 1004 78 2600 13 30 11:52 21.01.2021
3465 Snow -17 1004 78 2600 13 30 11:30 21.01.2021
3466 Snow -16 1005 72 1900 15 20 10:53 21.01.2021
3467 Snow -16 1005 72 1900 15 20 10:34 21.01.2021
3468 Snow -18 1006 71 9000 6.45 3 09:49 21.01.2021
3469 Snow -18 1006 71 9000 6.45 3 09:30 21.01.2021
3470 Clear -18 1007 71 10000 1 150 08:57 21.01.2021
3471 Clear -18 1007 71 10000 1 150 08:27 21.01.2021
3472 Clear -19 1008 78 10000 2 110 07:45 21.01.2021
3473 Snow -18 1007 78 10000 2 10 07:23 21.01.2021
3474 Clear -19 1008 71 10000 3 40 05:50 21.01.2021
3475 Clear -19 1010 78 10000 2 130 04:28 21.01.2021
3476 Clear -18 1012 78 10000 1 130 01:33 21.01.2021
3477 Clear -18 1013 78 10000 1 0 00:40 21.01.2021
3478 Clouds -18 1013 85 10000 1 0 23:43 20.01.2021
3479 Snow -18 1013 78 10000 3 360 23:22 20.01.2021
3480 Snow -18 1013 85 8000 4 340 22:49 20.01.2021
3481 Snow -17 1013 85 5000 3 10 22:28 20.01.2021
3482 Snow -17 1013 85 5000 1 0 21:49 20.01.2021
3483 Snow -17 1013 85 6000 1 0 21:22 20.01.2021
3484 Snow -17 1013 85 8000 3 310 20:50 20.01.2021
3485 Snow -17 1013 85 8000 3 310 20:21 20.01.2021
3486 Snow -13 1012 66 10000 3 40 19:47 20.01.2021
3487 Snow -13 1012 66 10000 3 40 19:28 20.01.2021
3488 Snow -13 1012 72 10000 6 360 18:43 20.01.2021
3489 Snow -13 1012 72 10000 6 360 18:20 20.01.2021
3490 Snow -13 1011 78 10000 5 360 17:44 20.01.2021
3491 Snow -13 1011 78 10000 5 360 17:26 20.01.2021
3492 Snow -13 1012 78 3600 6 10 16:47 20.01.2021
3493 Mist -13 1012 78 3600 6 10 16:20 20.01.2021
3494 Snow -13 1011 85 1200 8 80 15:38 20.01.2021
3495 Snow -14 1011 85 1400 8 70 14:58 20.01.2021
3496 Snow -14 1011 85 1400 8 70 14:39 20.01.2021
3497 Snow -14 1011 85 1400 8 70 14:19 20.01.2021
3498 Mist -17 1012 85 3200 3 40 13:37 20.01.2021
3499 Snow -20 1012 77 3700 3 30 12:56 20.01.2021
3500 Snow -20 1012 77 3700 3 30 12:22 20.01.2021
3501 Snow -23 1013 84 8000 3 340 11:41 20.01.2021
3502 Snow -23 1013 84 8000 3 340 11:20 20.01.2021
3503 Snow -24 1013 77 8000 3 340 10:46 20.01.2021
3504 Snow -24 1013 77 8000 3 340 10:25 20.01.2021
3505 Snow -25 1013 77 8000 4 360 09:38 20.01.2021
3506 Snow -25 1013 77 8000 4 360 09:19 20.01.2021
3507 Snow -29 1013 76 3400 4 360 08:43 20.01.2021
3508 Mist -29 1013 76 3400 4 360 08:22 20.01.2021
3509 Snow -29 1013 76 2200 4 360 07:48 20.01.2021
3510 Snow -29 1013 76 2200 4 360 07:18 20.01.2021
3511 Snow -31 1012 76 6000 5 350 04:33 20.01.2021
3512 Fog -33 1012 68 10000 3 350 02:34 20.01.2021
3513 Mist -33 1011 68 4700 4 350 00:58 20.01.2021
3514 Clouds -35 1012 75 6000 2 340 23:54 19.01.2021
3515 Mist -35 1011 75 4700 3 330 23:35 19.01.2021
3516 Mist -34 1011 68 4900 4 340 22:58 19.01.2021
3517 Mist -35 1011 75 5000 4 340 22:40 19.01.2021
3518 Mist -35 1011 75 5000 4 340 22:21 19.01.2021
3519 Clouds -35 1011 68 8000 5 350 21:55 19.01.2021
3520 Clear -35 1010 68 10000 4 350 21:34 19.01.2021
3521 Clear -35 1010 68 10000 5 360 20:50 19.01.2021
3522 Clear -35 1010 68 10000 5 360 20:29 19.01.2021
3523 Clear -35 1010 68 10000 6 340 19:56 19.01.2021
3524 Clear -35 1010 68 10000 6 340 19:37 19.01.2021
3525 Clear -35 1010 68 10000 6 340 19:18 19.01.2021
3526 Clear -36 1009 75 10000 6 340 18:39 19.01.2021
3527 Clear -36 1009 75 10000 6 340 18:20 19.01.2021
3528 Clear -35 1009 68 10000 5 360 17:42 19.01.2021
3529 Clear -35 1009 68 10000 5 360 17:20 19.01.2021
3530 Clear -35 1009 68 10000 4 360 16:40 19.01.2021
3531 Clear -35 1009 68 10000 4 360 16:21 19.01.2021
3532 Clear -35 1009 68 10000 5 10 15:51 19.01.2021
3533 Clear -35 1009 68 10000 5 10 15:32 19.01.2021
3534 Clear -35 1009 75 10000 4 10 14:47 19.01.2021
3535 Clear -35 1009 75 10000 4 10 14:26 19.01.2021
3536 Clear -35 1009 68 10000 4 20 13:52 19.01.2021
3537 Clear -35 1009 68 10000 4 20 13:24 19.01.2021
3538 Clear -35 1009 75 10000 5 10 12:51 19.01.2021
3539 Clear -35 1009 75 10000 5 10 12:30 19.01.2021
3540 Clear -34 1009 68 10000 4 20 11:53 19.01.2021
3541 Clear -34 1009 68 10000 4 20 11:30 19.01.2021
3542 Clear -33 1009 68 10000 5 360 10:59 19.01.2021
3543 Clear -33 1009 68 10000 5 360 10:40 19.01.2021
3544 Clear -33 1009 68 10000 5 360 10:18 19.01.2021
3545 Clouds -33 1009 75 10000 4 10 09:46 19.01.2021
3546 Clouds -33 1009 75 10000 4 10 09:19 19.01.2021
3547 Clear -33 1009 75 10000 4 20 08:33 19.01.2021
3548 Clear -33 1009 75 10000 5 20 07:51 19.01.2021
3549 Clear -34 1009 75 10000 5 10 06:59 19.01.2021
3550 Clear -32 1009 75 10000 4 360 04:18 19.01.2021
3551 Clouds -30 1010 69 10000 4 320 02:22 19.01.2021
3552 Clear -31 1011 69 10000 4 340 00:34 19.01.2021
3553 Clear -31 1011 69 10000 5 360 23:48 18.01.2021
3554 Clear -31 1011 69 10000 4 350 23:25 18.01.2021
3555 Clear -31 1012 76 10000 4 340 22:43 18.01.2021
3556 Clouds -31 1012 69 10000 5 340 22:21 18.01.2021
3557 Clouds -31 1012 76 10000 5 340 21:47 18.01.2021
3558 Clouds -31 1012 76 10000 5 340 21:47 18.01.2021
3559 Clouds -31 1013 69 10000 5 340 21:22 18.01.2021
3560 Snow -30 1013 69 10000 6 350 20:55 18.01.2021
3561 Snow -30 1013 69 10000 6 350 20:33 18.01.2021
3562 Snow -30 1014 76 10000 3 350 19:54 18.01.2021
3563 Snow -30 1014 76 10000 3 350 19:34 18.01.2021
3564 Snow -31 1014 76 6000 4 340 18:48 18.01.2021
3565 Snow -31 1014 76 6000 4 340 18:26 18.01.2021
3566 Clouds -32 1014 75 7000 4 330 17:47 18.01.2021
3567 Clouds -32 1014 75 7000 4 330 17:29 18.01.2021
3568 Clouds -31 1015 69 10000 4 350 16:50 18.01.2021
3569 Clouds -31 1015 69 10000 4 350 16:27 18.01.2021
3570 Clear -32 1016 75 10000 4 330 15:54 18.01.2021
3571 Clear -32 1016 75 10000 4 330 15:29 18.01.2021
3572 Clear -32 1016 75 10000 5 360 14:58 18.01.2021
3573 Clear -32 1016 75 10000 5 360 14:38 18.01.2021
3574 Clear -32 1016 75 10000 5 360 14:20 18.01.2021
3575 Clear -33 1017 75 10000 4 350 13:44 18.01.2021
3576 Clear -33 1017 75 10000 4 350 13:20 18.01.2021
3577 Clouds -32 1018 68 10000 4 360 12:46 18.01.2021
3578 Clouds -32 1018 68 10000 4 360 12:19 18.01.2021
3579 Clouds -32 1018 75 10000 4 350 11:46 18.01.2021
3580 Clouds -32 1018 75 10000 4 350 11:25 18.01.2021
3581 Snow -32 1019 75 10000 3 10 10:47 18.01.2021
3582 Snow -32 1019 75 10000 3 10 10:26 18.01.2021
3583 Clear -30 1018 76 10000 3 20 09:39 18.01.2021
3584 Clear -30 1018 76 10000 3 20 09:18 18.01.2021
3585 Clouds -29 1018 76 10000 5 350 08:26 18.01.2021
3586 Clouds -28 1018 76 10000 3 360 07:54 18.01.2021
3587 Clear -28 1018 76 10000 5 360 06:35 18.01.2021
3588 Clear -29 1019 76 10000 4 360 04:43 18.01.2021
3589 Clear -28 1019 76 10000 3 10 04:25 18.01.2021
3590 Clear -28 1019 69 10000 5 360 03:50 18.01.2021
3591 Clear -27 1019 76 10000 3 20 03:27 18.01.2021
3592 Clear -27 1019 76 10000 2 350 02:57 18.01.2021
3593 Clear -27 1019 76 10000 3 330 02:19 18.01.2021
3594 Clear -28 1019 76 10000 2 360 00:41 18.01.2021
3595 Snow -28 1019 76 10000 5 330 23:52 17.01.2021
3596 Snow -28 1019 76 10000 4 360 23:27 17.01.2021
3597 Snow -27 1019 76 10000 4 340 22:55 17.01.2021
3598 Clear -26 1019 76 10000 4 10 22:23 17.01.2021
3599 Snow -27 1019 76 10000 3 360 21:44 17.01.2021
3600 Snow -27 1019 76 10000 2 340 21:26 17.01.2021
3601 Snow -25 1019 77 10000 4 330 20:54 17.01.2021
3602 Snow -25 1019 77 10000 4 330 20:36 17.01.2021
3603 Snow -25 1019 77 10000 4 330 20:18 17.01.2021
3604 Snow -24 1019 77 10000 3 340 19:40 17.01.2021
3605 Snow -24 1019 77 10000 3 330 18:54 17.01.2021
3606 Snow -24 1019 77 10000 3 330 18:29 17.01.2021
3607 Snow -22 1019 71 10000 5 340 17:51 17.01.2021
3608 Snow -22 1019 71 10000 5 340 17:29 17.01.2021
3609 Snow -21 1019 71 10000 4 340 16:45 17.01.2021
3610 Snow -21 1019 71 10000 4 340 16:45 17.01.2021
3611 Snow -21 1019 71 10000 4 340 16:25 17.01.2021
3612 Snow -21 1019 71 10000 6 350 15:54 17.01.2021
3613 Snow -21 1019 71 10000 6 350 15:27 17.01.2021
3614 Snow -20 1019 65 10000 6 340 14:59 17.01.2021
3615 Snow -20 1019 65 10000 6 340 14:39 17.01.2021
3616 Snow -20 1019 65 10000 6 340 14:21 17.01.2021
3617 Snow -20 1019 71 10000 7 360 13:43 17.01.2021
3618 Snow -20 1019 71 10000 7 360 13:24 17.01.2021
3619 Snow -21 1018 71 10000 6 360 12:45 17.01.2021
3620 Snow -21 1018 71 10000 6 360 12:25 17.01.2021
3621 Snow -21 1018 71 10000 4 340 11:26 17.01.2021
3622 Snow -21 1018 71 10000 2 360 10:54 17.01.2021
3623 Snow -21 1018 71 10000 2 360 10:36 17.01.2021
3624 Snow -21 1018 71 10000 2 360 10:18 17.01.2021
3625 Snow -22 1018 77 10000 3 330 08:59 17.01.2021
3626 Snow -22 1018 77 10000 3 330 08:41 17.01.2021
3627 Clear -23 1017 77 10000 1 0 04:36 17.01.2021
3628 Clear -23 1017 77 10000 3 20 03:44 17.01.2021
3629 Clear -22 1017 77 10000 2 360 01:29 17.01.2021
3630 Clear -21 1017 77 10000 1 0 00:21 17.01.2021
3631 Clouds -21 1017 77 10000 4 340 23:53 16.01.2021
3632 Clouds -21 1017 77 10000 4 340 23:25 16.01.2021
3633 Clouds -21 1016 77 10000 2 20 22:55 16.01.2021
3634 Clouds -21 1016 77 10000 2 20 22:21 16.01.2021
3635 Snow -21 1016 84 10000 2 10 21:46 16.01.2021
3636 Snow -21 1016 84 10000 2 10 21:23 16.01.2021
3637 Snow -20 1016 77 10000 2 20 20:49 16.01.2021
3638 Snow -20 1016 77 10000 2 20 20:27 16.01.2021
3639 Snow -19 1015 78 7000 2 340 19:49 16.01.2021
3640 Snow -19 1015 78 7000 2 340 19:30 16.01.2021
3641 Snow -19 1015 78 3700 1 340 18:47 16.01.2021
3642 Snow -19 1015 78 3700 1 340 18:27 16.01.2021
3643 Snow -19 1015 78 9000 2 10 17:58 16.01.2021
3644 Snow -19 1015 78 9000 2 10 17:39 16.01.2021
3645 Snow -19 1015 78 9000 2 10 17:20 16.01.2021
3646 Snow -19 1014 84 10000 4 350 16:41 16.01.2021
3647 Snow -19 1014 84 10000 4 350 16:18 16.01.2021
3648 Snow -19 1014 84 10000 3 20 15:41 16.01.2021
3649 Snow -21 1014 84 9000 3 340 14:34 16.01.2021
3650 Snow -20 1014 77 10000 3 330 13:54 16.01.2021
3651 Snow -20 1014 77 10000 3 330 13:32 16.01.2021
3652 Snow -19 1013 84 10000 5 10 12:49 16.01.2021
3653 Snow -20 1013 84 10000 5 10 12:31 16.01.2021
3654 Snow -21 1013 84 10000 1 0 11:59 16.01.2021
3655 Snow -21 1013 84 10000 1 0 11:39 16.01.2021
3656 Snow -21 1013 84 10000 1 0 11:18 16.01.2021
3657 Clouds -20 1013 77 10000 1 0 10:41 16.01.2021
3658 Snow -20 1012 84 10000 1 10 09:57 16.01.2021
3659 Snow -20 1012 84 10000 1 10 09:21 16.01.2021
3660 Snow -19 1012 84 10000 2 10 08:19 16.01.2021
3661 Snow -19 1011 84 10000 3.42 330 06:54 16.01.2021
3662 Snow -19 1010 84 10000 3 340 05:35 16.01.2021
3663 Snow -19 1009 78 10000 5 330 03:44 16.01.2021
3664 Snow -19 1009 78 10000 5 340 02:54 16.01.2021
3665 Clouds -21 1010 84 10000 5 350 00:48 16.01.2021
3666 Clouds -21 1010 84 10000 5 350 00:24 16.01.2021
3667 Clouds -21 1009 77 10000 5 360 23:39 15.01.2021
3668 Snow -21 1010 77 10000 4 350 22:42 15.01.2021
3669 Snow -21 1010 77 10000 4 350 22:22 15.01.2021
3670 Snow -21 1009 77 10000 4 340 21:44 15.01.2021
3671 Snow -22 1009 84 8000 4 360 20:50 15.01.2021
3672 Snow -22 1009 84 8000 4 360 20:24 15.01.2021
3673 Snow -22 1009 84 10000 4 350 19:58 15.01.2021
3674 Snow -22 1009 84 10000 4 350 19:39 15.01.2021
3675 Snow -22 1009 84 10000 4 350 19:21 15.01.2021
3676 Snow -22 1009 77 10000 4 350 18:42 15.01.2021
3677 Snow -22 1009 77 10000 4 350 18:18 15.01.2021
3678 Snow -23 1009 84 10000 3 350 17:42 15.01.2021
3679 Snow -23 1009 84 10000 3 350 17:21 15.01.2021
3680 Snow -23 1009 77 10000 4 350 16:46 15.01.2021
3681 Snow -23 1009 77 10000 4 350 16:24 15.01.2021
3682 Clouds -24 1009 77 10000 5 340 15:41 15.01.2021
3683 Clouds -24 1009 77 10000 5 340 15:21 15.01.2021
3684 Clouds -25 1009 84 10000 4 340 14:46 15.01.2021
3685 Clouds -25 1009 84 10000 4 340 14:27 15.01.2021
3686 Clouds -26 1009 76 10000 6 340 13:43 15.01.2021
3687 Clouds -26 1009 76 10000 6 340 13:22 15.01.2021
3688 Mist -26 1009 76 5000 4 340 12:57 15.01.2021
3689 Mist -26 1009 76 5000 4 340 12:32 15.01.2021
3690 Mist -27 1009 69 3500 4 360 11:50 15.01.2021
3691 Mist -27 1009 69 3500 4 360 11:32 15.01.2021
3692 Mist -28 1009 76 2400 3 350 10:57 15.01.2021
3693 Mist -28 1009 76 2400 3 350 10:39 15.01.2021
3694 Mist -28 1009 76 2400 3 350 10:39 15.01.2021
3695 Mist -28 1009 76 2400 3 350 10:19 15.01.2021
3696 Clouds -28 1009 76 10000 4 360 09:41 15.01.2021
3697 Clouds -28 1009 76 10000 4 360 09:20 15.01.2021
3698 Clouds -29 1009 76 10000 4 10 08:25 15.01.2021
3699 Clouds -28 1009 76 10000 3 10 07:41 15.01.2021
3700 Clouds -28 1009 76 10000 3 10 07:20 15.01.2021
3701 Clear -28 1009 76 10000 3 350 05:35 15.01.2021
3702 Clear -26 1009 76 10000 3 20 01:52 15.01.2021
3703 Snow -23 1010 77 10000 2 350 23:55 14.01.2021
3704 Snow -23 1009 77 10000 3 350 23:29 14.01.2021
3705 Snow -23 1009 77 10000 2 360 22:49 14.01.2021
3706 Snow -23 1009 77 10000 2 360 22:26 14.01.2021
3707 Snow -23 1009 77 10000 2 360 21:50 14.01.2021
3708 Snow -23 1009 77 10000 3 10 21:21 14.01.2021
3709 Snow -23 1009 77 10000 3 10 20:53 14.01.2021
3710 Snow -23 1009 77 10000 3 10 20:33 14.01.2021
3711 Snow -23 1009 77 10000 2 350 19:49 14.01.2021
3712 Snow -23 1009 77 10000 2 350 19:30 14.01.2021
3713 Snow -23 1009 77 10000 2 350 18:56 14.01.2021
3714 Snow -23 1009 77 10000 2 350 18:34 14.01.2021
3715 Snow -23 1008 77 10000 2 340 17:54 14.01.2021
3716 Snow -23 1008 77 10000 2 340 17:28 14.01.2021
3717 Snow -23 1008 77 10000 3 20 16:54 14.01.2021
3718 Snow -23 1008 77 10000 3 20 16:27 14.01.2021
3719 Snow -23 1008 77 10000 3 20 16:27 14.01.2021
3720 Snow -23 1008 77 10000 2 360 15:52 14.01.2021
3721 Snow -23 1008 77 10000 2 360 15:27 14.01.2021
3722 Snow -25 1008 77 10000 3 30 14:42 14.01.2021
3723 Snow -25 1008 77 10000 3 30 14:21 14.01.2021
3724 Snow -26 1008 76 10000 3 10 13:54 14.01.2021
3725 Snow -26 1008 76 10000 3 10 13:23 14.01.2021
3726 Snow -26 1007 84 10000 3 20 12:56 14.01.2021
3727 Snow -26 1007 84 10000 3 20 12:21 14.01.2021
3728 Snow -22 1007 77 4400 3 350 11:54 14.01.2021
3729 Snow -22 1007 77 4400 3 350 11:27 14.01.2021
3730 Snow -22 1007 84 5000 4 360 10:58 14.01.2021
3731 Snow -22 1007 84 5000 4 360 10:38 14.01.2021
3732 Snow -22 1007 84 5000 4 360 10:18 14.01.2021
3733 Snow -21 1006 77 4100 3 350 09:42 14.01.2021
3734 Snow -21 1006 77 4100 3 350 09:20 14.01.2021
3735 Snow -21 1006 77 7000 3 360 08:30 14.01.2021
3736 Snow -21 1006 77 8000 4 360 07:53 14.01.2021
3737 Snow -21 1005 77 8000 4 10 07:30 14.01.2021
3738 Snow -21 1005 77 2700 3 360 06:33 14.01.2021
3739 Snow -21 1005 77 2300 5 360 04:56 14.01.2021
3740 Mist -22 1005 84 2100 3 340 23:59 13.01.2021
3741 Snow -22 1005 77 3900 3 340 23:27 13.01.2021
3742 Snow -22 1005 77 4500 3 330 22:48 13.01.2021
3743 Snow -22 1005 84 4100 4 350 22:20 13.01.2021
3744 Mist -22 1005 77 5000 4 350 21:43 13.01.2021
3745 Snow -22 1005 77 5000 5 360 21:22 13.01.2021
3746 Snow -22 1004 77 6000 5 350 20:51 13.01.2021
3747 Snow -22 1004 77 6000 5 350 20:23 13.01.2021
3748 Snow -22 1004 77 5000 5 350 19:48 13.01.2021
3749 Snow -22 1004 77 5000 5 350 19:24 13.01.2021
3750 Snow -22 1004 77 7000 4 350 18:46 13.01.2021
3751 Snow -22 1004 77 7000 4 350 18:25 13.01.2021
3752 Snow -23 1005 84 8000 4 350 17:42 13.01.2021
3753 Snow -23 1005 84 8000 4 350 17:18 13.01.2021
3754 Snow -23 1005 77 6000 4 350 16:42 13.01.2021
3755 Snow -23 1005 77 6000 4 350 16:21 13.01.2021
3756 Snow -23 1005 77 10000 5 360 15:41 13.01.2021
3757 Snow -23 1005 77 10000 5 360 15:20 13.01.2021
3758 Snow -23 1005 77 5000 5 360 14:28 13.01.2021
3759 Snow -23 1005 77 2500 5 350 13:47 13.01.2021
3760 Snow -23 1005 77 2500 5 350 13:25 13.01.2021
3761 Mist -23 1005 77 3800 5 360 12:46 13.01.2021
3762 Snow -23 1005 77 3800 5 360 12:25 13.01.2021
3763 Snow -24 1005 77 10000 6 350 11:51 13.01.2021
3764 Snow -24 1005 77 10000 6 350 11:33 13.01.2021
3765 Snow -24 1005 77 10000 6 350 10:49 13.01.2021
3766 Snow -24 1005 77 10000 6 350 10:28 13.01.2021
3767 Snow -24 1005 77 10000 6 350 09:40 13.01.2021
3768 Snow -24 1005 77 7000 6 350 08:59 13.01.2021
3769 Snow -24 1005 77 7000 6 350 08:41 13.01.2021
3770 Snow -24 1005 77 7000 6 350 08:23 13.01.2021
3771 Clouds -25 1005 77 6000 6 350 07:29 13.01.2021
3772 Snow -25 1005 77 6000 5 350 05:55 13.01.2021
3773 Snow -25 1005 77 10000 4 360 04:19 13.01.2021
3774 Snow -26 1005 76 10000 4 360 03:43 13.01.2021
3775 Snow -26 1005 76 10000 4 360 03:22 13.01.2021
3776 Clear -28 1006 76 10000 2 10 00:51 13.01.2021
3777 Clouds -28 1006 76 10000 4 360 23:44 12.01.2021
3778 Clouds -28 1006 76 10000 4 360 22:59 12.01.2021
3779 Clouds -28 1006 76 10000 4 350 22:39 12.01.2021
3780 Clouds -28 1006 76 10000 4 350 22:19 12.01.2021
3781 Snow -28 1006 76 10000 4 360 21:44 12.01.2021
3782 Snow -28 1006 69 10000 3 10 21:25 12.01.2021
3783 Snow -29 1006 76 10000 5 350 20:47 12.01.2021
3784 Snow -29 1006 76 10000 5 350 20:27 12.01.2021
3785 Snow -29 1006 76 10000 5 340 19:44 12.01.2021
3786 Snow -29 1006 76 10000 5 330 18:59 12.01.2021
3787 Snow -29 1006 76 10000 5 330 18:41 12.01.2021
3788 Snow -29 1006 76 10000 5 330 18:21 12.01.2021
3789 Snow -29 1006 76 10000 4 350 17:34 12.01.2021
3790 Snow -29 1006 76 10000 5 360 16:56 12.01.2021
3791 Snow -29 1006 76 10000 5 360 16:38 12.01.2021
3792 Snow -29 1006 76 10000 5 360 16:18 12.01.2021
3793 Snow -29 1006 76 10000 5 360 16:18 12.01.2021
3794 Snow -29 1006 76 10000 5 360 15:29 12.01.2021
3795 Snow -29 1007 69 10000 5 350 14:58 12.01.2021
3796 Snow -29 1007 69 10000 5 350 14:39 12.01.2021
3797 Snow -29 1007 69 10000 5 350 14:19 12.01.2021
3798 Snow -30 1007 76 10000 6 340 13:46 12.01.2021
3799 Snow -30 1007 76 10000 5 340 12:39 12.01.2021
3800 Snow -30 1007 69 10000 5 350 11:55 12.01.2021
3801 Snow -30 1007 69 10000 5 350 11:36 12.01.2021
3802 Snow -31 1007 76 10000 5 340 10:45 12.01.2021
3803 Snow -31 1007 76 10000 5 340 10:20 12.01.2021
3804 Snow -31 1007 76 10000 5 340 10:20 12.01.2021
3805 Snow -30 1007 69 10000 5 330 09:55 12.01.2021
3806 Snow -30 1007 69 10000 5 330 09:24 12.01.2021
3807 Clear -31 1007 76 10000 5 340 08:42 12.01.2021
3808 Clear -31 1007 76 10000 5 340 08:21 12.01.2021
3809 Snow -31 1007 69 10000 4 360 07:34 12.01.2021
3810 Snow -32 1007 68 10000 6 350 06:22 12.01.2021
3811 Snow -32 1007 68 10000 6 350 05:30 12.01.2021
3812 Snow -34 1007 75 10000 6 330 03:26 12.01.2021
3813 Snow -32 1007 75 10000 8 350 02:18 12.01.2021
3814 Snow -32 1007 68 10000 6 350 01:26 12.01.2021
3815 Clear -34 1007 68 10000 2 320 23:46 11.01.2021
3816 Clear -35 1008 68 10000 5 330 23:23 11.01.2021
3817 Clear -35 1008 68 10000 6 340 22:52 11.01.2021
3818 Clear -35 1008 68 10000 7 350 22:33 11.01.2021
3819 Mist -35 1008 68 10000 7 350 21:57 11.01.2021
3820 Clear -35 1008 68 10000 5 350 21:37 11.01.2021
3821 Clear -35 1008 68 10000 5 350 21:18 11.01.2021
3822 Clear -35 1008 68 10000 4 340 20:40 11.01.2021
3823 Clear -35 1008 68 10000 4 340 20:22 11.01.2021
3824 Clear -34 1008 75 10000 4 340 19:53 11.01.2021
3825 Clear -34 1008 75 10000 4 340 19:24 11.01.2021
3826 Clear -35 1008 68 10000 3 320 18:45 11.01.2021
3827 Clear -35 1008 68 10000 3 320 18:25 11.01.2021
3828 Clear -36 1008 68 10000 3 350 17:44 11.01.2021
3829 Clear -36 1008 68 10000 3 350 17:25 11.01.2021
3830 Clear -36 1008 68 10000 4 340 16:55 11.01.2021
3831 Clear -36 1008 68 10000 4 340 16:35 11.01.2021
3832 Clear -36 1008 68 10000 5 330 15:59 11.01.2021
3833 Clear -36 1008 68 10000 5 330 15:39 11.01.2021
3834 Clear -36 1008 68 10000 5 330 15:19 11.01.2021
3835 Clear -35 1009 68 10000 6 340 14:39 11.01.2021
3836 Clear -35 1009 75 10000 3 360 13:49 11.01.2021
3837 Clear -35 1009 75 10000 3 360 13:25 11.01.2021
3838 Clear -35 1009 68 10000 4 350 12:46 11.01.2021
3839 Clear -35 1009 68 10000 4 350 12:27 11.01.2021
3840 Clear -35 1009 68 10000 5 340 11:53 11.01.2021
3841 Clear -35 1009 68 10000 5 340 11:26 11.01.2021
3842 Clear -35 1009 68 10000 4 360 10:42 11.01.2021
3843 Clear -35 1009 68 10000 4 360 10:24 11.01.2021
3844 Clear -35 1010 68 10000 4 340 09:39 11.01.2021
3845 Clear -35 1010 68 10000 4 340 09:20 11.01.2021
3846 Clear -35 1010 68 10000 3 350 08:44 11.01.2021
3847 Clear -35 1010 68 10000 3 350 08:18 11.01.2021
3848 Clear -35 1010 75 10000 4 350 07:26 11.01.2021
3849 Clear -35 1010 75 10000 4 350 06:58 11.01.2021
3850 Clear -34 1011 68 10000 5 360 03:27 11.01.2021
3851 Clear -35 1011 75 10000 6 350 01:29 11.01.2021
3852 Clear -35 1011 75 10000 6 350 01:29 11.01.2021
3853 Clear -35 1011 68 10000 5 350 23:59 10.01.2021
3854 Clear -35 1011 68 10000 5 360 23:30 10.01.2021
3855 Clear -35 1012 68 10000 2 10 22:48 10.01.2021
3856 Clear -35 1011 68 10000 3 10 22:24 10.01.2021
3857 Clear -35 1011 68 10000 4 360 21:45 10.01.2021
3858 Clear -35 1011 68 10000 4 350 21:20 10.01.2021
3859 Clear -35 1011 68 10000 2 330 20:53 10.01.2021
3860 Clear -35 1011 68 10000 2 330 20:33 10.01.2021
3861 Clear -35 1011 68 10000 3 360 19:43 10.01.2021
3862 Clear -35 1011 68 10000 3 360 19:25 10.01.2021
3863 Clear -36 1011 68 10000 4 360 18:49 10.01.2021
3864 Clear -36 1011 68 10000 4 360 18:21 10.01.2021
3865 Clear -36 1011 68 10000 5 350 17:41 10.01.2021
3866 Clear -36 1011 68 10000 5 350 17:20 10.01.2021
3867 Clear -36 1011 68 10000 3 360 16:32 10.01.2021
3868 Clear -36 1011 68 10000 3 360 16:32 10.01.2021
3869 Clear -35 1011 68 10000 3 20 15:56 10.01.2021
3870 Clear -35 1011 68 10000 3 20 15:25 10.01.2021
3871 Clear -35 1011 68 10000 3 360 14:50 10.01.2021
3872 Clear -35 1011 68 10000 3 360 14:31 10.01.2021
3873 Clear -35 1011 68 10000 4 350 13:55 10.01.2021
3874 Clear -35 1011 68 10000 4 350 13:36 10.01.2021
3875 Clear -35 1011 68 10000 4 350 13:18 10.01.2021
3876 Clear -35 1011 68 10000 3 10 12:43 10.01.2021
3877 Clear -35 1011 68 10000 3 10 12:18 10.01.2021
3878 Clear -35 1011 75 10000 3 340 11:22 10.01.2021
3879 Clear -34 1011 68 10000 4 350 10:58 10.01.2021
3880 Clear -34 1011 68 10000 4 350 10:31 10.01.2021
3881 Clear -35 1011 75 10000 3 10 09:59 10.01.2021
3882 Clear -35 1011 75 10000 3 10 09:27 10.01.2021
3883 Clear -35 1011 75 10000 5 360 08:21 10.01.2021
3884 Clear -35 1010 68 10000 4 350 07:29 10.01.2021
3885 Clear -35 1010 68 10000 4 350 06:19 10.01.2021
3886 Clear -35 1010 68 10000 4 360 05:36 10.01.2021
3887 Fog -34 1010 68 10000 5 360 02:58 10.01.2021
3888 Fog -34 1010 68 10000 5 360 01:22 10.01.2021
3889 Clouds -34 1010 68 10000 4 360 23:49 09.01.2021
3890 Clouds -34 1010 68 10000 4 360 23:30 09.01.2021
3891 Clouds -34 1010 68 10000 4 360 22:48 09.01.2021
3892 Clouds -34 1010 68 10000 4 360 22:19 09.01.2021
3893 Clouds -34 1009 68 10000 4 360 21:57 09.01.2021
3894 Clouds -34 1009 68 10000 4 360 21:38 09.01.2021
3895 Clouds -34 1009 68 10000 4 360 21:18 09.01.2021
3896 Clouds -34 1009 68 10000 4 360 20:44 09.01.2021
3897 Clouds -34 1009 68 10000 4 340 19:45 09.01.2021
3898 Clouds -34 1009 68 10000 4 340 19:22 09.01.2021
3899 Clouds -34 1009 68 10000 4 340 18:52 09.01.2021
3900 Clouds -34 1009 68 10000 4 340 18:33 09.01.2021
3901 Clouds -34 1008 68 10000 3 350 17:48 09.01.2021
3902 Clouds -34 1008 68 10000 3 350 17:30 09.01.2021
3903 Clouds -34 1008 68 10000 5 340 16:36 09.01.2021
3904 Clouds -34 1008 75 10000 6 350 15:53 09.01.2021
3905 Clouds -34 1008 75 10000 6 350 15:33 09.01.2021
3906 Clouds -34 1008 68 10000 4 340 14:42 09.01.2021
3907 Clouds -34 1008 68 10000 4 340 14:21 09.01.2021
3908 Clouds -34 1007 68 10000 5 350 13:50 09.01.2021
3909 Clouds -34 1007 68 10000 5 350 13:31 09.01.2021
3910 Clouds -34 1007 68 10000 4 350 12:55 09.01.2021
3911 Clouds -34 1007 68 10000 4 350 12:26 09.01.2021
3912 Clouds -34 1007 68 10000 5 350 11:56 09.01.2021
3913 Clouds -34 1007 68 10000 5 350 11:35 09.01.2021
3914 Clouds -34 1007 68 10000 5 350 10:55 09.01.2021
3915 Clouds -34 1007 68 10000 5 350 10:36 09.01.2021
3916 Clouds -34 1007 68 10000 5 350 09:54 09.01.2021
3917 Clouds -34 1007 68 10000 5 350 09:29 09.01.2021
3918 Clouds -34 1006 68 9000 5 340 09:00 09.01.2021
3919 Mist -34 1006 75 3300 4 340 07:43 09.01.2021
3920 Mist -34 1006 75 9000 5 350 06:40 09.01.2021
3921 Mist -34 1006 75 9000 5 350 06:22 09.01.2021
3922 Fog -34 1006 75 10000 3 340 03:47 09.01.2021
3923 Mist -34 1005 75 3000 3 350 02:39 09.01.2021
3924 Mist -34 1005 75 3000 3 350 02:19 09.01.2021
3925 Fog -33 1006 75 10000 5 340 00:46 09.01.2021
3926 Fog -33 1006 75 10000 5 340 00:22 09.01.2021
3927 Clear -33 1006 75 10000 4 350 23:30 08.01.2021
3928 Clear -32 1006 75 10000 4 350 22:38 08.01.2021
3929 Clear -32 1006 75 10000 3 360 21:46 08.01.2021
3930 Clear -32 1005 75 10000 4 360 20:57 08.01.2021
3931 Clear -32 1005 75 10000 4 360 20:27 08.01.2021
3932 Clear -31 1005 76 10000 4 10 19:56 08.01.2021
3933 Clear -31 1005 76 10000 4 10 19:22 08.01.2021
3934 Clear -30 1005 76 10000 3 350 18:48 08.01.2021
3935 Clear -30 1005 76 10000 3 350 18:20 08.01.2021
3936 Clear -29 1005 69 10000 4 350 17:48 08.01.2021
3937 Clear -29 1005 69 10000 4 350 17:22 08.01.2021
3938 Clear -29 1005 76 10000 3 360 16:35 08.01.2021
3939 Clear -29 1005 76 10000 4 10 15:44 08.01.2021
3940 Clear -29 1005 76 10000 4 10 15:18 08.01.2021
3941 Clear -29 1005 76 10000 5 10 14:35 08.01.2021
3942 Clear -29 1006 76 10000 5 20 13:44 08.01.2021
3943 Clear -29 1006 76 10000 5 20 13:18 08.01.2021
3944 Clear -28 1005 76 10000 5 20 12:47 08.01.2021
3945 Clear -28 1005 76 10000 5 20 12:19 08.01.2021
3946 Clear -27 1005 76 10000 6 10 11:44 08.01.2021
3947 Clear -27 1005 76 10000 6 10 11:25 08.01.2021
3948 Clear -28 1005 69 10000 5 10 10:50 08.01.2021
3949 Clear -28 1005 69 10000 5 10 10:26 08.01.2021
3950 Clear -27 1005 76 10000 4 20 09:45 08.01.2021
3951 Clear -27 1005 76 10000 4 20 09:25 08.01.2021
3952 Clear -31 1004 76 10000 4 40 08:33 08.01.2021
3953 Clear -28 1004 76 10000 3 350 07:26 08.01.2021
3954 Clear -29 1004 76 10000 4 20 05:51 08.01.2021
3955 Clear -29 1003 76 10000 4 20 23:47 07.01.2021
3956 Clear -29 1002 76 10000 5 20 23:29 07.01.2021
3957 Clear -30 1002 76 10000 5 20 22:46 07.01.2021
3958 Clear -30 1002 76 10000 5 20 22:26 07.01.2021
3959 Clear -30 1002 76 10000 5 20 21:45 07.01.2021
3960 Clear -30 1002 76 10000 5 20 21:26 07.01.2021
3961 Clear -29 1001 69 10000 3 10 20:47 07.01.2021
3962 Clear -29 1001 69 10000 3 10 20:47 07.01.2021
3963 Clear -29 1001 69 10000 3 10 20:28 07.01.2021
3964 Clear -29 1001 76 10000 3 360 19:45 07.01.2021
3965 Clear -29 1001 76 10000 3 360 19:21 07.01.2021
3966 Clear -28 1001 76 10000 3 10 18:30 07.01.2021
3967 Clear -28 1000 76 10000 5 10 17:56 07.01.2021
3968 Clear -28 1000 76 10000 5 10 17:28 07.01.2021
3969 Clear -28 1000 76 10000 5 10 16:53 07.01.2021
3970 Clear -28 1000 76 10000 5 10 16:30 07.01.2021
3971 Clear -28 1000 76 10000 5 10 16:30 07.01.2021
3972 Clear -28 1000 76 10000 5 10 15:47 07.01.2021
3973 Clear -28 1000 76 10000 5 10 15:29 07.01.2021
3974 Clear -28 1000 76 10000 4 10 14:27 07.01.2021
3975 Clear -28 1000 76 10000 4 10 13:47 07.01.2021
3976 Clear -28 1000 76 10000 4 10 13:18 07.01.2021
3977 Clouds -29 1000 75 10000 3.45 328 12:47 07.01.2021
3978 Clear -28 1000 68 10000 3 360 11:57 07.01.2021
3979 Clear -28 1000 68 10000 3 360 11:38 07.01.2021
3980 Clear -27 1000 68 10000 5 10 10:51 07.01.2021
3981 Clear -27 1000 68 10000 5 10 10:33 07.01.2021
3982 Clear -26 1000 75 10000 3 10 09:48 07.01.2021
3983 Clear -27 999 68 10000 4 40 09:22 07.01.2021
3984 Clear -27 999 68 10000 4 40 08:30 07.01.2021
3985 Clear -27 999 75 10000 2 50 07:54 07.01.2021
3986 Clear -27 999 75 10000 2 50 07:35 07.01.2021
3987 Clear -29 999 68 10000 4 340 05:44 07.01.2021
3988 Clear -29 998 68 10000 2 360 00:59 07.01.2021
3989 Clouds -28 998 75 10000 3 330 23:52 06.01.2021
3990 Clouds -28 998 75 10000 4 360 22:50 06.01.2021
3991 Clouds -27 998 75 10000 4 10 22:19 06.01.2021
3992 Clouds -27 998 75 10000 4 10 21:41 06.01.2021
3993 Clouds -26 997 75 10000 6 340 21:22 06.01.2021
3994 Clouds -26 997 75 10000 6 340 20:40 06.01.2021
3995 Clear -25 997 75 10000 4 360 20:19 06.01.2021
3996 Clear -25 997 75 10000 4 360 19:42 06.01.2021
3997 Clear -25 997 75 10000 4 360 19:24 06.01.2021
3998 Clear -26 998 75 10000 5 330 18:45 06.01.2021
3999 Clear -26 998 75 10000 5 330 18:26 06.01.2021
4000 Clear -26 998 75 10000 5 330 17:43 06.01.2021
4001 Clouds -27 998 68 10000 4 340 17:25 06.01.2021
4002 Clouds -27 998 68 10000 4 340 16:51 06.01.2021
4003 Clouds -27 998 75 10000 5 340 16:20 06.01.2021
4004 Clouds -27 998 75 10000 5 340 15:57 06.01.2021
4005 Clouds -27 998 75 10000 5 340 15:32 06.01.2021
4006 Clouds -27 998 75 10000 3 340 14:56 06.01.2021
4007 Clouds -27 998 75 10000 3 340 14:30 06.01.2021
4008 Clouds -27 998 75 10000 3 340 14:30 06.01.2021
4009 Clouds -27 999 68 10000 4 360 13:47 06.01.2021
4010 Clouds -28 1000 75 10000 1 10 13:24 06.01.2021
4011 Clouds -28 1000 75 10000 1 10 12:53 06.01.2021
4012 Clouds -28 1000 75 10000 1 10 12:30 06.01.2021
4013 Clouds -29 1000 75 10000 4 10 11:44 06.01.2021
4014 Clouds -28 1000 68 10000 4 350 11:21 06.01.2021
4015 Clouds -27 1000 68 10000 4 350 10:31 06.01.2021
4016 Clouds -26 1000 68 10000 2 360 09:52 06.01.2021
4017 Clouds -27 1000 75 10000 2 50 09:22 06.01.2021
4018 Clouds -27 1001 75 9000 2 360 08:42 06.01.2021
4019 Clouds -28 1000 75 10000 2 10 08:18 06.01.2021
4020 Clouds -28 1001 75 10000 2 360 07:41 06.01.2021
4021 Clouds -28 1001 75 10000 1 60 05:53 06.01.2021
4022 Fog -27 1001 75 10000 1 50 04:43 06.01.2021
4023 Clear -28 1001 75 10000 2 10 02:55 06.01.2021
4024 Clear -28 1001 75 10000 2 10 02:36 06.01.2021
4025 Clear -27 1001 68 10000 4 320 02:18 06.01.2021
4026 Clear -25 1002 69 10000 5 320 23:44 05.01.2021
4027 Clouds -26 1002 75 10000 4 330 22:53 05.01.2021
4028 Clouds -26 1002 75 10000 4 330 22:34 05.01.2021
4029 Clear -27 1003 75 10000 2 10 21:59 05.01.2021
4030 Clear -26 1003 75 10000 4 10 21:18 05.01.2021
4031 Clear -26 1003 75 10000 4 10 20:30 05.01.2021
4032 Clear -25 1002 75 10000 5 350 19:45 05.01.2021
4033 Clouds -24 1003 76 10000 3 350 19:24 05.01.2021
4034 Clouds -24 1003 76 10000 3 350 18:47 05.01.2021
4035 Clouds -24 1003 76 10000 3 350 18:28 05.01.2021
4036 Clouds -23 1003 76 9000 2 10 17:54 05.01.2021
4037 Mist -23 1004 76 5000 3 330 17:31 05.01.2021
4038 Mist -23 1004 76 5000 3 330 16:54 05.01.2021
4039 Mist -23 1004 76 5000 3 330 16:54 05.01.2021
4040 Clouds -23 1005 76 10000 4 10 16:24 05.01.2021
4041 Clouds -23 1005 76 10000 4 10 15:59 05.01.2021
4042 Clouds -23 1005 76 10000 4 10 15:35 05.01.2021
4043 Clear -24 1005 76 10000 6 360 14:48 05.01.2021
4044 Clear -24 1006 69 10000 6 360 13:57 05.01.2021
4045 Clear -24 1006 69 10000 6 360 13:36 05.01.2021
4046 Clear -24 1006 69 10000 5 360 13:18 05.01.2021
4047 Clear -24 1006 69 10000 5 360 12:46 05.01.2021
4048 Clear -24 1006 69 10000 6 350 12:18 05.01.2021
4049 Clear -24 1006 69 10000 6 350 11:30 05.01.2021
4050 Clear -24 1006 69 10000 6 350 11:30 05.01.2021
4051 Clear -26 1006 75 10000 6 360 10:45 05.01.2021
4052 Clear -26 1006 75 10000 4 10 10:19 05.01.2021
4053 Clear -27 1006 75 10000 4 10 09:42 05.01.2021
4054 Clear -26 1006 75 10000 5 360 08:59 05.01.2021
4055 Clear -26 1006 75 10000 4 360 08:19 05.01.2021
4056 Clear -25 1006 69 10000 7 350 05:32 05.01.2021
4057 Clear -25 1006 75 10000 6 320 03:39 05.01.2021
4058 Clear -21 1006 70 10000 6 340 00:23 05.01.2021
4059 Clear -21 1006 70 10000 6 340 23:42 04.01.2021
4060 Clear -21 1006 70 10000 5 340 23:22 04.01.2021
4061 Clear -21 1006 70 10000 5 340 22:46 04.01.2021
4062 Clear -21 1006 70 10000 8 340 22:19 04.01.2021
4063 Clear -21 1006 70 10000 8 340 21:40 04.01.2021
4064 Clear -21 1006 70 10000 5 330 21:20 04.01.2021
4065 Clear -21 1006 70 10000 5 330 20:38 04.01.2021
4066 Clear -21 1005 70 10000 5 330 20:19 04.01.2021
4067 Clear -21 1005 70 10000 5 330 19:42 04.01.2021
4068 Clear -20 1005 64 10000 6 20 19:19 04.01.2021
4069 Clear -20 1005 64 10000 6 20 18:46 04.01.2021
4070 Clear -21 1005 70 10000 7 10 17:59 04.01.2021
4071 Clear -21 1005 70 10000 7 10 17:39 04.01.2021
4072 Clear -21 1006 70 10000 7 10 17:21 04.01.2021
4073 Clear -21 1006 70 10000 7 10 16:42 04.01.2021
4074 Clear -21 1006 70 10000 6 20 16:24 04.01.2021
4075 Clear -21 1006 70 10000 6 20 15:48 04.01.2021
4076 Clear -19 1006 70 10000 6 360 15:25 04.01.2021
4077 Clear -21 1006 76 10000 6 360 14:21 04.01.2021
4078 Clear -21 1006 76 10000 6 360 13:37 04.01.2021
4079 Clear -20 1006 70 10000 6 340 12:57 04.01.2021
4080 Clear -20 1006 70 10000 6 340 12:31 04.01.2021
4081 Clear -19 1006 64 10000 6 350 11:52 04.01.2021
4082 Clear -20 1006 70 10000 7 350 11:20 04.01.2021
4083 Clear -20 1006 70 10000 7 350 10:46 04.01.2021
4084 Clear -20 1006 76 10000 6 20 10:23 04.01.2021
4085 Clear -20 1006 76 10000 6 20 09:48 04.01.2021
4086 Clear -21 1006 76 10000 4 340 09:18 04.01.2021
4087 Clear -20 1006 76 10000 4 340 08:32 04.01.2021
4088 Clouds -20 1006 76 10000 5 330 07:47 04.01.2021
4089 Clear -20 1006 70 10000 5 340 06:56 04.01.2021
4090 Clear -20 1005 70 10000 6 350 05:21 04.01.2021
4091 Clear -20 1005 70 10000 1 270 02:31 04.01.2021
4092 Clear -17 1005 64 10000 7 360 00:29 04.01.2021
4093 Clear -20 1005 70 10000 4 30 23:47 03.01.2021
4094 Clear -17 1005 64 10000 7 360 23:19 03.01.2021
4095 Clear -17 1005 64 10000 7 360 22:42 03.01.2021
4096 Clear -18 1005 64 10000 6 360 22:23 03.01.2021
4097 Clear -18 1005 64 10000 6 360 21:46 03.01.2021
4098 Clear -20 1004 70 10000 7 350 21:24 03.01.2021
4099 Clear -20 1004 70 10000 7 350 20:42 03.01.2021
4100 Clear -20 1004 70 10000 1 260 20:20 03.01.2021
4101 Clear -20 1004 70 10000 1 260 19:52 03.01.2021
4102 Clear -20 1004 70 10000 1 260 19:33 03.01.2021
4103 Clear -21 1004 76 10000 3 340 18:52 03.01.2021
4104 Clear -21 1004 76 10000 3 340 18:33 03.01.2021
4105 Clear -19 1004 70 10000 1 310 17:53 03.01.2021
4106 Clear -19 1004 70 10000 1 310 17:29 03.01.2021
4107 Clear -20 1004 70 10000 3 320 16:57 03.01.2021
4108 Clear -20 1004 70 10000 3 320 16:38 03.01.2021
4109 Clear -21 1004 70 10000 4 360 16:18 03.01.2021
4110 Clear -21 1004 70 10000 4 360 15:41 03.01.2021
4111 Clear -20 1004 70 10000 1 70 15:19 03.01.2021
4112 Clear -20 1004 70 10000 1 70 14:41 03.01.2021
4113 Clear -20 1004 64 10000 3 350 13:55 03.01.2021
4114 Clear -20 1004 64 10000 3 350 13:26 03.01.2021
4115 Clear -21 1004 70 10000 5 10 12:58 03.01.2021
4116 Clear -21 1004 70 10000 3 300 11:46 03.01.2021
4117 Clear -21 1004 70 10000 3 300 11:27 03.01.2021
4118 Clouds -21 1004 70 10000 6 340 10:57 03.01.2021
4119 Clouds -21 1004 70 10000 6 340 10:32 03.01.2021
4120 Clouds -16 1004 54 10000 10 280 09:49 03.01.2021
4121 Clouds -16 1004 54 10000 10 280 09:25 03.01.2021
4122 Clouds -18 1004 70 4700 11 20 08:29 03.01.2021
4123 Clouds -17 1000 84 200 21 30 06:54 03.01.2021
4124 Clouds -13 1000 71 900 13 30 03:29 03.01.2021
4125 Clouds -13 999 65 7000 12 30 02:26 03.01.2021
4126 Snow -14 998 84 800 13 30 00:27 03.01.2021
4127 Snow -13 997 84 450 13 20 23:46 02.01.2021
4128 Snow -13 997 84 1200 10 20 23:19 02.01.2021
4129 Snow -13 997 84 1800 8 20 22:47 02.01.2021
4130 Snow -13 997 84 1800 8 20 22:28 02.01.2021
4131 Snow -14 997 84 500 12 20 21:47 02.01.2021
4132 Snow -14 997 84 500 12 20 21:28 02.01.2021
4133 Snow -12 996 85 5000 8 40 20:45 02.01.2021
4134 Snow -12 996 85 5000 8 40 20:25 02.01.2021
4135 Snow -10 995 78 2200 9 60 19:44 02.01.2021
4136 Snow -10 995 85 7000 6 10 19:20 02.01.2021
4137 Snow -10 995 85 7000 6 10 18:47 02.01.2021
4138 Snow -10 995 85 7000 6 10 18:28 02.01.2021
4139 Snow -8 994 72 3200 9 350 17:46 02.01.2021
4140 Clouds -9 994 72 9000 9 360 17:26 02.01.2021
4141 Clouds -9 994 72 9000 9 360 16:42 02.01.2021
4142 Snow -9 993 78 8000 12 40 16:21 02.01.2021
4143 Snow -9 993 78 8000 12 40 15:43 02.01.2021
4144 Snow -9 992 78 9000 6 20 15:25 02.01.2021
4145 Snow -9 992 78 9000 6 20 14:37 02.01.2021
4146 Snow -9 990 85 5000 13 60 14:18 02.01.2021
4147 Snow -9 990 85 5000 13 60 13:40 02.01.2021
4148 Snow -9 991 78 2600 13 50 12:54 02.01.2021
4149 Snow -9 991 78 2600 13 50 12:32 02.01.2021
4150 Snow -8 989 78 1700 14 30 11:59 02.01.2021
4151 Snow -8 987 85 500 16 40 11:25 02.01.2021
4152 Snow -8 987 85 500 16 40 10:58 02.01.2021
4153 Snow -8 987 85 500 16 40 10:33 02.01.2021
4154 Snow -8 986 92 250 17 50 09:54 02.01.2021
4155 Snow -8 986 92 250 17 50 09:29 02.01.2021
4156 Snow -8 986 92 100 19 40 08:53 02.01.2021
4157 Snow -8 986 92 100 19 40 08:34 02.01.2021
4158 Snow -7 985 85 150 19 40 07:53 02.01.2021
4159 Snow -7 985 85 200 18 40 07:22 02.01.2021
4160 Snow -7 985 85 200 18 40 06:52 02.01.2021
4161 Snow -8 985 85 100 26 40 05:54 02.01.2021
4162 Snow -6 983 92 300 18 60 00:59 02.01.2021
4163 Snow -6 983 92 300 18 60 00:37 02.01.2021
4164 Snow -6 983 92 300 18 60 00:37 02.01.2021
4165 Snow -6 983 92 200 19 60 23:57 01.01.2021
4166 Clouds -5 983 85 300 21 70 23:23 01.01.2021
4167 Clouds -5 983 85 300 21 70 22:48 01.01.2021
4168 Clouds -5 983 85 300 21 70 22:26 01.01.2021
4169 Clouds -6 983 92 250 18 60 21:58 01.01.2021
4170 Clouds -6 983 92 250 18 60 21:39 01.01.2021
4171 Clouds -4 984 79 700 16 60 21:19 01.01.2021
4172 Clouds -4 984 79 700 16 60 20:43 01.01.2021
4173 Snow -4 985 79 1200 15 60 20:18 01.01.2021
4174 Snow -4 985 79 1200 15 60 19:41 01.01.2021
4175 Snow -4 985 79 700 16 70 19:20 01.01.2021
4176 Snow -4 985 79 700 16 70 18:42 01.01.2021
4177 Clouds -5 985 85 1900 16 60 18:23 01.01.2021
4178 Clouds -5 985 85 1900 16 60 17:44 01.01.2021
4179 Clouds -5 986 85 2300 14 50 17:23 01.01.2021
4180 Clouds -5 986 85 2300 14 50 16:45 01.01.2021
4181 Clouds -6 987 79 800 15 20 16:25 01.01.2021
4182 Clouds -6 987 79 800 15 20 15:39 01.01.2021
4183 Clouds -9 987 85 1200 16 30 14:44 01.01.2021
4184 Clouds -9 987 85 1200 16 30 14:25 01.01.2021
4185 Clouds -8 988 78 9000 13 30 13:38 01.01.2021
4186 Clouds -6 988 73 10000 9 30 12:51 01.01.2021
4187 Clouds -6 988 73 10000 9 30 12:27 01.01.2021
4188 Clouds -6 988 79 10000 9 20 11:42 01.01.2021
4189 Clouds -5 989 85 10000 7 20 11:19 01.01.2021
4190 Clouds -5 989 85 10000 7 20 10:56 01.01.2021
4191 Clouds -5 989 85 10000 7 20 10:28 01.01.2021
4192 Snow -5 989 85 10000 11 30 09:31 01.01.2021
4193 Snow -11 989 85 700 14 20 08:30 01.01.2021
4194 Snow -11 989 85 500 19 30 07:22 01.01.2021
4195 Snow -11 991 85 1300 16 30 04:51 01.01.2021
4196 Clouds -13 992 78 7000 10 20 01:58 01.01.2021
4197 Snow -13 993 84 1300 13 20 00:33 01.01.2021
4198 Snow -11 993 78 2500 8 30 23:43 31.12.2020
4199 Snow -11 995 78 1600 5 60 23:21 31.12.2020
4200 Snow -11 995 78 1600 5 60 22:55 31.12.2020
4201 Snow -11 995 78 1600 5 60 22:36 31.12.2020
4202 Snow -11 995 78 1600 5 60 22:36 31.12.2020
4203 Snow -11 994 72 3500 4 80 22:18 31.12.2020
4204 Snow -11 994 72 3500 4 80 21:43 31.12.2020
4205 Snow -10 995 72 10000 10 50 21:20 31.12.2020
4206 Snow -10 995 72 10000 10 50 20:31 31.12.2020
4207 Snow -11 995 78 2500 12 20 19:59 31.12.2020
4208 Snow -11 995 78 2500 12 20 19:36 31.12.2020
4209 Snow -8 995 72 9000 7 20 19:18 31.12.2020
4210 Snow -8 995 72 9000 7 20 18:41 31.12.2020
4211 Snow -8 996 78 10000 9 50 18:23 31.12.2020
4212 Snow -8 996 78 10000 9 50 17:41 31.12.2020
4213 Snow -8 996 78 9000 12 30 17:21 31.12.2020
4214 Snow -8 996 78 9000 12 30 16:39 31.12.2020
4215 Snow -9 997 78 9000 11 10 16:20 31.12.2020
4216 Snow -9 997 78 9000 11 10 15:45 31.12.2020
4217 Snow -10 997 85 9000 8 360 15:20 31.12.2020
4218 Snow -10 997 85 9000 8 360 14:43 31.12.2020
4219 Snow -8 997 78 8000 9 20 14:24 31.12.2020
4220 Snow -8 997 78 8000 9 20 13:59 31.12.2020
4221 Snow -8 997 78 8000 9 20 13:38 31.12.2020
4222 Snow -8 998 85 8000 12 30 13:19 31.12.2020
4223 Snow -8 998 85 8000 12 30 12:50 31.12.2020
4224 Snow -8 998 85 8000 12 30 12:32 31.12.2020
4225 Snow -7 998 73 10000 11 20 11:48 31.12.2020
4226 Snow -7 998 73 10000 11 20 11:30 31.12.2020
4227 Snow -8 998 85 10000 9 20 10:46 31.12.2020
4228 Snow -8 998 85 10000 9 20 10:27 31.12.2020
4229 Snow -10 999 85 5000 8 360 09:50 31.12.2020
4230 Snow -10 999 85 5000 8 360 09:26 31.12.2020
4231 Snow -9 1000 85 3900 8 10 08:50 31.12.2020
4232 Snow -9 1000 85 3900 8 10 08:31 31.12.2020
4233 Snow -10 1000 85 6000 7 360 07:56 31.12.2020
4234 Snow -10 1000 85 6000 7 360 07:27 31.12.2020
4235 Snow -11 1000 85 9000 9 10 05:30 31.12.2020
4236 Snow -11 1001 85 7000 9 20 03:40 31.12.2020
4237 Snow -11 1001 78 9000 10 20 02:45 31.12.2020
4238 Snow -11 1001 78 9000 10 20 02:25 31.12.2020
4239 Clouds -11 1001 85 5000 11 20 01:43 31.12.2020
4240 Clouds -9 1001 72 8000 8 20 01:22 31.12.2020
4241 Clouds -11 1001 85 10000 8 360 00:43 31.12.2020
4242 Clouds -12 1002 85 10000 6 350 23:48 30.12.2020
4243 Clouds -12 1002 85 10000 7 360 23:19 30.12.2020
4244 Clouds -12 1002 85 10000 5 360 22:47 30.12.2020
4245 Clouds -12 1002 85 10000 5 360 22:47 30.12.2020
4246 Clouds -12 1002 85 10000 5 360 22:29 30.12.2020
4247 Clouds -13 1002 84 10000 5 320 21:39 30.12.2020
4248 Clouds -13 1002 78 10000 8 340 21:20 30.12.2020
4249 Clouds -13 1002 78 10000 8 340 20:48 30.12.2020
4250 Clouds -14 1002 84 10000 8 350 20:20 30.12.2020
4251 Clouds -14 1002 84 10000 8 350 19:40 30.12.2020
4252 Clouds -14 1001 84 10000 7 340 19:21 30.12.2020
4253 Clouds -14 1001 84 10000 7 340 18:46 30.12.2020
4254 Clouds -14 1001 84 10000 7 340 18:27 30.12.2020
4255 Clouds -13 1001 84 10000 8 360 17:51 30.12.2020
4256 Snow -11 1001 78 10000 7 360 17:32 30.12.2020
4257 Snow -11 1001 78 10000 7 360 16:56 30.12.2020
4258 Clouds -9 1002 92 10000 1 360 16:31 30.12.2020
4259 Clouds -9 1002 92 10000 1 360 15:47 30.12.2020
4260 Clouds -9 1002 92 10000 4.55 10 15:24 30.12.2020
4261 Clouds -9 1002 92 10000 4.55 10 14:44 30.12.2020
4262 Clouds -9 1002 85 10000 2 160 14:22 30.12.2020
4263 Clouds -9 1002 85 10000 2 160 13:42 30.12.2020
4264 Snow -8 1002 85 10000 2 150 12:43 30.12.2020
4265 Snow -9 1001 92 10000 2 20 12:21 30.12.2020
4266 Snow -9 1001 92 10000 2 20 11:36 30.12.2020
4267 Snow -9 1001 92 10000 2 20 11:18 30.12.2020
4268 Snow -9 1001 92 10000 2 20 10:49 30.12.2020
4269 Snow -9 1001 92 10000 2 20 10:27 30.12.2020
4270 Snow -9 1001 85 10000 1 40 09:50 30.12.2020
4271 Snow -9 1001 85 10000 1 40 09:29 30.12.2020
4272 Snow -9 1001 85 7000 1 90 08:34 30.12.2020
4273 Snow -10 1001 92 4300 2 20 07:30 30.12.2020
4274 Snow -10 1001 92 4300 2 20 07:30 30.12.2020
4275 Snow -10 1000 92 4600 1 80 06:52 30.12.2020
4276 Snow -10 1000 92 4600 1 80 06:31 30.12.2020
4277 Snow -10 1000 92 8000 1 50 05:44 30.12.2020
4278 Snow -9 1000 92 2900 4.3 35 05:25 30.12.2020
4279 Snow -9 999 85 4200 2 40 03:28 30.12.2020
4280 Snow -9 999 85 4200 2 40 03:28 30.12.2020
4281 Snow -9 999 85 10000 4.6 39 02:42 30.12.2020
4282 Snow -9 999 85 10000 1 70 01:58 30.12.2020
4283 Snow -10 999 92 5000 1 350 01:33 30.12.2020
4284 Snow -9 999 92 6000 1 150 00:50 30.12.2020
4285 Snow -9 999 92 6000 1 150 00:30 30.12.2020
4286 Snow -9 999 85 2300 5.88 28 23:56 29.12.2020
4287 Snow -10 999 92 8000 5.88 28 23:37 29.12.2020
4288 Snow -9 998 85 2900 1 210 23:18 29.12.2020
4289 Snow -9 998 85 1000 1 210 22:40 29.12.2020
4290 Snow -9 998 85 2600 1 210 22:22 29.12.2020
4291 Snow -9 998 85 800 6.11 21 21:46 29.12.2020
4292 Snow -9 997 85 2100 2 160 21:26 29.12.2020
4293 Snow -9 997 85 2100 2 160 20:48 29.12.2020
4294 Snow -9 997 85 10000 1 270 20:26 29.12.2020
4295 Snow -9 997 85 10000 1 270 19:56 29.12.2020
4296 Snow -9 997 85 10000 1 270 19:36 29.12.2020
4297 Snow -9 997 85 10000 1 80 19:18 29.12.2020
4298 Snow -9 997 85 10000 1 80 18:39 29.12.2020
4299 Snow -10 996 85 10000 1 360 18:18 29.12.2020
4300 Snow -10 996 85 10000 1 360 17:38 29.12.2020
4301 Snow -10 996 85 10000 1 360 17:38 29.12.2020
4302 Snow -10 996 85 10000 6 20 17:19 29.12.2020
4303 Snow -10 996 85 10000 6 20 16:36 29.12.2020
4304 Snow -10 996 85 800 10 20 15:56 29.12.2020
4305 Snow -10 996 85 800 10 20 15:34 29.12.2020
4306 Snow -9 995 78 4700 10 30 14:58 29.12.2020
4307 Snow -9 995 78 4700 10 30 14:36 29.12.2020
4308 Snow -9 996 72 8000 13 30 14:18 29.12.2020
4309 Snow -9 996 72 8000 13 30 14:18 29.12.2020
4310 Snow -9 996 72 8000 13 30 13:39 29.12.2020
4311 Snow -8 995 72 5000 16 30 13:18 29.12.2020
4312 Snow -8 995 72 5000 16 30 12:37 29.12.2020
4313 Snow -10 995 85 800 20 20 12:19 29.12.2020
4314 Snow -10 994 85 600 20 30 11:51 29.12.2020
4315 Snow -10 994 85 600 20 30 11:31 29.12.2020
4316 Clouds -9 994 85 1300 17 20 10:22 29.12.2020
4317 Clouds -9 993 85 1000 17 20 09:47 29.12.2020
4318 Clouds -10 994 85 500 18 10 09:19 29.12.2020
4319 Clouds -7 993 79 750 12 40 08:50 29.12.2020
4320 Clouds -8 993 85 650 16 360 07:58 29.12.2020
4321 Clouds -10 993 92 300 18 20 07:26 29.12.2020
4322 Clouds -8 993 85 700 15 30 06:26 29.12.2020
4323 Snow -9 993 85 450 14 30 03:32 29.12.2020
4324 Snow -11 992 85 2100 11 20 00:44 29.12.2020
4325 Snow -9 992 85 10000 8 30 23:55 28.12.2020
4326 Snow -10 991 85 5000 13 20 23:33 28.12.2020
4327 Snow -8 991 78 1400 16 30 22:24 28.12.2020
4328 Snow -8 990 78 5000 16 40 21:44 28.12.2020
4329 Snow -9 991 85 2900 15 10 21:24 28.12.2020
4330 Snow -9 991 85 2900 15 10 20:40 28.12.2020
4331 Snow -11 990 85 2000 18 30 20:22 28.12.2020
4332 Snow -10 990 85 2000 18 30 19:47 28.12.2020
4333 Snow -10 990 85 2000 18 30 19:24 28.12.2020
4334 Snow -10 990 78 1300 19 20 18:52 28.12.2020
4335 Snow -10 990 78 900 19 20 18:28 28.12.2020
4336 Snow -9 990 78 900 19 20 17:46 28.12.2020
4337 Snow -9 989 85 450 22 30 17:26 28.12.2020
4338 Snow -9 989 85 450 22 30 16:46 28.12.2020
4339 Snow -9 989 85 450 22 30 16:26 28.12.2020
4340 Snow -9 990 78 450 23 30 15:52 28.12.2020
4341 Snow -10 990 85 250 25 40 15:26 28.12.2020
4342 Snow -9 990 85 300 24 40 14:23 28.12.2020
4343 Snow -9 990 85 300 24 40 13:36 28.12.2020
4344 Clouds -9 990 85 250 22 30 12:57 28.12.2020
4345 Clouds -9 991 85 700 18 30 12:24 28.12.2020
4346 Clouds -9 991 85 700 18 30 11:47 28.12.2020
4347 Clouds -9 991 85 700 18 30 11:47 28.12.2020
4348 Clouds -9 991 85 700 18 30 11:26 28.12.2020
4349 Clouds -10 991 85 200 26 30 10:52 28.12.2020
4350 Clouds -10 991 85 200 26 30 10:28 28.12.2020
4351 Clouds -10 990 85 100 28 40 09:49 28.12.2020
4352 Clouds -11 991 78 600 22 40 09:21 28.12.2020
4353 Clouds -11 991 78 600 22 40 08:55 28.12.2020
4354 Clouds -10 992 78 300 23 40 06:51 28.12.2020
4355 Clouds -12 993 85 250 22 20 04:44 28.12.2020
4356 Clouds -10 992 85 350 22 30 03:21 28.12.2020
4357 Clouds -10 994 78 450 17 40 01:52 28.12.2020
4358 Clouds -12 996 78 600 18 30 23:50 27.12.2020
4359 Clouds -12 996 85 350 20 30 23:20 27.12.2020
4360 Clouds -12 996 85 350 20 30 23:20 27.12.2020
4361 Clouds -11 996 78 100 20 50 21:59 27.12.2020
4362 Clouds -11 996 78 100 21 50 21:27 27.12.2020
4363 Clouds -11 996 85 100 25 40 20:56 27.12.2020
4364 Clouds -10 996 85 150 22 40 19:49 27.12.2020
4365 Clouds -10 996 85 150 22 40 19:23 27.12.2020
4366 Clouds -11 998 85 250 17 20 18:49 27.12.2020
4367 Clouds -15 999 84 1700 15 340 18:20 27.12.2020
4368 Clouds -15 999 84 1700 15 340 18:20 27.12.2020
4369 Clouds -15 999 84 1700 15 340 17:54 27.12.2020
4370 Clouds -15 999 84 1700 15 340 17:34 27.12.2020
4371 Clouds -15 1000 84 1000 16 340 16:55 27.12.2020
4372 Clouds -15 1000 84 600 16 350 16:21 27.12.2020
4373 Clouds -15 1000 84 600 16 350 15:30 27.12.2020
4374 Clouds -14 1000 77 800 15 360 14:49 27.12.2020
4375 Clouds -14 1000 77 800 15 360 14:31 27.12.2020
4376 Clouds -14 1001 84 450 17 360 13:36 27.12.2020
4377 Clouds -14 1001 84 450 17 360 13:36 27.12.2020
4378 Clouds -14 1002 77 1000 17 350 12:55 27.12.2020
4379 Clouds -13 1002 78 600 15 360 12:24 27.12.2020
4380 Clouds -13 1002 78 600 15 360 11:42 27.12.2020
4381 Snow -14 1003 77 2900 14 350 11:18 27.12.2020
4382 Snow -14 1003 77 2900 14 350 10:40 27.12.2020
4383 Snow -15 1004 77 4600 13 340 10:19 27.12.2020
4384 Snow -16 1004 77 5000 11 350 09:19 27.12.2020
4385 Snow -16 1004 77 5000 11 350 08:28 27.12.2020
4386 Clouds -18 1005 77 7000 10 340 07:28 27.12.2020
4387 Clouds -16 1004 84 800 9 330 05:48 27.12.2020
4388 Mist -25 1005 83 1900 13 10 05:21 27.12.2020
4389 Fog -26 1005 75 600 10 360 03:24 27.12.2020
4390 Fog -33 1007 74 450 4 360 01:52 27.12.2020
4391 Fog -33 1007 74 650 5 330 00:26 27.12.2020
4392 Fog -34 1008 66 2100 6 330 23:42 26.12.2020
4393 Fog -34 1008 73 1100 5 320 23:22 26.12.2020
4394 Fog -34 1008 73 1100 5 320 22:41 26.12.2020
4395 Fog -34 1008 73 1200 8 350 22:19 26.12.2020
4396 Fog -34 1008 73 1200 8 350 21:53 26.12.2020
4397 Clouds -33 1008 67 2100 11 340 21:24 26.12.2020
4398 Clouds -33 1008 67 2100 11 340 20:44 26.12.2020
4399 Clouds -33 1008 67 3500 6 340 20:22 26.12.2020
4400 Clouds -33 1008 67 3500 6 340 19:31 26.12.2020
4401 Clear -34 1009 73 9000 9 330 18:57 26.12.2020
4402 Clear -34 1009 73 9000 9 330 18:33 26.12.2020
4403 Clear -33 1009 67 9000 4 340 17:47 26.12.2020
4404 Clear -34 1010 73 10000 4 330 17:28 26.12.2020
4405 Clear -34 1010 73 10000 4 330 16:38 26.12.2020
4406 Clear -33 1010 67 10000 7 340 15:59 26.12.2020
4407 Clear -33 1011 74 10000 6 350 15:20 26.12.2020
4408 Clear -33 1011 74 10000 6 350 14:38 26.12.2020
4409 Clear -33 1011 67 10000 5 330 14:19 26.12.2020
4410 Clear -33 1011 67 10000 5 330 13:37 26.12.2020
4411 Clouds -33 1011 74 10000 6 340 12:57 26.12.2020
4412 Clouds -33 1011 74 10000 6 340 12:39 26.12.2020
4413 Clouds -33 1011 67 10000 8 330 12:18 26.12.2020
4414 Clouds -33 1011 67 10000 8 330 11:42 26.12.2020
4415 Clouds -33 1012 67 10000 6 310 11:20 26.12.2020
4416 Clouds -33 1012 67 10000 6 310 10:46 26.12.2020
4417 Clouds -33 1012 67 10000 6 310 10:25 26.12.2020
4418 Clouds -32 1011 67 10000 8 330 09:47 26.12.2020
4419 Clouds -32 1011 74 10000 9 330 08:55 26.12.2020
4420 Snow -31 1012 67 10000 8 340 08:19 26.12.2020
4421 Clouds -31 1011 74 10000 6 330 07:21 26.12.2020
4422 Clouds -30 1011 74 10000 5 340 05:38 26.12.2020
4423 Snow -28 1011 75 10000 7 350 02:47 26.12.2020
4424 Snow -27 1011 68 10000 7 340 00:39 26.12.2020
4425 Snow -27 1010 68 10000 8 340 23:50 25.12.2020
4426 Snow -27 1010 68 10000 8 340 23:29 25.12.2020
4427 Snow -27 1010 68 10000 7 340 22:58 25.12.2020
4428 Snow -27 1010 68 10000 7 340 22:26 25.12.2020
4429 Snow -27 1009 75 10000 7 350 21:44 25.12.2020
4430 Snow -27 1009 68 7000 8 350 21:25 25.12.2020
4431 Snow -27 1009 68 7000 8 350 20:45 25.12.2020
4432 Snow -27 1009 68 7000 8 350 20:27 25.12.2020
4433 Snow -27 1008 68 8000 8 350 19:43 25.12.2020
4434 Snow -27 1007 75 3800 7 350 18:49 25.12.2020
4435 Snow -27 1007 75 3800 7 350 18:30 25.12.2020
4436 Snow -27 1007 75 2600 6 340 17:35 25.12.2020
4437 Snow -27 1006 68 2800 6 340 16:55 25.12.2020
4438 Snow -27 1005 68 1700 6 340 16:25 25.12.2020
4439 Snow -27 1005 68 1700 6 340 15:50 25.12.2020
4440 Snow -27 1005 68 1700 6 340 15:31 25.12.2020
4441 Snow -28 1004 75 1100 6 330 14:32 25.12.2020
4442 Snow -28 1003 75 500 5 350 13:57 25.12.2020
4443 Snow -28 1003 75 500 5 350 13:37 25.12.2020
4444 Snow -28 1003 75 1000 5 320 13:18 25.12.2020
4445 Snow -28 1003 75 1000 5 320 13:18 25.12.2020
4446 Snow -28 1003 75 1000 5 320 12:27 25.12.2020
4447 Snow -28 1002 75 2200 5 310 11:48 25.12.2020
4448 Snow -28 1002 75 1600 5 310 11:24 25.12.2020
4449 Snow -28 1002 75 1600 5 310 11:24 25.12.2020
4450 Snow -29 1002 75 1600 5 310 10:47 25.12.2020
4451 Snow -29 1001 75 2400 6 320 10:21 25.12.2020
4452 Snow -27 1001 75 2400 6 320 09:26 25.12.2020
4453 Snow -27 1000 75 3400 7 330 08:40 25.12.2020
4454 Snow -27 999 68 800 8 330 07:45 25.12.2020
4455 Snow -27 999 68 600 7 330 06:44 25.12.2020
4456 Snow -28 1000 68 2900 7 330 02:36 25.12.2020
4457 Snow -27 1000 62 10000 7 350 00:38 25.12.2020
4458 Clear -27 1001 62 10000 6 10 23:40 24.12.2020
4459 Clear -28 1000 68 10000 3 340 23:21 24.12.2020
4460 Clear -28 1000 61 10000 3 10 22:26 24.12.2020
4461 Clear -28 999 61 10000 5 360 21:54 24.12.2020
4462 Clear -28 999 61 10000 5 360 21:32 24.12.2020
4463 Clear -28 998 61 10000 4 10 20:19 24.12.2020
4464 Clear -30 997 68 10000 3 10 18:22 24.12.2020
4465 Clear -29 997 68 10000 3 10 17:58 24.12.2020
4466 Clear -29 997 68 10000 3 10 17:36 24.12.2020
4467 Clear -28 996 68 10000 3 40 16:28 24.12.2020
4468 Clear -28 996 68 10000 3 360 15:58 24.12.2020
4469 Clear -28 996 68 10000 3 360 15:40 24.12.2020
4470 Clear -28 995 68 10000 2 20 15:18 24.12.2020
4471 Clear -28 995 68 10000 2 20 14:42 24.12.2020
4472 Clear -28 994 68 10000 3 350 14:23 24.12.2020
4473 Clear -28 994 68 10000 3 350 13:39 24.12.2020
4474 Clear -27 994 68 10000 2 340 13:20 24.12.2020
4475 Clear -27 994 68 10000 2 340 12:41 24.12.2020
4476 Clouds -27 993 75 10000 2 350 12:20 24.12.2020
4477 Clouds -27 993 75 10000 2 350 11:39 24.12.2020
4478 Clouds -28 992 75 10000 2 10 11:20 24.12.2020
4479 Clouds -28 992 75 10000 2 10 10:49 24.12.2020
4480 Clouds -28 992 75 10000 2 10 10:30 24.12.2020
4481 Clouds -28 991 75 7000 2 360 09:51 24.12.2020
4482 Mist -27 991 75 2700 2 350 09:23 24.12.2020
4483 Mist -26 990 75 2000 3 350 07:59 24.12.2020
4484 Mist -26 990 75 2000 3 350 07:38 24.12.2020
4485 Mist -26 989 75 1800 2 330 06:52 24.12.2020
4486 Mist -25 987 75 1700 4 310 04:24 24.12.2020
4487 Mist -25 987 75 1700 3 300 01:53 24.12.2020
4488 Mist -25 986 75 1800 4 320 01:30 24.12.2020
4489 Mist -25 986 75 2100 4 320 00:55 24.12.2020
4490 Mist -25 985 75 1700 7 310 00:19 24.12.2020
4491 Mist -25 985 75 1600 5 300 23:40 23.12.2020
4492 Snow -25 984 76 2300 4 10 23:21 23.12.2020
4493 Snow -24 984 76 2500 4 360 22:50 23.12.2020
4494 Mist -24 984 76 2000 4 10 22:29 23.12.2020
4495 Snow -24 984 76 1700 4 360 21:49 23.12.2020
4496 Snow -24 982 76 800 9 290 21:23 23.12.2020
4497 Snow -24 982 76 800 9 290 20:47 23.12.2020
4498 Snow -24 982 76 800 9 290 20:28 23.12.2020
4499 Snow -24 981 83 600 12 290 19:59 23.12.2020
4500 Snow -24 981 83 600 12 290 19:38 23.12.2020
4501 Snow -23 981 76 800 11 280 19:19 23.12.2020
4502 Snow -23 981 76 800 11 280 18:46 23.12.2020
4503 Snow -23 980 76 600 12 280 18:20 23.12.2020
4504 Snow -23 980 76 900 11 280 17:36 23.12.2020
4505 Snow -23 980 76 900 11 280 17:18 23.12.2020
4506 Snow -23 980 76 900 11 280 16:40 23.12.2020
4507 Snow -23 980 76 900 11 290 16:22 23.12.2020
4508 Snow -23 980 76 900 11 290 15:50 23.12.2020
4509 Snow -23 980 76 700 12 290 15:27 23.12.2020
4510 Snow -23 980 76 700 12 290 14:58 23.12.2020
4511 Snow -23 980 76 700 12 290 14:38 23.12.2020
4512 Snow -24 980 83 1300 12 290 14:20 23.12.2020
4513 Snow -24 980 83 1300 12 290 13:43 23.12.2020
4514 Snow -24 980 76 1200 11 280 13:19 23.12.2020
4515 Snow -24 980 76 1200 11 280 12:49 23.12.2020
4516 Snow -24 980 76 1300 11 290 12:24 23.12.2020
4517 Snow -24 980 76 1300 11 290 11:46 23.12.2020
4518 Snow -24 980 76 2000 11 290 11:19 23.12.2020
4519 Snow -24 980 76 2000 11 290 10:43 23.12.2020
4520 Snow -24 981 76 3700 10 290 10:25 23.12.2020
4521 Snow -24 981 76 3700 10 290 09:35 23.12.2020
4522 Snow -24 981 76 10000 8 290 08:48 23.12.2020
4523 Fog -25 981 75 10000 9 290 08:20 23.12.2020
4524 Fog -25 981 75 10000 9 290 07:27 23.12.2020
4525 Fog -25 982 75 10000 8 300 06:41 23.12.2020
4526 Fog -25 982 75 10000 6 300 05:39 23.12.2020
4527 Fog -26 983 75 10000 7 300 04:57 23.12.2020
4528 Snow -27 985 75 10000 6 330 00:48 23.12.2020
4529 Snow -26 986 68 10000 9 330 00:21 23.12.2020
4530 Snow -26 986 68 10000 9 330 23:35 22.12.2020
4531 Snow -27 986 75 10000 4 340 22:58 22.12.2020
4532 Clouds -26 986 68 10000 8 310 22:40 22.12.2020
4533 Clouds -26 987 75 10000 6 320 22:20 22.12.2020
4534 Snow -25 987 69 10000 8 330 21:41 22.12.2020
4535 Snow -26 987 75 10000 8 340 21:20 22.12.2020
4536 Snow -26 987 75 10000 8 340 21:20 22.12.2020
4537 Snow -26 987 75 10000 8 340 20:49 22.12.2020
4538 Snow -25 988 69 10000 6 340 20:22 22.12.2020
4539 Snow -25 988 69 10000 6 340 19:46 22.12.2020
4540 Snow -26 989 75 10000 6 320 19:25 22.12.2020
4541 Snow -27 989 75 10000 6 320 18:55 22.12.2020
4542 Snow -27 989 75 10000 6 320 18:36 22.12.2020
4543 Snow -26 989 68 10000 5 310 18:18 22.12.2020
4544 Snow -26 989 68 10000 5 310 17:36 22.12.2020
4545 Snow -26 990 75 10000 7 360 17:18 22.12.2020
4546 Snow -26 990 75 10000 7 360 16:44 22.12.2020
4547 Clouds -26 990 68 10000 4 10 16:19 22.12.2020
4548 Clouds -27 990 68 10000 4 10 15:45 22.12.2020
4549 Clouds -27 990 68 10000 4 10 15:26 22.12.2020
4550 Clouds -28 991 75 10000 6 340 14:46 22.12.2020
4551 Clear -29 992 74 10000 4 360 14:28 22.12.2020
4552 Clear -30 992 74 10000 4 360 13:54 22.12.2020
4553 Clear -30 993 74 10000 4 10 13:36 22.12.2020
4554 Clear -30 993 74 10000 4 10 13:18 22.12.2020
4555 Clear -30 993 74 10000 4 10 12:42 22.12.2020
4556 Clear -30 993 74 10000 3 30 12:20 22.12.2020
4557 Clear -30 993 74 10000 3 30 11:43 22.12.2020
4558 Clear -31 993 74 10000 2 80 11:23 22.12.2020
4559 Clear -31 993 74 10000 2 80 10:56 22.12.2020
4560 Clear -31 993 74 10000 2 80 10:30 22.12.2020
4561 Clear -31 994 67 10000 4 340 09:59 22.12.2020
4562 Clear -31 994 67 10000 4 340 09:40 22.12.2020
4563 Clear -31 994 67 10000 2 60 09:20 22.12.2020
4564 Clear -31 994 67 10000 2 60 08:43 22.12.2020
4565 Clear -31 995 74 10000 2 320 08:20 22.12.2020
4566 Clear -31 995 74 10000 2 320 07:46 22.12.2020
4567 Clouds -32 996 74 10000 4 350 06:36 22.12.2020
4568 Fog -31 996 74 10000 2 300 05:34 22.12.2020
4569 Fog -29 998 75 10000 2 50 02:36 22.12.2020
4570 Fog -29 999 75 10000 3 50 00:43 22.12.2020
4571 Fog -28 1000 68 10000 3 40 23:51 21.12.2020
4572 Fog -28 1000 75 10000 3 40 23:23 21.12.2020
4573 Clouds -29 1000 75 10000 3 360 22:37 21.12.2020
4574 Clear -29 1000 75 10000 2 30 22:19 21.12.2020
4575 Clear -29 1000 75 10000 2 340 21:48 21.12.2020
4576 Clear -29 1000 75 10000 2 340 21:30 21.12.2020
4577 Clear -29 1001 75 10000 1 360 20:46 21.12.2020
4578 Clouds -29 1001 68 10000 2 20 20:23 21.12.2020
4579 Clouds -28 1001 68 10000 2 20 19:55 21.12.2020
4580 Clouds -28 1001 68 10000 2 20 19:36 21.12.2020
4581 Snow -28 1001 68 10000 2 30 19:18 21.12.2020
4582 Snow -28 1001 68 10000 2 30 18:45 21.12.2020
4583 Snow -28 1002 75 10000 3 360 18:27 21.12.2020
4584 Snow -28 1002 75 10000 3 360 17:43 21.12.2020
4585 Snow -28 1002 75 10000 3 360 17:23 21.12.2020
4586 Clouds -28 1002 68 10000 3 20 16:45 21.12.2020
4587 Clouds -28 1003 75 10000 3 350 16:23 21.12.2020
4588 Clouds -28 1003 75 10000 3 350 15:43 21.12.2020
4589 Clear -28 1003 75 10000 3 340 15:18 21.12.2020
4590 Clear -28 1003 75 10000 3 340 14:54 21.12.2020
4591 Clear -28 1004 75 10000 2 40 14:20 21.12.2020
4592 Clear -28 1004 75 10000 2 40 13:42 21.12.2020
4593 Clear -27 1004 68 10000 4 330 13:22 21.12.2020
4594 Clear -27 1004 68 10000 4 330 12:43 21.12.2020
4595 Clear -27 1004 68 10000 3 360 12:23 21.12.2020
4596 Clear -27 1004 68 10000 3 360 11:43 21.12.2020
4597 Clear -27 1005 68 10000 5 350 11:23 21.12.2020
4598 Clear -27 1005 68 10000 5 350 10:58 21.12.2020
4599 Clear -27 1005 68 10000 5 350 10:40 21.12.2020
4600 Clear -27 1005 68 10000 5 350 09:59 21.12.2020
4601 Clear -27 1005 68 10000 5 350 09:40 21.12.2020
4602 Clear -26 1005 68 10000 3 360 09:22 21.12.2020
4603 Clear -26 1005 75 10000 5 10 08:30 21.12.2020
4604 Clear -24 1005 69 10000 5 40 07:31 21.12.2020
4605 Clouds -26 1005 69 10000 6 360 05:50 21.12.2020
4606 Fog -26 1005 68 10000 2 10 04:31 21.12.2020
4607 Clear -26 1005 75 10000 3 350 00:51 21.12.2020
4608 Clear -26 1005 75 10000 3 350 00:30 21.12.2020
4609 Clear -25 1005 75 10000 1 40 23:24 20.12.2020
4610 Clear -25 1005 75 10000 1 40 22:56 20.12.2020
4611 Clear -26 1005 75 10000 4 40 22:38 20.12.2020
4612 Clear -27 1005 75 10000 4 340 22:19 20.12.2020
4613 Clear -24 1005 69 10000 2 360 21:39 20.12.2020
4614 Clear -23 1004 69 10000 3 360 21:20 20.12.2020
4615 Clear -22 1004 69 10000 3 360 20:47 20.12.2020
4616 Clear -23 1005 69 10000 6 20 20:22 20.12.2020
4617 Clear -23 1005 69 10000 6 20 19:45 20.12.2020
4618 Clear -24 1005 75 10000 1 30 19:24 20.12.2020
4619 Clear -25 1005 75 10000 1 30 18:55 20.12.2020
4620 Clear -25 1005 75 10000 1 30 18:36 20.12.2020
4621 Clouds -26 1004 75 10000 4 40 17:57 20.12.2020
4622 Clouds -26 1004 75 10000 4 40 17:39 20.12.2020
4623 Clouds -25 1004 83 10000 2 20 17:18 20.12.2020
4624 Clouds -25 1004 83 10000 2 20 16:44 20.12.2020
4625 Clear -25 1004 69 10000 2 10 16:24 20.12.2020
4626 Clear -24 1004 69 10000 2 10 15:41 20.12.2020
4627 Clouds -23 1004 69 10000 3 10 15:22 20.12.2020
4628 Clouds -22 1004 69 10000 3 10 14:48 20.12.2020
4629 Clouds -22 1004 69 10000 3 10 14:29 20.12.2020
4630 Clear -23 1004 76 10000 4 350 13:44 20.12.2020
4631 Clear -21 1004 70 10000 6 350 13:23 20.12.2020
4632 Clear -21 1004 70 10000 6 350 12:51 20.12.2020
4633 Clear -21 1004 70 10000 6 350 12:26 20.12.2020
4634 Clouds -21 1005 76 10000 6 360 11:52 20.12.2020
4635 Clouds -21 1005 76 10000 6 360 11:28 20.12.2020
4636 Clouds -21 1005 76 10000 5 360 10:50 20.12.2020
4637 Clouds -21 1004 76 10000 5 30 10:22 20.12.2020
4638 Clouds -21 1004 76 10000 5 30 09:57 20.12.2020
4639 Clouds -21 1004 76 10000 5 30 09:37 20.12.2020
4640 Clouds -20 1004 76 10000 2 360 09:19 20.12.2020
4641 Clouds -20 1004 76 10000 2 360 08:48 20.12.2020
4642 Clouds -20 1004 76 10000 2 360 08:29 20.12.2020
4643 Snow -18 1004 77 10000 4 360 07:22 20.12.2020
4644 Clouds -20 1004 83 10000 2 360 04:42 20.12.2020
4645 Clouds -22 1004 76 10000 1 20 01:31 20.12.2020
4646 Clear -21 1004 76 10000 3 350 00:22 20.12.2020
4647 Clouds -22 1003 83 10000 3 350 23:18 19.12.2020
4648 Clouds -22 1003 83 10000 3 350 22:45 19.12.2020
4649 Clouds -22 1003 83 10000 3 350 22:25 19.12.2020
4650 Clouds -21 1003 70 10000 1 340 21:59 19.12.2020
4651 Clouds -21 1003 70 10000 1 340 21:40 19.12.2020
4652 Clouds -22 1002 76 10000 4 360 21:21 19.12.2020
4653 Clouds -23 1002 76 10000 4 360 20:40 19.12.2020
4654 Clouds -24 1002 76 10000 3 340 20:18 19.12.2020
4655 Clouds -24 1002 76 10000 3 340 19:50 19.12.2020
4656 Clouds -24 1002 76 10000 3 340 19:29 19.12.2020
4657 Clear -22 1002 76 10000 1 330 18:37 19.12.2020
4658 Clear -23 1002 76 10000 3 360 18:19 19.12.2020
4659 Clear -23 1002 76 10000 3 360 17:44 19.12.2020
4660 Clear -23 1002 76 10000 1 340 17:22 19.12.2020
4661 Clear -23 1002 76 10000 1 340 16:43 19.12.2020
4662 Clear -23 1002 76 10000 1 340 16:25 19.12.2020
4663 Clear -23 1002 76 10000 3 350 15:55 19.12.2020
4664 Clear -23 1002 76 10000 3 350 15:33 19.12.2020
4665 Clear -24 1001 76 10000 5 340 14:40 19.12.2020
4666 Clear -22 1002 76 10000 1 360 14:21 19.12.2020
4667 Clear -22 1002 76 10000 1 360 13:41 19.12.2020
4668 Clear -23 1001 76 10000 2 30 13:19 19.12.2020
4669 Clear -24 1001 76 10000 2 30 12:43 19.12.2020
4670 Clear -24 1001 76 10000 2 30 12:25 19.12.2020
4671 Clear -23 1001 76 10000 4 330 11:56 19.12.2020
4672 Clear -23 1001 76 10000 4 330 11:35 19.12.2020
4673 Clear -23 1001 76 10000 4 330 10:43 19.12.2020
4674 Clear -22 1001 76 10000 3 350 10:23 19.12.2020
4675 Clear -22 1001 76 10000 3 350 09:47 19.12.2020
4676 Clear -22 1001 76 10000 3 350 09:29 19.12.2020
4677 Clear -22 1000 76 10000 5 340 08:32 19.12.2020
4678 Clear -22 1000 76 10000 6 350 07:24 19.12.2020
4679 Clear -23 1000 76 10000 3 350 06:52 19.12.2020
4680 Clear -22 1000 70 10000 5 350 06:19 19.12.2020
4681 Clear -21 1000 70 10000 5 340 05:18 19.12.2020
4682 Clear -21 1000 70 10000 3 340 03:19 19.12.2020
4683 Clear -18 1000 70 10000 5 10 00:37 19.12.2020
4684 Clear -20 1001 76 10000 6 10 00:18 19.12.2020
4685 Clear -20 1001 70 10000 4 10 23:47 18.12.2020
4686 Clear -20 1001 70 10000 3 20 23:23 18.12.2020
4687 Clear -18 1001 64 10000 4 20 22:46 18.12.2020
4688 Clear -17 1001 64 10000 4 60 22:22 18.12.2020
4689 Clear -17 1001 64 10000 4 60 21:50 18.12.2020
4690 Clear -17 1001 70 10000 6 30 21:31 18.12.2020
4691 Clear -17 1001 70 10000 6 30 20:41 18.12.2020
4692 Clear -15 1001 71 10000 9 30 20:21 18.12.2020
4693 Clear -15 1001 71 10000 9 30 19:44 18.12.2020
4694 Clouds -13 1001 60 10000 9 50 19:21 18.12.2020
4695 Clouds -13 1001 60 10000 9 50 18:42 18.12.2020
4696 Snow -14 1000 71 10000 10 20 18:24 18.12.2020
4697 Snow -13 1000 71 10000 8 40 17:24 18.12.2020
4698 Snow -13 1000 71 10000 8 40 16:55 18.12.2020
4699 Snow -13 1000 71 10000 8 40 16:37 18.12.2020
4700 Snow -13 1001 72 10000 6 40 16:18 18.12.2020
4701 Snow -12 1001 72 10000 6 40 15:41 18.12.2020
4702 Snow -13 1001 71 10000 5 20 15:23 18.12.2020
4703 Snow -13 1001 71 10000 5 20 14:55 18.12.2020
4704 Clouds -13 1001 66 10000 5 30 14:22 18.12.2020
4705 Clouds -12 1001 66 10000 5 30 13:50 18.12.2020
4706 Clouds -12 1001 66 10000 5 30 13:31 18.12.2020
4707 Clouds -13 1001 78 10000 6 30 12:50 18.12.2020
4708 Clouds -13 1002 71 10000 5 20 12:22 18.12.2020
4709 Clouds -13 1002 65 10000 6 20 11:23 18.12.2020
4710 Clouds -13 1002 65 10000 6 20 10:40 18.12.2020
4711 Clouds -13 1002 71 10000 6 30 10:20 18.12.2020
4712 Clouds -13 1002 71 10000 6 30 09:40 18.12.2020
4713 Clouds -13 1002 71 10000 4 30 09:22 18.12.2020
4714 Clouds -13 1002 71 10000 4 30 08:55 18.12.2020
4715 Clouds -13 1002 71 10000 4 30 08:36 18.12.2020
4716 Clouds -12 1002 72 10000 3 20 07:47 18.12.2020
4717 Snow -13 1001 78 10000 4 40 07:19 18.12.2020
4718 Snow -13 1001 78 10000 4 40 06:58 18.12.2020
4719 Clouds -13 1002 78 10000 2 100 05:43 18.12.2020
4720 Clouds -12 1001 72 10000 3 280 04:51 18.12.2020
4721 Clouds -12 1001 72 10000 3 280 02:49 18.12.2020
4722 Clear -12 1001 78 10000 3 270 01:43 18.12.2020
4723 Clouds -10 1001 72 10000 2 180 00:28 18.12.2020
4724 Clouds -11 1001 66 10000 4 110 23:51 17.12.2020
4725 Clouds -12 1001 78 10000 2 180 23:20 17.12.2020
4726 Snow -11 1000 78 9000 1 270 22:47 17.12.2020
4727 Snow -11 1000 78 9000 1 270 22:27 17.12.2020
4728 Snow -11 1000 78 10000 7 20 21:44 17.12.2020
4729 Snow -11 1000 78 10000 7 20 21:44 17.12.2020
4730 Snow -11 999 78 10000 6 20 21:20 17.12.2020
4731 Snow -11 999 78 10000 6 20 20:45 17.12.2020
4732 Snow -10 1000 72 10000 6 20 20:19 17.12.2020
4733 Snow -10 1000 72 10000 6 20 19:50 17.12.2020
4734 Snow -9 999 66 10000 6 20 19:25 17.12.2020
4735 Snow -9 999 66 10000 6 20 18:56 17.12.2020
4736 Snow -9 999 66 10000 6 20 18:37 17.12.2020
4737 Snow -10 999 72 10000 6 20 18:18 17.12.2020
4738 Snow -10 999 72 10000 6 20 17:44 17.12.2020
4739 Snow -10 999 72 10000 10 30 17:25 17.12.2020
4740 Snow -10 999 72 10000 10 30 16:39 17.12.2020
4741 Snow -11 999 78 7000 12 30 16:19 17.12.2020
4742 Snow -11 999 78 7000 12 30 15:44 17.12.2020
4743 Snow -11 999 78 9000 12 30 15:26 17.12.2020
4744 Snow -11 999 78 9000 12 30 14:48 17.12.2020
4745 Snow -12 1000 85 1200 12 30 14:20 17.12.2020
4746 Snow -12 1000 85 1200 12 30 13:48 17.12.2020
4747 Snow -12 1001 78 2700 10 30 13:20 17.12.2020
4748 Snow -12 1001 78 2700 10 30 12:40 17.12.2020
4749 Snow -12 1000 78 10000 13 40 12:21 17.12.2020
4750 Snow -12 1000 78 10000 13 40 11:42 17.12.2020
4751 Snow -12 999 72 9000 13 40 11:21 17.12.2020
4752 Snow -11 999 72 9000 13 40 10:44 17.12.2020
4753 Snow -10 999 72 9000 13 40 09:37 17.12.2020
4754 Snow -10 998 72 9000 12 50 08:52 17.12.2020
4755 Clouds -9 998 66 7000 12 70 07:44 17.12.2020
4756 Clouds -9 998 66 7000 12 70 07:25 17.12.2020
4757 Clouds -9 998 72 8000 11 70 06:49 17.12.2020
4758 Clouds -9 998 72 8000 11 70 06:30 17.12.2020
4759 Clouds -8 997 78 2400 12 60 03:30 17.12.2020
4760 Snow -7 998 73 9000 13 70 00:27 17.12.2020
4761 Snow -7 998 79 3300 16 80 23:42 16.12.2020
4762 Snow -7 998 79 3600 16 90 23:18 16.12.2020
4763 Snow -7 998 79 2000 15 80 22:48 16.12.2020
4764 Snow -7 998 79 2000 15 80 22:30 16.12.2020
4765 Snow -7 998 79 5000 14 80 21:44 16.12.2020
4766 Snow -6 997 79 3300 15 80 21:23 16.12.2020
4767 Snow -6 997 79 3300 15 80 20:52 16.12.2020
4768 Snow -6 998 79 3600 12 70 20:20 16.12.2020
4769 Snow -6 998 79 3600 12 70 19:38 16.12.2020
4770 Snow -6 998 73 9000 9 60 19:18 16.12.2020
4771 Snow -6 998 73 9000 9 60 18:49 16.12.2020
4772 Snow -7 998 73 10000 6 50 18:25 16.12.2020
4773 Snow -7 998 73 10000 6 50 17:38 16.12.2020
4774 Snow -7 998 73 10000 6 50 17:38 16.12.2020
4775 Snow -7 999 73 9000 11 30 16:56 16.12.2020
4776 Snow -9 999 85 2200 7 10 16:36 16.12.2020
4777 Snow -9 999 85 2200 7 10 16:18 16.12.2020
4778 Snow -9 999 85 2200 7 10 15:46 16.12.2020
4779 Snow -10 1000 85 7000 4 350 15:18 16.12.2020
4780 Snow -10 1000 85 7000 4 350 14:44 16.12.2020
4781 Snow -10 1000 85 7000 4 350 14:26 16.12.2020
4782 Snow -10 1001 78 10000 2 360 13:41 16.12.2020
4783 Snow -9 1001 66 10000 5 30 13:20 16.12.2020
4784 Snow -9 1001 66 10000 5 30 12:43 16.12.2020
4785 Snow -10 1002 78 10000 6 30 11:51 16.12.2020
4786 Snow -10 1002 78 10000 6 30 11:32 16.12.2020
4787 Snow -10 1002 78 10000 8 30 10:56 16.12.2020
4788 Snow -10 1002 78 10000 8 30 10:36 16.12.2020
4789 Snow -10 1002 78 10000 7 20 09:56 16.12.2020
4790 Snow -10 1002 78 10000 7 20 09:32 16.12.2020
4791 Snow -9 1002 85 10000 6 20 08:23 16.12.2020
4792 Snow -9 1002 85 10000 6 20 07:45 16.12.2020
4793 Snow -9 1002 72 10000 7 30 07:23 16.12.2020
4794 Snow -8 1003 72 10000 10 30 05:31 16.12.2020
4795 Clouds -7 1003 73 10000 4 40 01:59 16.12.2020
4796 Snow -8 1004 78 10000 2 40 23:50 15.12.2020
4797 Snow -8 1004 78 10000 2 40 23:32 15.12.2020
4798 Clouds -8 1004 78 10000 4 10 22:42 15.12.2020
4799 Clouds -9 1004 85 10000 3 10 22:22 15.12.2020
4800 Clouds -9 1004 78 10000 3 30 21:48 15.12.2020
4801 Clouds -10 1004 92 10000 4 20 21:24 15.12.2020
4802 Clouds -10 1004 92 10000 4 20 20:46 15.12.2020
4803 Clouds -10 1004 85 10000 4 20 20:27 15.12.2020
4804 Clouds -10 1004 85 10000 4 20 19:55 15.12.2020
4805 Clouds -10 1004 85 10000 4 20 19:34 15.12.2020
4806 Snow -11 1004 92 10000 4 50 18:44 15.12.2020
4807 Snow -11 1004 85 9000 6 10 18:24 15.12.2020
4808 Snow -11 1004 85 9000 6 10 17:59 15.12.2020
4809 Snow -11 1004 85 9000 6 10 17:41 15.12.2020
4810 Snow -11 1005 85 10000 6 10 17:20 15.12.2020
4811 Snow -11 1005 85 10000 6 10 17:20 15.12.2020
4812 Snow -10 1005 85 10000 6 10 16:33 15.12.2020
4813 Snow -10 1005 85 10000 5 360 15:58 15.12.2020
4814 Snow -11 1005 85 10000 5 360 15:33 15.12.2020
4815 Snow -11 1005 85 7000 6 10 14:49 15.12.2020
4816 Snow -11 1005 85 9000 6 360 14:25 15.12.2020
4817 Snow -12 1005 85 9000 6 360 13:53 15.12.2020
4818 Snow -12 1005 85 9000 6 360 13:33 15.12.2020
4819 Snow -12 1005 85 7000 5 340 12:47 15.12.2020
4820 Snow -12 1005 85 7000 5 340 12:25 15.12.2020
4821 Snow -13 1006 84 6000 4 360 11:57 15.12.2020
4822 Snow -13 1006 84 6000 4 360 11:39 15.12.2020
4823 Snow -14 1006 84 8000 4 360 11:20 15.12.2020
4824 Snow -14 1006 84 8000 4 360 10:39 15.12.2020
4825 Snow -16 1006 84 10000 5 10 09:53 15.12.2020
4826 Snow -16 1006 84 10000 5 10 09:32 15.12.2020
4827 Snow -15 1006 77 10000 4 340 08:58 15.12.2020
4828 Snow -15 1006 77 10000 4 340 08:30 15.12.2020
4829 Snow -15 1006 77 10000 4 340 08:30 15.12.2020
4830 Clouds -15 1006 77 10000 3 330 07:59 15.12.2020
4831 Clouds -15 1006 77 10000 5 360 07:36 15.12.2020
4832 Clouds -14 1006 77 10000 4 340 06:37 15.12.2020
4833 Snow -12 1006 78 10000 6 10 04:22 15.12.2020
4834 Clouds -11 1007 78 10000 4 20 00:37 15.12.2020
4835 Clouds -11 1007 78 10000 6 10 23:28 14.12.2020
4836 Clouds -10 1007 78 10000 5 20 22:59 14.12.2020
4837 Clouds -9 1007 72 10000 6 20 22:38 14.12.2020
4838 Clouds -9 1008 66 10000 11 40 21:54 14.12.2020
4839 Clouds -9 1008 66 10000 11 40 21:35 14.12.2020
4840 Clouds -9 1008 61 10000 6 30 20:52 14.12.2020
4841 Clouds -9 1008 61 10000 6 30 20:33 14.12.2020
4842 Clear -9 1008 61 10000 9 40 19:59 14.12.2020
4843 Clear -9 1008 61 10000 9 40 19:30 14.12.2020
4844 Clear -9 1008 61 10000 10 50 18:55 14.12.2020
4845 Clear -9 1008 61 10000 10 50 18:55 14.12.2020
4846 Clear -9 1008 61 10000 10 50 18:37 14.12.2020
4847 Clouds -9 1009 61 10000 10 50 17:53 14.12.2020
4848 Clouds -9 1008 66 10000 10 50 17:32 14.12.2020
4849 Clouds -9 1008 66 10000 10 50 16:53 14.12.2020
4850 Snow -9 1008 66 10000 9 50 16:30 14.12.2020
4851 Snow -9 1008 66 10000 9 50 15:53 14.12.2020
4852 Snow -9 1008 66 10000 8 50 15:30 14.12.2020
4853 Snow -9 1008 66 10000 8 50 14:45 14.12.2020
4854 Clouds -9 1008 72 10000 4 30 14:27 14.12.2020
4855 Clouds -9 1008 72 10000 4 30 13:47 14.12.2020
4856 Clouds -9 1008 72 10000 4 30 13:27 14.12.2020
4857 Clouds -8 1008 67 10000 1 270 12:54 14.12.2020
4858 Clouds -8 1008 67 10000 1 270 12:30 14.12.2020
4859 Clouds -7 1008 57 10000 3 180 11:37 14.12.2020
4860 Clouds -7 1008 62 10000 2 10 10:48 14.12.2020
4861 Clouds -7 1008 62 10000 2 10 10:27 14.12.2020
4862 Clear -7 1007 62 10000 3 230 09:44 14.12.2020
4863 Clouds -7 1006 67 9000 8 70 08:50 14.12.2020
4864 Clouds -7 1006 67 9000 8 70 08:30 14.12.2020
4865 Snow -7 1007 73 10000 11 80 07:52 14.12.2020
4866 Snow -7 1006 73 2700 8 70 06:55 14.12.2020
4867 Snow -6 1006 73 10000 7 40 05:51 14.12.2020
4868 Snow -5 1006 73 4500 11 60 03:29 14.12.2020
4869 Snow -6 1006 85 4600 9 30 00:57 14.12.2020
4870 Snow -5 1006 79 2200 7 40 00:34 14.12.2020
4871 Snow -5 1006 79 2600 6 30 23:58 13.12.2020
4872 Snow -5 1006 79 4900 5 30 23:40 13.12.2020
4873 Snow -6 1006 85 6000 7 30 22:51 13.12.2020
4874 Snow -5 1005 79 3500 6 10 22:21 13.12.2020
4875 Snow -5 1005 79 3500 6 10 21:56 13.12.2020
4876 Snow -5 1005 79 6000 8 20 21:35 13.12.2020
4877 Snow -4 1005 68 9000 9 40 20:49 13.12.2020
4878 Snow -5 1006 73 9000 7 70 20:25 13.12.2020
4879 Snow -5 1006 73 9000 7 70 19:45 13.12.2020
4880 Snow -5 1006 73 10000 6 50 19:23 13.12.2020
4881 Snow -5 1006 73 10000 6 50 18:44 13.12.2020
4882 Snow -5 1005 73 10000 8 50 18:22 13.12.2020
4883 Snow -5 1005 73 10000 8 50 17:59 13.12.2020
4884 Snow -5 1005 73 10000 8 50 17:41 13.12.2020
4885 Snow -5 1005 73 10000 5 80 17:18 13.12.2020
4886 Snow -5 1005 73 10000 5 80 16:42 13.12.2020
4887 Snow -5 1006 73 7000 4 40 16:21 13.12.2020
4888 Snow -5 1006 73 7000 4 40 15:45 13.12.2020
4889 Snow -5 1006 73 7000 4 40 15:45 13.12.2020
4890 Snow -5 1006 73 7000 4 40 15:45 13.12.2020
4891 Snow -5 1006 73 7000 4 40 15:24 13.12.2020
4892 Snow -6 1006 73 10000 2 10 14:45 13.12.2020
4893 Snow -6 1006 73 10000 2 10 14:27 13.12.2020
4894 Snow -6 1006 73 9000 5 40 13:46 13.12.2020
4895 Snow -6 1006 73 9000 5 40 13:27 13.12.2020
4896 Snow -7 1007 79 3500 6 30 12:55 13.12.2020
4897 Snow -7 1007 79 3500 6 30 12:24 13.12.2020
4898 Snow -7 1007 73 10000 7 40 11:53 13.12.2020
4899 Snow -7 1007 73 10000 7 40 11:28 13.12.2020
4900 Snow -7 1007 67 10000 5 50 10:42 13.12.2020
4901 Clouds -8 1008 67 10000 5 50 10:18 13.12.2020
4902 Clouds -8 1008 67 10000 5 50 09:37 13.12.2020
4903 Clouds -9 1008 72 10000 4 350 08:47 13.12.2020
4904 Clouds -9 1008 72 10000 4 350 08:23 13.12.2020
4905 Clouds -8 1009 61 10000 13 50 05:50 13.12.2020
4906 Clouds -9 1010 72 4900 15 40 02:43 13.12.2020
4907 Clouds -9 1011 72 1300 20 50 01:59 13.12.2020
4908 Clouds -9 1011 72 1100 18 50 01:33 13.12.2020
4909 Clouds -9 1011 72 7000 15 50 00:37 13.12.2020
4910 Clouds -9 1012 72 1300 16 60 23:33 12.12.2020
4911 Clouds -9 1012 66 9000 11 50 22:59 12.12.2020
4912 Clouds -8 1013 57 10000 11 40 22:29 12.12.2020
4913 Clear -10 1013 72 10000 8 40 21:46 12.12.2020
4914 Clear -9 1013 57 10000 6 20 21:19 12.12.2020
4915 Clear -8 1013 57 10000 6 20 20:44 12.12.2020
4916 Clear -9 1014 66 10000 9 60 20:21 12.12.2020
4917 Clear -9 1014 66 10000 9 60 19:51 12.12.2020
4918 Clear -9 1014 66 10000 9 60 19:33 12.12.2020
4919 Clear -9 1014 66 10000 9 60 19:33 12.12.2020
4920 Clear -9 1015 66 10000 7 30 18:55 12.12.2020
4921 Clear -9 1015 66 10000 7 30 18:36 12.12.2020
4922 Clouds -9 1015 66 10000 9 50 18:18 12.12.2020
4923 Clouds -9 1015 66 10000 9 50 17:40 12.12.2020
4924 Clouds -9 1015 66 3800 13 60 16:42 12.12.2020
4925 Clouds -9 1015 66 10000 7 20 15:57 12.12.2020
4926 Clouds -9 1015 66 10000 7 20 15:39 12.12.2020
4927 Clouds -9 1016 66 10000 6 10 14:54 12.12.2020
4928 Clouds -9 1016 66 10000 8 350 14:22 12.12.2020
4929 Clouds -9 1016 66 10000 8 350 13:41 12.12.2020
4930 Clouds -9 1016 61 10000 9 10 13:23 12.12.2020
4931 Clouds -9 1016 61 10000 9 10 12:36 12.12.2020
4932 Snow -9 1015 66 7000 10 90 11:20 12.12.2020
4933 Snow -9 1015 66 7000 10 90 10:45 12.12.2020
4934 Snow -9 1016 72 8000 14 80 09:24 12.12.2020
4935 Snow -9 1016 72 2500 13 80 08:25 12.12.2020
4936 Snow -10 1021 72 10000 7 40 01:41 12.12.2020
4937 Clouds -10 1021 78 2200 16 30 23:30 11.12.2020
4938 Snow -10 1022 72 10000 12 50 20:57 11.12.2020
4939 Snow -10 1023 72 10000 9 40 19:42 11.12.2020
4940 Snow -11 1024 78 9000 11 20 16:59 11.12.2020
4941 Snow -10 1025 72 10000 7 70 14:37 11.12.2020
4942 Snow -10 1025 72 10000 7 70 14:37 11.12.2020
4943 Snow -12 1025 78 10000 5 340 13:45 11.12.2020
4944 Snow -10 1025 78 6000 9 70 12:23 11.12.2020
4945 Snow -10 1025 78 6000 9 70 11:55 11.12.2020
4946 Snow -10 1025 78 6000 9 70 11:36 11.12.2020
4947 Snow -10 1025 85 4900 11 70 10:40 11.12.2020
4948 Clear -16 1026 84 10000 1 110 07:42 11.12.2020
4949 Clouds -14 1026 84 10000 2 290 05:36 11.12.2020
4950 Clouds -13 1026 85 10000 3 340 04:47 11.12.2020
4951 Clouds -9 1027 85 10000 6 80 00:54 11.12.2020
4952 Clouds -9 1027 85 10000 10 100 23:28 10.12.2020
4953 Clouds -7 1027 79 10000 3 100 21:37 10.12.2020
4954 Clouds -6 1027 79 10000 7 90 20:51 10.12.2020
4955 Clouds -6 1027 79 10000 7 90 20:29 10.12.2020
4956 Snow -6 1027 79 10000 6 90 19:29 10.12.2020
4957 Snow -5 1027 73 10000 6 80 18:48 10.12.2020
4958 Clouds -5 1027 73 10000 6 90 17:35 10.12.2020
4959 Snow -5 1027 92 5000 5 90 15:59 10.12.2020
4960 Snow -4 1027 79 10000 3 100 15:22 10.12.2020
4961 Snow -4 1027 79 10000 3 100 14:46 10.12.2020
4962 Snow -5 1027 92 6000 1 120 13:51 10.12.2020
4963 Snow -4 1026 79 10000 3 100 12:23 10.12.2020
4964 Snow -4 1026 79 10000 3 130 10:54 10.12.2020
4965 Clouds -4 1025 85 10000 5 140 08:27 10.12.2020
4966 Clouds -4 1025 85 10000 3 140 07:28 10.12.2020
4967 Clouds -4 1024 92 10000 3 140 06:20 10.12.2020
4968 Clear -3 1022 86 10000 6 130 02:44 10.12.2020
4969 Clear -3 1022 79 10000 6 130 01:33 10.12.2020
4970 Snow -4 1021 85 10000 7 110 23:45 09.12.2020
4971 Snow -5 1019 85 10000 10 100 20:40 09.12.2020
4972 Snow -5 1019 92 10000 11 100 19:46 09.12.2020
4973 Clear -5 1018 85 10000 10 110 18:39 09.12.2020
4974 Snow -4 1018 73 10000 9 110 17:35 09.12.2020
4975 Snow -5 1018 79 10000 9 100 16:40 09.12.2020
4976 Snow -5 1017 73 10000 8 100 16:20 09.12.2020
4977 Snow -6 1017 79 10000 9 110 14:51 09.12.2020
4978 Snow -6 1017 79 10000 9 110 14:27 09.12.2020
4979 Snow -6 1017 79 10000 10 110 13:37 09.12.2020
4980 Snow -5 1017 73 10000 10 110 13:18 09.12.2020
4981 Snow -5 1017 73 10000 10 110 12:31 09.12.2020
4982 Snow -5 1016 79 10000 11 100 11:37 09.12.2020
4983 Snow -5 1016 73 10000 8 100 09:52 09.12.2020
4984 Snow -6 1015 79 10000 10 100 08:41 09.12.2020
4985 Snow -6 1015 79 10000 9 110 06:50 09.12.2020
4986 Snow -7 1014 79 10000 10 100 05:33 09.12.2020
4987 Clouds -7 1013 79 10000 8 100 02:43 09.12.2020
4988 Clouds -7 1013 85 10000 5 110 00:42 09.12.2020
4989 Clouds -7 1013 85 10000 2 60 23:35 08.12.2020
4990 Clouds -7 1013 73 10000 3 80 22:26 08.12.2020
4991 Clouds -11 1012 85 10000 3 90 20:47 08.12.2020
4992 Clouds -11 1011 92 10000 4 110 19:31 08.12.2020
4993 Clouds -16 1011 91 10000 2 30 18:38 08.12.2020
4994 Clouds -15 1011 84 10000 1 70 17:19 08.12.2020
4995 Clouds -13 1010 92 10000 1 340 15:23 08.12.2020
4996 Clouds -12 1010 85 10000 1 340 13:50 08.12.2020
4997 Clouds -13 1010 92 10000 1 10 12:46 08.12.2020
4998 Clouds -14 1009 92 10000 1 20 11:59 08.12.2020
4999 Fog -14 1009 84 10000 1.31 27 11:24 08.12.2020
5000 Fog -14 1009 84 10000 1.31 27 10:41 08.12.2020
5001 Fog -14 1009 84 10000 1 310 09:45 08.12.2020
5002 Fog -17 1008 84 10000 1 70 07:40 08.12.2020
5003 Fog -16 1008 91 200 2 350 05:42 08.12.2020
5004 Fog -12 1007 85 10000 1 180 02:33 08.12.2020
5005 Fog -13 1008 92 10000 1 130 00:45 08.12.2020
5006 Fog -11 1008 85 10000 3 110 23:36 07.12.2020
5007 Fog -16 1008 91 10000 3 30 22:21 07.12.2020
5008 Clear -15 1007 84 10000 1 110 21:38 07.12.2020
5009 Fog -17 1008 77 10000 3 90 19:35 07.12.2020
5010 Clear -14 1007 84 10000 4 90 17:59 07.12.2020
5011 Mist -17 1007 84 10000 3 100 17:22 07.12.2020
5012 Mist -17 1007 84 10000 3 100 16:43 07.12.2020
5013 Mist -15 1008 84 9000 3 90 15:25 07.12.2020
5014 Mist -15 1008 84 9000 3 90 14:33 07.12.2020
5015 Clouds -14 1008 92 10000 2 100 13:36 07.12.2020
5016 Clear -12 1009 92 10000 1 130 12:30 07.12.2020
5017 Clear -16 1009 84 10000 3 80 11:42 07.12.2020
5018 Clear -14 1009 84 10000 3 90 10:36 07.12.2020
5019 Clear -13 1009 84 10000 1 100 09:23 07.12.2020
5020 Clouds -10 1009 85 10000 3 110 07:38 07.12.2020
5021 Clouds -9 1010 78 10000 5 100 05:27 07.12.2020
5022 Clouds -8 1010 78 10000 4 100 03:53 07.12.2020
5023 Clouds -4 1011 73 10000 3 150 00:49 07.12.2020
5024 Clouds -4 1012 73 10000 4 150 22:53 06.12.2020
5025 Clouds -4 1012 73 10000 3 160 21:45 06.12.2020
5026 Clouds -4 1013 73 10000 3 150 20:46 06.12.2020
5027 Clouds -4 1013 73 10000 3 150 20:26 06.12.2020
5028 Clouds -4 1013 73 10000 3 150 20:26 06.12.2020
5029 Clouds -4 1013 73 10000 4 140 19:30 06.12.2020
5030 Clouds -4 1013 79 10000 4 140 17:39 06.12.2020
5031 Clouds -5 1013 79 10000 3 140 16:34 06.12.2020
5032 Clouds -5 1014 73 10000 5 130 14:49 06.12.2020
5033 Clouds -4 1014 73 10000 5 130 13:23 06.12.2020
5034 Clouds -4 1014 73 10000 5 130 12:33 06.12.2020
5035 Clouds -4 1015 73 10000 4 130 11:53 06.12.2020
5036 Clouds -4 1015 73 10000 4 130 11:25 06.12.2020
5037 Clouds -4 1015 73 10000 4 120 10:35 06.12.2020
5038 Clouds -4 1015 68 10000 6 130 09:23 06.12.2020
5039 Clouds -4 1015 68 10000 5 130 07:41 06.12.2020
5040 Clouds -3 1015 68 10000 5 130 04:51 06.12.2020
5041 Clouds -3 1015 79 10000 5 120 00:46 06.12.2020
5042 Clouds -3 1015 79 10000 5 120 00:26 06.12.2020
5043 Clouds -3 1016 86 10000 4 140 23:56 05.12.2020
5044 Clouds -3 1016 86 10000 5 110 22:25 05.12.2020
5045 Clouds -3 1015 79 10000 4 110 21:55 05.12.2020
5046 Clouds -3 1015 79 10000 4 110 21:30 05.12.2020
5047 Clear -3 1015 79 10000 5 140 19:54 05.12.2020
5048 Clear -3 1015 73 10000 5 140 18:46 05.12.2020
5049 Clear -3 1015 68 10000 5 150 17:51 05.12.2020
5050 Clear -2 1014 68 10000 6 140 16:45 05.12.2020
5051 Clear -2 1014 68 10000 6 140 16:25 05.12.2020
5052 Clear -2 1014 74 10000 8 140 14:39 05.12.2020
5053 Clear -2 1014 68 10000 7 130 12:36 05.12.2020
5054 Clear -2 1014 68 10000 7 130 11:50 05.12.2020
5055 Clear -3 1014 73 10000 7 140 10:35 05.12.2020
5056 Clear -4 1013 79 10000 7 140 08:40 05.12.2020
5057 Clear -3 1013 73 10000 8 140 07:47 05.12.2020
5058 Clouds -3 1012 73 10000 9 130 05:33 05.12.2020
5059 Clouds -3 1012 73 10000 9 130 05:33 05.12.2020
5060 Clouds -4 1011 79 10000 7 130 00:40 05.12.2020
5061 Clouds -4 1011 85 10000 7 110 23:23 04.12.2020
5062 Clouds -4 1010 92 10000 7 110 21:34 04.12.2020
5063 Snow -6 1010 92 10000 4 100 19:21 04.12.2020
5064 Snow -6 1010 92 10000 4 100 18:30 04.12.2020
5065 Snow -7 1011 92 8000 2 90 17:44 04.12.2020
5066 Snow -21 1011 83 1000 2 350 16:30 04.12.2020
5067 Snow -24 1012 83 10000 2 350 15:23 04.12.2020
5068 Fog -26 1012 83 10000 1 340 13:36 04.12.2020
5069 Fog -28 1012 75 10000 1 340 13:18 04.12.2020
5070 Fog -29 1012 68 10000 2 360 12:20 04.12.2020
5071 Fog -32 1012 74 10000 2 350 10:37 04.12.2020
5072 Fog -32 1012 74 10000 3 350 08:29 04.12.2020
5073 Mist -32 1011 74 2400 3 340 06:40 04.12.2020
5074 Clear -33 1011 74 10000 2 330 04:53 04.12.2020
5075 Fog -33 1010 74 10000 2 330 01:52 04.12.2020
5076 Fog -33 1010 67 10000 2 20 22:49 03.12.2020
5077 Fog -33 1009 74 10000 2 30 21:23 03.12.2020
5078 Fog -33 1009 74 10000 2 30 20:46 03.12.2020
5079 Fog -33 1008 74 10000 1 360 19:23 03.12.2020
5080 Fog -32 1008 74 10000 2 360 18:41 03.12.2020
5081 Fog -33 1007 74 10000 1 350 17:21 03.12.2020
5082 Fog -32 1007 74 10000 1 350 15:59 03.12.2020
5083 Fog -32 1007 74 10000 1 350 15:59 03.12.2020
5084 Fog -32 1007 74 10000 1 350 15:32 03.12.2020
5085 Fog -31 1007 67 10000 2 350 14:49 03.12.2020
5086 Fog -31 1006 74 10000 2 10 13:55 03.12.2020
5087 Fog -31 1006 74 10000 2 10 13:55 03.12.2020
5088 Fog -31 1006 74 10000 2 350 12:46 03.12.2020
5089 Fog -30 1006 74 10000 2 360 12:23 03.12.2020
5090 Fog -32 1006 74 10000 2 350 10:54 03.12.2020
5091 Fog -31 1005 74 10000 2 350 08:49 03.12.2020
5092 Fog -29 1004 75 10000 2 360 04:21 03.12.2020
5093 Fog -30 1004 74 10000 2 30 01:57 03.12.2020
5094 Fog -31 1004 74 10000 2 20 00:28 03.12.2020
5095 Fog -30 1004 74 10000 3 340 22:46 02.12.2020
5096 Fog -28 1004 75 10000 3 340 21:50 02.12.2020
5097 Fog -27 1003 75 10000 3 350 20:51 02.12.2020
5098 Fog -27 1003 75 10000 3 350 20:33 02.12.2020
5099 Clouds -26 1003 75 10000 3 340 19:54 02.12.2020
5100 Clouds -26 1003 75 10000 2 340 17:51 02.12.2020
5101 Snow -26 1003 75 10000 3 340 17:32 02.12.2020
5102 Snow -26 1003 75 10000 3 340 16:49 02.12.2020
5103 Snow -26 1003 75 10000 3 340 14:33 02.12.2020
5104 Snow -27 1003 75 10000 3 340 11:33 02.12.2020
5105 Snow -27 1002 75 9000 3 340 10:26 02.12.2020
5106 Snow -27 1002 75 10000 3 350 07:51 02.12.2020
5107 Fog -28 1002 75 10000 2 360 00:50 02.12.2020
5108 Fog -28 1002 75 10000 2 320 22:21 01.12.2020
5109 Clouds -26 1002 87 10000 4.07 316 19:57 01.12.2020
5110 Clouds -27 1001 75 10000 2 330 19:33 01.12.2020
5111 Clouds -26 1002 83 10000 2 40 17:27 01.12.2020
5112 Clouds -26 1002 75 10000 2 20 15:24 01.12.2020
5113 Clouds -26 1002 75 10000 3 30 13:37 01.12.2020
5114 Clear -27 1003 82 10000 2 20 11:44 01.12.2020
5115 Clear -27 1003 82 10000 2 20 11:26 01.12.2020
5116 Clear -25 1003 75 10000 3 10 10:32 01.12.2020
5117 Fog -27 1004 75 10000 2 20 08:18 01.12.2020
5118 Fog -27 1004 75 10000 2 20 06:46 01.12.2020
5119 Fog -25 1005 75 10000 3 10 01:51 01.12.2020
5120 Fog -25 1005 75 10000 3 10 01:51 01.12.2020
5121 Clouds -24 1006 76 10000 1 360 00:52 01.12.2020
5122 Fog -25 1006 83 10000 3 20 23:21 30.11.2020
5123 Fog -26 1006 75 10000 2 10 22:42 30.11.2020
5124 Fog -26 1006 75 10000 2 10 22:23 30.11.2020
5125 Fog -27 1006 75 10000 2 20 20:47 30.11.2020
5126 Clear -25 1006 76 10000 1 360 19:42 30.11.2020
5127 Clear -25 1006 76 10000 1 360 19:42 30.11.2020
5128 Clear -25 1007 83 10000 2 10 18:23 30.11.2020
5129 Clear -25 1007 83 10000 2 10 17:47 30.11.2020
5130 Clear -22 1007 76 10000 3 340 16:54 30.11.2020
5131 Clear -24 1007 76 10000 3 360 15:59 30.11.2020
5132 Clear -23 1007 76 10000 4.7 319 14:31 30.11.2020
5133 Clear -23 1008 83 10000 2 350 13:42 30.11.2020
5134 Clear -22 1008 76 10000 3 340 12:26 30.11.2020
5135 Clear -22 1008 83 10000 3 330 11:57 30.11.2020
5136 Clear -21 1008 76 10000 2 320 10:26 30.11.2020
5137 Clear -20 1008 83 10000 6 10 09:45 30.11.2020
5138 Clear -23 1008 76 10000 4 10 07:18 30.11.2020
5139 Clouds -18 1008 84 10000 3 340 23:58 29.11.2020
5140 Clouds -15 1007 84 10000 4 340 21:51 29.11.2020
5141 Snow -16 1007 84 10000 6 360 21:31 29.11.2020
5142 Snow -21 1007 76 3900 4 320 19:54 29.11.2020
5143 Fog -22 1007 76 9000 5 350 17:47 29.11.2020
5144 Clear -22 1007 83 10000 5 350 16:24 29.11.2020
5145 Clear -22 1008 83 10000 5 330 13:23 29.11.2020
5146 Clear -20 1009 83 10000 5 350 11:41 29.11.2020
5147 Clouds -18 1010 84 10000 2 70 10:22 29.11.2020
5148 Clouds -17 1010 84 10000 1 10 08:38 29.11.2020
5149 Clear -17 1011 84 10000 4 30 05:19 29.11.2020
5150 Clouds -15 1011 84 10000 1 30 23:52 28.11.2020
5151 Clear -15 1011 84 10000 5 10 22:56 28.11.2020
5152 Clear -16 1011 84 10000 1 50 20:47 28.11.2020
5153 Clear -16 1011 84 10000 1 290 19:48 28.11.2020
5154 Clear -16 1011 84 10000 1 290 19:22 28.11.2020
5155 Clouds -15 1010 84 10000 1 20 18:27 28.11.2020
5156 Clear -14 1010 84 10000 1 30 17:47 28.11.2020
5157 Clear -18 1010 84 10000 3 20 16:44 28.11.2020
5158 Clouds -16 1010 84 10000 4 360 14:54 28.11.2020
5159 Clouds -15 1009 84 10000 5 340 12:35 28.11.2020
5160 Clouds -14 1008 84 10000 5 350 10:46 28.11.2020
5161 Clear -16 1007 84 10000 5 340 06:42 28.11.2020
5162 Clear -8 1005 78 10000 7 10 03:32 28.11.2020
5163 Clear -8 1004 78 10000 1 60 01:50 28.11.2020
5164 Clear -4 1003 68 10000 6 20 23:18 27.11.2020
5165 Clear -6 1002 79 10000 2 30 21:33 27.11.2020
5166 Clouds -6 1001 73 10000 3 10 20:36 27.11.2020
5167 Clear -10 1000 85 10000 2 330 19:30 27.11.2020
5168 Clear -3 999 63 10000 2 340 18:51 27.11.2020
5169 Clouds -4 996 73 10000 8 110 15:19 27.11.2020
5170 Fog -5 995 85 10000 7 110 13:44 27.11.2020
5171 Clouds -7 994 92 10000 4 100 12:48 27.11.2020
5172 Clouds -7 993 100 10000 5 110 11:50 27.11.2020
5173 Clouds -7 992 92 10000 2 180 10:51 27.11.2020
5174 Clouds -7 992 92 10000 2 180 10:24 27.11.2020
5175 Clouds -10 991 95 10000 4.72 145 07:30 27.11.2020
5176 Clouds -10 991 95 10000 4.72 145 07:30 27.11.2020
5177 Clear -9 986 94 10000 3.8 119 22:42 26.11.2020
5178 Clouds -8 986 94 10000 4.7 111 22:22 26.11.2020
5179 Clouds -4 981 85 10000 10 90 21:25 26.11.2020
5180 Snow -5 981 85 2700 3 30 19:24 26.11.2020
5181 Clear -12 981 85 10000 6 20 18:30 26.11.2020
5182 Clear -14 980 84 10000 4 350 16:32 26.11.2020
5183 Clouds -12 978 85 10000 3 20 13:43 26.11.2020
5184 Clouds -17 978 84 10000 3 90 12:44 26.11.2020
5185 Clouds -17 978 84 10000 3 90 12:23 26.11.2020
5186 Clouds -12 976 85 10000 1 70 10:38 26.11.2020
5187 Snow -10 975 85 10000 1 330 09:49 26.11.2020
5188 Snow -10 975 85 10000 1 330 09:31 26.11.2020
5189 Snow -11 974 85 10000 1.27 6 08:40 26.11.2020
5190 Snow -11 972 85 10000 1 90 06:56 26.11.2020
5191 Snow -9 968 78 6000 1.6 245 00:46 26.11.2020
5192 Snow -9 966 78 9000 10 180 21:29 25.11.2020
5193 Snow -10 962 92 1500 12 170 19:58 25.11.2020
5194 Snow -9 960 85 550 14 190 18:50 25.11.2020
5195 Snow -8 954 85 450 15 190 17:24 25.11.2020
5196 Snow -7 950 92 500 15 220 15:42 25.11.2020
5197 Snow -5 948 92 700 11 240 14:42 25.11.2020
5198 Snow -3 948 92 900 12 260 13:44 25.11.2020
5199 Snow -3 948 92 550 12 270 12:30 25.11.2020
5200 Snow -3 950 92 1600 11 310 11:20 25.11.2020
5201 Snow -3 951 92 450 13 320 09:20 25.11.2020
5202 Snow -3 951 92 450 13 320 08:49 25.11.2020
5203 Snow -3 956 92 1000 10 330 05:20 25.11.2020
5204 Snow -3 958 92 1200 10 340 03:49 25.11.2020
5205 Clouds -3 962 86 9000 10 360 00:55 25.11.2020
5206 Snow -3 963 92 9000 10 10 23:57 24.11.2020
5207 Snow -3 963 92 5000 8 360 23:34 24.11.2020
5208 Snow -3 964 92 5000 11 20 22:38 24.11.2020
5209 Snow -3 965 86 4900 14 40 21:31 24.11.2020
5210 Snow -3 966 86 7000 13 40 20:51 24.11.2020
5211 Snow -3 967 92 700 15 30 19:47 24.11.2020
5212 Snow -5 969 92 700 12 360 17:31 24.11.2020
5213 Snow -5 971 92 650 12 10 16:56 24.11.2020
5214 Snow -5 971 92 650 12 10 16:36 24.11.2020
5215 Snow -6 972 92 650 15 10 15:55 24.11.2020
5216 Snow -4 973 85 1100 11 20 15:19 24.11.2020
5217 Snow -4 973 85 1100 11 20 14:43 24.11.2020
5218 Snow -5 976 85 10000 9 30 12:58 24.11.2020
5219 Snow -5 976 85 10000 9 30 12:31 24.11.2020
5220 Snow -5 977 85 10000 9 20 11:59 24.11.2020
5221 Clouds -4 978 79 10000 12 40 10:52 24.11.2020
5222 Clouds -4 978 79 10000 12 40 10:25 24.11.2020
5223 Clouds -5 978 85 10000 12 30 09:37 24.11.2020
5224 Clouds -4 979 79 10000 6 50 08:33 24.11.2020
5225 Clouds -4 981 85 10000 5 350 04:50 24.11.2020
5226 Snow -2 984 79 7000 3 90 23:35 23.11.2020
5227 Clouds -3 985 86 10000 1 60 21:56 23.11.2020
5228 Snow -3 985 86 10000 2 90 21:25 23.11.2020
5229 Clouds -3 985 79 10000 4 110 20:29 23.11.2020
5230 Clouds -3 985 86 10000 5 110 19:53 23.11.2020
5231 Clouds -6 986 92 10000 2 40 17:29 23.11.2020
5232 Clouds -5 986 92 10000 2 40 16:55 23.11.2020
5233 Snow -4 986 92 6000 2 10 14:50 23.11.2020
5234 Mist -4 986 92 1500 2 320 13:56 23.11.2020
5235 Snow -4 986 92 1400 1 330 12:40 23.11.2020
5236 Snow -4 986 100 3600 2 350 11:57 23.11.2020
5237 Snow -4 986 100 3600 2 350 11:38 23.11.2020
5238 Snow -4 986 100 1900 1.8 193 09:59 23.11.2020
5239 Snow -4 985 92 10000 1 160 08:58 23.11.2020
5240 Snow -4 985 85 9000 1 240 07:58 23.11.2020
5241 Clouds -3 985 86 10000 4 120 05:22 23.11.2020
5242 Snow -2 982 92 1800 11 100 23:54 22.11.2020
5243 Clouds 0 981 98 8000 12 100 22:32 22.11.2020
5244 Mist 0 981 97 2300 8 100 21:25 22.11.2020
5245 Mist 1 981 97 2700 9 80 20:27 22.11.2020
5246 Snow 1 980 97 10000 7 70 19:29 22.11.2020
5247 Snow 0 980 80 10000 6 40 18:25 22.11.2020
5248 Clouds -1 980 98 10000 8 40 16:29 22.11.2020
5249 Snow -1 981 86 10000 13 30 15:27 22.11.2020
5250 Snow 0 982 96 9000 9 70 13:44 22.11.2020
5251 Snow -1 983 80 9000 8 60 12:43 22.11.2020
5252 Clouds -1 983 74 10000 9 80 11:54 22.11.2020
5253 Snow -1 984 74 10000 7 70 10:54 22.11.2020
5254 Snow -1 984 74 10000 7 70 10:36 22.11.2020
5255 Snow -1 984 74 10000 10 70 07:43 22.11.2020
5256 Clouds -1 986 74 10000 8 50 01:47 22.11.2020
5257 Snow -2 985 86 1900 16 90 22:42 21.11.2020
5258 Snow -2 986 86 2300 13 80 21:32 21.11.2020
5259 Snow -1 987 80 4300 9 50 20:53 21.11.2020
5260 Snow -1 987 80 4300 9 50 20:28 21.11.2020
5261 Snow -1 987 80 10000 13 40 19:50 21.11.2020
5262 Snow -1 987 80 9000 12 40 19:20 21.11.2020
5263 Snow 0 987 97 10000 11 50 17:54 21.11.2020
5264 Snow 0 988 96 10000 10 60 16:47 21.11.2020
5265 Snow 0 989 96 10000 7 60 15:45 21.11.2020
5266 Snow 1 989 69 10000 11 80 15:21 21.11.2020
5267 Snow 1 989 69 10000 11 80 14:42 21.11.2020
5268 Clouds 0 990 96 10000 7 50 13:27 21.11.2020
5269 Clouds 0 991 96 10000 3 30 12:24 21.11.2020
5270 Clouds 0 991 96 10000 5 40 11:50 21.11.2020
5271 Snow 0 991 98 10000 2 360 10:28 21.11.2020
5272 Snow 0 991 97 7000 5 50 09:22 21.11.2020
5273 Snow 0 991 97 5000 10 90 08:50 21.11.2020
5274 Snow 0 991 97 2000 8 80 05:43 21.11.2020
5275 Snow 0 991 97 10000 7 80 03:36 21.11.2020
5276 Snow -2 992 92 10000 8 10 00:23 21.11.2020
5277 Snow -2 992 86 10000 8 20 23:21 20.11.2020
5278 Snow -1 993 86 3200 4 40 21:46 20.11.2020
5279 Snow -1 993 86 3200 4 40 21:26 20.11.2020
5280 Snow -1 992 80 10000 4 50 20:42 20.11.2020
5281 Clouds -1 992 80 10000 7 70 19:33 20.11.2020
5282 Clouds -1 992 80 10000 4 50 18:27 20.11.2020
5283 Clouds -1 992 86 10000 9 80 17:32 20.11.2020
5284 Snow 0 991 96 7000 6 90 16:48 20.11.2020
5285 Snow 0 991 97 7000 6 90 16:27 20.11.2020
5286 Snow 0 991 97 10000 6 90 15:42 20.11.2020
5287 Snow -1 990 98 9000 3 70 14:18 20.11.2020
5288 Snow -2 990 100 10000 3 360 13:22 20.11.2020
5289 Snow -2 990 100 10000 3 360 12:58 20.11.2020
5290 Snow -2 990 100 10000 3 360 12:25 20.11.2020
5291 Snow -2 990 100 3200 3 360 11:35 20.11.2020
5292 Snow -1 991 92 2700 4 360 09:56 20.11.2020
5293 Snow -2 991 100 3700 3 360 08:32 20.11.2020
5294 Snow -2 991 100 5000 3 10 07:52 20.11.2020
5295 Clouds -1 991 86 10000 4 20 05:19 20.11.2020
5296 Clouds 1 992 86 10000 5 80 00:41 20.11.2020
5297 Snow 0 992 96 10000 3 70 22:31 19.11.2020
5298 Rain 0 992 96 10000 2 50 21:54 19.11.2020
5299 Clouds 0 991 96 10000 7 100 20:59 19.11.2020
5300 Clouds 0 991 86 10000 6 100 20:21 19.11.2020
5301 Clouds 0 991 86 10000 6 100 20:21 19.11.2020
5302 Clouds 1 991 86 10000 6 100 19:27 19.11.2020
5303 Clouds 1 990 86 10000 8 110 18:55 19.11.2020
5304 Clouds 1 990 86 10000 8 110 17:35 19.11.2020
5305 Clouds 1 990 86 10000 10 110 16:39 19.11.2020
5306 Clouds 1 989 86 10000 12 110 15:31 19.11.2020
5307 Clouds 1 989 86 10000 10 110 13:58 19.11.2020
5308 Clouds 1 989 86 10000 10 110 13:38 19.11.2020
5309 Clouds 1 988 86 10000 11 100 12:55 19.11.2020
5310 Clouds 1 988 86 10000 11 100 12:34 19.11.2020
5311 Clouds 1 988 86 10000 11 110 11:41 19.11.2020
5312 Clouds 1 987 86 10000 11 100 11:22 19.11.2020
5313 Clouds 1 987 86 10000 11 100 10:44 19.11.2020
5314 Clouds 1 986 86 10000 11 100 09:48 19.11.2020
5315 Clouds 1 986 86 10000 11 100 09:28 19.11.2020
5316 Clear 1 986 86 10000 12 110 08:44 19.11.2020
5317 Clear 1 985 86 10000 12 100 07:36 19.11.2020
5318 Clouds 2 982 89 10000 13 110 01:48 19.11.2020
5319 Clouds 2 981 87 10000 13 110 00:33 19.11.2020
5320 Clouds 2 981 89 10000 13 120 23:32 18.11.2020
5321 Clouds 1 981 91 10000 12 120 22:59 18.11.2020
5322 Clouds 2 980 90 10000 13 120 22:29 18.11.2020
5323 Clouds 2 979 93 10000 17 110 21:44 18.11.2020
5324 Clouds 2 979 93 10000 17 110 21:25 18.11.2020
5325 Rain 3 978 93 7000 18 110 20:37 18.11.2020
5326 Rain 3 978 93 10000 19 100 19:42 18.11.2020
5327 Rain 3 978 93 10000 19 100 19:22 18.11.2020
5328 Rain 3 978 93 5000 20 100 18:40 18.11.2020
5329 Rain 3 979 93 4900 20 110 17:44 18.11.2020
5330 Rain 3 979 93 5000 20 110 16:35 18.11.2020
5331 Rain 3 980 93 4600 20 110 15:59 18.11.2020
5332 Rain 2 980 100 2000 19 110 14:41 18.11.2020
5333 Rain 2 982 100 1400 16 110 13:55 18.11.2020
5334 Rain 2 983 100 2000 17 100 13:22 18.11.2020
5335 Mist 2 983 100 2000 17 100 12:43 18.11.2020
5336 Rain 2 984 93 1600 17 100 11:51 18.11.2020
5337 Rain 1 985 100 2400 16 100 10:56 18.11.2020
5338 Rain 1 985 100 2400 16 100 10:27 18.11.2020
5339 Rain 1 987 95 5000 12 110 08:40 18.11.2020
5340 Rain 1 989 100 1900 11 110 06:48 18.11.2020
5341 Fog 1 990 100 1100 10 100 04:24 18.11.2020
5342 Fog 1 992 100 350 9 120 00:20 18.11.2020
5343 Fog 1 992 100 400 9 120 23:24 17.11.2020
5344 Rain 1 993 100 1600 10 120 22:44 17.11.2020
5345 Rain 1 993 100 1600 10 120 22:25 17.11.2020
5346 Snow 1 993 95 6000 12 120 21:46 17.11.2020
5347 Snow 1 993 95 4700 12 120 21:22 17.11.2020
5348 Snow 1 993 95 4700 12 120 20:43 17.11.2020
5349 Snow 1 993 95 4700 12 120 20:22 17.11.2020
5350 Snow 1 995 95 7000 12 120 18:56 17.11.2020
5351 Mist 1 995 96 3000 12 120 18:22 17.11.2020
5352 Mist 1 995 96 3000 12 120 17:27 17.11.2020
5353 Snow 1 996 96 4900 13 120 16:30 17.11.2020
5354 Mist 1 996 96 4700 13 120 15:53 17.11.2020
5355 Mist 1 996 96 4700 13 120 15:34 17.11.2020
5356 Snow 1 997 96 8000 14 120 14:57 17.11.2020
5357 Snow 1 997 96 8000 14 120 14:29 17.11.2020
5358 Snow 1 998 96 3500 14 120 13:42 17.11.2020
5359 Snow 1 998 96 4700 13 120 13:20 17.11.2020
5360 Snow 1 998 96 4700 13 120 12:41 17.11.2020
5361 Mist 1 999 96 4100 13 120 11:44 17.11.2020
5362 Snow 1 999 96 6000 11 120 10:56 17.11.2020
5363 Snow 1 999 96 6000 11 120 10:33 17.11.2020
5364 Rain 1 1000 95 5000 11 120 09:51 17.11.2020
5365 Rain 1 1000 96 6000 12 120 09:29 17.11.2020
5366 Rain 1 1000 96 10000 11 120 08:24 17.11.2020
5367 Clouds 1 1000 96 9000 11 120 07:46 17.11.2020
5368 Rain 1 1000 95 10000 11 120 06:40 17.11.2020
5369 Clouds 1 1001 90 10000 12 120 03:48 17.11.2020
5370 Clouds 1 1002 89 10000 14 130 02:53 17.11.2020
5371 Clouds 1 1003 88 10000 14 130 01:25 17.11.2020
5372 Clouds 1 1003 89 10000 15 130 00:55 17.11.2020
5373 Clouds 1 1003 89 10000 14 130 23:49 16.11.2020
5374 Clouds 1 1003 90 10000 14 130 23:29 16.11.2020
5375 Clouds 1 1004 86 10000 12 130 22:47 16.11.2020
5376 Clouds 1 1004 86 10000 12 130 22:20 16.11.2020
5377 Clouds 1 1004 86 10000 12 130 21:46 16.11.2020
5378 Clouds 1 1004 86 10000 12 130 21:24 16.11.2020
5379 Clouds 1 1004 86 10000 12 130 20:38 16.11.2020
5380 Clear 1 1004 86 10000 12 130 20:20 16.11.2020
5381 Clear 1 1004 86 10000 12 130 19:38 16.11.2020
5382 Clear 1 1004 86 10000 11 140 19:19 16.11.2020
5383 Clear 1 1004 86 10000 11 140 18:39 16.11.2020
5384 Clear 1 1004 86 10000 11 140 17:50 16.11.2020
5385 Clear 1 1005 80 10000 11 130 17:21 16.11.2020
5386 Clear 2 1005 80 10000 11 130 16:54 16.11.2020
5387 Clear 2 1005 80 10000 11 130 16:28 16.11.2020
5388 Clear 1 1005 86 10000 11 140 15:52 16.11.2020
5389 Clear 1 1005 86 10000 11 140 15:31 16.11.2020
5390 Clear 2 1005 80 10000 11 140 14:57 16.11.2020
5391 Clear 2 1005 80 10000 11 140 14:28 16.11.2020
5392 Clear 2 1005 80 10000 12 150 13:31 16.11.2020
5393 Clouds 2 1006 80 10000 10 140 12:33 16.11.2020
5394 Snow 2 1006 80 10000 11 140 11:44 16.11.2020
5395 Snow 2 1006 80 10000 11 140 11:25 16.11.2020
5396 Clear 2 1006 74 10000 11 140 10:48 16.11.2020
5397 Clear 2 1006 74 10000 11 140 10:26 16.11.2020
5398 Clear 2 1006 74 10000 11 140 10:26 16.11.2020
5399 Clear 2 1006 74 10000 9 140 09:56 16.11.2020
5400 Clear 2 1006 74 10000 9 140 09:37 16.11.2020
5401 Clear 2 1006 80 10000 9 150 08:49 16.11.2020
5402 Clear 2 1006 80 10000 9 150 08:26 16.11.2020
5403 Clear 2 1006 80 10000 8 150 07:36 16.11.2020
5404 Clear 2 1007 80 10000 10 150 06:47 16.11.2020
5405 Clear 2 1007 80 10000 11 160 05:50 16.11.2020
5406 Clear 1 1007 86 10000 13 160 03:58 16.11.2020
5407 Clear 1 1008 86 10000 8 140 01:46 16.11.2020
5408 Clear 1 1008 86 10000 8 140 01:46 16.11.2020
5409 Clear 1 1008 86 10000 10 130 00:53 16.11.2020
5410 Clouds 1 1009 86 10000 10 140 23:33 15.11.2020
5411 Clouds 1 1010 80 10000 11 130 22:58 15.11.2020
5412 Clouds 0 1011 92 10000 10 130 22:37 15.11.2020
5413 Clouds 0 1011 94 10000 13 140 22:18 15.11.2020
5414 Clear 0 1011 94 10000 13 140 21:37 15.11.2020
5415 Clouds 0 1012 96 10000 13 140 21:19 15.11.2020
5416 Clouds 0 1012 96 10000 13 140 20:40 15.11.2020
5417 Clouds 0 1012 97 10000 11 140 19:59 15.11.2020
5418 Clouds 0 1012 97 10000 11 140 19:41 15.11.2020
5419 Clouds 0 1012 96 10000 11 140 19:21 15.11.2020
5420 Clouds 0 1014 96 10000 9 150 18:45 15.11.2020
5421 Clouds 0 1014 97 10000 9 150 18:25 15.11.2020
5422 Snow -1 1015 80 10000 9 130 17:59 15.11.2020
5423 Snow -1 1015 80 10000 9 130 17:40 15.11.2020
5424 Snow -2 1016 79 10000 10 150 17:22 15.11.2020
5425 Snow -2 1016 79 10000 10 150 16:44 15.11.2020
5426 Snow -2 1017 79 10000 9 130 16:19 15.11.2020
5427 Snow -2 1017 79 10000 9 130 15:44 15.11.2020
5428 Snow -2 1017 79 10000 9 130 15:25 15.11.2020
5429 Snow -3 1018 63 10000 8 120 14:54 15.11.2020
5430 Snow -3 1018 63 10000 8 120 14:26 15.11.2020
5431 Clear -5 1019 79 10000 8 110 13:44 15.11.2020
5432 Clear -5 1019 79 10000 8 110 13:25 15.11.2020
5433 Clear -5 1020 62 10000 1 280 12:47 15.11.2020
5434 Clouds -5 1021 53 10000 1 140 12:19 15.11.2020
5435 Clouds -5 1021 53 10000 1 140 11:44 15.11.2020
5436 Clear -7 1022 62 10000 3 110 11:19 15.11.2020
5437 Clear -7 1022 62 10000 3 110 10:53 15.11.2020
5438 Clear -7 1022 62 10000 3 110 10:31 15.11.2020
5439 Clear -9 1023 72 10000 4 140 09:55 15.11.2020
5440 Clear -9 1023 72 10000 4 140 09:32 15.11.2020
5441 Clear -10 1023 66 10000 5 120 08:56 15.11.2020
5442 Clear -10 1023 66 10000 5 120 08:38 15.11.2020
5443 Clear -11 1024 72 10000 2 170 07:45 15.11.2020
5444 Clear -12 1024 78 10000 3 150 06:42 15.11.2020
5445 Clear -12 1024 78 10000 3 140 04:53 15.11.2020
5446 Clear -19 1026 70 10000 2 60 02:21 15.11.2020
5447 Clear -20 1026 76 10000 3 40 00:31 15.11.2020
5448 Clear -20 1026 76 10000 2 20 23:54 14.11.2020
5449 Clouds -19 1026 77 10000 3 10 22:59 14.11.2020
5450 Clouds -19 1026 77 10000 3 10 22:41 14.11.2020
5451 Clouds -17 1026 77 10000 3 40 22:19 14.11.2020
5452 Clouds -17 1026 77 10000 3 40 21:39 14.11.2020
5453 Clouds -16 1026 77 10000 3 360 21:20 14.11.2020
5454 Clouds -16 1026 77 10000 3 360 20:47 14.11.2020
5455 Clouds -16 1026 77 10000 3 360 20:24 14.11.2020
5456 Clouds -14 1026 77 10000 2 20 19:39 14.11.2020
5457 Snow -13 1025 71 10000 3 340 19:19 14.11.2020
5458 Snow -13 1025 71 10000 3 340 18:41 14.11.2020
5459 Clouds -13 1025 78 10000 3 350 18:22 14.11.2020
5460 Clouds -13 1025 78 10000 3 350 17:45 14.11.2020
5461 Clouds -13 1025 78 10000 3 350 17:45 14.11.2020
5462 Clouds -13 1025 78 10000 3 350 17:27 14.11.2020
5463 Snow -13 1025 78 10000 3 360 16:52 14.11.2020
5464 Snow -13 1025 78 10000 3 360 16:33 14.11.2020
5465 Snow -13 1025 78 10000 4 350 15:56 14.11.2020
5466 Snow -13 1025 78 10000 4 350 15:32 14.11.2020
5467 Snow -13 1025 78 6000 3 360 14:57 14.11.2020
5468 Snow -13 1025 78 6000 3 360 14:30 14.11.2020
5469 Snow -13 1025 84 9000 4 340 13:55 14.11.2020
5470 Snow -13 1025 84 9000 4 340 13:37 14.11.2020
5471 Snow -13 1024 84 10000 4 350 13:18 14.11.2020
5472 Snow -13 1024 84 10000 4 350 12:39 14.11.2020
5473 Snow -13 1024 84 10000 4 360 12:18 14.11.2020
5474 Snow -13 1024 84 10000 4 360 11:39 14.11.2020
5475 Snow -13 1024 84 10000 4 350 11:18 14.11.2020
5476 Snow -13 1024 84 10000 4 350 10:40 14.11.2020
5477 Snow -13 1023 84 10000 4 340 10:22 14.11.2020
5478 Snow -13 1023 84 10000 4 340 09:45 14.11.2020
5479 Snow -13 1023 84 10000 4 340 09:26 14.11.2020
5480 Snow -13 1022 84 10000 5 350 08:42 14.11.2020
5481 Snow -13 1022 84 10000 5 350 08:22 14.11.2020
5482 Snow -13 1022 84 10000 5 350 07:42 14.11.2020
5483 Snow -13 1022 84 10000 5 350 07:42 14.11.2020
5484 Snow -13 1021 78 10000 5 350 06:58 14.11.2020
5485 Clouds -14 1021 84 10000 5 340 06:21 14.11.2020
5486 Clouds -14 1020 84 10000 5 350 05:18 14.11.2020
5487 Clear -15 1019 77 10000 5 360 01:59 14.11.2020
5488 Clear -14 1018 71 10000 6 350 00:25 14.11.2020
5489 Clear -14 1017 77 10000 6 350 23:38 13.11.2020
5490 Clear -15 1016 77 10000 5 340 22:59 13.11.2020
5491 Clear -15 1016 77 10000 5 340 22:41 13.11.2020
5492 Clear -16 1016 84 10000 5 340 22:21 13.11.2020
5493 Clear -16 1016 84 10000 5 340 21:49 13.11.2020
5494 Clear -16 1016 84 10000 5 340 21:27 13.11.2020
5495 Clouds -14 1015 77 10000 5 360 20:51 13.11.2020
5496 Clouds -14 1015 77 10000 5 360 20:32 13.11.2020
5497 Clouds -14 1014 84 10000 5 350 19:56 13.11.2020
5498 Clouds -14 1014 84 10000 5 350 19:37 13.11.2020
5499 Clouds -10 1013 78 10000 6 360 19:19 13.11.2020
5500 Clouds -10 1013 78 10000 6 360 18:32 13.11.2020
5501 Clouds -11 1013 85 10000 6 360 17:47 13.11.2020
5502 Clouds -11 1012 78 10000 4 350 17:23 13.11.2020
5503 Clouds -11 1012 78 10000 4 350 16:57 13.11.2020
5504 Clouds -11 1012 78 10000 4 350 16:39 13.11.2020
5505 Clouds -11 1012 85 10000 4 360 16:20 13.11.2020
5506 Clouds -11 1012 85 10000 4 360 15:39 13.11.2020
5507 Clouds -10 1011 78 10000 6 360 15:21 13.11.2020
5508 Clouds -10 1011 78 10000 6 360 14:38 13.11.2020
5509 Clear -9 1011 78 10000 6 340 14:18 13.11.2020
5510 Clear -9 1011 78 10000 6 340 14:18 13.11.2020
5511 Clear -9 1011 78 10000 6 340 13:32 13.11.2020
5512 Clear -9 1011 78 10000 6 340 13:32 13.11.2020
5513 Clear -8 1010 78 10000 6 350 12:59 13.11.2020
5514 Clear -8 1010 78 10000 6 350 12:40 13.11.2020
5515 Clouds -7 1010 79 10000 6 10 12:22 13.11.2020
5516 Clouds -7 1010 79 10000 6 10 11:46 13.11.2020
5517 Clouds -6 1009 73 10000 8 10 11:22 13.11.2020
5518 Clouds -6 1009 73 10000 8 10 10:51 13.11.2020
5519 Clouds -6 1009 73 10000 8 10 10:33 13.11.2020
5520 Clear -6 1009 79 10000 7 20 09:52 13.11.2020
5521 Clear -6 1009 79 10000 7 20 09:31 13.11.2020
5522 Clear -6 1008 79 10000 7 10 08:54 13.11.2020
5523 Clear -6 1008 79 10000 7 10 08:29 13.11.2020
5524 Clear -6 1007 85 10000 5 30 07:51 13.11.2020
5525 Clear -6 1007 85 10000 5 30 07:27 13.11.2020
5526 Clouds -6 1007 85 10000 6 10 06:56 13.11.2020
5527 Clouds -5 1006 79 10000 6 10 06:37 13.11.2020
5528 Clouds -5 1006 85 10000 8 360 05:41 13.11.2020
5529 Clouds -4 1005 79 10000 1 240 04:20 13.11.2020
5530 Clouds -4 1004 79 10000 2 230 01:43 13.11.2020
5531 Clouds -5 1003 85 10000 6 10 00:37 13.11.2020
5532 Clouds -4 1003 79 10000 8 20 23:55 12.11.2020
5533 Clouds -4 1002 79 10000 9 20 23:21 12.11.2020
5534 Clouds -4 1002 79 10000 9 20 22:56 12.11.2020
5535 Clouds -4 1001 79 10000 2 360 22:38 12.11.2020
5536 Clouds -5 1001 85 10000 8 20 21:59 12.11.2020
5537 Snow -6 1001 92 10000 8 20 21:41 12.11.2020
5538 Snow -7 1001 92 10000 5 350 21:22 12.11.2020
5539 Snow -7 1001 92 10000 5 350 20:42 12.11.2020
5540 Snow -7 1001 92 10000 5 350 20:24 12.11.2020
5541 Snow -7 1000 92 10000 2 330 19:55 12.11.2020
5542 Snow -7 1000 92 10000 2 330 19:37 12.11.2020
5543 Snow -7 1000 92 6000 3 360 19:19 12.11.2020
5544 Snow -7 1000 92 6000 3 360 18:42 12.11.2020
5545 Snow -8 1000 92 3500 3 350 18:20 12.11.2020
5546 Snow -8 1000 92 3500 3 350 17:43 12.11.2020
5547 Snow -8 999 92 1800 3 350 17:24 12.11.2020
5548 Snow -8 999 92 1800 3 350 16:45 12.11.2020
5549 Snow -8 999 92 1800 3 350 16:23 12.11.2020
5550 Snow -8 999 92 2500 3 320 15:53 12.11.2020
5551 Snow -8 999 92 2500 3 320 15:29 12.11.2020
5552 Snow -8 999 92 4100 4 340 14:56 12.11.2020
5553 Snow -8 999 92 4100 4 340 14:37 12.11.2020
5554 Snow -8 998 85 3600 3 350 14:18 12.11.2020
5555 Snow -8 998 85 3600 3 350 13:45 12.11.2020
5556 Snow -8 998 85 2500 3 350 13:19 12.11.2020
5557 Snow -8 998 85 2500 3 350 12:48 12.11.2020
5558 Snow -8 998 85 2500 3 350 12:25 12.11.2020
5559 Snow -9 998 92 10000 3 360 11:54 12.11.2020
5560 Snow -9 998 92 10000 3 360 11:35 12.11.2020
5561 Clear -9 997 85 10000 4 360 10:53 12.11.2020
5562 Clear -9 997 85 10000 4 360 10:34 12.11.2020
5563 Clouds -11 997 85 10000 3 10 09:52 12.11.2020
5564 Clouds -11 997 85 10000 3 10 09:27 12.11.2020
5565 Clear -10 996 92 10000 1 360 08:59 12.11.2020
5566 Clear -10 996 92 10000 1 360 08:40 12.11.2020
5567 Clear -10 996 92 10000 1 360 08:40 12.11.2020
5568 Clear -10 996 92 10000 2 350 08:20 12.11.2020
5569 Clear -10 996 92 10000 2 350 07:54 12.11.2020
5570 Clear -9 996 92 10000 3 10 07:31 12.11.2020
5571 Clear -9 995 85 10000 2 10 06:52 12.11.2020
5572 Clear -9 995 85 10000 2 360 06:25 12.11.2020
5573 Clouds -8 994 85 10000 4 10 03:45 12.11.2020
5574 Clouds -9 994 92 10000 4 10 03:19 12.11.2020
5575 Clouds -10 994 92 10000 2 10 00:32 12.11.2020
5576 Clouds -12 994 92 10000 2 20 23:43 11.11.2020
5577 Clouds -12 994 92 10000 2 20 23:24 11.11.2020
5578 Clouds -12 994 92 10000 2 20 23:24 11.11.2020
5579 Clouds -11 994 92 10000 2 40 22:47 11.11.2020
5580 Clouds -10 994 92 10000 2 40 22:22 11.11.2020
5581 Clouds -10 994 92 10000 2 40 21:57 11.11.2020
5582 Clouds -11 993 92 10000 1 60 21:38 11.11.2020
5583 Clouds -13 993 84 10000 2 30 21:19 11.11.2020
5584 Clouds -13 993 84 10000 2 30 20:42 11.11.2020
5585 Clouds -13 993 84 10000 2 30 20:22 11.11.2020
5586 Clouds -12 993 85 10000 3 30 19:57 11.11.2020
5587 Clouds -12 993 85 10000 3 30 19:38 11.11.2020
5588 Clouds -14 993 92 10000 2 30 19:20 11.11.2020
5589 Clouds -14 993 92 10000 2 30 18:41 11.11.2020
5590 Clouds -12 993 92 10000 2 360 18:22 11.11.2020
5591 Clouds -12 993 92 10000 2 360 17:39 11.11.2020
5592 Clear -12 993 92 10000 3 20 17:21 11.11.2020
5593 Clear -12 993 92 10000 3 20 16:39 11.11.2020
5594 Clear -8 993 92 10000 2 20 16:21 11.11.2020
5595 Clear -8 993 92 10000 2 20 15:43 11.11.2020
5596 Clear -8 993 85 10000 2 330 15:23 11.11.2020
5597 Clear -8 993 85 10000 2 330 15:23 11.11.2020
5598 Clear -8 993 85 10000 2 330 14:47 11.11.2020
5599 Clear -8 993 85 10000 2 330 14:28 11.11.2020
5600 Clear -7 993 85 10000 4 340 13:49 11.11.2020
5601 Clear -7 993 85 10000 4 340 13:24 11.11.2020
5602 Clear -7 992 92 10000 3 330 12:22 11.11.2020
5603 Clear -7 992 92 10000 3 330 11:58 11.11.2020
5604 Clear -7 992 92 10000 3 330 11:40 11.11.2020
5605 Clear -6 992 85 10000 4 330 11:20 11.11.2020
5606 Clear -6 992 85 10000 4 330 10:39 11.11.2020
5607 Snow -6 992 92 10000 3 330 10:19 11.11.2020
5608 Snow -6 992 92 10000 3 330 09:43 11.11.2020
5609 Snow -6 992 92 10000 3 330 09:24 11.11.2020
5610 Clear -6 992 85 10000 4 350 08:45 11.11.2020
5611 Clear -6 992 85 10000 4 350 08:25 11.11.2020
5612 Clear -6 992 85 10000 3 360 07:49 11.11.2020
5613 Clouds -5 991 85 10000 3 330 06:33 11.11.2020
5614 Clouds -5 992 85 10000 2 340 05:52 11.11.2020
5615 Snow -5 991 92 10000 4 360 02:29 11.11.2020
5616 Snow -5 991 92 10000 5 360 00:58 11.11.2020
5617 Snow -5 991 92 10000 5 360 00:58 11.11.2020
5618 Snow -5 992 92 10000 4 360 00:25 11.11.2020
5619 Snow -5 991 92 10000 5 350 23:42 10.11.2020
5620 Clouds -5 991 92 10000 4 340 23:23 10.11.2020
5621 Clouds -5 991 92 10000 5 350 22:51 10.11.2020
5622 Clouds -5 991 92 10000 5 350 22:26 10.11.2020
5623 Snow -5 991 92 10000 5 340 21:42 10.11.2020
5624 Clouds -5 991 92 10000 7 10 21:24 10.11.2020
5625 Clouds -5 991 92 10000 7 10 20:58 10.11.2020
5626 Clouds -5 991 92 10000 7 10 20:40 10.11.2020
5627 Clouds -4 991 85 10000 6 350 20:22 10.11.2020
5628 Clouds -4 991 85 10000 6 350 19:46 10.11.2020
5629 Clouds -4 991 85 10000 6 350 19:25 10.11.2020
5630 Clouds -4 991 85 10000 5 350 18:56 10.11.2020
5631 Clouds -4 991 85 10000 5 350 18:37 10.11.2020
5632 Snow -4 990 85 10000 5 10 18:18 10.11.2020
5633 Snow -4 990 85 10000 5 10 17:42 10.11.2020
5634 Snow -4 990 85 10000 6 10 17:24 10.11.2020
5635 Snow -4 990 85 10000 6 10 16:42 10.11.2020
5636 Snow -4 990 85 10000 6 10 16:24 10.11.2020
5637 Snow -4 990 85 10000 7 20 15:55 10.11.2020
5638 Snow -4 990 85 10000 7 20 15:37 10.11.2020
5639 Snow -4 990 85 10000 9 360 15:18 10.11.2020
5640 Snow -4 990 85 10000 9 360 14:40 10.11.2020
5641 Snow -4 989 85 10000 6 350 14:19 10.11.2020
5642 Snow -4 989 85 10000 6 350 13:40 10.11.2020
5643 Snow -4 988 92 10000 7 10 13:21 10.11.2020
5644 Snow -4 988 92 10000 7 10 12:56 10.11.2020
5645 Snow -4 988 92 10000 7 10 12:37 10.11.2020
5646 Snow -2 987 79 10000 12 20 12:18 10.11.2020
5647 Snow -2 987 79 10000 12 20 11:36 10.11.2020
5648 Snow -2 986 86 1400 16 30 11:18 10.11.2020
5649 Snow -2 986 86 1400 16 30 10:42 10.11.2020
5650 Snow -2 985 86 2200 16 40 10:22 10.11.2020
5651 Snow -2 985 86 2200 16 40 09:46 10.11.2020
5652 Snow -2 985 86 2200 16 40 09:26 10.11.2020
5653 Snow -2 985 92 800 16 30 08:57 10.11.2020
5654 Snow -2 985 92 800 16 30 08:29 10.11.2020
5655 Clouds -2 984 86 2900 18 30 07:46 10.11.2020
5656 Clouds -2 984 86 2900 18 30 07:26 10.11.2020
5657 Clouds -1 984 80 7000 17 30 06:42 10.11.2020
5658 Clouds -1 984 86 5000 16 30 05:56 10.11.2020
5659 Clouds -1 983 80 9000 12 30 05:24 10.11.2020
5660 Snow -1 983 92 750 18 30 02:48 10.11.2020
5661 Snow -1 984 92 600 16 30 01:32 10.11.2020
5662 Snow -2 987 100 800 14 20 00:23 10.11.2020
5663 Snow -2 987 100 900 14 20 23:38 09.11.2020
5664 Snow -2 988 92 800 15 30 22:54 09.11.2020
5665 Snow -2 988 92 700 15 30 22:36 09.11.2020
5666 Snow -2 989 92 700 15 30 22:18 09.11.2020
5667 Snow -2 990 92 650 15 30 21:39 09.11.2020
5668 Snow -1 991 80 4800 15 30 21:19 09.11.2020
5669 Snow -1 991 80 4800 15 30 20:39 09.11.2020
5670 Snow -1 992 80 10000 13 30 20:21 09.11.2020
5671 Snow -1 992 80 10000 13 30 19:42 09.11.2020
5672 Snow -1 992 80 10000 13 30 19:22 09.11.2020
5673 Clouds -1 993 80 10000 12 20 18:46 09.11.2020
5674 Snow -2 995 92 10000 8 20 18:21 09.11.2020
5675 Snow -2 995 92 10000 8 20 17:58 09.11.2020
5676 Snow -2 995 92 10000 8 20 17:39 09.11.2020
5677 Snow -2 996 92 10000 7 30 17:21 09.11.2020
5678 Snow -2 996 92 10000 7 30 16:38 09.11.2020
5679 Clouds -5 998 100 10000 3 360 16:19 09.11.2020
5680 Clouds -5 998 100 10000 3 360 15:42 09.11.2020
5681 Clouds -5 998 100 10000 3 360 15:24 09.11.2020
5682 Snow -5 999 100 10000 4 10 14:44 09.11.2020
5683 Snow -5 999 100 10000 4 10 14:26 09.11.2020
5684 Snow -11 1000 92 10000 3 10 13:51 09.11.2020
5685 Clouds -11 1002 92 10000 2 20 13:21 09.11.2020
5686 Clouds -11 1002 92 10000 2 20 12:50 09.11.2020
5687 Clouds -11 1002 92 10000 2 20 12:26 09.11.2020
5688 Snow -14 1003 84 10000 1 360 11:57 09.11.2020
5689 Snow -14 1003 84 10000 1 360 11:39 09.11.2020
5690 Mist -13 1004 84 1200 2 350 11:20 09.11.2020
5691 Mist -13 1004 84 1200 2 350 10:42 09.11.2020
5692 Mist -13 1004 84 1200 2 350 10:23 09.11.2020
5693 Clouds -13 1005 84 10000 2 360 09:45 09.11.2020
5694 Clouds -13 1005 84 10000 2 360 09:24 09.11.2020
5695 Clouds -12 1005 85 10000 2 360 08:41 09.11.2020
5696 Clouds -12 1006 85 10000 2 360 08:20 09.11.2020
5697 Clouds -12 1006 85 10000 2 360 07:41 09.11.2020
5698 Fog -12 1006 92 10000 2 350 07:21 09.11.2020
5699 Fog -12 1006 92 10000 3 350 06:37 09.11.2020
5700 Fog -11 1006 92 600 3 340 03:31 09.11.2020
5701 Fog -9 1007 85 650 3 360 01:55 09.11.2020
5702 Fog -9 1007 92 700 3 360 01:36 09.11.2020
5703 Fog -9 1007 92 10000 4 340 23:54 08.11.2020
5704 Clouds -9 1007 92 10000 3 350 23:30 08.11.2020
5705 Clouds -9 1006 92 10000 3 360 22:58 08.11.2020
5706 Clouds -9 1006 92 10000 3 360 22:40 08.11.2020
5707 Clouds -9 1006 85 10000 1 10 22:19 08.11.2020
5708 Clouds -9 1006 85 10000 1 360 21:39 08.11.2020
5709 Clouds -11 1006 85 10000 2 20 21:19 08.11.2020
5710 Clouds -12 1006 85 10000 2 20 20:54 08.11.2020
5711 Clouds -12 1006 85 10000 2 20 20:36 08.11.2020
5712 Clouds -17 1005 84 10000 1 50 20:18 08.11.2020
5713 Clouds -17 1005 84 10000 1 50 19:42 08.11.2020
5714 Clear -17 1005 84 10000 1 30 19:21 08.11.2020
5715 Clear -17 1005 84 10000 1 30 18:48 08.11.2020
5716 Clear -17 1005 91 10000 2 80 18:22 08.11.2020
5717 Clear -17 1005 91 10000 2 80 17:57 08.11.2020
5718 Clear -17 1005 91 10000 2 80 17:38 08.11.2020
5719 Clear -16 1004 84 10000 2 50 17:19 08.11.2020
5720 Clear -16 1004 84 10000 2 50 16:48 08.11.2020
5721 Clear -16 1004 84 10000 2 50 16:48 08.11.2020
5722 Clear -16 1004 84 10000 2 40 16:21 08.11.2020
5723 Clear -16 1004 84 10000 2 40 15:57 08.11.2020
5724 Clear -16 1004 84 10000 2 40 15:38 08.11.2020
5725 Clear -16 1004 84 10000 3 40 15:20 08.11.2020
5726 Clear -16 1004 84 10000 3 40 14:40 08.11.2020
5727 Clear -16 1004 84 10000 1 40 14:21 08.11.2020
5728 Clear -16 1004 84 10000 1 40 13:45 08.11.2020
5729 Clouds -13 1004 84 10000 2 340 13:22 08.11.2020
5730 Clouds -13 1004 84 10000 2 340 12:43 08.11.2020
5731 Clouds -12 1004 84 10000 2 340 12:25 08.11.2020
5732 Clouds -11 1004 78 10000 2 330 11:57 08.11.2020
5733 Clouds -11 1004 78 10000 2 330 11:39 08.11.2020
5734 Clouds -10 1004 85 10000 3 310 11:20 08.11.2020
5735 Clouds -9 1004 85 10000 3 310 10:49 08.11.2020
5736 Clouds -9 1004 85 10000 2 310 10:18 08.11.2020
5737 Clouds -8 1004 85 10000 2 310 09:44 08.11.2020
5738 Clouds -8 1004 85 10000 2 310 09:24 08.11.2020
5739 Snow -8 1004 85 10000 2 310 08:55 08.11.2020
5740 Snow -8 1004 85 10000 2 310 08:37 08.11.2020
5741 Snow -8 1003 85 10000 3 320 08:18 08.11.2020
5742 Snow -8 1003 85 10000 3 320 07:46 08.11.2020
5743 Clouds -8 1003 92 10000 2 320 07:19 08.11.2020
5744 Clouds -8 1003 85 10000 1 330 05:55 08.11.2020
5745 Clouds -8 1003 85 10000 1 330 05:29 08.11.2020
5746 Clouds -7 1003 85 10000 2 320 03:56 08.11.2020
5747 Clouds -6 1003 85 10000 2 300 01:49 08.11.2020
5748 Clouds -6 1003 85 10000 1 350 01:18 08.11.2020
5749 Clouds -6 1003 85 10000 1 350 00:26 08.11.2020
5750 Snow -6 1003 92 8000 3 310 23:46 07.11.2020
5751 Snow -6 1003 92 8000 3 310 23:28 07.11.2020
5752 Snow -6 1003 92 10000 2 350 22:42 07.11.2020
5753 Snow -6 1003 92 10000 2 350 22:23 07.11.2020
5754 Snow -6 1003 92 10000 2 350 22:23 07.11.2020
5755 Clouds -6 1002 85 10000 3 20 21:45 07.11.2020
5756 Clouds -6 1002 85 10000 3 20 21:22 07.11.2020
5757 Snow -7 1002 92 10000 3 40 20:50 07.11.2020
5758 Snow -7 1002 92 10000 3 40 20:32 07.11.2020
5759 Clouds -9 1002 92 10000 3 40 19:59 07.11.2020
5760 Clouds -9 1002 92 10000 3 40 19:39 07.11.2020
5761 Clouds -11 1001 92 10000 1 50 19:20 07.11.2020
5762 Clouds -11 1001 92 10000 1 50 18:39 07.11.2020
5763 Snow -8 1001 92 10000 1 80 18:20 07.11.2020
5764 Snow -8 1001 92 10000 1 80 17:45 07.11.2020
5765 Snow -8 1001 92 10000 1 80 17:25 07.11.2020
5766 Snow -7 1001 92 10000 1 70 16:43 07.11.2020
5767 Snow -7 1001 92 10000 1 70 16:24 07.11.2020
5768 Snow -6 1000 92 10000 1 150 15:47 07.11.2020
5769 Snow -6 1000 92 10000 1 150 15:24 07.11.2020
5770 Snow -5 1000 85 10000 1 200 14:56 07.11.2020
5771 Snow -5 1000 85 10000 1 200 14:38 07.11.2020
5772 Clouds -5 1000 85 10000 1 240 14:19 07.11.2020
5773 Clouds -4 1000 85 10000 1 240 13:39 07.11.2020
5774 Clouds -4 999 85 10000 1 230 13:21 07.11.2020
5775 Clouds -4 999 85 10000 1 230 12:33 07.11.2020
5776 Clouds -4 999 85 10000 2 250 11:45 07.11.2020
5777 Clouds -4 999 85 10000 2 250 11:25 07.11.2020
5778 Snow -4 998 85 10000 3 250 10:56 07.11.2020
5779 Snow -4 998 85 10000 3 250 10:38 07.11.2020
5780 Clouds -3 997 79 10000 5 270 10:20 07.11.2020
5781 Clouds -3 997 79 10000 5 270 09:47 07.11.2020
5782 Clouds -3 996 86 10000 6 260 09:21 07.11.2020
5783 Clouds -3 996 86 10000 6 260 09:21 07.11.2020
5784 Clouds -3 996 86 10000 6 260 08:43 07.11.2020
5785 Snow -3 995 86 10000 8 270 08:22 07.11.2020
5786 Snow -3 995 86 10000 8 270 07:48 07.11.2020
5787 Snow -4 994 86 9000 8 270 06:48 07.11.2020
5788 Snow -3 994 92 6000 7 270 05:40 07.11.2020
5789 Snow -3 992 92 4600 8 270 03:26 07.11.2020
5790 Snow -3 991 86 10000 9 270 02:38 07.11.2020
5791 Snow -3 990 86 10000 9 270 01:27 07.11.2020
5792 Snow -4 989 100 1400 8 270 00:34 07.11.2020
5793 Mist -3 988 86 1700 7 270 23:32 06.11.2020
5794 Snow -3 988 92 1500 7 260 22:57 06.11.2020
5795 Snow -3 987 92 900 8 270 22:38 06.11.2020
5796 Snow -3 986 92 1600 7 260 22:18 06.11.2020
5797 Mist -3 986 92 2000 7 270 21:41 06.11.2020
5798 Snow -3 985 92 2000 8 270 21:20 06.11.2020
5799 Mist -3 985 92 2000 8 270 20:44 06.11.2020
5800 Snow -3 983 92 5000 8 270 20:20 06.11.2020
5801 Snow -3 983 92 5000 8 270 19:45 06.11.2020
5802 Snow -3 983 92 5000 8 270 19:27 06.11.2020
5803 Snow -3 982 92 10000 9 280 18:55 06.11.2020
5804 Snow -3 982 92 10000 9 280 18:55 06.11.2020
5805 Snow -3 982 92 10000 9 280 18:37 06.11.2020
5806 Snow -3 981 100 4100 10 270 18:19 06.11.2020
5807 Snow -3 981 100 4100 10 270 17:41 06.11.2020
5808 Snow -2 980 92 1300 10 280 17:23 06.11.2020
5809 Snow -2 980 92 1300 10 280 16:42 06.11.2020
5810 Snow -2 978 92 2900 11 280 16:20 06.11.2020
5811 Snow -2 978 92 2900 11 280 15:44 06.11.2020
5812 Snow -2 978 92 2900 11 280 15:25 06.11.2020
5813 Snow -1 976 100 1200 10 280 14:49 06.11.2020
5814 Snow 0 975 97 4500 6 310 14:22 06.11.2020
5815 Snow 0 975 97 4500 6 310 13:42 06.11.2020
5816 Mist 1 973 100 3400 5 320 13:20 06.11.2020
5817 Mist 1 973 100 3400 5 320 12:43 06.11.2020
5818 Mist 1 973 100 3400 5 320 12:23 06.11.2020
5819 Snow 0 972 99 900 4 320 11:39 06.11.2020
5820 Fog 0 970 97 200 1 310 11:20 06.11.2020
5821 Fog 0 970 97 200 1 310 10:36 06.11.2020
5822 Rain 0 969 97 200 2 160 10:18 06.11.2020
5823 Rain 0 969 97 200 2 160 09:41 06.11.2020
5824 Fog 0 967 97 300 3 160 09:21 06.11.2020
5825 Fog 0 967 97 300 3 160 08:47 06.11.2020
5826 Fog 0 967 97 300 3 160 08:28 06.11.2020
5827 Fog 0 966 97 650 3 250 07:44 06.11.2020
5828 Rain 1 965 100 550 3 230 07:21 06.11.2020
5829 Rain 1 964 100 650 1 190 06:42 06.11.2020
5830 Rain 1 963 100 650 1 230 05:40 06.11.2020
5831 Fog 3 960 100 10000 5 80 02:53 06.11.2020
5832 Rain 3 959 86 10000 3 30 00:35 06.11.2020
5833 Rain 3 959 93 10000 6 80 23:57 05.11.2020
5834 Rain 3 959 93 8000 10 100 23:26 05.11.2020
5835 Rain 3 959 93 8000 9 100 22:49 05.11.2020
5836 Rain 3 959 93 6000 8 110 22:26 05.11.2020
5837 Rain 3 959 93 6000 8 110 22:26 05.11.2020
5838 Rain 3 959 93 6000 8 110 21:58 05.11.2020
5839 Clouds 3 959 93 10000 9 100 21:40 05.11.2020
5840 Clouds 3 959 93 10000 12 110 21:19 05.11.2020
5841 Clouds 3 959 93 10000 12 110 20:44 05.11.2020
5842 Clouds 3 959 93 10000 12 110 20:24 05.11.2020
5843 Clouds 3 960 86 10000 8 100 19:57 05.11.2020
5844 Clouds 3 960 86 10000 8 100 19:38 05.11.2020
5845 Clear 2 961 93 10000 8 120 19:19 05.11.2020
5846 Clear 2 961 93 10000 8 120 18:41 05.11.2020
5847 Clear 3 961 86 10000 10 140 18:22 05.11.2020
5848 Clear 3 961 86 10000 10 140 17:47 05.11.2020
5849 Clouds 2 961 100 10000 9 140 17:26 05.11.2020
5850 Clouds 2 961 100 10000 9 140 16:49 05.11.2020
5851 Clouds 2 961 100 10000 9 140 16:29 05.11.2020
5852 Rain 3 961 93 10000 12 130 15:55 05.11.2020
5853 Rain 3 961 93 10000 12 130 15:37 05.11.2020
5854 Clouds 2 962 100 6000 13 110 15:18 05.11.2020
5855 Clouds 2 962 100 6000 13 110 14:44 05.11.2020
5856 Clouds 2 962 100 6000 13 110 14:24 05.11.2020
5857 Snow 1 963 100 4300 15 100 13:41 05.11.2020
5858 Clouds 2 966 93 9000 17 110 13:18 05.11.2020
5859 Clouds 2 966 93 9000 17 110 12:42 05.11.2020
5860 Clouds 2 966 93 9000 17 110 12:23 05.11.2020
5861 Rain 2 968 100 6000 15 120 11:43 05.11.2020
5862 Rain 2 970 93 8000 15 120 11:23 05.11.2020
5863 Rain 2 970 93 8000 15 120 10:49 05.11.2020
5864 Rain 2 970 93 8000 15 120 10:28 05.11.2020
5865 Rain 2 970 93 8000 15 120 10:28 05.11.2020
5866 Rain 2 972 93 9000 15 120 09:50 05.11.2020
5867 Rain 2 972 93 9000 15 120 09:50 05.11.2020
5868 Rain 2 972 93 9000 15 120 09:25 05.11.2020
5869 Clouds 2 975 93 7000 14 120 08:55 05.11.2020
5870 Clouds 2 975 93 7000 14 120 08:36 05.11.2020
5871 Clouds 2 976 93 9000 13 120 08:18 05.11.2020
5872 Snow 1 977 100 7000 12 120 07:28 05.11.2020
5873 Snow 1 979 95 4300 12 120 06:51 05.11.2020
5874 Clouds 1 980 100 6000 13 120 06:32 05.11.2020
5875 Clouds 2 987 93 10000 13 120 03:45 05.11.2020
5876 Clouds 2 993 93 10000 12 120 00:45 05.11.2020
5877 Clouds 2 994 93 10000 12 120 00:20 05.11.2020
5878 Clouds 2 995 95 10000 12 120 23:43 04.11.2020
5879 Clouds 2 995 90 10000 12 120 23:24 04.11.2020
5880 Clouds 2 996 90 10000 12 130 22:42 04.11.2020
5881 Clouds 2 997 93 10000 10 120 22:22 04.11.2020
5882 Clouds 1 998 93 10000 10 120 21:47 04.11.2020
5883 Clouds 1 998 96 10000 10 120 21:27 04.11.2020
5884 Snow 1 1000 86 10000 10 110 20:54 04.11.2020
5885 Snow 1 1000 86 10000 10 110 20:35 04.11.2020
5886 Clear 1 1001 86 10000 9 110 19:59 04.11.2020
5887 Clear 1 1001 86 10000 9 110 19:40 04.11.2020
5888 Clear 1 1001 86 10000 9 110 19:40 04.11.2020
5889 Clear 1 1001 86 10000 9 110 19:22 04.11.2020
5890 Clear 0 1003 96 10000 8 120 18:41 04.11.2020
5891 Clear -1 1004 92 10000 9 110 18:23 04.11.2020
5892 Clear -1 1004 92 10000 9 110 17:48 04.11.2020
5893 Clear -1 1004 92 10000 9 110 17:27 04.11.2020
5894 Snow -1 1005 92 10000 9 110 16:56 04.11.2020
5895 Snow -1 1005 92 10000 9 110 16:36 04.11.2020
5896 Snow -1 1007 86 9000 9 100 16:18 04.11.2020
5897 Snow -1 1007 86 9000 9 100 15:41 04.11.2020
5898 Snow -1 1007 86 9000 9 100 15:23 04.11.2020
5899 Snow -2 1008 86 7000 7 90 14:45 04.11.2020
5900 Snow -2 1008 86 7000 7 90 14:25 04.11.2020
5901 Snow -2 1009 86 9000 7 100 13:52 04.11.2020
5902 Clouds -3 1010 92 10000 10 110 13:22 04.11.2020
5903 Clouds -3 1010 92 10000 10 110 12:59 04.11.2020
5904 Clouds -3 1010 92 10000 10 110 12:41 04.11.2020
5905 Clouds -4 1012 85 10000 10 100 12:22 04.11.2020
5906 Clouds -4 1012 85 10000 10 100 11:46 04.11.2020
5907 Clouds -6 1013 79 10000 4 100 11:22 04.11.2020
5908 Clouds -6 1013 79 10000 4 100 10:49 04.11.2020
5909 Clouds -6 1013 79 10000 4 100 10:24 04.11.2020
5910 Clouds -6 1013 53 10000 2 90 09:56 04.11.2020
5911 Clouds -6 1013 53 10000 2 90 09:28 04.11.2020
5912 Clouds -7 1015 48 10000 3 130 08:50 04.11.2020
5913 Clouds -7 1015 48 10000 3 130 08:23 04.11.2020
5914 Clouds -9 1016 61 10000 4 140 07:58 04.11.2020
5915 Clouds -9 1016 61 10000 4 140 07:37 04.11.2020
5916 Clouds -10 1016 66 10000 1 130 07:18 04.11.2020
5917 Clouds -10 1016 66 10000 1 130 06:39 04.11.2020
5918 Clear -13 1018 78 10000 3 80 04:59 04.11.2020
5919 Clear -14 1020 77 10000 2 40 02:31 04.11.2020
5920 Clear -14 1021 77 10000 3 360 01:38 04.11.2020
5921 Clear -16 1021 84 10000 2 60 23:59 03.11.2020
5922 Clear -16 1021 84 10000 2 60 23:26 03.11.2020
5923 Clear -17 1022 77 10000 3 20 22:55 03.11.2020
5924 Clear -17 1022 77 10000 3 20 22:37 03.11.2020
5925 Clear -17 1022 84 10000 4 310 22:18 03.11.2020
5926 Clear -17 1022 84 10000 4 310 21:41 03.11.2020
5927 Clear -17 1022 84 10000 4 310 21:23 03.11.2020
5928 Clear -18 1022 84 10000 5 350 20:48 03.11.2020
5929 Clear -18 1022 84 10000 5 350 20:27 03.11.2020
5930 Clear -17 1023 84 10000 4 350 19:55 03.11.2020
5931 Clear -17 1023 84 10000 4 350 19:37 03.11.2020
5932 Clear -17 1023 84 10000 3 10 19:18 03.11.2020
5933 Clear -17 1023 84 10000 3 10 18:40 03.11.2020
5934 Clear -16 1023 84 10000 4 340 18:19 03.11.2020
5935 Clear -16 1023 84 10000 4 340 17:46 03.11.2020
5936 Clear -14 1023 77 10000 2 280 17:27 03.11.2020
5937 Clear -14 1023 77 10000 2 280 16:51 03.11.2020
5938 Clear -14 1023 77 10000 2 280 16:30 03.11.2020
5939 Clear -14 1022 77 10000 3 320 15:53 03.11.2020
5940 Clear -14 1022 77 10000 3 320 15:30 03.11.2020
5941 Clear -14 1022 84 10000 4 310 14:57 03.11.2020
5942 Clear -14 1022 84 10000 4 310 14:38 03.11.2020
5943 Clear -13 1022 78 10000 6 310 14:19 03.11.2020
5944 Clear -13 1022 78 10000 6 310 13:41 03.11.2020
5945 Clear -12 1021 72 10000 6 310 13:21 03.11.2020
5946 Clear -12 1021 72 10000 6 310 12:44 03.11.2020
5947 Clear -12 1021 85 10000 5 300 12:21 03.11.2020
5948 Clear -12 1021 85 10000 5 300 11:46 03.11.2020
5949 Clear -12 1021 85 10000 5 300 11:24 03.11.2020
5950 Clear -10 1020 85 10000 5 310 10:55 03.11.2020
5951 Clear -10 1020 85 10000 5 310 10:37 03.11.2020
5952 Clouds -10 1020 85 10000 2 310 10:18 03.11.2020
5953 Clouds -10 1020 85 10000 2 310 09:44 03.11.2020
5954 Snow -10 1019 85 10000 6 310 09:22 03.11.2020
5955 Snow -10 1019 85 10000 6 310 08:48 03.11.2020
5956 Snow -10 1019 85 10000 6 310 08:29 03.11.2020
5957 Clouds -9 1019 85 10000 5 300 07:41 03.11.2020
5958 Clouds -9 1019 92 10000 6 300 07:19 03.11.2020
5959 Clouds -9 1019 92 10000 7 300 06:21 03.11.2020
5960 Snow -7 1019 92 10000 4 300 04:34 03.11.2020
5961 Clouds -8 1020 92 10000 4 310 00:45 03.11.2020
5962 Clouds -8 1020 92 10000 4 310 00:24 03.11.2020
5963 Clouds -9 1021 92 10000 2 330 23:43 02.11.2020
5964 Clouds -9 1021 92 10000 3 360 23:22 02.11.2020
5965 Clouds -8 1021 85 10000 3 320 22:43 02.11.2020
5966 Clouds -8 1021 85 10000 3 320 22:24 02.11.2020
5967 Clouds -8 1021 92 10000 4 320 21:39 02.11.2020
5968 Snow -9 1021 85 10000 2 10 21:21 02.11.2020
5969 Snow -9 1021 85 10000 2 10 20:56 02.11.2020
5970 Snow -9 1021 85 10000 2 10 20:38 02.11.2020
5971 Clouds -9 1022 85 10000 3 10 20:18 02.11.2020
5972 Clouds -9 1022 85 10000 3 10 19:43 02.11.2020
5973 Clouds -9 1022 85 10000 3 10 19:25 02.11.2020
5974 Clouds -9 1022 78 10000 4 360 18:43 02.11.2020
5975 Clouds -10 1023 85 10000 4 360 18:22 02.11.2020
5976 Clouds -10 1023 85 10000 4 360 17:58 02.11.2020
5977 Clouds -10 1023 85 10000 4 360 17:40 02.11.2020
5978 Clouds -10 1023 78 10000 4 360 17:20 02.11.2020
5979 Clouds -10 1023 78 10000 4 360 16:42 02.11.2020
5980 Clouds -11 1024 78 10000 4 360 16:23 02.11.2020
5981 Clouds -11 1024 78 10000 4 360 15:44 02.11.2020
5982 Clouds -11 1024 78 10000 4 360 15:24 02.11.2020
5983 Clear -13 1024 84 10000 4 360 14:57 02.11.2020
5984 Clear -13 1024 84 10000 4 360 14:37 02.11.2020
5985 Clear -14 1025 84 10000 4 20 14:18 02.11.2020
5986 Clear -14 1025 84 10000 4 20 13:42 02.11.2020
5987 Clear -14 1025 84 10000 4 50 13:21 02.11.2020
5988 Clear -14 1025 84 10000 4 50 12:40 02.11.2020
5989 Clear -14 1026 84 10000 3 20 12:20 02.11.2020
5990 Clear -14 1026 84 10000 3 20 11:45 02.11.2020
5991 Clear -14 1026 84 10000 4 30 11:19 02.11.2020
5992 Clear -14 1026 84 10000 4 30 10:44 02.11.2020
5993 Clear -14 1026 84 10000 4 30 10:22 02.11.2020
5994 Clear -14 1026 84 10000 4 360 09:55 02.11.2020
5995 Clear -14 1026 84 10000 4 360 09:25 02.11.2020
5996 Clear -15 1027 84 10000 3 30 08:46 02.11.2020
5997 Clear -15 1027 84 10000 3 30 08:27 02.11.2020
5998 Clouds -14 1027 92 10000 3 360 07:54 02.11.2020
5999 Clouds -14 1027 92 10000 3 360 07:30 02.11.2020
6000 Clouds -12 1027 85 10000 3 340 06:37 02.11.2020
6001 Clouds -10 1027 85 10000 3 340 04:55 02.11.2020
6002 Snow -9 1028 85 10000 2 300 01:26 02.11.2020
6003 Snow -9 1028 92 10000 2 300 00:36 02.11.2020
6004 Snow -9 1028 85 10000 1 320 23:55 01.11.2020
6005 Snow -9 1028 85 10000 1.86 332 23:36 01.11.2020
6006 Snow -9 1028 85 9000 1 100 23:18 01.11.2020
6007 Snow -11 1028 92 10000 1 310 22:38 01.11.2020
6008 Snow -11 1028 85 10000 1 330 22:18 01.11.2020
6009 Clouds -11 1029 85 10000 1 50 21:41 01.11.2020
6010 Clouds -11 1029 85 10000 1 50 21:23 01.11.2020
6011 Clouds -13 1028 84 10000 2 290 20:45 01.11.2020
6012 Clouds -13 1028 84 10000 2 290 20:25 01.11.2020
6013 Clouds -10 1028 72 10000 2 110 19:46 01.11.2020
6014 Clouds -10 1028 72 10000 2 110 19:28 01.11.2020
6015 Clear -9 1029 78 10000 4 110 18:57 01.11.2020
6016 Clear -9 1029 78 10000 4 110 18:37 01.11.2020
6017 Clear -12 1029 85 10000 2 90 18:19 01.11.2020
6018 Clear -12 1029 85 10000 2 90 17:43 01.11.2020
6019 Clear -12 1029 85 10000 2 90 17:25 01.11.2020
6020 Clear -13 1029 84 10000 3 80 16:44 01.11.2020
6021 Clear -13 1029 84 10000 3 80 16:25 01.11.2020
6022 Clouds -13 1029 84 10000 3 80 15:57 01.11.2020
6023 Clouds -13 1029 84 10000 3 80 15:38 01.11.2020
6024 Clouds -13 1029 84 10000 3 80 15:38 01.11.2020
6025 Clouds -13 1029 84 10000 3 40 15:18 01.11.2020
6026 Clouds -13 1029 84 10000 3 40 14:45 01.11.2020
6027 Clouds -13 1029 84 10000 3 40 14:22 01.11.2020
6028 Clouds -14 1030 77 10000 2 20 13:56 01.11.2020
6029 Clouds -14 1030 77 10000 2 20 13:37 01.11.2020
6030 Clouds -13 1030 78 10000 2 20 13:19 01.11.2020
6031 Clouds -13 1030 78 10000 2 20 12:38 01.11.2020
6032 Clouds -13 1030 84 10000 2 350 12:18 01.11.2020
6033 Clouds -13 1030 84 10000 2 350 11:47 01.11.2020
6034 Clouds -12 1030 78 10000 4 360 11:18 01.11.2020
6035 Clouds -12 1030 78 10000 4 360 10:42 01.11.2020
6036 Clouds -12 1030 78 10000 4 360 10:24 01.11.2020
6037 Clouds -14 1030 84 10000 3 10 09:49 01.11.2020
6038 Clear -14 1030 84 10000 4 10 09:19 01.11.2020
6039 Clear -14 1030 84 10000 4 10 08:38 01.11.2020
6040 Clear -14 1030 84 10000 4 360 07:51 01.11.2020
6041 Clear -14 1030 84 10000 3 10 06:48 01.11.2020
6042 Clouds -13 1030 84 10000 3 340 02:22 01.11.2020
6043 Clouds -14 1030 84 10000 4 340 01:31 01.11.2020
6044 Clouds -15 1029 84 10000 5 360 23:51 31.10.2020
6045 Clouds -15 1029 84 10000 4 10 23:23 31.10.2020
6046 Clouds -15 1029 84 10000 4 10 22:45 31.10.2020
6047 Clouds -15 1029 84 10000 4 10 22:45 31.10.2020
6048 Clouds -15 1029 84 10000 4 10 22:24 31.10.2020
6049 Clouds -16 1029 84 10000 3 350 21:46 31.10.2020
6050 Clouds -15 1029 84 10000 2 10 21:22 31.10.2020
6051 Clouds -15 1029 84 10000 2 10 20:43 31.10.2020
6052 Clouds -15 1028 84 10000 4 360 20:20 31.10.2020
6053 Clouds -15 1028 84 10000 4 360 19:44 31.10.2020
6054 Clouds -15 1028 84 10000 4 360 19:25 31.10.2020
6055 Clouds -14 1028 84 10000 3 360 18:59 31.10.2020
6056 Clouds -14 1028 84 10000 3 360 18:41 31.10.2020
6057 Clouds -14 1028 84 10000 4 340 17:47 31.10.2020
6058 Clouds -14 1028 84 10000 4 340 17:27 31.10.2020
6059 Clouds -14 1028 84 10000 4 350 16:57 31.10.2020
6060 Clouds -14 1028 84 10000 4 350 16:37 31.10.2020
6061 Clouds -13 1027 84 10000 3 360 15:56 31.10.2020
6062 Clouds -13 1027 84 10000 3 360 15:26 31.10.2020
6063 Clouds -13 1027 84 10000 2 360 14:58 31.10.2020
6064 Clouds -13 1027 84 10000 2 360 14:37 31.10.2020
6065 Clouds -14 1027 92 10000 3 340 14:18 31.10.2020
6066 Clouds -14 1027 92 10000 3 340 13:43 31.10.2020
6067 Snow -14 1027 92 10000 3 320 13:20 31.10.2020
6068 Snow -14 1027 92 10000 3 320 12:32 31.10.2020
6069 Clouds -14 1027 84 10000 3 320 11:47 31.10.2020
6070 Clouds -14 1027 84 10000 3 320 11:28 31.10.2020
6071 Clouds -14 1026 84 10000 4 350 10:54 31.10.2020
6072 Clouds -14 1026 84 10000 4 350 10:33 31.10.2020
6073 Clouds -14 1026 84 10000 3 330 09:42 31.10.2020
6074 Clouds -13 1026 84 10000 4 10 09:21 31.10.2020
6075 Clouds -13 1026 84 10000 4 10 08:30 31.10.2020
6076 Snow -13 1026 84 10000 3 10 07:50 31.10.2020
6077 Snow -13 1026 84 10000 3 10 07:27 31.10.2020
6078 Clouds -14 1025 84 10000 4 360 06:39 31.10.2020
6079 Clear -13 1024 84 10000 5 340 04:51 31.10.2020
6080 Clouds -14 1024 84 10000 5 350 03:45 31.10.2020
6081 Clouds -14 1024 77 10000 3 10 01:29 31.10.2020
6082 Clouds -15 1023 84 10000 3 350 00:46 31.10.2020
6083 Clouds -15 1023 84 10000 3 360 23:51 30.10.2020
6084 Clouds -15 1023 84 10000 3 360 23:24 30.10.2020
6085 Clouds -15 1023 84 10000 4 350 22:46 30.10.2020
6086 Clouds -15 1023 84 10000 4 350 22:24 30.10.2020
6087 Clouds -16 1023 84 10000 3 10 21:56 30.10.2020
6088 Clouds -16 1023 84 10000 3 10 21:37 30.10.2020
6089 Clear -16 1022 91 10000 2 360 21:18 30.10.2020
6090 Clear -16 1022 91 10000 2 360 20:39 30.10.2020
6091 Clouds -16 1022 84 10000 3 340 20:20 30.10.2020
6092 Clouds -16 1022 84 10000 3 340 19:46 30.10.2020
6093 Clouds -16 1022 91 10000 3 350 19:19 30.10.2020
6094 Clouds -16 1022 91 10000 3 350 18:50 30.10.2020
6095 Clouds -16 1022 91 10000 3 350 18:28 30.10.2020
6096 Clouds -16 1022 91 10000 3 360 17:50 30.10.2020
6097 Clouds -15 1021 84 10000 3 360 17:24 30.10.2020
6098 Clouds -15 1021 84 10000 3 360 16:57 30.10.2020
6099 Clouds -15 1021 84 10000 3 360 16:38 30.10.2020
6100 Clouds -15 1021 84 10000 2 40 16:19 30.10.2020
6101 Clouds -15 1021 84 10000 2 40 15:40 30.10.2020
6102 Clear -15 1021 84 10000 1 10 15:20 30.10.2020
6103 Clear -15 1021 84 10000 1 10 14:44 30.10.2020
6104 Clear -15 1021 84 10000 1 10 14:25 30.10.2020
6105 Clear -14 1021 92 10000 3 340 13:47 30.10.2020
6106 Clouds -15 1021 84 10000 3 350 13:22 30.10.2020
6107 Clouds -15 1021 84 10000 3 350 12:55 30.10.2020
6108 Clouds -15 1021 84 10000 3 350 12:23 30.10.2020
6109 Clouds -13 1022 84 10000 2 20 11:56 30.10.2020
6110 Clouds -13 1022 84 10000 2 20 11:23 30.10.2020
6111 Clear -13 1022 84 10000 2 360 10:58 30.10.2020
6112 Clear -13 1022 84 10000 2 360 10:39 30.10.2020
6113 Clear -14 1022 84 10000 2 20 10:21 30.10.2020
6114 Clear -14 1022 84 10000 2 20 09:43 30.10.2020
6115 Clear -13 1022 92 10000 3 360 09:21 30.10.2020
6116 Clear -15 1022 92 10000 3 10 08:39 30.10.2020
6117 Clear -14 1022 84 10000 2 20 08:21 30.10.2020
6118 Clear -15 1022 92 10000 2 360 07:47 30.10.2020
6119 Clear -15 1022 92 10000 2 360 07:27 30.10.2020
6120 Clear -15 1022 84 10000 3 10 06:34 30.10.2020
6121 Clear -11 1022 85 10000 3 350 04:37 30.10.2020
6122 Clear -11 1023 85 10000 2 40 02:24 30.10.2020
6123 Clear -12 1024 85 10000 2 20 00:39 30.10.2020
6124 Clear -13 1024 92 10000 3 40 23:48 29.10.2020
6125 Clear -13 1024 92 10000 3 40 23:30 29.10.2020
6126 Clear -14 1025 92 10000 2 40 22:50 29.10.2020
6127 Clear -14 1025 92 10000 2 40 22:29 29.10.2020
6128 Clear -14 1025 84 10000 3 40 21:56 29.10.2020
6129 Clear -14 1025 84 10000 3 20 21:36 29.10.2020
6130 Clear -15 1025 84 10000 3 40 21:18 29.10.2020
6131 Clear -15 1025 84 10000 3 40 21:18 29.10.2020
6132 Clear -15 1025 84 10000 2 30 20:40 29.10.2020
6133 Clear -14 1025 84 10000 3 20 20:19 29.10.2020
6134 Clear -14 1025 84 10000 4 30 19:42 29.10.2020
6135 Clear -14 1025 84 10000 4 30 19:21 29.10.2020
6136 Clear -15 1025 84 10000 3 30 18:48 29.10.2020
6137 Clear -15 1025 84 10000 3 30 18:29 29.10.2020
6138 Clear -15 1025 92 10000 3 40 17:55 29.10.2020
6139 Clear -15 1025 92 10000 3 40 17:37 29.10.2020
6140 Clear -14 1026 84 10000 4 360 17:18 29.10.2020
6141 Clear -14 1026 84 10000 4 360 17:18 29.10.2020
6142 Clear -14 1026 84 10000 4 360 16:43 29.10.2020
6143 Clear -14 1026 84 10000 1 30 16:18 29.10.2020
6144 Clear -14 1026 84 10000 1 30 15:41 29.10.2020
6145 Clear -14 1026 92 10000 2 70 15:22 29.10.2020
6146 Clear -14 1026 92 10000 2 70 14:59 29.10.2020
6147 Clear -14 1026 92 10000 2 70 14:59 29.10.2020
6148 Clear -14 1026 92 10000 2 70 14:59 29.10.2020
6149 Clear -14 1026 92 10000 2 70 14:40 29.10.2020
6150 Clear -14 1026 84 10000 3 360 14:20 29.10.2020
6151 Clear -14 1026 84 10000 3 360 13:45 29.10.2020
6152 Clear -14 1026 84 10000 3 360 13:26 29.10.2020
6153 Clouds -13 1027 92 10000 4 360 12:43 29.10.2020
6154 Clouds -13 1027 92 10000 4 350 12:19 29.10.2020
6155 Clouds -13 1027 92 10000 4 350 11:49 29.10.2020
6156 Clouds -13 1027 92 10000 4 350 11:27 29.10.2020
6157 Clouds -13 1027 92 10000 3 360 10:58 29.10.2020
6158 Clouds -13 1027 92 10000 3 360 10:36 29.10.2020
6159 Clouds -12 1026 85 10000 3 350 10:18 29.10.2020
6160 Clouds -12 1026 85 10000 3 350 09:46 29.10.2020
6161 Clouds -12 1026 85 10000 3 350 09:20 29.10.2020
6162 Clouds -12 1026 85 10000 3 350 08:40 29.10.2020
6163 Clouds -12 1026 85 10000 2 340 08:22 29.10.2020
6164 Clouds -12 1026 85 10000 3 340 07:49 29.10.2020
6165 Clouds -12 1026 85 10000 3 340 06:59 29.10.2020
6166 Clouds -12 1026 92 10000 2 330 06:24 29.10.2020
6167 Clouds -11 1026 92 10000 2 20 04:48 29.10.2020
6168 Clear -5 1027 88 10000 5.41 313 02:18 29.10.2020
6169 Clear -6 1027 89 10000 5.31 309 00:38 29.10.2020
6170 Clear -6 1027 89 10000 5.19 303 00:19 29.10.2020
6171 Clear -6 1027 89 10000 5.19 303 23:40 28.10.2020
6172 Clear -5 1027 90 10000 5.01 301 23:19 28.10.2020
6173 Clear -12 1027 85 10000 2 340 22:42 28.10.2020
6174 Clear -12 1027 85 10000 2 340 22:23 28.10.2020
6175 Clear -13 1027 84 10000 3 10 21:45 28.10.2020
6176 Clear -13 1027 84 10000 3 10 21:25 28.10.2020
6177 Clear -14 1027 92 10000 3 50 20:44 28.10.2020
6178 Clear -14 1027 84 10000 2 10 20:23 28.10.2020
6179 Clear -14 1027 84 10000 2 10 19:55 28.10.2020
6180 Clear -14 1027 84 10000 2 10 19:36 28.10.2020
6181 Clear -13 1027 84 10000 4 360 19:18 28.10.2020
6182 Clear -13 1027 84 10000 4 360 18:42 28.10.2020
6183 Clear -12 1027 85 10000 5 360 18:18 28.10.2020
6184 Clear -12 1027 85 10000 5 360 17:41 28.10.2020
6185 Clear -13 1027 84 10000 5 360 17:21 28.10.2020
6186 Clear -13 1027 84 10000 5 360 16:47 28.10.2020
6187 Clear -13 1027 84 10000 5 360 16:28 28.10.2020
6188 Clear -11 1027 85 10000 4 360 15:42 28.10.2020
6189 Clear -6 1027 88 10000 3.75 335 15:20 28.10.2020
6190 Clear -6 1027 88 10000 3.75 335 14:49 28.10.2020
6191 Clear -11 1027 85 10000 4 10 14:31 28.10.2020
6192 Clear -6 1027 87 10000 3.99 332 13:59 28.10.2020
6193 Clear -9 1027 85 10000 2.68 340 12:37 28.10.2020
6194 Clear -9 1027 85 10000 2.68 340 12:19 28.10.2020
6195 Clear -6 1028 87 10000 3.46 335 11:42 28.10.2020
6196 Clear -6 1028 87 10000 3.7 340 11:22 28.10.2020
6197 Clear -6 1028 87 10000 3.7 340 10:53 28.10.2020
6198 Clouds -9 1027 92 10000 2 330 10:34 28.10.2020
6199 Clouds -9 1027 92 10000 2 330 09:56 28.10.2020
6200 Clouds -9 1027 92 10000 2 330 09:38 28.10.2020
6201 Clouds -9 1026 92 10000 3 350 09:20 28.10.2020
6202 Clouds -9 1026 92 10000 3 350 08:45 28.10.2020
6203 Clouds -9 1026 92 10000 3 350 08:24 28.10.2020
6204 Clouds -9 1026 85 10000 2 330 07:47 28.10.2020
6205 Clouds -9 1026 85 10000 2 330 07:29 28.10.2020
6206 Clouds -9 1026 92 10000 3 10 06:40 28.10.2020
6207 Clear -10 1026 92 10000 2 350 05:49 28.10.2020
6208 Clear -10 1025 92 10000 2 20 04:52 28.10.2020
6209 Clear -9 1025 92 10000 2 10 04:25 28.10.2020
6210 Clouds -8 1025 92 10000 3 350 02:25 28.10.2020
6211 Clouds -8 1025 92 10000 3 330 01:26 28.10.2020
6212 Clouds -8 1025 85 10000 3 10 23:52 27.10.2020
6213 Clouds -9 1025 92 10000 3 360 23:25 27.10.2020
6214 Clouds -9 1025 85 10000 2 360 22:55 27.10.2020
6215 Clouds -10 1024 92 10000 2 350 22:37 27.10.2020
6216 Clouds -10 1024 92 10000 2 330 22:18 27.10.2020
6217 Clouds -10 1024 92 10000 2 330 21:55 27.10.2020
6218 Clouds -10 1024 92 10000 4 340 21:36 27.10.2020
6219 Clouds -11 1023 92 10000 3 350 21:18 27.10.2020
6220 Clouds -11 1023 92 10000 3 350 21:18 27.10.2020
6221 Clouds -11 1023 92 10000 3 350 21:18 27.10.2020
6222 Clouds -11 1023 92 10000 3 350 20:39 27.10.2020
6223 Clouds -12 1023 92 10000 2 350 20:21 27.10.2020
6224 Clouds -12 1023 92 10000 2 350 19:39 27.10.2020
6225 Clouds -12 1023 92 10000 2 350 19:21 27.10.2020
6226 Clouds -11 1022 85 10000 2 360 18:58 27.10.2020
6227 Clouds -11 1022 85 10000 2 360 18:40 27.10.2020
6228 Clear -11 1022 85 10000 3 350 18:19 27.10.2020
6229 Clear -11 1022 85 10000 3 350 17:43 27.10.2020
6230 Clear -11 1021 92 10000 3 330 17:21 27.10.2020
6231 Clear -11 1021 92 10000 3 330 16:48 27.10.2020
6232 Clear -11 1021 92 10000 3 330 16:28 27.10.2020
6233 Clear -10 1021 85 10000 3 330 15:55 27.10.2020
6234 Clear -10 1021 85 10000 3 330 15:37 27.10.2020
6235 Clear -9 1021 85 10000 4 360 15:18 27.10.2020
6236 Clear -9 1021 85 10000 4 360 14:41 27.10.2020
6237 Clouds -9 1020 92 10000 4 10 14:22 27.10.2020
6238 Clouds -9 1020 92 10000 4 10 13:41 27.10.2020
6239 Clouds -8 1020 92 10000 5 360 13:21 27.10.2020
6240 Clouds -8 1020 92 10000 5 360 12:40 27.10.2020
6241 Clouds -6 1020 92 10000 3 340 12:21 27.10.2020
6242 Clouds -6 1020 92 10000 3 340 11:42 27.10.2020
6243 Snow -7 1020 92 10000 3 350 11:23 27.10.2020
6244 Snow -7 1020 92 10000 3 350 10:47 27.10.2020
6245 Snow -7 1020 92 10000 3 350 10:28 27.10.2020
6246 Snow -7 1019 92 10000 3 340 09:47 27.10.2020
6247 Snow -7 1019 92 10000 3 340 09:26 27.10.2020
6248 Snow -7 1019 92 10000 3 310 08:41 27.10.2020
6249 Snow -7 1019 92 10000 4 320 08:22 27.10.2020
6250 Clouds -7 1018 100 10000 3 330 07:46 27.10.2020
6251 Clouds -7 1018 100 10000 3 330 07:28 27.10.2020
6252 Clouds -7 1018 92 10000 4 320 06:38 27.10.2020
6253 Clouds -7 1018 92 10000 4 330 06:19 27.10.2020
6254 Clouds -6 1018 92 10000 4 330 05:41 27.10.2020
6255 Clouds -6 1018 92 10000 4 340 04:50 27.10.2020
6256 Clouds -6 1017 92 10000 3 320 02:34 27.10.2020
6257 Clouds -7 1018 92 10000 3 320 00:58 27.10.2020
6258 Fog -7 1017 92 10000 3 320 23:47 26.10.2020
6259 Fog -7 1017 92 10000 3 320 23:29 26.10.2020
6260 Clouds -8 1017 92 10000 2 340 22:51 26.10.2020
6261 Clouds -8 1017 92 10000 2 340 22:27 26.10.2020
6262 Fog -8 1017 92 10000 2 350 21:50 26.10.2020
6263 Fog -9 1016 92 10000 2 330 21:21 26.10.2020
6264 Fog -9 1016 92 10000 2 330 20:58 26.10.2020
6265 Fog -9 1016 92 10000 2 330 20:40 26.10.2020
6266 Clouds -9 1016 92 10000 2 340 20:21 26.10.2020
6267 Clouds -9 1016 92 10000 2 340 19:47 26.10.2020
6268 Clouds -9 1016 92 10000 2 340 19:25 26.10.2020
6269 Clouds -9 1016 85 10000 2 320 18:46 26.10.2020
6270 Clouds -9 1016 85 10000 2 320 18:46 26.10.2020
6271 Clouds -9 1016 85 10000 2 320 18:25 26.10.2020
6272 Fog -8 1016 92 10000 2 310 17:59 26.10.2020
6273 Fog -8 1016 92 10000 2 310 17:39 26.10.2020
6274 Fog -8 1016 92 10000 1 320 17:21 26.10.2020
6275 Fog -8 1016 92 10000 1 320 16:43 26.10.2020
6276 Fog -9 1016 92 10000 2 320 16:22 26.10.2020
6277 Fog -8 1016 92 10000 2 320 15:43 26.10.2020
6278 Fog -8 1016 92 10000 2 320 15:25 26.10.2020
6279 Mist -7 1016 92 8000 1 330 14:54 26.10.2020
6280 Mist -7 1016 92 8000 1 330 14:35 26.10.2020
6281 Fog -7 1016 92 3000 1 330 13:46 26.10.2020
6282 Fog -7 1016 92 3000 1 330 13:28 26.10.2020
6283 Fog -8 1016 92 10000 2 10 12:58 26.10.2020
6284 Fog -8 1016 92 10000 2 10 12:36 26.10.2020
6285 Fog -9 1016 92 10000 2 360 12:18 26.10.2020
6286 Fog -9 1016 92 10000 2 360 11:45 26.10.2020
6287 Clouds -9 1016 92 10000 2 360 11:23 26.10.2020
6288 Clouds -9 1016 92 10000 2 360 10:57 26.10.2020
6289 Clouds -9 1016 92 10000 2 360 10:38 26.10.2020
6290 Fog -8 1016 92 10000 3 350 10:18 26.10.2020
6291 Fog -8 1016 92 10000 3 350 09:32 26.10.2020
6292 Mist -6 1015 92 3900 3 20 08:58 26.10.2020
6293 Mist -6 1015 92 3900 3 20 08:26 26.10.2020
6294 Mist -6 1016 92 3700 4 20 07:48 26.10.2020
6295 Mist -6 1016 92 3700 4 20 07:29 26.10.2020
6296 Fog -5 1016 92 10000 3 360 05:46 26.10.2020
6297 Mist -5 1016 92 4900 4 350 04:20 26.10.2020
6298 Clouds -5 1017 92 10000 3 350 03:21 26.10.2020
6299 Clouds -5 1017 92 10000 3 350 03:21 26.10.2020
6300 Clouds -5 1017 92 10000 3 350 03:21 26.10.2020
6301 Clouds -5 1017 92 10000 3 350 03:21 26.10.2020
6302 Clouds -5 1017 92 10000 3 340 01:36 26.10.2020
6303 Snow -5 1018 100 8000 3 310 00:39 26.10.2020
6304 Snow -5 1018 92 10000 2 300 00:21 26.10.2020
6305 Snow -5 1018 100 10000 2 310 23:37 25.10.2020
6306 Snow -5 1018 100 10000 3 310 22:59 25.10.2020
6307 Snow -5 1018 100 10000 2 310 22:39 25.10.2020
6308 Snow -5 1018 100 9000 3 310 22:19 25.10.2020
6309 Snow -5 1019 100 10000 2 300 21:39 25.10.2020
6310 Snow -5 1019 100 9000 2 340 21:19 25.10.2020
6311 Snow -5 1019 100 9000 2 340 20:44 25.10.2020
6312 Snow -5 1019 100 9000 2 340 20:25 25.10.2020
6313 Snow -5 1019 100 10000 2 300 19:57 25.10.2020
6314 Snow -5 1019 100 10000 2 300 19:38 25.10.2020
6315 Snow -4 1019 92 9000 1 320 19:19 25.10.2020
6316 Snow -4 1019 92 9000 1 320 18:41 25.10.2020
6317 Clouds -4 1019 92 10000 1 250 18:23 25.10.2020
6318 Clouds -4 1019 92 10000 1 250 17:58 25.10.2020
6319 Clouds -4 1019 92 10000 1 250 17:38 25.10.2020
6320 Snow -4 1020 92 10000 1 320 17:20 25.10.2020
6321 Snow -4 1020 92 10000 1 320 16:47 25.10.2020
6322 Snow -4 1020 92 10000 1 320 16:28 25.10.2020
6323 Snow -4 1020 92 10000 1 320 16:28 25.10.2020
6324 Snow -4 1020 92 10000 2 320 15:52 25.10.2020
6325 Snow -4 1020 92 10000 2 320 15:31 25.10.2020
6326 Snow -4 1020 100 9000 2 310 14:58 25.10.2020
6327 Snow -4 1020 100 9000 2 310 14:32 25.10.2020
6328 Snow -4 1020 100 10000 2 320 13:59 25.10.2020
6329 Snow -4 1020 100 10000 2 320 13:40 25.10.2020
6330 Snow -3 1021 92 10000 1 320 13:19 25.10.2020
6331 Snow -3 1021 92 10000 1 320 13:19 25.10.2020
6332 Snow -3 1021 92 10000 1 320 13:19 25.10.2020
6333 Snow -3 1021 92 10000 1 320 12:46 25.10.2020
6334 Snow -3 1021 92 10000 1 320 12:25 25.10.2020
6335 Clouds -3 1021 92 10000 1 330 11:44 25.10.2020
6336 Clouds -3 1021 92 10000 1.14 326 11:21 25.10.2020
6337 Clouds -3 1021 92 10000 1.14 326 10:57 25.10.2020
6338 Clouds -3 1021 92 10000 1.14 326 10:38 25.10.2020
6339 Clouds -3 1021 92 10000 1.38 337 10:20 25.10.2020
6340 Clouds -4 1021 100 10000 1.38 337 09:40 25.10.2020
6341 Clouds -4 1021 100 10000 1 30 09:19 25.10.2020
6342 Clouds -4 1021 100 10000 1 30 08:41 25.10.2020
6343 Clouds -4 1021 100 10000 1 30 08:22 25.10.2020
6344 Clouds -4 1020 100 10000 1 40 07:47 25.10.2020
6345 Clouds -4 1020 100 10000 1 40 07:24 25.10.2020
6346 Clouds -4 1021 92 10000 1 350 06:45 25.10.2020
6347 Clouds -4 1020 92 10000 2 320 05:43 25.10.2020
6348 Clouds -4 1020 92 10000 1 320 04:52 25.10.2020
6349 Clouds -5 1020 92 10000 2 350 02:56 25.10.2020
6350 Clouds -6 1020 100 10000 2 320 01:20 25.10.2020
6351 Clouds -6 1020 100 10000 2 320 00:40 25.10.2020
6352 Fog -6 1020 92 10000 2 30 00:18 25.10.2020
6353 Fog -6 1020 92 10000 2 30 23:43 24.10.2020
6354 Fog -6 1020 92 10000 2 30 23:22 24.10.2020
6355 Fog -7 1020 100 10000 1 360 22:42 24.10.2020
6356 Fog -7 1020 100 10000 1 360 22:23 24.10.2020
6357 Mist -8 1020 92 4600 1 350 21:56 24.10.2020
6358 Mist -8 1020 92 4600 1 350 21:38 24.10.2020
6359 Clouds -9 1019 92 10000 2 340 21:19 24.10.2020
6360 Clouds -9 1019 92 10000 2 340 20:45 24.10.2020
6361 Clouds -9 1019 92 10000 2 340 20:21 24.10.2020
6362 Clouds -7 1019 100 10000 1 20 19:44 24.10.2020
6363 Clouds -7 1019 100 10000 1 20 19:25 24.10.2020
6364 Clouds -9 1019 92 10000 2 20 18:54 24.10.2020
6365 Clouds -9 1019 92 10000 2 20 18:31 24.10.2020
6366 Clouds -7 1019 92 10000 2 30 17:55 24.10.2020
6367 Clouds -7 1019 92 10000 2 30 17:27 24.10.2020
6368 Clouds -5 1019 100 10000 2 320 16:58 24.10.2020
6369 Clouds -5 1019 100 10000 2 320 16:40 24.10.2020
6370 Clouds -5 1019 92 10000 1 330 15:59 24.10.2020
6371 Clouds -5 1019 92 10000 1 330 15:38 24.10.2020
6372 Clouds -5 1019 92 10000 2 40 15:19 24.10.2020
6373 Clouds -6 1019 92 10000 2 40 14:42 24.10.2020
6374 Clouds -6 1019 100 10000 2 360 14:22 24.10.2020
6375 Clouds -6 1019 100 10000 2 360 13:44 24.10.2020
6376 Clouds -6 1019 100 10000 3 350 13:20 24.10.2020
6377 Clouds -6 1019 100 10000 3 350 12:41 24.10.2020
6378 Clouds -5 1018 92 10000 3 350 12:20 24.10.2020
6379 Clouds -5 1018 92 10000 3 350 11:51 24.10.2020
6380 Clouds -5 1018 92 10000 3 350 11:24 24.10.2020
6381 Clouds -4 1019 92 10000 3 320 10:51 24.10.2020
6382 Clouds -4 1019 92 10000 3 320 10:32 24.10.2020
6383 Clouds -4 1018 100 10000 3 330 09:50 24.10.2020
6384 Clouds -4 1018 100 10000 3 330 09:27 24.10.2020
6385 Clouds -3 1018 92 10000 1 330 08:58 24.10.2020
6386 Clouds -2 1018 100 10000 2 310 08:19 24.10.2020
6387 Clouds -2 1018 100 10000 2 310 07:53 24.10.2020
6388 Clouds -2 1018 100 10000 2 310 07:53 24.10.2020
6389 Fog -2 1018 100 10000 1 340 07:22 24.10.2020
6390 Fog -2 1018 100 10000 1 340 06:52 24.10.2020
6391 Clouds -2 1018 92 10000 1 310 05:47 24.10.2020
6392 Fog -4 1019 100 10000 1 340 02:28 24.10.2020
6393 Mist -5 1020 92 1600 2 350 00:59 24.10.2020
6394 Mist -5 1020 92 1600 2 350 00:39 24.10.2020
6395 Fog -5 1020 92 1300 2 340 00:21 24.10.2020
6396 Mist -5 1020 92 1300 2 340 23:43 23.10.2020
6397 Fog -5 1020 92 1300 2 340 23:23 23.10.2020
6398 Fog -5 1020 92 1300 2 340 23:23 23.10.2020
6399 Fog -6 1020 92 700 3 330 22:56 23.10.2020
6400 Fog -6 1020 92 700 3 330 22:36 23.10.2020
6401 Mist -5 1021 92 1600 3 340 22:18 23.10.2020
6402 Mist -5 1021 92 1600 3 340 21:39 23.10.2020
6403 Mist -5 1021 92 1600 3 340 21:21 23.10.2020
6404 Fog -4 1021 92 600 3 340 20:39 23.10.2020
6405 Fog -4 1021 92 600 3 340 20:20 23.10.2020
6406 Fog -4 1021 100 800 2 320 19:48 23.10.2020
6407 Fog -4 1021 100 800 2 320 19:30 23.10.2020
6408 Fog -4 1022 100 1100 2 340 18:52 23.10.2020
6409 Mist -4 1022 100 1100 2 340 18:30 23.10.2020
6410 Clouds -4 1023 92 8000 3 350 17:48 23.10.2020
6411 Clouds -4 1023 92 8000 3 350 17:23 23.10.2020
6412 Fog -4 1023 92 250 2 360 16:56 23.10.2020
6413 Fog -4 1023 92 250 2 360 16:56 23.10.2020
6414 Fog -4 1023 92 250 2 360 16:56 23.10.2020
6415 Fog -4 1023 92 250 2 360 16:56 23.10.2020
6416 Fog -4 1023 92 250 2 360 16:36 23.10.2020
6417 Fog -4 1023 92 450 3 350 15:59 23.10.2020
6418 Fog -4 1023 92 450 3 350 15:41 23.10.2020
6419 Fog -4 1023 92 450 3 350 15:23 23.10.2020
6420 Fog -5 1024 100 500 3 340 14:50 23.10.2020
6421 Fog -5 1024 100 500 3 340 14:32 23.10.2020
6422 Fog -4 1025 100 200 2 320 13:44 23.10.2020
6423 Fog -4 1025 100 200 2 320 13:44 23.10.2020
6424 Fog -4 1025 100 200 2 320 13:24 23.10.2020
6425 Fog -4 1025 100 350 3 340 12:52 23.10.2020
6426 Fog -4 1025 100 350 3 340 12:31 23.10.2020
6427 Fog -3 1026 100 150 4 340 11:59 23.10.2020
6428 Fog -3 1026 100 150 4 340 11:41 23.10.2020
6429 Fog -3 1026 100 150 4 340 11:20 23.10.2020
6430 Fog -2 1026 92 150 5 340 10:39 23.10.2020
6431 Fog -2 1026 100 150 5 340 10:20 23.10.2020
6432 Fog -2 1026 100 150 5 340 09:43 23.10.2020
6433 Fog -2 1026 100 150 5 340 09:23 23.10.2020
6434 Fog -1 1027 92 900 4 340 08:52 23.10.2020
6435 Fog -1 1027 92 10000 4 350 08:28 23.10.2020
6436 Clouds 0 1027 86 10000 3 350 07:28 23.10.2020
6437 Clouds -1 1027 92 10000 2 350 06:54 23.10.2020
6438 Clouds 0 1027 86 10000 3 330 06:20 23.10.2020
6439 Fog 2 1028 83 10000 2 330 04:42 23.10.2020
6440 Clouds 2 1029 93 10000 2 350 02:32 23.10.2020
6441 Clouds 2 1029 74 10000 2 30 01:22 23.10.2020
6442 Clouds 2 1030 80 10000 1 20 00:33 23.10.2020
6443 Clouds 5 1030 56 10000 2 20 23:40 22.10.2020
6444 Clouds 4 1030 69 10000 2 30 23:19 22.10.2020
6445 Clouds 2 1030 80 10000 2 90 22:47 22.10.2020
6446 Clouds 1 1030 80 10000 2 90 22:26 22.10.2020
6447 Clouds -1 1030 86 10000 2 80 21:58 22.10.2020
6448 Clouds -1 1030 86 10000 2 80 21:39 22.10.2020
6449 Clouds -2 1030 92 10000 2 80 21:20 22.10.2020
6450 Clouds -2 1030 92 10000 2 80 20:44 22.10.2020
6451 Clouds -2 1030 92 10000 2 80 20:25 22.10.2020
6452 Clear 1 1030 86 10000 4 100 19:44 22.10.2020
6453 Clouds 1 1030 85 10000 4 110 19:21 22.10.2020
6454 Clouds 1 1030 85 10000 4 110 18:58 22.10.2020
6455 Clouds 1 1030 85 10000 4 110 18:37 22.10.2020
6456 Clouds 2 1030 93 10000 3 120 18:18 22.10.2020
6457 Clouds 3 1030 93 10000 3 120 17:43 22.10.2020
6458 Clouds 3 1030 86 10000 3 120 17:20 22.10.2020
6459 Clouds 3 1030 86 10000 3 120 16:45 22.10.2020
6460 Clouds 3 1030 86 10000 3 120 16:24 22.10.2020
6461 Clouds 2 1030 93 10000 4 110 15:49 22.10.2020
6462 Clouds 2 1030 93 10000 4 110 15:27 22.10.2020
6463 Clouds 2 1030 93 10000 4 130 14:55 22.10.2020
6464 Clouds 2 1030 93 10000 4 130 14:36 22.10.2020
6465 Clouds 2 1031 86 10000 4 110 14:18 22.10.2020
6466 Clouds 3 1031 86 10000 4 110 13:41 22.10.2020
6467 Clouds 3 1031 86 10000 3 140 13:22 22.10.2020
6468 Clouds 3 1031 86 10000 3 140 12:31 22.10.2020
6469 Clouds 3 1031 86 10000 5 110 11:58 22.10.2020
6470 Clouds 3 1031 86 10000 5 110 11:38 22.10.2020
6471 Clouds 3 1031 86 10000 4 110 11:18 22.10.2020
6472 Clouds 3 1031 86 10000 4 110 10:46 22.10.2020
6473 Clouds 3 1031 86 10000 4 110 10:24 22.10.2020
6474 Clouds 2 1031 93 10000 4 90 09:42 22.10.2020
6475 Clouds 3 1031 86 10000 3 110 09:18 22.10.2020
6476 Clouds 3 1031 86 10000 3 110 08:39 22.10.2020
6477 Clouds 4 1031 80 10000 4 110 08:19 22.10.2020
6478 Clouds 3 1030 86 10000 4 110 07:43 22.10.2020
6479 Clouds 3 1030 80 10000 3 120 07:18 22.10.2020
6480 Clouds 5 1030 75 10000 3 130 06:38 22.10.2020
6481 Clouds 5 1030 80 10000 3 150 06:18 22.10.2020
6482 Clouds 5 1030 80 10000 4 140 05:37 22.10.2020
6483 Clouds 4 1030 80 10000 5 160 02:55 22.10.2020
6484 Clouds 3 1031 86 10000 5 150 00:50 22.10.2020
6485 Clouds 3 1030 80 10000 5 150 00:18 22.10.2020
6486 Clouds 4 1030 80 10000 5 140 23:38 21.10.2020
6487 Clouds 4 1030 80 10000 5 140 22:59 21.10.2020
6488 Clouds 4 1030 80 10000 6 150 22:37 21.10.2020
6489 Clouds 4 1029 86 10000 5 150 22:19 21.10.2020
6490 Clouds 3 1029 86 10000 5 150 21:45 21.10.2020
6491 Clouds 3 1029 86 10000 5 160 21:19 21.10.2020
6492 Clouds 3 1029 86 10000 5 160 20:55 21.10.2020
6493 Clouds 3 1029 86 10000 5 160 20:36 21.10.2020
6494 Clouds 3 1029 86 10000 6 150 20:18 21.10.2020
6495 Clouds 3 1029 86 10000 6 150 19:40 21.10.2020
6496 Clouds 3 1029 86 10000 6 150 19:22 21.10.2020
6497 Clouds 3 1029 86 10000 6 150 18:48 21.10.2020
6498 Clear 3 1029 86 10000 6 150 18:26 21.10.2020
6499 Clear 3 1028 86 10000 7 150 17:48 21.10.2020
6500 Clear 4 1028 80 10000 8 160 17:21 21.10.2020
6501 Clear 4 1028 80 10000 8 160 16:58 21.10.2020
6502 Clear 4 1028 80 10000 8 160 16:37 21.10.2020
6503 Clear 4 1028 80 10000 8 160 16:18 21.10.2020
6504 Clear 4 1028 80 10000 8 160 15:44 21.10.2020
6505 Clear 4 1028 80 10000 8 160 15:21 21.10.2020
6506 Clear 4 1028 80 10000 7 140 14:48 21.10.2020
6507 Clouds 4 1028 80 10000 7 140 14:28 21.10.2020
6508 Clouds 4 1028 80 10000 9 150 13:47 21.10.2020
6509 Clouds 4 1028 80 10000 9 150 13:27 21.10.2020
6510 Clouds 4 1027 80 10000 8 150 12:57 21.10.2020
6511 Clouds 4 1027 80 10000 8 150 12:37 21.10.2020
6512 Clouds 5 1027 83 10000 8 150 12:19 21.10.2020
6513 Clouds 5 1027 83 10000 8 150 11:41 21.10.2020
6514 Clouds 5 1027 80 10000 8 150 11:20 21.10.2020
6515 Clouds 4 1026 80 10000 7 160 10:46 21.10.2020
6516 Clouds 4 1026 81 10000 7 160 10:25 21.10.2020
6517 Clouds 5 1026 81 10000 8 160 09:54 21.10.2020
6518 Clouds 5 1026 81 10000 8 160 09:33 21.10.2020
6519 Clouds 5 1026 82 10000 7 150 08:56 21.10.2020
6520 Clouds 5 1026 82 10000 8 150 08:38 21.10.2020
6521 Clouds 5 1026 83 10000 8 150 08:19 21.10.2020
6522 Clouds 5 1025 75 10000 7 150 07:37 21.10.2020
6523 Clouds 6 1025 70 10000 7 150 06:55 21.10.2020
6524 Clouds 6 1024 70 10000 6 150 06:29 21.10.2020
6525 Clouds 6 1023 75 10000 7 150 04:47 21.10.2020
6526 Clouds 6 1022 75 10000 6 150 00:52 21.10.2020
6527 Clouds 6 1021 81 10000 6 160 23:49 20.10.2020
6528 Clouds 5 1020 81 10000 8 170 22:54 20.10.2020
6529 Clouds 5 1020 86 10000 8 170 22:29 20.10.2020
6530 Clouds 5 1019 86 10000 8 170 21:50 20.10.2020
6531 Clouds 5 1019 86 10000 8 170 21:21 20.10.2020
6532 Clouds 5 1019 86 10000 9 170 20:56 20.10.2020
6533 Clouds 5 1019 86 10000 9 170 20:36 20.10.2020
6534 Clouds 5 1018 86 10000 8 170 20:18 20.10.2020
6535 Clouds 5 1018 86 10000 8 170 19:42 20.10.2020
6536 Clouds 5 1018 86 10000 9 170 19:22 20.10.2020
6537 Clouds 5 1018 86 10000 9 170 18:52 20.10.2020
6538 Clouds 5 1018 86 10000 9 170 18:34 20.10.2020
6539 Clouds 6 1017 81 10000 9 170 17:48 20.10.2020
6540 Clouds 6 1017 81 10000 9 170 17:29 20.10.2020
6541 Clouds 6 1017 81 10000 8 160 16:48 20.10.2020
6542 Clouds 6 1017 81 10000 8 160 16:28 20.10.2020
6543 Clouds 6 1017 81 10000 8 160 15:57 20.10.2020
6544 Clouds 6 1017 81 10000 8 160 15:38 20.10.2020
6545 Clouds 6 1017 81 10000 9 160 15:19 20.10.2020
6546 Clouds 6 1017 81 10000 9 160 14:41 20.10.2020
6547 Clouds 6 1017 81 10000 9 160 14:22 20.10.2020
6548 Clouds 6 1017 81 10000 8 140 13:44 20.10.2020
6549 Clouds 6 1017 81 10000 8 140 13:24 20.10.2020
6550 Clouds 5 1017 86 10000 8 140 12:58 20.10.2020
6551 Clouds 5 1017 86 10000 8 140 12:40 20.10.2020
6552 Clouds 5 1017 86 10000 8 130 12:21 20.10.2020
6553 Clouds 5 1017 86 10000 8 130 11:43 20.10.2020
6554 Clouds 4 1017 86 10000 8 130 11:25 20.10.2020
6555 Rain 4 1017 86 10000 8 110 10:38 20.10.2020
6556 Rain 4 1017 86 10000 8 110 10:19 20.10.2020
6557 Rain 4 1017 86 10000 8 110 10:19 20.10.2020
6558 Rain 4 1017 80 10000 8 120 09:42 20.10.2020
6559 Rain 4 1017 80 10000 8 120 09:18 20.10.2020
6560 Rain 3 1017 86 10000 7 120 08:39 20.10.2020
6561 Rain 3 1018 86 10000 6 130 07:53 20.10.2020
6562 Clouds 3 1018 69 10000 7 120 07:26 20.10.2020
6563 Clouds 3 1017 86 10000 6 130 06:32 20.10.2020
6564 Clouds 3 1018 85 10000 5 120 05:51 20.10.2020
6565 Clouds 3 1018 74 10000 5 120 03:58 20.10.2020
6566 Clouds 3 1018 69 10000 5 110 02:25 20.10.2020
6567 Clouds 2 1018 69 10000 4 130 01:20 20.10.2020
6568 Clouds 2 1018 69 10000 4 140 00:49 20.10.2020
6569 Clouds 2 1018 69 10000 4 140 00:22 20.10.2020
6570 Clouds 2 1018 69 10000 5 140 23:47 19.10.2020
6571 Clouds 2 1018 69 10000 5 140 23:24 19.10.2020
6572 Clouds 1 1018 74 10000 4 160 22:44 19.10.2020
6573 Clouds 0 1018 74 10000 4 160 22:24 19.10.2020
6574 Clouds 0 1018 74 10000 4 160 22:24 19.10.2020
6575 Clouds 0 1018 90 10000 4 140 21:48 19.10.2020
6576 Clouds 0 1018 91 10000 4 140 21:22 19.10.2020
6577 Clouds 0 1017 91 10000 5 120 20:52 19.10.2020
6578 Clouds 0 1017 91 10000 5 120 20:33 19.10.2020
6579 Clouds 1 1017 74 10000 3 140 19:54 19.10.2020
6580 Clouds 1 1017 74 10000 3 140 19:36 19.10.2020
6581 Clouds 0 1016 74 10000 4 130 19:18 19.10.2020
6582 Clouds 0 1016 74 10000 4 130 18:42 19.10.2020
6583 Clouds 0 1016 90 10000 4 140 18:18 19.10.2020
6584 Clouds 0 1016 90 10000 4 140 18:18 19.10.2020
6585 Clouds 0 1016 90 10000 4 140 17:44 19.10.2020
6586 Clouds 0 1016 89 10000 4 140 17:24 19.10.2020
6587 Clouds 1 1016 74 10000 3 160 16:46 19.10.2020
6588 Clouds 1 1016 74 10000 3 160 16:28 19.10.2020
6589 Clouds -1 1015 86 10000 5.2 160 15:44 19.10.2020
6590 Clouds -1 1015 86 10000 5.1 163 15:25 19.10.2020
6591 Clouds -1 1015 86 10000 5.1 163 14:51 19.10.2020
6592 Clouds -1 1015 86 10000 5.08 165 14:26 19.10.2020
6593 Clouds -1 1015 86 10000 4.97 164 13:54 19.10.2020
6594 Clouds -1 1015 86 10000 4.97 164 13:34 19.10.2020
6595 Clouds -1 1015 86 10000 4.68 170 12:56 19.10.2020
6596 Clouds -1 1015 86 10000 4.68 170 12:38 19.10.2020
6597 Clouds -1 1015 86 10000 4.39 171 12:19 19.10.2020
6598 Clouds -1 1015 86 10000 4 170 11:39 19.10.2020
6599 Clouds -1 1015 86 10000 4 170 11:18 19.10.2020
6600 Clouds -1 1015 86 10000 4 170 10:40 19.10.2020
6601 Clouds -1 1014 86 10000 4 160 10:20 19.10.2020
6602 Clouds -1 1014 86 10000 4 160 09:48 19.10.2020
6603 Clouds -2 1014 92 10000 3 130 09:22 19.10.2020
6604 Clouds -2 1014 92 10000 3 130 08:49 19.10.2020
6605 Clouds -2 1014 92 10000 3 130 08:23 19.10.2020
6606 Clouds -2 1014 92 10000 3 150 07:52 19.10.2020
6607 Clouds -2 1013 86 10000 2 160 07:19 19.10.2020
6608 Clouds -1 1013 86 10000 1 160 06:19 19.10.2020
6609 Clouds -1 1013 86 10000 1 160 06:19 19.10.2020
6610 Clouds 0 1013 86 10000 2.79 190 04:29 19.10.2020
6611 Fog -2 1013 86 10000 1 60 03:42 19.10.2020
6612 Fog -4 1012 92 10000 2 350 00:59 19.10.2020
6613 Fog -5 1012 92 10000 2 320 00:25 19.10.2020
6614 Fog -6 1012 92 10000 2.45 250 23:48 18.10.2020
6615 Fog -6 1012 92 10000 1.53 267 23:25 18.10.2020
6616 Fog -7 1011 92 10000 2 40 22:52 18.10.2020
6617 Fog -8 1011 92 10000 3 340 22:22 18.10.2020
6618 Fog -8 1011 92 10000 3 340 21:56 18.10.2020
6619 Fog -8 1011 92 10000 3 340 21:37 18.10.2020
6620 Clear -6 1011 85 10000 2 30 21:18 18.10.2020
6621 Clear -6 1011 85 10000 2 30 20:40 18.10.2020
6622 Clouds -6 1011 85 10000 2 30 20:21 18.10.2020
6623 Clear -6 1010 85 10000 2 10 19:44 18.10.2020
6624 Clouds -6 1010 85 10000 2 10 19:44 18.10.2020
6625 Clear -6 1010 85 10000 2 10 19:44 18.10.2020
6626 Clouds -6 1010 85 10000 2 10 19:26 18.10.2020
6627 Clouds -7 1010 92 10000 2 40 18:49 18.10.2020
6628 Clouds -7 1010 92 10000 2 40 18:28 18.10.2020
6629 Clouds -7 1009 85 10000 1 20 17:44 18.10.2020
6630 Clouds -7 1009 85 10000 1 20 17:25 18.10.2020
6631 Clouds -7 1009 85 10000 1 20 17:25 18.10.2020
6632 Clouds -7 1009 85 10000 2 30 16:57 18.10.2020
6633 Clouds -7 1009 85 10000 2 30 16:38 18.10.2020
6634 Clouds -7 1009 85 10000 3 50 16:20 18.10.2020
6635 Clouds -7 1009 85 10000 3 50 15:41 18.10.2020
6636 Clouds -8 1008 85 10000 2 60 15:19 18.10.2020
6637 Clouds -8 1008 85 10000 2 60 14:56 18.10.2020
6638 Clouds -8 1008 85 10000 2 60 14:29 18.10.2020
6639 Clouds -7 1008 85 10000 1 40 13:57 18.10.2020
6640 Clouds -7 1008 85 10000 1 40 13:38 18.10.2020
6641 Clouds -6 1008 85 10000 1 80 13:20 18.10.2020
6642 Clouds -6 1008 85 10000 1 80 12:42 18.10.2020
6643 Clouds -6 1007 85 10000 3 80 12:21 18.10.2020
6644 Clouds -6 1007 85 10000 3 80 11:42 18.10.2020
6645 Clouds -6 1007 85 10000 3 80 11:23 18.10.2020
6646 Clouds -6 1007 85 10000 2 80 10:43 18.10.2020
6647 Clouds -5 1007 85 10000 3 80 10:21 18.10.2020
6648 Clouds -5 1007 85 10000 3 80 09:52 18.10.2020
6649 Clouds -5 1007 85 10000 3 80 09:25 18.10.2020
6650 Clouds -4 1006 85 10000 3 80 08:58 18.10.2020
6651 Clouds -4 1006 85 10000 3 80 08:39 18.10.2020
6652 Clouds -3 1006 92 10000 2 80 08:20 18.10.2020
6653 Clouds -3 1006 92 10000 2 80 07:30 18.10.2020
6654 Clouds 2 1005 80 10000 1 330 05:33 18.10.2020
6655 Clouds 3 1005 74 10000 2 120 03:20 18.10.2020
6656 Clouds 3 1004 69 10000 1 130 01:41 18.10.2020
6657 Clouds 2 1004 80 10000 4 120 00:52 18.10.2020
6658 Clouds 2 1004 80 10000 4 120 00:34 18.10.2020
6659 Clouds 1 1004 80 10000 1 140 23:56 17.10.2020
6660 Clouds -2 1004 86 10000 3 120 23:37 17.10.2020
6661 Clear -2 1003 79 10000 2 100 23:19 17.10.2020
6662 Clear -2 1003 79 10000 2 100 22:41 17.10.2020
6663 Clear -5 1003 85 10000 3 100 22:20 17.10.2020
6664 Clear -5 1003 85 10000 3 100 22:20 17.10.2020
6665 Clear -5 1003 85 10000 3 100 21:56 17.10.2020
6666 Clear -5 1003 85 10000 3 100 21:38 17.10.2020
6667 Clear -6 1003 85 10000 3 100 21:19 17.10.2020
6668 Clear -6 1003 85 10000 3 100 20:40 17.10.2020
6669 Clear -4 1003 79 10000 2 100 20:18 17.10.2020
6670 Clear -4 1003 79 10000 2 100 19:42 17.10.2020
6671 Clear -5 1002 85 10000 2 110 19:18 17.10.2020
6672 Clear -5 1002 85 10000 2 110 18:43 17.10.2020
6673 Clear -3 1002 79 10000 2 100 18:24 17.10.2020
6674 Clear -3 1002 79 10000 2 100 17:45 17.10.2020
6675 Clear -3 1002 79 10000 2 100 17:23 17.10.2020
6676 Clear -4 1001 85 10000 3 90 16:49 17.10.2020
6677 Clear -4 1001 85 10000 3 90 16:23 17.10.2020
6678 Clear -4 1001 79 10000 2 100 15:56 17.10.2020
6679 Clear -4 1001 79 10000 2 100 15:38 17.10.2020
6680 Clear -4 1001 85 10000 3 90 15:20 17.10.2020
6681 Clear -4 1001 85 10000 3 90 15:20 17.10.2020
6682 Clear -4 1001 85 10000 3 90 14:40 17.10.2020
6683 Clear -4 1000 85 10000 2 100 14:22 17.10.2020
6684 Clear -4 1000 85 10000 2 100 13:57 17.10.2020
6685 Clear -4 1000 85 10000 2 100 13:39 17.10.2020
6686 Clear -3 1000 86 10000 2 90 13:19 17.10.2020
6687 Clear -3 1000 86 10000 2 90 12:40 17.10.2020
6688 Clear -1 999 86 10000 1 120 12:19 17.10.2020
6689 Clear -1 999 86 10000 1 120 11:54 17.10.2020
6690 Clear -1 999 86 10000 1 120 11:28 17.10.2020
6691 Clear 0 999 84 10000 2 210 10:36 17.10.2020
6692 Clear 1 998 86 10000 3 190 10:18 17.10.2020
6693 Clear 1 998 86 10000 3 190 09:40 17.10.2020
6694 Clouds 2 997 93 10000 3 180 09:21 17.10.2020
6695 Clouds 2 997 93 10000 3 180 08:37 17.10.2020
6696 Clouds 2 997 81 10000 2 140 08:18 17.10.2020
6697 Clouds 2 997 80 10000 2 140 07:28 17.10.2020
6698 Clouds 2 996 80 10000 6.42 246 06:42 17.10.2020
6699 Rain 2 995 100 10000 2 300 03:56 17.10.2020
6700 Clouds 3 994 93 10000 3 200 02:28 17.10.2020
6701 Clouds 2 993 93 10000 4 170 00:53 17.10.2020
6702 Rain 2 993 93 10000 3 170 00:30 17.10.2020
6703 Rain 2 993 93 10000 4 160 23:38 16.10.2020
6704 Rain 3 992 86 10000 4 170 23:19 16.10.2020
6705 Rain 3 992 86 10000 4 170 22:41 16.10.2020
6706 Clouds 3 992 88 10000 5 150 22:22 16.10.2020
6707 Clouds 3 992 88 10000 5 150 21:47 16.10.2020
6708 Clouds 3 992 83 10000 5 150 21:25 16.10.2020
6709 Clouds 3 991 83 10000 3 150 20:46 16.10.2020
6710 Clouds 3 991 83 10000 3 150 20:25 16.10.2020
6711 Clouds 3 991 84 10000 6 160 19:51 16.10.2020
6712 Clouds 3 991 83 10000 6 160 19:28 16.10.2020
6713 Clouds 3 991 83 10000 4 140 18:58 16.10.2020
6714 Clouds 3 991 83 10000 4 140 18:38 16.10.2020
6715 Clouds 3 991 86 10000 5 160 18:20 16.10.2020
6716 Clouds 3 991 86 10000 5 160 17:40 16.10.2020
6717 Clouds 4 991 86 10000 5 150 17:22 16.10.2020
6718 Clouds 4 991 86 10000 5 150 16:38 16.10.2020
6719 Clouds 4 991 86 10000 5 140 16:19 16.10.2020
6720 Clouds 4 991 86 10000 5 140 15:25 16.10.2020
6721 Clouds 4 991 86 10000 6 140 14:58 16.10.2020
6722 Clouds 4 991 86 10000 6 140 14:39 16.10.2020
6723 Clouds 4 992 86 10000 7 150 14:18 16.10.2020
6724 Clouds 4 992 86 10000 7 150 13:44 16.10.2020
6725 Clouds 5 992 86 10000 7 150 13:25 16.10.2020
6726 Clouds 5 992 80 10000 6 140 12:57 16.10.2020
6727 Clouds 5 992 80 10000 6 140 12:26 16.10.2020
6728 Clouds 4 992 86 10000 8 140 11:57 16.10.2020
6729 Clouds 4 992 86 10000 8 140 11:39 16.10.2020
6730 Clear 5 992 86 10000 10 150 11:18 16.10.2020
6731 Clear 5 992 86 10000 10 150 10:46 16.10.2020
6732 Clear 5 992 86 10000 10 150 10:26 16.10.2020
6733 Clouds 6 992 81 10000 8 150 09:40 16.10.2020
6734 Clouds 6 992 81 10000 8 150 09:40 16.10.2020
6735 Clouds 6 992 81 10000 8 130 09:22 16.10.2020
6736 Clouds 6 992 81 10000 8 130 09:22 16.10.2020
6737 Clouds 6 992 81 10000 8 130 08:46 16.10.2020
6738 Clouds 6 992 81 10000 8 130 08:28 16.10.2020
6739 Clouds 6 992 87 10000 7 130 07:44 16.10.2020
6740 Clouds 6 991 87 10000 8 130 06:57 16.10.2020
6741 Clouds 6 991 87 10000 9 130 06:30 16.10.2020
6742 Rain 5 993 100 9000 9 130 03:52 16.10.2020
6743 Rain 5 995 100 8000 10 130 01:43 16.10.2020
6744 Rain 5 997 93 9000 9 130 00:44 16.10.2020
6745 Fog 5 997 93 10000 9 130 23:57 15.10.2020
6746 Fog 5 997 93 10000 9 130 23:57 15.10.2020
6747 Fog 5 997 93 10000 10 130 23:38 15.10.2020
6748 Fog 5 998 93 10000 10 130 23:19 15.10.2020
6749 Clouds 5 998 93 10000 12 130 22:46 15.10.2020
6750 Clouds 5 999 93 10000 13 130 22:21 15.10.2020
6751 Clouds 5 999 93 10000 13 130 21:43 15.10.2020
6752 Clouds 5 999 93 10000 15 130 21:21 15.10.2020
6753 Clouds 5 999 93 10000 15 130 20:58 15.10.2020
6754 Clouds 5 999 93 10000 15 130 20:40 15.10.2020
6755 Clouds 5 1000 93 10000 14 130 20:18 15.10.2020
6756 Clouds 5 1000 93 10000 14 130 19:41 15.10.2020
6757 Rain 5 1001 93 10000 13 140 19:21 15.10.2020
6758 Rain 5 1001 93 10000 13 140 18:43 15.10.2020
6759 Rain 5 1001 93 10000 13 140 18:23 15.10.2020
6760 Rain 5 1001 93 10000 13 140 17:48 15.10.2020
6761 Rain 5 1001 93 10000 13 140 17:24 15.10.2020
6762 Clouds 5 1003 86 10000 13 140 16:49 15.10.2020
6763 Clouds 5 1003 86 10000 13 140 16:26 15.10.2020
6764 Rain 5 1004 86 10000 14 140 15:57 15.10.2020
6765 Rain 5 1004 86 10000 14 140 15:39 15.10.2020
6766 Rain 5 1005 93 10000 14 140 15:21 15.10.2020
6767 Rain 5 1005 93 10000 14 140 14:45 15.10.2020
6768 Rain 5 1005 93 10000 14 140 14:24 15.10.2020
6769 Rain 5 1006 86 10000 14 130 13:45 15.10.2020
6770 Rain 5 1006 86 10000 14 130 13:24 15.10.2020
6771 Rain 5 1007 86 10000 15 130 12:52 15.10.2020
6772 Rain 5 1007 86 10000 15 130 12:29 15.10.2020
6773 Rain 5 1008 86 10000 11 140 11:56 15.10.2020
6774 Rain 5 1008 86 10000 11 140 11:38 15.10.2020
6775 Rain 5 1009 80 10000 11 130 11:18 15.10.2020
6776 Rain 5 1009 80 10000 11 130 10:42 15.10.2020
6777 Rain 5 1009 80 10000 11 130 10:23 15.10.2020
6778 Rain 4</